# Wetter Temperatur Luftdruck Luftfeuchtigkeit Sichtweite Windgeschwindigkeit Windrichtung Zeit
1 Clouds 14 1018 72 10000 1 250 19:42 17.10.2019
2 Clouds 13 1018 72 10000 2.6 280 19:20 17.10.2019
3 Clouds 13 1018 72 10000 2.6 280 19:20 17.10.2019
4 Clouds 14 1018 77 10000 3.6 260 18:59 17.10.2019
5 Clouds 13 1018 77 10000 3.6 260 18:38 17.10.2019
6 Clouds 18 1018 77 10000 3.6 240 18:20 17.10.2019
7 Clouds 18 1018 77 10000 3.1 230 17:43 17.10.2019
8 Clouds 18 1018 77 10000 3.1 220 17:25 17.10.2019
9 Clouds 18 1018 72 10000 3.6 230 16:59 17.10.2019
10 Clouds 18 1018 72 10000 3.6 230 16:41 17.10.2019
11 Clouds 18 1018 72 10000 3.1 220 16:19 17.10.2019
12 -273 0 0 0 0 0 15:57 17.10.2019
13 Clouds 18 1019 77 10000 3.1 210 15:57 17.10.2019
14 Clouds 18 1019 77 10000 3.1 210 15:38 17.10.2019
15 Clouds 18 1019 77 10000 3.1 210 15:38 17.10.2019
16 Clouds 18 1019 77 10000 3.6 200 15:20 17.10.2019
17 Clouds 19 1019 77 10000 3.6 180 14:56 17.10.2019
18 Clouds 18 1019 77 10000 3.6 180 14:38 17.10.2019
19 Clouds 19 1019 77 10000 4.1 180 14:20 17.10.2019
20 Clouds 19 1019 72 10000 1.5 160 13:40 17.10.2019
21 Clouds 20 1019 68 10000 3.6 170 13:20 17.10.2019
22 Clouds 20 1020 64 10000 2.6 180 12:58 17.10.2019
23 Clouds 19 1020 64 10000 2.6 180 12:38 17.10.2019
24 Clouds 19 1020 60 10000 2.1 200 12:19 17.10.2019
25 Clouds 19 1020 60 10000 1 0 11:56 17.10.2019
26 Clouds 19 1020 60 10000 1 0 11:37 17.10.2019
27 Clouds 19 1020 63 10000 3.1 320 11:18 17.10.2019
28 Clouds 18 1020 68 10000 3.1 330 10:42 17.10.2019
29 Clouds 17 1020 72 10000 3.6 340 10:20 17.10.2019
30 Clouds 16 1020 72 10000 3.1 330 09:57 17.10.2019
31 Clouds 16 1020 72 10000 3.1 330 09:38 17.10.2019
32 Clouds 15 1019 72 10000 3.1 330 09:20 17.10.2019
33 Clouds 15 1019 77 10000 3.1 330 08:56 17.10.2019
34 Clouds 14 1019 77 10000 3.1 330 08:37 17.10.2019
35 Clouds 14 1019 77 10000 2.6 330 08:18 17.10.2019
36 Clouds 14 1019 77 10000 2.6 330 08:18 17.10.2019
37 Rain 14 1019 82 10000 3.1 340 07:43 17.10.2019
38 Rain 14 1019 87 10000 3.1 340 07:21 17.10.2019
39 Rain 14 1019 87 10000 4.6 330 06:56 17.10.2019
40 Rain 14 1019 87 10000 4.6 330 06:38 17.10.2019
41 Rain 14 1019 82 10000 4.1 330 06:19 17.10.2019
42 Clouds 14 1019 77 10000 4.6 320 05:41 17.10.2019
43 Clouds 15 1019 67 10000 4.1 300 05:20 17.10.2019
44 Clouds 14 1019 67 10000 4.6 320 04:50 17.10.2019
45 Clouds 15 1019 67 10000 4.6 330 03:50 17.10.2019
46 Clouds 15 1019 72 10000 4.6 320 02:35 17.10.2019
47 Clouds 14 1019 77 10000 3.6 310 00:44 17.10.2019
48 Clouds 14 1019 82 10000 4.1 320 00:22 17.10.2019
49 Clouds 14 1018 72 10000 3.1 320 23:59 16.10.2019
50 -273 0 0 0 0 0 23:41 16.10.2019
51 Clouds 15 1018 72 10000 3.6 330 23:20 16.10.2019
52 Clouds 15 1018 72 10000 3.6 320 22:55 16.10.2019
53 Clouds 15 1018 72 10000 3.6 320 22:55 16.10.2019
54 Clouds 15 1018 72 10000 3.6 320 22:36 16.10.2019
55 Clouds 15 1018 77 10000 4.1 320 22:18 16.10.2019
56 Clouds 15 1018 77 10000 2.6 310 21:55 16.10.2019
57 Clouds 15 1018 77 10000 2.6 310 21:37 16.10.2019
58 Clouds 15 1017 67 10000 3.1 320 21:18 16.10.2019
59 Clouds 15 1017 67 10000 3.1 320 21:18 16.10.2019
60 Clouds 16 1017 72 10000 1.5 330 20:56 16.10.2019
61 Clouds 16 1017 72 10000 1.5 330 20:38 16.10.2019
62 Clouds 16 1017 63 10000 2.1 300 20:20 16.10.2019
63 Clouds 16 1017 63 10000 2.1 300 20:20 16.10.2019
64 Clouds 17 1016 60 10000 4.1 30 19:56 16.10.2019
65 Clouds 15 1016 60 10000 4.1 30 19:38 16.10.2019
66 Clouds 15 1016 64 10000 4.6 60 19:19 16.10.2019
67 Clouds 15 1016 60 10000 3.6 60 18:39 16.10.2019
68 Clear 19 1016 60 10000 3.1 70 18:19 16.10.2019
69 Clear 20 1016 49 10000 2.1 90 17:56 16.10.2019
70 Clear 20 1016 49 10000 2.1 90 17:38 16.10.2019
71 Clear 20 1016 49 10000 2.1 90 17:38 16.10.2019
72 Clouds 20 1016 56 10000 3.1 150 17:19 16.10.2019
73 Clouds 20 1016 56 10000 3.1 150 17:19 16.10.2019
74 -273 0 0 0 0 0 16:58 16.10.2019
75 Clouds 21 1016 56 10000 2.6 100 16:39 16.10.2019
76 Clouds 21 1016 56 10000 1.5 90 16:20 16.10.2019
77 Clouds 21 1017 52 10000 1.5 130 15:55 16.10.2019
78 Clouds 21 1017 52 10000 1.5 130 15:36 16.10.2019
79 Clouds 21 1017 56 10000 3.1 150 15:18 16.10.2019
80 Clouds 21 1017 56 10000 4.1 170 14:56 16.10.2019
81 Clouds 21 1017 56 10000 4.1 170 14:38 16.10.2019
82 Clouds 20 1017 60 10000 4.1 180 14:18 16.10.2019
83 Clouds 20 1017 64 10000 4.6 180 13:56 16.10.2019
84 Clouds 20 1017 64 10000 4.6 180 13:37 16.10.2019
85 Clouds 20 1017 60 10000 3.1 190 13:18 16.10.2019
86 Clouds 20 1017 56 10000 2.6 190 12:41 16.10.2019
87 Clouds 19 1017 55 10000 1.5 260 12:18 16.10.2019
88 Clouds 19 1017 45 10000 3.1 330 11:43 16.10.2019
89 Clouds 18 1017 52 10000 4.1 320 11:18 16.10.2019
90 Clouds 17 1017 55 10000 4.6 330 10:40 16.10.2019
91 Clouds 16 1016 58 10000 4.6 330 10:22 16.10.2019
92 Clouds 15 1016 58 10000 4.1 340 09:58 16.10.2019
93 Clouds 15 1016 58 10000 4.1 340 09:38 16.10.2019
94 Clouds 12 1016 58 10000 4.6 340 09:20 16.10.2019
95 Clouds 11 1015 62 10000 3.6 340 08:43 16.10.2019
96 Clouds 12 1015 62 10000 2.6 350 08:25 16.10.2019
97 Clouds 11 1015 62 10000 3.6 350 07:56 16.10.2019
98 Clouds 11 1015 62 10000 3.6 350 07:38 16.10.2019
99 Clouds 11 1014 62 10000 5.1 340 07:20 16.10.2019
100 Clouds 11 1014 62 10000 6.7 320 06:40 16.10.2019
101 Clouds 11 1014 58 10000 5.7 330 06:19 16.10.2019
102 Clouds 12 1012 67 10000 4.1 260 03:46 16.10.2019
103 Clouds 12 1012 55 10000 1.5 0 02:50 16.10.2019
104 Clouds 12 1011 51 10000 2.6 320 01:20 16.10.2019
105 Clouds 12 1010 51 10000 7.7 270 00:57 16.10.2019
106 Clouds 12 1010 51 10000 7.7 270 00:37 16.10.2019
107 Clear 13 1010 51 10000 3.6 330 23:42 15.10.2019
108 Clear 16 1010 52 10000 7.2 280 23:22 15.10.2019
109 Clear 17 1010 59 10000 6.2 320 22:58 15.10.2019
110 Clear 17 1010 59 10000 6.2 320 22:40 15.10.2019
111 Clear 17 1010 48 10000 4.6 290 22:21 15.10.2019
112 Clear 17 1010 59 10000 3.1 300 21:57 15.10.2019
113 Clear 17 1010 59 10000 3.1 300 21:38 15.10.2019
114 Clear 17 1010 55 10000 7.2 250 21:20 15.10.2019
115 Clear 17 1010 55 10000 7.2 250 21:20 15.10.2019
116 Clear 17 1010 59 10000 8.7 240 20:58 15.10.2019
117 Clear 17 1010 59 10000 8.7 240 20:40 15.10.2019
118 Clear 17 1010 59 10000 8.2 230 20:22 15.10.2019
119 Clouds 17 1010 59 10000 9.3 240 19:59 15.10.2019
120 Clouds 15 1010 59 10000 9.3 240 19:41 15.10.2019
121 Clouds 15 1009 59 10000 8.7 240 19:20 15.10.2019
122 Clouds 15 1008 60 10000 11.3 240 18:57 15.10.2019
123 Clouds 15 1008 60 10000 11.3 240 18:39 15.10.2019
124 Clouds 19 1008 56 10000 11.3 240 18:20 15.10.2019
125 Rain 19 1009 52 10000 5.7 260 17:42 15.10.2019
126 Rain 19 1009 52 10000 5.7 260 17:42 15.10.2019
127 Clouds 20 1008 64 10000 8.2 230 17:21 15.10.2019
128 Clouds 20 1008 68 10000 7.2 220 16:59 15.10.2019
129 Clouds 20 1008 68 10000 7.2 220 16:41 15.10.2019
130 Clouds 20 1008 83 10000 5.1 200 16:21 15.10.2019
131 Clouds 20 1009 77 10000 3.6 200 15:55 15.10.2019
132 Clouds 20 1009 77 10000 3.6 200 15:37 15.10.2019
133 Clouds 19 1009 77 10000 3.6 240 15:19 15.10.2019
134 Clouds 19 1009 77 10000 1 0 14:55 15.10.2019
135 Clouds 19 1009 77 10000 1 0 14:36 15.10.2019
136 Clouds 18 1010 77 10000 1 0 14:18 15.10.2019
137 Rain 18 1009 88 10000 1.5 0 13:43 15.10.2019
138 Rain 17 1010 93 10000 2.6 330 13:20 15.10.2019
139 Rain 17 1011 93 10000 2.6 330 12:46 15.10.2019
140 Thunderstorm 17 1010 93 10000 1 0 12:23 15.10.2019
141 Thunderstorm 17 1011 88 1300 8.7 250 11:59 15.10.2019
142 Thunderstorm 17 1011 88 1300 8.7 250 11:41 15.10.2019
143 Thunderstorm 18 1010 88 10000 8.2 160 11:20 15.10.2019
144 Thunderstorm 18 1010 88 10000 8.2 160 11:20 15.10.2019
145 Clouds 19 1010 88 10000 8.2 150 10:55 15.10.2019
146 Thunderstorm 19 1010 88 10000 8.2 150 10:37 15.10.2019
147 Clouds 19 1010 88 10000 8.2 130 10:18 15.10.2019
148 Thunderstorm 20 1010 88 10000 8.2 120 09:40 15.10.2019
149 -273 0 0 0 0 0 09:40 15.10.2019
150 Clouds 20 1010 88 10000 6.7 100 09:21 15.10.2019
151 Clouds 20 1010 88 10000 7.7 130 08:58 15.10.2019
152 Clouds 20 1010 88 10000 7.7 130 08:58 15.10.2019
153 Clouds 21 1010 88 10000 7.7 130 08:40 15.10.2019
154 Thunderstorm 20 1011 94 4000 7.7 120 08:20 15.10.2019
155 Clouds 19 1010 88 10000 9.8 110 07:44 15.10.2019
156 Rain 19 1011 83 10000 9.8 110 07:23 15.10.2019
157 Rain 18 1011 78 10000 10.8 110 06:58 15.10.2019
158 Rain 18 1011 78 10000 10.8 110 06:39 15.10.2019
159 Rain 18 1012 82 3000 5.7 70 05:56 15.10.2019
160 Rain 18 1012 82 3000 5.7 70 05:37 15.10.2019
161 Thunderstorm 18 1012 77 10000 2.6 330 04:53 15.10.2019
162 Rain 19 1013 72 10000 2.6 340 04:19 15.10.2019
163 Clouds 19 1014 72 10000 3.1 360 03:35 15.10.2019
164 Clouds 19 1014 72 10000 3.6 330 03:35 15.10.2019
165 Clear 18 1015 77 10000 1.5 0 01:59 15.10.2019
166 Clear 18 1015 77 10000 1.5 0 01:40 15.10.2019
167 Clouds 19 1016 77 10000 1 0 00:59 15.10.2019
168 Clouds 19 1016 77 10000 2.1 330 00:26 15.10.2019
169 Clear 19 1016 77 10000 1.5 360 23:59 14.10.2019
170 Clear 19 1017 77 10000 2.1 350 23:38 14.10.2019
171 Clear 19 1017 77 10000 2.1 350 23:19 14.10.2019
172 Clear 19 1017 77 10000 2.1 350 23:19 14.10.2019
173 Clear 18 1017 73 10000 3.1 30 22:40 14.10.2019
174 Clear 18 1017 73 10000 3.1 30 22:40 14.10.2019
175 Clear 18 1017 68 10000 3.1 40 22:21 14.10.2019
176 Clouds 18 1017 73 10000 6.2 60 21:59 14.10.2019
177 Clouds 18 1017 73 10000 6.2 60 21:40 14.10.2019
178 Clouds 18 1017 73 10000 6.2 60 21:40 14.10.2019
179 Clouds 19 1017 78 10000 5.7 70 21:21 14.10.2019
180 Clouds 19 1017 78 10000 5.7 70 21:21 14.10.2019
181 Clouds 20 1017 78 10000 6.7 70 20:58 14.10.2019
182 Clouds 20 1017 78 10000 6.7 70 20:38 14.10.2019
183 -273 0 0 0 0 0 20:20 14.10.2019
184 Clouds 20 1017 78 10000 6.7 70 19:58 14.10.2019
185 Clouds 17 1017 78 10000 6.7 70 19:39 14.10.2019
186 Clouds 17 1017 78 10000 6.7 70 19:39 14.10.2019
187 Clouds 17 1017 78 10000 5.1 70 19:21 14.10.2019
188 Clouds 17 1017 78 10000 5.1 80 18:57 14.10.2019
189 Clouds 20 1017 78 10000 5.1 80 18:38 14.10.2019
190 Clouds 21 1017 78 10000 6.2 80 18:18 14.10.2019
191 Clouds 21 1017 78 10000 7.2 80 17:44 14.10.2019
192 Clouds 22 1017 73 10000 8.2 80 17:25 14.10.2019
193 Clouds 21 1017 73 10000 8.2 80 16:56 14.10.2019
194 Clouds 21 1017 73 10000 8.2 80 16:38 14.10.2019
195 Clouds 21 1017 73 10000 8.2 80 16:19 14.10.2019
196 Clouds 22 1018 73 10000 8.7 90 15:41 14.10.2019
197 Clouds 22 1018 69 10000 8.2 90 15:22 14.10.2019
198 Clouds 22 1018 73 10000 7.2 80 14:44 14.10.2019
199 Clouds 22 1019 73 10000 7.2 90 14:26 14.10.2019
200 Clouds 22 1019 69 10000 7.2 80 13:59 14.10.2019
201 Clouds 22 1019 69 10000 7.2 80 13:40 14.10.2019
202 Clouds 23 1019 73 10000 7.7 90 13:21 14.10.2019
203 Clouds 23 1020 73 10000 6.7 80 12:42 14.10.2019
204 Clouds 21 1020 73 10000 4.1 80 12:21 14.10.2019
205 Clouds 21 1020 73 10000 4.1 80 12:21 14.10.2019
206 Clouds 20 1020 69 10000 5.1 80 11:59 14.10.2019
207 Clouds 20 1020 69 10000 5.1 80 11:41 14.10.2019
208 Clouds 20 1020 64 10000 4.1 70 11:22 14.10.2019
209 Clouds 22 1020 60 10000 2.6 40 10:44 14.10.2019
210 Clouds 21 1020 64 10000 3.6 330 10:23 14.10.2019
211 Clouds 20 1020 64 10000 3.6 340 10:00 14.10.2019
212 Clouds 19 1020 64 10000 3.6 340 09:41 14.10.2019
213 Clouds 18 1020 68 10000 4.1 330 09:20 14.10.2019
214 Clouds 18 1020 68 10000 3.6 340 08:49 14.10.2019
215 Clouds 17 1020 72 10000 3.6 330 08:23 14.10.2019
216 Clouds 17 1020 72 10000 3.1 340 07:47 14.10.2019
217 Clouds 17 1020 72 10000 4.6 330 07:24 14.10.2019
218 Clouds 17 1020 72 10000 3.6 330 06:57 14.10.2019
219 Clouds 17 1020 72 10000 3.6 330 06:28 14.10.2019
220 Clouds 18 1020 72 10000 2.6 340 05:55 14.10.2019
221 Clouds 17 1020 82 10000 2.6 330 05:25 14.10.2019
222 Clouds 17 1020 77 10000 3.1 340 03:50 14.10.2019
223 Clouds 18 1021 77 10000 3.1 320 03:23 14.10.2019
224 Clouds 18 1021 82 10000 3.1 330 02:25 14.10.2019
225 Clouds 18 1021 77 10000 2.6 20 01:19 14.10.2019
226 Clouds 19 1021 72 10000 1.5 40 00:42 14.10.2019
227 Clouds 19 1022 73 10000 3.6 40 00:18 14.10.2019
228 Clouds 16 1022 73 10000 5.7 80 23:41 13.10.2019
229 Clouds 16 1021 73 10000 6.2 70 23:19 13.10.2019
230 Clouds 15 1021 73 10000 5.1 70 22:57 13.10.2019
231 Clouds 15 1021 73 10000 5.1 70 22:39 13.10.2019
232 Clouds 15 1021 73 10000 5.7 70 22:20 13.10.2019
233 Clouds 15 1021 73 10000 5.7 70 22:20 13.10.2019
234 Clouds 15 1021 77 10000 7.7 80 21:57 13.10.2019
235 Clouds 15 1021 77 10000 7.7 80 21:36 13.10.2019
236 Clouds 16 1021 77 10000 7.7 80 21:18 13.10.2019
237 Clouds 16 1021 77 10000 9.3 80 20:56 13.10.2019
238 Clouds 17 1021 77 10000 8.7 80 20:37 13.10.2019
239 Clouds 17 1021 77 10000 8.7 80 20:19 13.10.2019
240 Clouds 17 1021 83 10000 8.7 80 19:55 13.10.2019
241 Clouds 17 1021 83 10000 8.7 80 19:36 13.10.2019
242 Clouds 17 1021 83 10000 8.7 80 19:18 13.10.2019
243 Clouds 18 1021 83 10000 8.7 80 18:54 13.10.2019
244 Clouds 18 1021 83 10000 8.2 80 18:36 13.10.2019
245 Clouds 19 1021 83 10000 8.2 80 18:18 13.10.2019
246 Clouds 19 1021 78 10000 8.2 80 17:42 13.10.2019
247 Clouds 19 1021 78 10000 8.2 80 17:42 13.10.2019
248 Clouds 19 1021 78 10000 8.2 80 17:42 13.10.2019
249 Clouds 20 1021 78 10000 8.7 80 17:24 13.10.2019
250 Clouds 20 1021 78 10000 8.2 80 16:45 13.10.2019
251 Clouds 20 1021 73 10000 8.2 90 16:20 13.10.2019
252 Clouds 21 1021 73 10000 8.2 90 15:59 13.10.2019
253 Clouds 21 1021 73 10000 8.2 90 15:59 13.10.2019
254 Clouds 21 1021 73 10000 8.2 90 15:39 13.10.2019
255 Clouds 21 1021 73 10000 8.2 90 15:21 13.10.2019
256 Clouds 21 1022 69 10000 7.2 90 14:59 13.10.2019
257 Clouds 21 1022 69 10000 7.2 90 14:40 13.10.2019
258 Clouds 21 1022 69 10000 7.2 90 14:22 13.10.2019
259 Clouds 21 1022 73 10000 6.7 90 13:59 13.10.2019
260 Clouds 22 1022 73 10000 6.7 90 13:38 13.10.2019
261 Clouds 22 1022 73 10000 6.7 90 13:38 13.10.2019
262 Clouds 22 1022 68 10000 5.7 90 13:38 13.10.2019
263 Clouds 22 1022 68 10000 5.7 90 13:20 13.10.2019
264 Clouds 22 1022 68 10000 5.1 90 12:56 13.10.2019
265 Clouds 22 1022 68 10000 5.1 90 12:38 13.10.2019
266 Clouds 20 1023 64 10000 3.6 90 12:19 13.10.2019
267 Clear 21 1022 60 10000 1.5 0 11:58 13.10.2019
268 Clear 19 1022 60 10000 1.5 0 11:38 13.10.2019
269 Clear 19 1022 60 10000 1.5 0 11:38 13.10.2019
270 Clear 18 1022 56 10000 2.6 330 11:19 13.10.2019
271 Clear 18 1023 60 10000 3.6 330 10:42 13.10.2019
272 Clouds 19 1022 63 10000 3.6 330 10:23 13.10.2019
273 Clear 18 1022 68 10000 3.6 340 09:58 13.10.2019
274 Clear 18 1022 68 10000 3.6 340 09:38 13.10.2019
275 Clear 16 1022 72 10000 5.1 330 09:19 13.10.2019
276 Clear 16 1022 72 10000 4.6 330 08:43 13.10.2019
277 Clear 14 1022 72 10000 3.6 340 08:23 13.10.2019
278 Clear 14 1022 72 10000 4.1 340 07:50 13.10.2019
279 Clear 14 1022 72 10000 5.1 330 07:30 13.10.2019
280 Clear 14 1022 72 10000 5.1 340 06:49 13.10.2019
281 Clear 15 1022 72 10000 3.6 330 05:59 13.10.2019
282 Clear 15 1022 77 10000 4.1 330 04:59 13.10.2019
283 Clear 15 1022 77 10000 5.1 330 04:33 13.10.2019
284 Clear 15 1023 77 10000 4.6 330 02:50 13.10.2019
285 Clear 15 1023 77 10000 3.6 340 02:25 13.10.2019
286 Clear 15 1023 77 10000 4.1 330 01:34 13.10.2019
287 Clear 15 1023 77 10000 4.6 330 00:53 13.10.2019
288 Clear 15 1023 77 10000 4.1 330 00:23 13.10.2019
289 Clear 15 1023 77 10000 3.1 330 23:59 12.10.2019
290 Clear 15 1023 77 10000 3.1 330 23:41 12.10.2019
291 Clear 14 1023 77 10000 3.1 330 23:22 12.10.2019
292 Clear 14 1023 77 10000 3.1 330 22:58 12.10.2019
293 Clear 14 1023 77 10000 3.1 330 22:58 12.10.2019
294 Clear 14 1023 77 10000 3.1 330 22:40 12.10.2019
295 Clear 14 1023 77 10000 2.1 330 22:22 12.10.2019
296 Clear 14 1023 72 10000 2.6 320 21:57 12.10.2019
297 Clear 14 1023 72 10000 2.6 320 21:39 12.10.2019
298 Clear 15 1023 68 10000 2.1 20 21:20 12.10.2019
299 Clear 16 1023 72 10000 2.6 80 20:46 12.10.2019
300 Clear 16 1023 72 10000 2.6 80 20:46 12.10.2019
301 Clear 16 1023 72 10000 1.5 80 20:28 12.10.2019
302 Clouds 16 1022 72 10000 2.1 90 19:57 12.10.2019
303 Clear 17 1022 82 10000 1.01 47.255 19:36 12.10.2019
304 Clouds 17 1022 68 10000 1.5 90 19:18 12.10.2019
305 Clouds 17 1022 68 10000 1 110 18:42 12.10.2019
306 Clouds 17 1022 68 10000 1 120 18:24 12.10.2019
307 Clouds 18 1022 68 10000 2.1 130 17:46 12.10.2019
308 Clouds 19 1022 68 10000 2.1 120 17:21 12.10.2019
309 Clouds 18 1022 64 10000 2.1 150 16:58 12.10.2019
310 Clouds 19 1022 64 10000 2.1 150 16:40 12.10.2019
311 Clouds 18 1022 64 10000 2.1 140 16:20 12.10.2019
312 Clouds 20 1022 60 10000 2.1 140 15:56 12.10.2019
313 Clouds 20 1022 64 10000 2.6 130 15:37 12.10.2019
314 Clouds 20 1022 64 10000 2.6 130 15:18 12.10.2019
315 Clouds 19 1023 60 10000 1.5 130 14:39 12.10.2019
316 Clouds 19 1023 64 10000 2.1 120 14:20 12.10.2019
317 Clouds 19 1023 64 10000 2.1 120 13:50 12.10.2019
318 Clouds 19 1024 64 10000 2.1 140 13:32 12.10.2019
319 Clouds 20 1024 64 10000 2.1 140 12:55 12.10.2019
320 Clouds 20 1024 64 10000 1.5 140 12:37 12.10.2019
321 Clouds 17 1024 64 10000 1.5 140 12:19 12.10.2019
322 Clouds 18 1024 64 10000 1.5 0 11:43 12.10.2019
323 Clouds 18 1024 64 10000 1.5 0 11:43 12.10.2019
324 Clouds 17 1023 55 10000 3.6 320 11:22 12.10.2019
325 Clouds 18 1023 59 10000 4.6 330 10:58 12.10.2019
326 Clouds 18 1023 59 10000 4.6 330 10:39 12.10.2019
327 Clouds 17 1023 63 10000 4.6 330 10:20 12.10.2019
328 Clouds 17 1023 63 10000 4.6 330 10:20 12.10.2019
329 Clouds 16 1023 63 10000 5.7 330 09:57 12.10.2019
330 Clouds 16 1023 63 10000 5.7 330 09:57 12.10.2019
331 Clear 15 1023 67 10000 4.6 330 09:37 12.10.2019
332 Clear 14 1023 67 10000 4.6 330 09:19 12.10.2019
333 Clear 14 1023 67 10000 4.6 330 09:19 12.10.2019
334 Clear 14 1022 67 10000 5.1 330 08:44 12.10.2019
335 Clear 13 1022 71 10000 4.6 330 08:24 12.10.2019
336 Clear 12 1022 71 10000 4.6 330 07:50 12.10.2019
337 Clear 12 1022 67 10000 4.6 330 07:30 12.10.2019
338 Clear 13 1022 72 10000 4.6 330 06:27 12.10.2019
339 Clear 13 1022 72 10000 4.6 330 05:42 12.10.2019
340 Clear 13 1022 72 10000 3.6 340 04:34 12.10.2019
341 Clear 13 1023 72 10000 5.1 320 03:53 12.10.2019
342 Clear 13 1023 77 10000 3.6 330 02:50 12.10.2019
343 Clear 13 1023 77 10000 4.1 330 01:33 12.10.2019
344 Clear 14 1023 77 10000 3.6 330 00:56 12.10.2019
345 Clear 13 1023 77 10000 3.6 330 00:37 12.10.2019
346 Clear 13 1023 77 10000 3.1 330 23:55 11.10.2019
347 Clear 14 1023 77 10000 3.1 330 23:36 11.10.2019
348 Clear 14 1023 77 10000 2.1 340 23:18 11.10.2019
349 Clouds 13 1023 77 10000 3.6 320 22:38 11.10.2019
350 Clouds 13 1023 77 10000 3.6 320 22:19 11.10.2019
351 Clouds 15 1022 77 10000 2.6 310 21:44 11.10.2019
352 Clear 14 1022 72 10000 0.5 120 21:22 11.10.2019
353 Clear 14 1022 72 10000 1 0 20:59 11.10.2019
354 Clear 14 1022 72 10000 1 0 20:41 11.10.2019
355 Clear 15 1022 72 10000 1 130 20:23 11.10.2019
356 Clear 16 1022 72 10000 1.5 100 19:56 11.10.2019
357 Clouds 16 1022 64 10000 2.6 120 19:37 11.10.2019
358 Clouds 16 1022 64 10000 2.6 120 19:18 11.10.2019
359 Clouds 16 1022 64 10000 2.6 120 19:18 11.10.2019
360 Clouds 16 1022 64 10000 2.6 120 19:18 11.10.2019
361 Clouds 17 1022 64 10000 2.6 120 18:56 11.10.2019
362 Clouds 17 1022 60 10000 2.6 120 18:37 11.10.2019
363 Clouds 18 1022 60 10000 2.6 120 18:18 11.10.2019
364 Clouds 18 1022 60 10000 2.6 120 17:57 11.10.2019
365 Clouds 19 1022 60 10000 2.6 120 17:37 11.10.2019
366 Clouds 20 1022 56 10000 3.1 100 17:18 11.10.2019
367 Clouds 20 1022 56 10000 3.6 100 16:42 11.10.2019
368 Clouds 20 1022 56 10000 2.6 100 16:21 11.10.2019
369 Clear 21 1022 64 10000 3.1 170 15:59 11.10.2019
370 Clouds 21 1023 64 10000 3.1 110 15:39 11.10.2019
371 Clouds 20 1023 64 10000 3.1 110 15:19 11.10.2019
372 Clouds 20 1023 60 10000 2.6 120 14:49 11.10.2019
373 Clouds 21 1023 56 10000 3.1 110 14:30 11.10.2019
374 Clouds 20 1023 64 10000 3.1 110 13:58 11.10.2019
375 Clouds 21 1023 64 10000 3.1 110 13:40 11.10.2019
376 Clouds 21 1023 64 10000 3.6 120 13:21 11.10.2019
377 Clouds 21 1023 68 10000 3.1 120 12:56 11.10.2019
378 Clouds 21 1023 68 10000 3.1 120 12:38 11.10.2019
379 Clouds 19 1024 68 10000 2.1 100 12:19 11.10.2019
380 Clouds 20 1023 64 10000 1 0 11:41 11.10.2019
381 Clouds 20 1023 64 10000 1 0 11:41 11.10.2019
382 Clouds 17 1023 60 10000 0.5 0 11:22 11.10.2019
383 Clouds 20 1023 52 10000 3.1 330 10:59 11.10.2019
384 Clouds 20 1023 52 10000 3.1 330 10:59 11.10.2019
385 Clouds 19 1023 52 10000 3.1 330 10:41 11.10.2019
386 Clouds 19 1023 59 10000 3.6 330 10:23 11.10.2019
387 Clouds 18 1022 63 10000 3.6 330 09:57 11.10.2019
388 Clouds 17 1022 63 10000 3.6 330 09:38 11.10.2019
389 Clouds 16 1022 67 10000 4.6 340 09:20 11.10.2019
390 Clouds 15 1022 72 10000 6.2 330 08:55 11.10.2019
391 Clouds 14 1022 72 10000 6.2 330 08:37 11.10.2019
392 Clouds 14 1021 72 10000 4.6 330 08:19 11.10.2019
393 Clouds 13 1021 72 10000 3.6 340 07:44 11.10.2019
394 Clouds 13 1021 72 10000 3.6 340 07:44 11.10.2019
395 Clear 13 1021 72 10000 3.6 330 07:25 11.10.2019
396 Clear 13 1021 72 10000 4.6 330 06:49 11.10.2019
397 Clear 14 1021 72 10000 4.6 330 06:24 11.10.2019
398 Clear 14 1021 77 10000 4.6 330 05:41 11.10.2019
399 Clear 14 1021 72 10000 4.6 330 05:20 11.10.2019
400 Clear 14 1021 72 10000 3.1 330 04:28 11.10.2019
401 Clear 14 1020 77 10000 3.1 330 02:41 11.10.2019
402 Clear 15 1020 82 10000 4.1 330 00:52 11.10.2019
403 Clear 15 1019 82 10000 3.6 340 00:29 11.10.2019
404 Clear 15 1019 77 10000 3.1 340 23:48 10.10.2019
405 Clear 15 1019 82 10000 2.6 340 23:23 10.10.2019
406 Clear 14 1019 82 10000 4.1 320 22:59 10.10.2019
407 Clear 14 1019 82 10000 4.1 320 22:40 10.10.2019
408 Clear 13 1018 77 10000 3.1 320 22:21 10.10.2019
409 Clear 13 1018 77 10000 3.1 320 22:21 10.10.2019
410 Clear 13 1018 77 10000 3.1 320 22:21 10.10.2019
411 Clear 13 1018 77 10000 3.1 320 22:21 10.10.2019
412 Clear 14 1018 77 10000 2.6 320 21:59 10.10.2019
413 Clear 14 1018 77 10000 2.6 320 21:40 10.10.2019
414 Clear 14 1018 77 10000 2.6 320 21:40 10.10.2019
415 Clear 15 1018 77 10000 1.5 0 21:22 10.10.2019
416 Clear 14 1017 77 10000 0.9 58.405 20:57 10.10.2019
417 Clear 16 1017 77 10000 0.9 58.405 20:39 10.10.2019
418 Clear 16 1017 72 10000 0.9 58.405 20:19 10.10.2019
419 Clear 16 1017 72 10000 0.9 58.405 20:19 10.10.2019
420 Clouds 16 1017 72 10000 1 0 19:55 10.10.2019
421 Clouds 16 1016 72 10000 1 110 19:37 10.10.2019
422 Clouds 16 1016 72 10000 1 110 19:19 10.10.2019
423 Clouds 19 1016 72 10000 1 120 18:42 10.10.2019
424 Clouds 18 1016 68 10000 1.5 0 18:20 10.10.2019
425 Clouds 18 1016 68 10000 2.6 140 17:57 10.10.2019
426 Clouds 20 1016 68 10000 2.6 140 17:37 10.10.2019
427 Clouds 21 1015 68 10000 2.1 120 17:18 10.10.2019
428 Clouds 21 1015 68 10000 2.1 120 17:18 10.10.2019
429 Clouds 20 1015 64 10000 1.5 150 16:55 10.10.2019
430 Clouds 20 1015 64 10000 1.5 150 16:37 10.10.2019
431 Clouds 20 1015 64 10000 2.1 160 16:18 10.10.2019
432 Clouds 21 1015 64 10000 2.6 170 15:39 10.10.2019
433 Clouds 21 1015 64 10000 3.1 180 15:21 10.10.2019
434 Clouds 21 1015 64 10000 3.1 180 14:56 10.10.2019
435 Clouds 21 1015 64 10000 2.6 190 14:37 10.10.2019
436 Clouds 21 1015 64 10000 2.6 190 14:19 10.10.2019
437 Clouds 21 1015 68 10000 2.6 190 13:55 10.10.2019
438 Clouds 21 1015 68 10000 2.6 190 13:37 10.10.2019
439 Clouds 21 1015 68 10000 2.6 190 13:18 10.10.2019
440 Clouds 21 1015 68 10000 2.1 240 12:42 10.10.2019
441 Clouds 18 1016 60 10000 2.1 260 12:21 10.10.2019
442 Clouds 19 1015 52 10000 2.1 310 11:58 10.10.2019
443 Clouds 18 1015 52 10000 2.1 310 11:40 10.10.2019
444 Clouds 17 1015 42 10000 4.1 320 11:19 10.10.2019
445 Clouds 19 1015 45 10000 5.1 320 10:47 10.10.2019
446 Clouds 18 1015 45 10000 5.1 320 10:28 10.10.2019
447 Clouds 16 1014 48 10000 5.1 330 09:59 10.10.2019
448 Clouds 16 1014 48 10000 5.1 330 09:41 10.10.2019
449 Clouds 15 1014 51 10000 5.7 330 09:23 10.10.2019
450 Clouds 13 1014 51 10000 5.1 330 08:59 10.10.2019
451 Clouds 13 1014 51 10000 5.1 330 08:59 10.10.2019
452 Clouds 13 1014 51 10000 5.1 330 08:39 10.10.2019
453 Clouds 13 1013 54 10000 5.7 330 08:20 10.10.2019
454 Clouds 12 1013 54 10000 4.6 330 07:47 10.10.2019
455 Clouds 12 1013 51 10000 4.6 330 07:26 10.10.2019
456 Clouds 12 1013 51 10000 4.6 330 06:55 10.10.2019
457 Clouds 12 1013 54 10000 3.6 340 06:36 10.10.2019
458 Clouds 14 1013 54 10000 4.1 330 05:50 10.10.2019
459 Clouds 13 1013 55 10000 3.6 340 05:19 10.10.2019
460 Clouds 14 1013 59 10000 5.7 320 04:35 10.10.2019
461 Clouds 15 1014 72 10000 3.6 320 02:42 10.10.2019
462 Clear 14 1013 77 10000 1 0 01:38 10.10.2019
463 Clear 14 1013 77 10000 1 0 01:18 10.10.2019
464 Clear 14 1013 82 10000 2.6 320 00:39 10.10.2019
465 Clear 17 1012 77 10000 3.1 320 23:57 09.10.2019
466 Clear 17 1012 77 10000 3.1 320 23:36 09.10.2019
467 Clear 17 1012 77 10000 2.6 310 23:18 09.10.2019
468 Clear 15 1012 77 10000 2.1 340 22:41 09.10.2019
469 Clear 15 1012 68 10000 2.6 350 22:22 09.10.2019
470 Clear 16 1012 60 10000 2.6 270 21:58 09.10.2019
471 Clear 15 1012 60 10000 2.6 270 21:39 09.10.2019
472 Clear 18 1012 60 10000 6.7 260 21:19 09.10.2019
473 Clear 18 1012 64 10000 8.2 240 20:55 09.10.2019
474 Clear 18 1012 64 10000 8.2 240 20:37 09.10.2019
475 Clear 18 1012 64 10000 9.3 240 20:18 09.10.2019
476 Clear 18 1012 64 10000 9.3 240 20:18 09.10.2019
477 Clouds 17 1012 64 10000 9.8 230 19:45 09.10.2019
478 Clouds 17 1012 64 10000 8.2 240 19:23 09.10.2019
479 Clouds 17 1012 64 10000 6.7 240 18:58 09.10.2019
480 Clouds 17 1012 64 10000 6.7 240 18:37 09.10.2019
481 Clouds 19 1012 78 10000 7.2 210 18:18 09.10.2019
482 Clouds 19 1013 73 10000 7.7 220 17:55 09.10.2019
483 Clouds 20 1013 77 10000 7.2 210 17:36 09.10.2019
484 Clouds 20 1013 77 10000 7.2 210 17:18 09.10.2019
485 Clouds 20 1014 77 10000 5.1 220 16:40 09.10.2019
486 Clouds 20 1014 77 10000 5.7 220 16:22 09.10.2019
487 Clouds 20 1015 77 10000 5.7 200 15:58 09.10.2019
488 Clouds 20 1015 77 10000 5.7 200 15:39 09.10.2019
489 Clouds 20 1015 77 10000 4.1 210 15:20 09.10.2019
490 Clouds 20 1015 73 10000 5.1 200 14:58 09.10.2019
491 Clouds 20 1015 73 10000 5.1 200 14:40 09.10.2019
492 Clouds 21 1015 73 10000 4.6 210 14:18 09.10.2019
493 Clouds 21 1016 68 10000 4.1 200 13:40 09.10.2019
494 Clouds 21 1016 68 10000 2.6 200 13:21 09.10.2019
495 Clouds 20 1017 68 10000 2.1 180 12:59 09.10.2019
496 Clouds 20 1017 68 10000 2.1 180 12:41 09.10.2019
497 Clouds 20 1017 64 10000 1 0 12:21 09.10.2019
498 Clouds 20 1017 64 10000 2.1 320 11:55 09.10.2019
499 Clouds 20 1017 64 10000 2.1 320 11:37 09.10.2019
500 Clouds 19 1018 60 10000 2.1 310 11:19 09.10.2019
501 Clouds 19 1017 60 10000 4.1 330 10:44 09.10.2019
502 Clouds 18 1017 63 10000 4.6 330 10:22 09.10.2019
503 Clouds 17 1017 67 10000 3.6 330 09:59 09.10.2019
504 Clouds 17 1017 67 10000 3.6 330 09:41 09.10.2019
505 Clouds 17 1017 67 10000 3.6 330 09:41 09.10.2019
506 Clouds 15 1017 67 10000 4.1 330 09:19 09.10.2019
507 Clouds 15 1017 72 10000 3.6 330 08:55 09.10.2019
508 Clouds 15 1017 72 10000 3.6 330 08:37 09.10.2019
509 Clouds 14 1017 72 10000 4.6 330 08:18 09.10.2019
510 Clouds 14 1017 72 10000 4.6 330 07:40 09.10.2019
511 Clouds 13 1017 77 10000 4.1 330 07:22 09.10.2019
512 Clouds 13 1017 77 10000 4.1 330 06:52 09.10.2019
513 Clouds 13 1017 77 10000 4.1 330 06:52 09.10.2019
514 Clouds 14 1017 77 10000 3.6 330 06:20 09.10.2019
515 Clouds 14 1017 77 10000 4.1 330 05:46 09.10.2019
516 Clouds 13 1017 72 10000 4.1 330 04:27 09.10.2019
517 Clouds 14 1017 72 10000 4.1 330 02:54 09.10.2019
518 Clouds 14 1017 77 10000 3.1 330 01:44 09.10.2019
519 Clouds 14 1018 72 10000 3.6 330 01:21 09.10.2019
520 Clouds 14 1018 72 10000 3.6 330 01:21 09.10.2019
521 Clear 14 1018 72 10000 3.1 330 00:57 09.10.2019
522 Clear 15 1018 72 10000 3.1 330 00:39 09.10.2019
523 Clear 14 1018 72 10000 3.1 330 00:20 09.10.2019
524 Clear 15 1018 72 10000 2.6 330 23:57 08.10.2019
525 Clear 15 1018 72 10000 2.6 330 23:36 08.10.2019
526 Clear 15 1018 72 10000 2.6 330 23:18 08.10.2019
527 Clouds 14 1018 68 10000 2.6 330 22:39 08.10.2019
528 Clouds 14 1018 68 10000 2.6 320 22:20 08.10.2019
529 Clouds 14 1018 72 10000 2.1 320 21:57 08.10.2019
530 Clouds 14 1018 72 10000 2.1 320 21:39 08.10.2019
531 Clouds 16 1018 68 10000 2.1 300 21:19 08.10.2019
532 Clear 16 1018 72 10000 4.1 220 20:57 08.10.2019
533 Clear 16 1017 64 10000 3.6 210 20:39 08.10.2019
534 Clear 16 1017 64 10000 3.6 210 20:21 08.10.2019
535 Clear 17 1017 60 10000 3.6 210 19:58 08.10.2019
536 Clear 18 1017 60 10000 3.6 210 19:40 08.10.2019
537 Clear 17 1017 64 10000 4.1 210 19:21 08.10.2019
538 Clear 19 1017 60 10000 4.1 210 18:55 08.10.2019
539 Clear 19 1017 60 10000 4.1 210 18:55 08.10.2019
540 Clear 18 1017 60 10000 4.1 210 18:36 08.10.2019
541 Clear 18 1017 60 10000 4.6 210 18:18 08.10.2019
542 Clear 19 1017 60 10000 4.1 200 17:55 08.10.2019
543 Clear 19 1017 60 10000 4.1 200 17:36 08.10.2019
544 Clear 20 1017 60 10000 4.6 190 17:18 08.10.2019
545 Clear 21 1017 60 10000 4.6 190 16:40 08.10.2019
546 Clear 21 1017 56 10000 4.6 190 16:22 08.10.2019
547 Clear 21 1017 60 10000 4.6 190 15:56 08.10.2019
548 Clear 20 1017 64 10000 4.1 180 15:37 08.10.2019
549 Clear 20 1017 64 10000 4.1 180 15:19 08.10.2019
550 Clear 20 1018 64 10000 4.1 190 14:42 08.10.2019
551 Clear 20 1018 60 10000 3.6 170 14:21 08.10.2019
552 Clear 21 1018 56 10000 3.1 160 13:57 08.10.2019
553 Clear 20 1018 56 10000 3.1 160 13:39 08.10.2019
554 Clear 20 1019 56 10000 3.1 170 13:20 08.10.2019
555 Clear 20 1019 56 10000 2.6 150 12:59 08.10.2019
556 Clear 20 1019 56 10000 2.6 150 12:38 08.10.2019
557 Clear 19 1019 60 10000 2.1 150 12:19 08.10.2019
558 Clear 20 1019 49 10000 1 0 11:43 08.10.2019
559 Clear 20 1019 43 10000 2.6 330 11:24 08.10.2019
560 Clear 19 1019 45 10000 3.6 330 10:59 08.10.2019
561 Clear 19 1019 45 10000 3.6 330 10:40 08.10.2019
562 Clear 19 1018 48 10000 4.6 330 10:21 08.10.2019
563 Clear 18 1018 51 10000 5.1 330 09:58 08.10.2019
564 Clear 16 1018 51 10000 5.1 330 09:39 08.10.2019
565 Clear 15 1018 55 10000 5.1 330 09:20 08.10.2019
566 Clear 13 1018 58 10000 5.1 330 08:44 08.10.2019
567 Clear 12 1017 58 10000 5.1 330 08:25 08.10.2019
568 Clear 11 1017 54 10000 5.7 330 07:47 08.10.2019
569 Clear 11 1017 54 10000 6.2 330 07:23 08.10.2019
570 Clear 11 1017 58 10000 4.6 340 06:57 08.10.2019
571 Clear 11 1017 58 10000 4.6 340 06:36 08.10.2019
572 Clear 13 1017 58 10000 4.6 340 05:59 08.10.2019
573 Clear 13 1017 58 10000 4.6 340 05:40 08.10.2019
574 Clear 14 1017 58 10000 4.6 340 05:40 08.10.2019
575 Clear 14 1017 58 10000 4.6 330 04:56 08.10.2019
576 Clear 14 1017 55 10000 4.6 330 03:31 08.10.2019
577 Clear 15 1017 59 10000 4.1 330 02:41 08.10.2019
578 Clear 15 1016 55 10000 4.1 340 01:58 08.10.2019
579 Clear 15 1016 55 10000 4.1 340 01:40 08.10.2019
580 Clear 13 1016 55 10000 4.6 320 00:55 08.10.2019
581 Clear 16 1016 55 10000 5.1 330 00:23 08.10.2019
582 Clear 16 1016 55 10000 5.1 320 23:56 07.10.2019
583 Clear 16 1016 55 10000 5.1 320 23:37 07.10.2019
584 Clear 16 1016 52 10000 5.1 320 23:19 07.10.2019
585 Clear 14 1015 52 10000 4.6 320 22:54 07.10.2019
586 Clear 14 1015 52 10000 4.1 320 22:36 07.10.2019
587 Clear 14 1015 52 10000 4.1 320 22:18 07.10.2019
588 Clear 15 1015 52 10000 3.6 280 21:54 07.10.2019
589 Clear 17 1015 49 10000 3.6 290 21:36 07.10.2019
590 Clear 17 1015 49 10000 3.6 290 21:18 07.10.2019
591 Clear 17 1014 52 10000 4.1 290 20:54 07.10.2019
592 Clear 18 1014 52 10000 3.6 290 20:36 07.10.2019
593 Clear 18 1014 52 10000 3.6 290 20:18 07.10.2019
594 Clear 14 1013 49 10000 4.1 260 19:41 07.10.2019
595 Clear 20 1013 43 10000 4.6 240 19:20 07.10.2019
596 Clear 15 1013 49 10000 3.6 230 18:59 07.10.2019
597 Clear 15 1013 49 10000 3.6 230 18:59 07.10.2019
598 Clear 15 1013 49 10000 3.6 230 18:40 07.10.2019
599 Clear 21 1012 43 10000 4.6 230 18:19 07.10.2019
600 Clear 21 1012 43 10000 4.6 230 18:19 07.10.2019
601 Clear 22 1012 40 10000 4.1 220 17:56 07.10.2019
602 Clear 22 1012 40 10000 4.1 220 17:38 07.10.2019
603 Clear 22 1012 46 10000 3.6 220 17:18 07.10.2019
604 Clouds 22 1011 46 10000 3.1 200 16:44 07.10.2019
605 Clouds 22 1011 43 10000 3.1 180 16:25 07.10.2019
606 Clouds 23 1011 49 10000 3.6 180 15:57 07.10.2019
607 Clouds 23 1011 53 10000 5.7 180 15:38 07.10.2019
608 Clouds 23 1011 53 10000 5.7 180 15:20 07.10.2019
609 Clear 23 1010 38 10000 4.1 160 14:41 07.10.2019
610 Clear 23 1010 53 10000 6.7 180 14:23 07.10.2019
611 Clear 23 1010 56 10000 6.2 200 13:45 07.10.2019
612 Clear 23 1010 44 10000 2.1 210 13:21 07.10.2019
613 Clouds 22 1010 46 10000 4.1 240 12:58 07.10.2019
614 Clouds 22 1010 46 10000 4.1 240 12:58 07.10.2019
615 Clouds 22 1010 46 10000 4.1 240 12:40 07.10.2019
616 Clouds 21 1010 49 10000 4.1 260 12:21 07.10.2019
617 Clouds 21 1010 53 10000 4.6 250 11:59 07.10.2019
618 Clouds 19 1010 53 10000 4.6 250 11:40 07.10.2019
619 Clouds 20 1009 56 10000 5.1 250 11:21 07.10.2019
620 Clouds 20 1009 64 10000 2.6 260 10:57 07.10.2019
621 Clouds 19 1009 64 10000 2.6 260 10:39 07.10.2019
622 Clouds 19 1008 68 10000 2.1 300 10:20 07.10.2019
623 Clouds 18 1008 68 10000 3.6 320 09:39 07.10.2019
624 Clouds 18 1008 68 10000 3.6 320 09:39 07.10.2019
625 Clouds 16 1007 68 10000 1 300 09:21 07.10.2019
626 Clouds 15 1006 72 10000 2.1 300 08:44 07.10.2019
627 Clouds 15 1005 67 10000 1 0 08:21 07.10.2019
628 Rain 14 1005 87 10000 1 0 07:56 07.10.2019
629 Rain 14 1005 87 10000 1 0 07:38 07.10.2019
630 Clouds 15 1004 77 10000 2.6 330 07:19 07.10.2019
631 Clouds 15 1003 77 10000 4.6 320 06:43 07.10.2019
632 Clouds 15 1003 77 10000 5.1 330 06:22 07.10.2019
633 Clouds 15 1003 77 10000 4.6 330 05:27 07.10.2019
634 Clouds 15 1003 77 10000 4.6 320 04:56 07.10.2019
635 Clouds 15 1004 77 10000 3.6 330 04:19 07.10.2019
636 Clouds 15 1004 82 10000 2.6 330 03:39 07.10.2019
637 Clouds 15 1005 82 10000 3.6 330 03:39 07.10.2019
638 Clouds 15 1006 77 10000 3.1 330 02:55 07.10.2019
639 Clouds 16 1007 77 10000 3.6 330 02:20 07.10.2019
640 Clouds 16 1007 77 10000 3.6 320 01:42 07.10.2019
641 Clouds 16 1007 77 10000 2.6 330 01:18 07.10.2019
642 Clouds 16 1009 77 10000 2.6 330 00:38 07.10.2019
643 Clouds 16 1009 77 10000 2.6 330 00:19 07.10.2019
644 Clouds 16 1009 77 10000 2.1 350 23:42 06.10.2019
645 Clouds 17 1009 72 10000 2.6 10 23:21 06.10.2019
646 Clouds 13 1010 72 10000 1.5 330 22:58 06.10.2019
647 Clouds 15 1010 72 10000 1.5 330 22:40 06.10.2019
648 Clouds 13 1010 77 10000 1 0 22:21 06.10.2019
649 Clouds 13 1010 77 10000 1.49 347.555 21:57 06.10.2019
650 Clouds 14 1010 77 10000 1.49 347.555 21:37 06.10.2019
651 Clouds 16 1011 72 10000 0.7 44.136 21:19 06.10.2019
652 Clear 16 1011 72 10000 0.5 0 20:57 06.10.2019
653 Clear 18 1011 72 10000 0.5 0 20:39 06.10.2019
654 Clear 18 1011 72 10000 0.5 200 20:20 06.10.2019
655 Clouds 15 1011 68 10000 1 0 19:57 06.10.2019
656 Clouds 15 1011 68 10000 1 0 19:57 06.10.2019
657 Clouds 15 1011 72 10000 1.5 0 19:37 06.10.2019
658 Clouds 15 1011 72 10000 1.5 0 19:19 06.10.2019
659 Clouds 15 1011 72 10000 2.1 150 18:56 06.10.2019
660 Clouds 15 1011 72 10000 2.1 150 18:38 06.10.2019
661 Clouds 15 1011 72 10000 2.1 150 18:38 06.10.2019
662 Clouds 19 1012 68 10000 2.6 170 18:19 06.10.2019
663 Clouds 20 1012 64 10000 2.6 170 17:57 06.10.2019
664 Clouds 20 1012 64 10000 2.6 170 17:38 06.10.2019
665 Clouds 20 1012 64 10000 2.6 180 17:18 06.10.2019
666 Clouds 20 1012 68 10000 2.6 170 16:42 06.10.2019
667 Clouds 20 1012 68 10000 2.6 160 16:23 06.10.2019
668 Clouds 20 1012 73 10000 3.1 160 15:45 06.10.2019
669 Clouds 21 1012 73 10000 3.6 160 15:23 06.10.2019
670 Clouds 20 1012 68 10000 3.6 150 14:59 06.10.2019
671 Clouds 21 1012 68 10000 3.6 150 14:41 06.10.2019
672 Clouds 21 1013 68 10000 3.6 150 14:23 06.10.2019
673 Clouds 22 1013 64 10000 3.1 160 13:56 06.10.2019
674 Clouds 22 1013 60 10000 2.6 160 13:37 06.10.2019
675 Clouds 21 1013 60 10000 2.6 160 13:19 06.10.2019
676 Clouds 22 1013 60 10000 2.1 170 12:56 06.10.2019
677 Clouds 22 1013 60 10000 2.1 170 12:37 06.10.2019
678 Clouds 21 1013 56 10000 2.6 180 12:19 06.10.2019
679 Clouds 21 1014 49 10000 1.5 0 11:55 06.10.2019
680 Clouds 21 1013 52 10000 1.5 0 11:36 06.10.2019
681 Clouds 21 1013 52 10000 1.5 0 11:18 06.10.2019
682 Clouds 20 1013 52 10000 2.6 330 10:42 06.10.2019
683 Clouds 19 1013 55 10000 4.6 330 10:24 06.10.2019
684 Clouds 17 1013 59 10000 4.1 330 09:42 06.10.2019
685 Clouds 16 1013 63 10000 3.6 330 09:21 06.10.2019
686 Clouds 16 1013 63 10000 3.6 330 09:21 06.10.2019
687 Clouds 15 1013 63 10000 3.6 340 08:59 06.10.2019
688 Clouds 15 1013 63 10000 3.6 340 08:40 06.10.2019
689 Clouds 14 1013 63 10000 4.1 340 08:20 06.10.2019
690 Clouds 14 1013 63 10000 5.1 330 07:44 06.10.2019
691 Clouds 13 1012 67 10000 3.1 330 07:18 06.10.2019
692 Clear 14 1012 67 10000 3.1 330 06:20 06.10.2019
693 Clear 14 1012 63 10000 3.6 340 05:28 06.10.2019
694 Clear 15 1012 67 10000 2.6 330 03:35 06.10.2019
695 Clear 15 1012 67 10000 3.6 340 02:42 06.10.2019
696 Clear 15 1011 68 10000 3.1 330 02:20 06.10.2019
697 Clear 15 1011 72 10000 3.6 320 01:40 06.10.2019
698 Clear 15 1011 77 10000 4.1 340 01:21 06.10.2019
699 Clear 16 1012 77 10000 3.6 330 00:46 06.10.2019
700 Clear 16 1012 82 10000 3.1 320 00:25 06.10.2019
701 Clear 16 1012 82 10000 3.1 330 23:44 05.10.2019
702 Clear 16 1011 82 10000 3.1 320 23:22 05.10.2019
703 Clear 16 1011 82 10000 2.6 330 22:58 05.10.2019
704 Clear 15 1011 82 10000 2.6 330 22:40 05.10.2019
705 Clear 16 1011 77 10000 1.5 340 22:20 05.10.2019
706 Clear 16 1011 77 10000 1.5 340 22:20 05.10.2019
707 Clear 16 1011 72 10000 1 0 21:56 05.10.2019
708 Clear 16 1011 72 10000 1 0 21:38 05.10.2019
709 Clear 17 1011 72 10000 1 160 21:18 05.10.2019
710 Clear 17 1010 77 10000 1.5 340 20:55 05.10.2019
711 Clear 17 1010 77 10000 1 0 20:37 05.10.2019
712 Clouds 18 1010 77 10000 1 160 20:18 05.10.2019
713 Clouds 15 1010 73 10000 1 180 19:37 05.10.2019
714 Clear 16 1010 73 10000 2.6 190 19:19 05.10.2019
715 Clouds 16 1009 68 10000 1.5 100 18:55 05.10.2019
716 Clouds 19 1009 68 10000 3.1 140 18:37 05.10.2019
717 Clouds 20 1009 68 10000 3.1 140 18:19 05.10.2019
718 Clouds 20 1009 68 10000 2.6 160 17:43 05.10.2019
719 Clouds 20 1009 68 10000 3.1 180 17:24 05.10.2019
720 Clouds 21 1009 68 10000 3.1 180 16:57 05.10.2019
721 Clouds 21 1009 68 10000 3.1 180 16:39 05.10.2019
722 Clouds 21 1009 68 10000 3.6 180 16:20 05.10.2019
723 Clouds 21 1009 64 10000 4.1 180 15:57 05.10.2019
724 Clouds 21 1009 64 10000 3.6 170 15:38 05.10.2019
725 Clouds 21 1009 64 10000 3.6 170 15:20 05.10.2019
726 Clouds 21 1009 64 10000 4.1 170 14:44 05.10.2019
727 Clouds 21 1009 64 10000 4.1 170 14:25 05.10.2019
728 Clouds 21 1010 64 10000 4.1 180 13:59 05.10.2019
729 Clouds 22 1010 64 10000 4.1 180 13:40 05.10.2019
730 Clouds 21 1010 68 10000 4.1 190 13:20 05.10.2019
731 Clouds 21 1010 64 10000 3.6 200 12:44 05.10.2019
732 Clouds 21 1010 64 10000 3.6 200 12:19 05.10.2019
733 Clouds 20 1010 64 10000 1.5 220 11:44 05.10.2019
734 Clouds 20 1010 60 10000 2.1 320 11:23 05.10.2019
735 Clouds 20 1009 60 10000 3.6 330 10:59 05.10.2019
736 Clouds 20 1009 60 10000 3.6 330 10:40 05.10.2019
737 Clouds 20 1009 60 10000 3.6 330 10:40 05.10.2019
738 Clouds 18 1009 68 10000 4.1 330 10:21 05.10.2019
739 Clouds 17 1009 67 10000 4.1 330 09:56 05.10.2019
740 Clouds 16 1009 67 10000 4.6 330 09:37 05.10.2019
741 Clouds 13 1009 67 10000 4.6 330 09:19 05.10.2019
742 Clouds 14 1009 72 10000 4.1 340 08:39 05.10.2019
743 Clouds 14 1008 72 10000 4.6 330 08:19 05.10.2019
744 Clouds 14 1008 77 10000 5.1 330 07:52 05.10.2019
745 Clouds 14 1008 77 10000 4.1 330 07:31 05.10.2019
746 Clouds 12 1008 77 10000 5.7 320 06:57 05.10.2019
747 Clouds 14 1008 72 10000 4.6 330 06:26 05.10.2019
748 Clouds 14 1008 77 10000 4.1 320 05:40 05.10.2019
749 Clouds 11 1008 77 10000 3.6 340 03:41 05.10.2019
750 Clouds 15 1008 77 10000 3.6 340 03:41 05.10.2019
751 Clouds 15 1008 77 10000 3.6 330 03:22 05.10.2019
752 Clouds 15 1008 77 10000 3.1 330 01:41 05.10.2019
753 Clouds 15 1009 77 10000 4.1 330 01:18 05.10.2019
754 Clouds 15 1009 77 10000 2.6 350 00:41 05.10.2019
755 Clouds 15 1009 82 10000 2.6 330 00:23 05.10.2019
756 Clouds 15 1009 77 10000 3.1 330 23:44 04.10.2019
757 Clouds 15 1009 77 10000 3.6 320 23:25 04.10.2019
758 Clouds 15 1009 77 10000 3.6 320 23:25 04.10.2019
759 Clouds 16 1009 82 10000 3.6 320 22:59 04.10.2019
760 Clouds 13 1009 82 10000 3.6 320 22:39 04.10.2019
761 Clouds 13 1009 82 10000 2.6 320 22:20 04.10.2019
762 Clouds 14 1009 77 10000 2.1 330 21:57 04.10.2019
763 Clouds 14 1009 77 10000 2.1 330 21:38 04.10.2019
764 Clear 14 1009 77 10000 1.5 20 21:19 04.10.2019
765 Clear 14 1009 77 10000 2.6 80 20:54 04.10.2019
766 Clear 15 1009 72 10000 2.1 70 20:36 04.10.2019
767 Clear 17 1009 72 10000 2.1 70 20:18 04.10.2019
768 Clouds 18 1009 68 10000 2.6 90 19:45 04.10.2019
769 Clouds 18 1009 68 10000 2.6 70 19:26 04.10.2019
770 Clouds 18 1009 68 10000 2.6 100 18:57 04.10.2019
771 Clouds 16 1009 68 10000 3.6 120 18:38 04.10.2019
772 Clouds 17 1009 68 10000 3.6 120 18:19 04.10.2019
773 Clouds 17 1009 68 10000 3.6 120 18:19 04.10.2019
774 Clouds 18 1009 68 10000 4.1 150 17:54 04.10.2019
775 Clouds 19 1010 68 10000 4.1 160 17:36 04.10.2019
776 Clouds 19 1010 68 10000 4.1 160 17:18 04.10.2019
777 Clouds 19 1010 68 10000 4.6 180 16:41 04.10.2019
778 Clouds 19 1010 68 10000 4.6 180 16:19 04.10.2019
779 Clouds 20 1011 68 10000 4.6 190 15:58 04.10.2019
780 Clouds 20 1011 68 10000 4.6 190 15:40 04.10.2019
781 Clouds 19 1011 64 10000 5.7 190 15:21 04.10.2019
782 Clouds 19 1012 64 10000 5.7 180 14:59 04.10.2019
783 Clouds 19 1012 64 10000 5.7 180 14:41 04.10.2019
784 Clear 20 1012 64 10000 4.1 160 14:21 04.10.2019
785 Clear 19 1012 68 10000 4.1 140 13:46 04.10.2019
786 Clear 20 1013 64 10000 2.6 140 13:25 04.10.2019
787 Clear 19 1013 56 10000 2.6 160 12:59 04.10.2019
788 Clear 18 1013 56 10000 2.6 160 12:41 04.10.2019
789 Clouds 18 1014 49 10000 1.5 160 12:22 04.10.2019
790 Clouds 20 1014 43 10000 0.5 0 11:43 04.10.2019
791 Clouds 20 1014 43 10000 0.5 0 11:43 04.10.2019
792 Clouds 20 1014 43 10000 0.5 0 11:43 04.10.2019
793 Clouds 20 1014 43 10000 0.5 0 11:43 04.10.2019
794 Clouds 19 1014 48 10000 2.1 330 11:22 04.10.2019
795 Clouds 18 1014 55 10000 4.1 320 10:57 04.10.2019
796 Clouds 18 1014 55 10000 4.1 320 10:38 04.10.2019
797 Clear 17 1014 51 10000 1.5 0 10:19 04.10.2019
798 Clouds 16 1014 63 10000 5.7 330 09:43 04.10.2019
799 Clouds 15 1014 67 10000 5.7 330 09:25 04.10.2019
800 Clouds 13 1014 62 10000 5.7 330 08:46 04.10.2019
801 Clouds 13 1014 62 10000 4.6 340 08:27 04.10.2019
802 Clouds 11 1014 67 10000 4.6 330 07:56 04.10.2019
803 Clouds 11 1014 62 10000 4.1 330 07:37 04.10.2019
804 Clouds 11 1014 62 10000 4.1 330 07:18 04.10.2019
805 Clear 13 1014 62 10000 3.6 330 06:40 04.10.2019
806 Clear 13 1013 62 10000 2.6 340 06:21 04.10.2019
807 Clear 13 1014 67 10000 4.1 340 05:22 04.10.2019
808 Clear 13 1014 63 10000 5.1 330 04:53 04.10.2019
809 Clear 14 1014 63 10000 4.1 330 03:32 04.10.2019
810 Clear 14 1014 81 10000 2.1 360 02:45 04.10.2019
811 Clear 14 1014 63 10000 4.1 330 01:54 04.10.2019
812 Clear 14 1014 67 10000 3.6 330 01:27 04.10.2019
813 Clear 15 1014 63 10000 3.1 330 00:44 04.10.2019
814 Clear 15 1014 59 10000 1.5 0 23:54 03.10.2019
815 Clear 16 1014 55 10000 2.1 30 23:36 03.10.2019
816 Clear 16 1014 55 10000 2.1 30 23:18 03.10.2019
817 Clear 17 1014 55 10000 0.67 56.357 22:54 03.10.2019
818 Clear 16 1014 55 10000 0.67 56.357 22:36 03.10.2019
819 Clear 17 1014 55 10000 1 300 22:18 03.10.2019
820 Clear 16 1014 55 10000 1.5 300 21:41 03.10.2019
821 Clear 17 1014 59 10000 2.1 280 21:21 03.10.2019
822 Clouds 17 1013 59 10000 1.5 10 20:59 03.10.2019
823 Clouds 18 1013 52 10000 3.1 220 20:41 03.10.2019
824 Clouds 17 1013 52 10000 3.1 220 20:23 03.10.2019
825 Clouds 18 1013 52 10000 3.6 200 19:59 03.10.2019
826 Clouds 15 1013 52 10000 3.6 200 19:41 03.10.2019
827 Clouds 14 1013 49 10000 3.6 190 19:22 03.10.2019
828 Clouds 15 1012 49 10000 3.6 170 18:58 03.10.2019
829 Clouds 15 1012 49 10000 3.6 170 18:38 03.10.2019
830 Clouds 20 1012 52 10000 5.1 170 18:19 03.10.2019
831 Clouds 20 1012 53 10000 5.1 140 17:55 03.10.2019
832 Clouds 21 1012 46 10000 5.7 120 17:37 03.10.2019
833 Clouds 21 1012 46 10000 5.7 120 17:19 03.10.2019
834 Clouds 20 1011 46 10000 5.7 140 16:41 03.10.2019
835 Clouds 22 1011 46 10000 4.6 190 16:23 03.10.2019
836 Clouds 21 1011 49 10000 6.2 190 15:55 03.10.2019
837 Clouds 21 1011 49 10000 6.2 190 15:55 03.10.2019
838 Clouds 21 1011 49 10000 7.2 200 15:37 03.10.2019
839 Clouds 22 1011 49 10000 7.2 200 15:19 03.10.2019
840 Clouds 21 1011 56 10000 7.7 200 14:45 03.10.2019
841 Clear 22 1011 49 10000 7.2 220 14:26 03.10.2019
842 Clear 22 1011 49 10000 7.7 210 13:57 03.10.2019
843 Clear 22 1011 49 10000 7.7 210 13:39 03.10.2019
844 Clear 22 1011 53 10000 7.2 210 13:19 03.10.2019
845 Clear 22 1010 46 10000 6.7 210 12:56 03.10.2019
846 Clear 22 1010 53 10000 6.7 210 12:37 03.10.2019
847 Clear 22 1010 53 10000 6.7 210 12:19 03.10.2019
848 Clear 21 1010 49 10000 4.1 220 11:41 03.10.2019
849 Clear 21 1010 37 10000 3.1 320 11:41 03.10.2019
850 Clear 21 1010 37 10000 3.1 320 11:23 03.10.2019
851 Clear 21 1009 37 10000 4.1 330 10:58 03.10.2019
852 Clear 20 1009 37 10000 4.1 330 10:40 03.10.2019
853 Clouds 20 1009 39 10000 5.7 330 10:19 03.10.2019
854 Clouds 20 1009 39 10000 5.7 330 10:19 03.10.2019
855 Clouds 19 1008 45 10000 6.2 320 09:58 03.10.2019
856 Clouds 18 1008 45 10000 6.2 320 09:40 03.10.2019
857 Clouds 17 1008 48 10000 6.7 320 09:20 03.10.2019
858 Clouds 16 1008 48 10000 7.7 320 08:45 03.10.2019
859 Clouds 15 1007 48 10000 7.2 330 08:27 03.10.2019
860 Clouds 14 1007 51 10000 6.7 320 07:57 03.10.2019
861 Clouds 10 1007 51 10000 6.7 320 07:39 03.10.2019
862 Clouds 10 1007 51 10000 5.1 330 07:19 03.10.2019
863 Clouds 10 1007 51 10000 5.1 330 07:19 03.10.2019
864 Clear 15 1007 48 10000 4.1 330 06:47 03.10.2019
865 Clear 15 1006 48 10000 3.6 330 06:24 03.10.2019
866 Clear 16 1006 45 10000 4.1 350 05:44 03.10.2019
867 Clear 16 1005 48 10000 4.6 330 04:56 03.10.2019
868 Clear 17 1005 48 10000 1.5 330 04:27 03.10.2019
869 Clear 17 1005 52 10000 5.1 330 03:24 03.10.2019
870 Clear 17 1006 59 10000 5.1 330 02:39 03.10.2019
871 Clear 17 1006 63 10000 5.7 330 01:52 03.10.2019
872 Clear 17 1006 68 10000 5.1 320 01:33 03.10.2019
873 Clear 17 1006 72 10000 4.6 330 00:49 03.10.2019
874 Clear 17 1006 72 10000 4.6 330 00:19 03.10.2019
875 Clear 17 1007 72 10000 5.1 320 23:43 02.10.2019
876 Clear 17 1007 72 10000 4.6 320 23:22 02.10.2019
877 Clear 17 1006 72 10000 4.1 330 22:44 02.10.2019
878 Clear 17 1006 72 10000 4.1 330 22:44 02.10.2019
879 Clear 17 1006 72 10000 4.1 330 22:22 02.10.2019
880 Clear 18 1006 72 10000 3.6 320 21:58 02.10.2019
881 Clear 18 1006 72 10000 3.6 320 21:38 02.10.2019
882 Clear 18 1006 68 10000 2.6 320 21:20 02.10.2019
883 Clear 19 1005 68 10000 1.5 360 20:57 02.10.2019
884 Clear 19 1005 68 10000 1.5 360 20:38 02.10.2019
885 Clear 19 1005 73 10000 1.5 40 20:20 02.10.2019
886 Clouds 20 1005 64 10000 1.5 60 19:56 02.10.2019
887 Clouds 17 1005 64 10000 1.5 60 19:38 02.10.2019
888 Clouds 17 1005 64 10000 1.5 90 19:19 02.10.2019
889 Clouds 18 1004 64 10000 1.5 90 18:56 02.10.2019
890 Clouds 17 1004 64 10000 1.5 90 18:38 02.10.2019
891 Clouds 22 1004 60 10000 2.1 110 18:19 02.10.2019
892 Clouds 23 1004 60 10000 2.6 110 17:56 02.10.2019
893 Clouds 23 1004 64 10000 3.1 110 17:36 02.10.2019
894 Clouds 23 1004 64 10000 3.1 110 17:18 02.10.2019
895 Clouds 22 1004 64 10000 3.1 110 16:41 02.10.2019
896 Clouds 22 1004 64 10000 3.6 100 16:21 02.10.2019
897 Clouds 22 1003 64 10000 4.6 110 15:57 02.10.2019
898 Clouds 22 1003 64 10000 4.6 110 15:38 02.10.2019
899 Clouds 22 1003 60 10000 4.6 100 15:19 02.10.2019
900 -273 0 0 0 0 0 14:57 02.10.2019
901 Clouds 22 1003 60 10000 4.1 100 14:39 02.10.2019
902 Clouds 23 1003 64 10000 4.1 100 14:20 02.10.2019
903 Clouds 24 1003 69 10000 3.1 90 13:43 02.10.2019
904 Clouds 24 1003 60 10000 2.6 90 13:23 02.10.2019
905 Clouds 23 1003 64 10000 1.5 140 12:57 02.10.2019
906 Clouds 23 1003 64 10000 1.5 140 12:57 02.10.2019
907 Clouds 23 1003 64 10000 1.5 140 12:37 02.10.2019
908 Clear 23 1003 60 10000 2.6 180 12:18 02.10.2019
909 Clear 23 1003 60 10000 2.1 150 11:44 02.10.2019
910 Clear 23 1002 53 10000 4.6 210 11:23 02.10.2019
911 Clear 21 1003 53 10000 1.5 0 10:42 02.10.2019
912 Clear 21 1003 56 10000 1 0 10:20 02.10.2019
913 Clear 20 1002 68 10000 3.6 260 09:58 02.10.2019
914 Clear 20 1002 68 10000 2.1 300 09:37 02.10.2019
915 Clear 20 1002 68 10000 2.1 300 09:18 02.10.2019
916 Clear 20 1002 68 10000 2.1 300 09:18 02.10.2019
917 Clear 17 1002 68 10000 3.1 340 08:44 02.10.2019
918 Clear 16 1002 77 10000 3.1 290 08:23 02.10.2019
919 Clear 16 1002 82 10000 3.6 260 07:57 02.10.2019
920 Clear 16 1002 82 10000 3.6 260 07:38 02.10.2019
921 Clear 16 1003 82 10000 2.6 310 07:19 02.10.2019
922 Clear 16 1003 77 10000 1.5 280 06:31 02.10.2019
923 Clear 16 1004 77 10000 2.1 320 05:54 02.10.2019
924 Clear 16 1004 77 10000 2.1 320 05:54 02.10.2019
925 Clear 15 1004 77 10000 2.6 310 05:23 02.10.2019
926 Clear 16 1004 77 10000 1 0 04:47 02.10.2019
927 Rain 17 1006 68 10000 2.6 40 03:52 02.10.2019
928 Rain 18 1008 64 10000 4.1 350 02:40 02.10.2019
929 Rain 18 1008 72 10000 3.1 20 02:22 02.10.2019
930 Rain 19 1008 78 10000 4.6 250 01:22 02.10.2019
931 Clouds 19 1008 83 10000 2.6 230 00:49 02.10.2019
932 Clouds 19 1008 83 10000 2.1 250 00:25 02.10.2019
933 Clouds 20 1008 78 10000 2.6 240 23:43 01.10.2019
934 Clouds 20 1009 78 10000 1.5 250 23:24 01.10.2019
935 Clouds 20 1009 78 10000 2.6 250 22:59 01.10.2019
936 Clouds 19 1009 78 10000 2.6 250 22:39 01.10.2019
937 Clouds 19 1009 83 10000 3.6 220 22:19 01.10.2019
938 Clouds 19 1009 83 10000 3.1 210 21:56 01.10.2019
939 Clouds 19 1009 83 10000 3.1 210 21:37 01.10.2019
940 Clouds 20 1009 83 10000 2.1 220 21:19 01.10.2019
941 Clouds 20 1009 83 10000 2.1 200 20:55 01.10.2019
942 Clear 20 1009 77 10000 1.5 220 20:36 01.10.2019
943 Clear 20 1009 77 10000 1.5 220 20:18 01.10.2019
944 Clouds 18 1009 83 10000 3.1 210 19:45 01.10.2019
945 Clouds 18 1009 83 10000 3.6 210 19:27 01.10.2019
946 Clouds 18 1010 83 10000 5.1 200 18:59 01.10.2019
947 Clouds 20 1010 83 10000 5.1 200 18:39 01.10.2019
948 Clouds 21 1010 78 10000 5.1 210 18:21 01.10.2019
949 Clouds 24 1010 78 10000 5.7 200 17:57 01.10.2019
950 Clouds 21 1010 78 10000 5.1 200 17:38 01.10.2019
951 Clouds 22 1010 78 10000 5.1 200 17:19 01.10.2019
952 Clouds 22 1010 78 10000 5.7 200 16:57 01.10.2019
953 Clouds 22 1010 78 10000 5.7 200 16:39 01.10.2019
954 Clouds 23 1010 73 10000 5.7 200 16:20 01.10.2019
955 Clouds 22 1011 73 10000 5.7 200 15:42 01.10.2019
956 Clouds 24 1011 73 10000 6.2 200 15:22 01.10.2019
957 Clouds 23 1011 69 10000 5.1 210 14:41 01.10.2019
958 Clouds 23 1011 69 10000 6.2 200 14:20 01.10.2019
959 Clouds 23 1011 69 10000 6.2 200 14:20 01.10.2019
960 Clouds 24 1012 69 10000 4.1 180 13:58 01.10.2019
961 Clouds 24 1012 69 10000 4.1 180 13:39 01.10.2019
962 -273 0 0 0 0 0 13:39 01.10.2019
963 Clouds 24 1012 69 10000 4.1 180 13:39 01.10.2019
964 Clouds 24 1012 69 10000 4.1 180 13:39 01.10.2019
965 Clouds 24 1012 64 10000 4.1 190 13:20 01.10.2019
966 Clouds 23 1012 69 10000 2.6 190 12:57 01.10.2019
967 Clouds 23 1012 69 10000 2.6 190 12:39 01.10.2019
968 Clouds 23 1012 69 10000 2.6 190 12:19 01.10.2019
969 Clouds 22 1013 64 10000 2.1 240 11:58 01.10.2019
970 Clouds 23 1013 64 10000 2.1 240 11:38 01.10.2019
971 Clouds 21 1013 64 10000 1.5 0 11:18 01.10.2019
972 Clouds 22 1013 64 10000 3.1 320 10:49 01.10.2019
973 Clouds 22 1013 68 10000 3.1 330 10:29 01.10.2019
974 Clouds 21 1013 68 10000 4.1 330 09:49 01.10.2019
975 Clouds 20 1013 72 10000 4.1 330 09:31 01.10.2019
976 Clouds 17 1012 77 10000 4.6 320 08:57 01.10.2019
977 Clouds 17 1012 77 10000 4.6 320 08:39 01.10.2019
978 Clouds 17 1012 77 10000 4.1 330 08:21 01.10.2019
979 Clouds 16 1012 77 10000 4.1 330 07:43 01.10.2019
980 Clouds 16 1012 72 10000 4.1 330 07:24 01.10.2019
981 Clouds 17 1012 77 10000 3.1 340 06:47 01.10.2019
982 Clouds 17 1012 82 10000 3.1 330 06:18 01.10.2019
983 Clouds 17 1012 82 10000 3.1 330 06:18 01.10.2019
984 Clouds 17 1012 82 10000 4.1 330 05:46 01.10.2019
985 Clouds 17 1012 82 10000 4.1 330 05:18 01.10.2019
986 Clear 17 1012 82 10000 4.1 320 04:29 01.10.2019
987 Clear 18 1012 88 10000 2.1 360 02:28 01.10.2019
988 Clear 18 1012 82 10000 4.1 320 01:58 01.10.2019
989 Clouds 18 1012 82 10000 4.1 310 00:57 01.10.2019
990 Clouds 19 1012 82 10000 3.6 320 00:28 01.10.2019
991 Clouds 19 1012 88 10000 2.6 330 23:57 30.09.2019
992 Clouds 19 1012 88 10000 2.6 330 23:39 30.09.2019
993 Clouds 17 1012 83 10000 3.6 320 23:20 30.09.2019
994 Clouds 17 1012 83 10000 2.6 320 22:43 30.09.2019
995 Clouds 17 1012 83 10000 1.5 40 22:25 30.09.2019
996 Clouds 18 1011 83 10000 3.1 70 21:58 30.09.2019
997 Clouds 18 1011 83 10000 4.1 70 21:38 30.09.2019
998 Clouds 18 1011 83 10000 4.1 70 21:19 30.09.2019
999 Clouds 19 1011 88 10000 5.1 80 20:57 30.09.2019
1000 Clouds 20 1011 88 10000 5.7 80 20:39 30.09.2019
1001 Clouds 20 1011 88 10000 5.7 80 20:20 30.09.2019
1002 Clouds 21 1010 88 10000 5.1 80 19:57 30.09.2019
1003 Clouds 21 1010 88 10000 5.1 80 19:39 30.09.2019
1004 Clouds 21 1010 88 10000 5.1 90 19:19 30.09.2019
1005 Clouds 22 1010 83 10000 5.7 90 18:57 30.09.2019
1006 Clouds 22 1010 83 10000 5.7 90 18:57 30.09.2019
1007 Clouds 21 1010 83 10000 5.7 90 18:37 30.09.2019
1008 Clouds 21 1010 83 10000 6.2 90 18:19 30.09.2019
1009 Clouds 23 1010 83 10000 5.7 90 17:43 30.09.2019
1010 Clouds 23 1010 78 10000 5.7 90 17:23 30.09.2019
1011 Clouds 24 1010 78 10000 5.1 90 16:57 30.09.2019
1012 Clouds 24 1010 78 10000 5.1 90 16:39 30.09.2019
1013 Clouds 24 1010 73 10000 4.1 90 16:19 30.09.2019
1014 Clouds 24 1010 73 10000 4.1 90 16:19 30.09.2019
1015 Clouds 24 1010 73 10000 3.6 110 15:58 30.09.2019
1016 Clouds 25 1011 73 10000 3.1 100 15:38 30.09.2019
1017 Clouds 24 1011 73 10000 3.1 100 15:19 30.09.2019
1018 Clouds 25 1011 73 10000 3.6 120 14:57 30.09.2019
1019 Clouds 24 1011 73 10000 3.6 120 14:37 30.09.2019
1020 Clouds 25 1011 73 10000 3.6 110 14:19 30.09.2019
1021 Clouds 24 1011 78 10000 3.1 100 13:57 30.09.2019
1022 Clouds 24 1011 78 10000 3.1 100 13:38 30.09.2019
1023 Clouds 24 1012 73 10000 3.1 100 13:20 30.09.2019
1024 Clouds 24 1012 78 10000 3.1 110 12:43 30.09.2019
1025 Clouds 24 1012 73 10000 3.1 120 12:22 30.09.2019
1026 Clouds 24 1012 73 10000 3.6 100 11:57 30.09.2019
1027 Clouds 22 1012 73 10000 3.6 100 11:39 30.09.2019
1028 Clear 22 1011 78 10000 4.1 90 11:19 30.09.2019
1029 Clear 22 1011 73 10000 4.1 90 10:54 30.09.2019
1030 Clear 22 1011 73 10000 4.1 90 10:36 30.09.2019
1031 Clear 23 1011 73 10000 4.6 80 10:18 30.09.2019
1032 Clear 22 1011 60 10000 2.1 50 09:40 30.09.2019
1033 Clear 20 1011 60 10000 2.1 340 09:21 30.09.2019
1034 Clear 20 1010 63 10000 3.1 330 08:51 30.09.2019
1035 Clear 19 1010 68 10000 3.1 330 08:33 30.09.2019
1036 Clear 17 1010 63 10000 3.1 340 07:47 30.09.2019
1037 Clear 17 1010 68 10000 1.5 340 07:28 30.09.2019
1038 Clear 17 1010 60 10000 2.1 10 06:59 30.09.2019
1039 Clear 18 1010 60 10000 2.1 10 06:41 30.09.2019
1040 Clear 21 1009 63 10000 1.5 280 05:56 30.09.2019
1041 Clear 21 1009 63 10000 1.5 280 05:38 30.09.2019
1042 Clear 17 1011 72 10000 1 0 02:50 30.09.2019
1043 Clear 19 1012 77 10000 3.6 300 01:50 30.09.2019
1044 Clear 19 1012 82 10000 3.6 320 00:57 30.09.2019
1045 Clear 19 1012 82 10000 3.6 320 00:57 30.09.2019
1046 Clear 19 1013 77 10000 4.6 320 00:37 30.09.2019
1047 Clear 19 1013 77 10000 4.6 320 00:18 30.09.2019
1048 Clear 19 1013 77 10000 4.1 310 23:40 29.09.2019
1049 Clear 17 1013 82 10000 4.1 320 23:20 29.09.2019
1050 Clear 17 1013 82 10000 3.1 320 22:45 29.09.2019
1051 Clear 17 1014 83 10000 3.1 310 22:25 29.09.2019
1052 Clear 17 1014 83 10000 3.1 310 22:25 29.09.2019
1053 Clear 18 1013 78 10000 2.1 340 21:59 29.09.2019
1054 Clear 17 1013 78 10000 2.1 340 21:39 29.09.2019
1055 Clear 18 1013 78 10000 2.6 20 21:20 29.09.2019
1056 Clear 18 1013 83 10000 2.6 20 20:59 29.09.2019
1057 Clear 19 1013 83 10000 2.6 20 20:41 29.09.2019
1058 Clear 19 1013 78 10000 3.1 20 20:19 29.09.2019
1059 Clear 19 1013 78 10000 3.1 20 20:19 29.09.2019
1060 Clouds 18 1013 83 10000 3.6 240 19:57 29.09.2019
1061 Clouds 19 1013 83 10000 6.2 220 19:37 29.09.2019
1062 Clouds 19 1013 83 10000 6.2 220 19:37 29.09.2019
1063 Clouds 20 1013 83 10000 6.2 220 19:18 29.09.2019
1064 Clouds 21 1013 83 10000 6.7 220 18:55 29.09.2019
1065 Clouds 20 1013 83 10000 8.2 210 18:37 29.09.2019
1066 Clouds 21 1013 83 10000 8.2 210 18:18 29.09.2019
1067 Clouds 22 1014 73 10000 6.2 220 17:55 29.09.2019
1068 Clouds 22 1014 73 10000 6.2 220 17:55 29.09.2019
1069 Clouds 23 1014 73 10000 5.7 220 17:37 29.09.2019
1070 Clouds 23 1014 73 10000 5.7 220 17:19 29.09.2019
1071 Clouds 23 1014 78 10000 5.1 210 16:55 29.09.2019
1072 Clouds 24 1015 73 10000 5.1 200 16:37 29.09.2019
1073 Clouds 24 1015 73 10000 5.1 200 16:18 29.09.2019
1074 Clouds 23 1015 78 10000 5.1 200 15:41 29.09.2019
1075 Clouds 23 1015 78 10000 5.1 200 15:41 29.09.2019
1076 Clouds 22 1015 73 10000 4.6 190 15:19 29.09.2019
1077 Clouds 23 1016 64 10000 5.1 200 14:59 29.09.2019
1078 Clouds 23 1016 69 10000 5.1 200 14:39 29.09.2019
1079 Clouds 23 1016 69 10000 5.1 200 14:20 29.09.2019
1080 Clouds 24 1016 69 10000 4.6 190 13:57 29.09.2019
1081 Clouds 23 1016 69 10000 4.6 190 13:39 29.09.2019
1082 Clouds 23 1017 73 10000 4.1 190 13:19 29.09.2019
1083 Clouds 21 1017 69 10000 4.1 200 12:57 29.09.2019
1084 Clouds 23 1017 69 10000 4.1 200 12:39 29.09.2019
1085 Clouds 21 1017 69 10000 3.1 190 12:21 29.09.2019
1086 Clouds 21 1017 57 10000 1 0 11:57 29.09.2019
1087 Clouds 22 1017 57 10000 1 0 11:37 29.09.2019
1088 Clouds 22 1017 46 10000 3.1 320 11:18 29.09.2019
1089 Clouds 21 1017 46 10000 4.1 320 10:56 29.09.2019
1090 Clouds 21 1017 46 10000 5.1 330 10:36 29.09.2019
1091 Clouds 20 1017 46 10000 5.1 330 10:18 29.09.2019
1092 Clouds 19 1017 52 10000 5.1 330 09:44 29.09.2019
1093 Clouds 18 1017 55 10000 5.1 330 09:20 29.09.2019
1094 Clouds 17 1017 59 10000 5.1 330 08:57 29.09.2019
1095 Clouds 16 1017 59 10000 5.1 330 08:37 29.09.2019
1096 Clouds 15 1016 59 10000 5.1 330 08:18 29.09.2019
1097 Clouds 15 1016 59 10000 5.1 330 07:41 29.09.2019
1098 Clouds 14 1016 63 10000 4.6 330 07:23 29.09.2019
1099 Clouds 15 1016 63 10000 4.6 330 06:42 29.09.2019
1100 Clouds 16 1016 67 10000 6.2 320 04:59 29.09.2019
1101 Clouds 17 1016 63 10000 5.7 330 04:25 29.09.2019
1102 Clouds 17 1016 63 10000 5.7 330 03:56 29.09.2019
1103 Clouds 17 1016 68 10000 5.7 330 02:45 29.09.2019
1104 Clouds 17 1016 68 10000 5.7 330 02:18 29.09.2019
1105 Clouds 17 1016 72 10000 4.6 320 01:31 29.09.2019
1106 Clouds 18 1016 72 10000 4.6 320 00:48 29.09.2019
1107 Clouds 18 1016 72 10000 4.1 310 00:20 29.09.2019
1108 Clouds 18 1016 72 10000 3.1 320 23:42 28.09.2019
1109 Clouds 17 1016 82 10000 2.6 310 23:22 28.09.2019
1110 Clouds 17 1016 82 10000 2.6 310 23:22 28.09.2019
1111 Clouds 16 1016 73 10000 2.1 340 22:57 28.09.2019
1112 Clouds 16 1016 73 10000 2.1 340 22:38 28.09.2019
1113 Clear 17 1016 83 10000 5.7 70 22:20 28.09.2019
1114 Clear 16 1015 78 10000 6.7 70 21:56 28.09.2019
1115 Clear 17 1015 73 10000 6.7 70 21:38 28.09.2019
1116 Clear 18 1015 73 10000 6.7 70 21:20 28.09.2019
1117 Clear 20 1015 78 10000 8.2 80 20:57 28.09.2019
1118 Clear 20 1015 78 10000 8.2 80 20:38 28.09.2019
1119 Clear 21 1014 78 10000 8.7 80 20:18 28.09.2019
1120 Clear 19 1014 78 10000 8.7 80 19:55 28.09.2019
1121 Clear 19 1014 73 10000 7.7 80 19:36 28.09.2019
1122 Clear 19 1014 73 10000 7.7 80 19:18 28.09.2019
1123 Clear 19 1014 69 10000 8.7 80 18:42 28.09.2019
1124 Clear 23 1014 73 10000 7.7 80 18:22 28.09.2019
1125 Clear 24 1014 69 10000 8.2 80 17:59 28.09.2019
1126 Clear 25 1014 69 10000 8.2 80 17:41 28.09.2019
1127 Clear 25 1014 69 10000 8.2 80 17:22 28.09.2019
1128 Clear 25 1014 61 10000 7.2 80 16:57 28.09.2019
1129 Clear 25 1014 61 10000 7.2 80 16:38 28.09.2019
1130 Clear 25 1014 73 10000 8.7 80 16:20 28.09.2019
1131 Clear 24 1014 73 10000 8.2 80 15:40 28.09.2019
1132 Clear 25 1014 73 10000 8.7 80 15:22 28.09.2019
1133 Clear 25 1015 73 10000 8.2 70 14:56 28.09.2019
1134 Clear 25 1015 78 10000 8.7 70 14:37 28.09.2019
1135 Clear 25 1015 78 10000 8.7 70 14:19 28.09.2019
1136 Clear 25 1015 69 10000 7.7 80 13:55 28.09.2019
1137 Clear 25 1015 69 10000 7.7 80 13:55 28.09.2019
1138 Clear 24 1015 69 10000 7.7 80 13:36 28.09.2019
1139 Clear 24 1016 69 10000 7.7 80 13:18 28.09.2019
1140 Clear 23 1016 69 10000 5.7 100 12:39 28.09.2019
1141 Clear 22 1016 69 10000 6.2 100 12:19 28.09.2019
1142 Clouds 22 1016 68 10000 2.6 90 11:43 28.09.2019
1143 Clouds 21 1016 68 10000 1.5 120 11:21 28.09.2019
1144 Clouds 22 1016 60 10000 1 150 10:59 28.09.2019
1145 Clouds 22 1016 60 10000 1 150 10:39 28.09.2019
1146 Clouds 19 1016 60 10000 1 0 10:19 28.09.2019
1147 Clear 20 1016 77 10000 1 0 09:42 28.09.2019
1148 Clouds 19 1016 63 10000 3.6 330 09:23 28.09.2019
1149 Clouds 18 1016 68 10000 4.6 320 08:55 28.09.2019
1150 Clouds 17 1016 68 10000 4.6 320 08:37 28.09.2019
1151 Clouds 17 1016 68 10000 5.1 320 08:18 28.09.2019
1152 Clouds 16 1016 68 10000 5.1 320 07:43 28.09.2019
1153 Clouds 16 1016 72 10000 4.6 330 07:19 28.09.2019
1154 Clear 16 1016 72 10000 3.6 330 06:52 28.09.2019
1155 Clear 17 1016 72 10000 4.6 330 06:30 28.09.2019
1156 Clouds 17 1016 77 10000 3.6 340 05:43 28.09.2019
1157 Clouds 17 1016 77 10000 1.5 350 05:20 28.09.2019
1158 Clouds 17 1016 82 10000 2.1 320 04:38 28.09.2019
1159 Clouds 17 1016 82 10000 2.1 300 03:49 28.09.2019
1160 Clouds 17 1016 82 10000 2.1 330 03:21 28.09.2019
1161 Clear 17 1017 82 10000 2.6 340 02:45 28.09.2019
1162 Clear 17 1016 88 10000 2.6 320 02:27 28.09.2019
1163 Clear 17 1016 82 10000 2.6 330 01:48 28.09.2019
1164 Clear 18 1016 82 10000 3.6 330 01:26 28.09.2019
1165 Clear 17 1016 88 10000 3.1 320 00:52 28.09.2019
1166 Clear 17 1017 88 10000 2.6 320 00:31 28.09.2019
1167 Clear 18 1016 82 10000 2.1 330 23:58 27.09.2019
1168 Clear 18 1016 82 10000 2.1 330 23:36 27.09.2019
1169 Clear 17 1016 88 10000 2.1 320 23:18 27.09.2019
1170 Clear 16 1016 83 10000 1.5 10 22:44 27.09.2019
1171 Clear 16 1016 83 10000 1.5 30 22:19 27.09.2019
1172 Clear 17 1016 83 10000 1.5 40 21:57 27.09.2019
1173 Clear 18 1016 78 10000 1.5 30 21:37 27.09.2019
1174 Clear 19 1016 78 10000 1.5 30 21:19 27.09.2019
1175 Clouds 20 1016 78 10000 1.5 70 20:56 27.09.2019
1176 Clouds 20 1016 78 10000 1.5 70 20:38 27.09.2019
1177 Clouds 20 1016 78 10000 1.5 70 20:19 27.09.2019
1178 Clouds 19 1016 78 10000 1.5 90 19:44 27.09.2019
1179 Clouds 21 1016 78 10000 1.5 90 19:24 27.09.2019
1180 Clouds 20 1016 73 10000 1 0 18:59 27.09.2019
1181 Clouds 19 1016 73 10000 1 0 18:40 27.09.2019
1182 Clouds 21 1016 73 10000 1.5 170 18:21 27.09.2019
1183 Clouds 21 1016 78 10000 2.1 180 17:55 27.09.2019
1184 Clouds 22 1016 78 10000 2.1 170 17:37 27.09.2019
1185 Clouds 22 1016 78 10000 2.1 170 17:18 27.09.2019
1186 -273 0 0 0 0 0 16:56 27.09.2019
1187 Clouds 22 1016 78 10000 2.6 170 16:37 27.09.2019
1188 Clouds 22 1016 73 10000 3.1 170 16:18 27.09.2019
1189 Clouds 22 1016 78 10000 3.1 170 15:44 27.09.2019
1190 Clouds 22 1016 78 10000 2.6 160 15:20 27.09.2019
1191 Clouds 22 1017 78 10000 3.1 160 14:57 27.09.2019
1192 Clouds 23 1017 78 10000 3.1 160 14:39 27.09.2019
1193 Clouds 23 1017 78 10000 3.1 150 14:20 27.09.2019
1194 Clouds 23 1017 78 10000 3.1 150 13:57 27.09.2019
1195 Clouds 23 1017 78 10000 3.1 150 13:38 27.09.2019
1196 Clouds 23 1017 78 10000 3.1 150 13:19 27.09.2019
1197 Clouds 23 1017 78 10000 2.6 160 12:51 27.09.2019
1198 Clouds 22 1017 78 10000 2.1 150 12:23 27.09.2019
1199 Clouds 21 1017 73 10000 2.1 150 11:57 27.09.2019
1200 Clouds 20 1017 73 10000 1.5 130 11:38 27.09.2019
1201 Clouds 21 1017 73 10000 1.5 130 11:19 27.09.2019
1202 Clouds 21 1017 69 10000 1.5 0 10:43 27.09.2019
1203 Clouds 20 1017 73 10000 2.1 330 10:22 27.09.2019
1204 Clouds 20 1017 73 10000 3.1 330 09:58 27.09.2019
1205 Clouds 19 1017 73 10000 3.1 330 09:39 27.09.2019
1206 Clouds 19 1017 77 10000 2.6 320 09:19 27.09.2019
1207 Clouds 18 1017 77 10000 3.1 320 08:41 27.09.2019
1208 Clouds 16 1017 82 10000 3.1 320 08:21 27.09.2019
1209 Clouds 16 1016 82 10000 2.1 340 07:55 27.09.2019
1210 Clouds 16 1016 82 10000 2.6 330 07:37 27.09.2019
1211 Clouds 17 1016 82 10000 2.6 330 07:18 27.09.2019
1212 Clouds 17 1016 82 10000 3.1 330 06:40 27.09.2019
1213 Clouds 17 1016 82 10000 2.1 330 06:21 27.09.2019
1214 Clear 17 1016 82 10000 2.6 340 05:45 27.09.2019
1215 Clear 17 1016 82 10000 2.6 320 05:26 27.09.2019
1216 Clear 18 1016 82 10000 2.6 330 03:39 27.09.2019
1217 Clear 18 1016 82 10000 1 330 01:56 27.09.2019
1218 Clear 18 1017 82 10000 1.5 280 01:31 27.09.2019
1219 Clear 19 1017 83 10000 1.5 330 00:41 27.09.2019
1220 Clear 19 1017 83 10000 2.6 320 23:57 26.09.2019
1221 Clear 19 1016 83 10000 1.5 360 23:39 26.09.2019
1222 Clear 19 1016 83 10000 1.5 360 23:20 26.09.2019
1223 Clear 19 1017 83 10000 1.5 0 22:58 26.09.2019
1224 Clear 19 1017 83 10000 1.5 0 22:40 26.09.2019
1225 Clear 19 1016 83 10000 1 0 22:18 26.09.2019
1226 Clear 20 1016 78 10000 1 0 21:59 26.09.2019
1227 Clear 20 1016 78 10000 1 0 21:38 26.09.2019
1228 Clear 20 1016 78 10000 1 0 21:38 26.09.2019
1229 Clouds 19 1016 83 10000 0.5 0 21:20 26.09.2019
1230 Clouds 19 1016 83 10000 1 0 20:59 26.09.2019
1231 Clouds 19 1016 83 10000 1 0 20:59 26.09.2019
1232 Clouds 20 1016 83 10000 1 0 20:40 26.09.2019
1233 Clouds 21 1015 83 10000 1 200 20:21 26.09.2019
1234 Clouds 18 1015 83 10000 1.5 190 19:59 26.09.2019
1235 Clouds 18 1015 83 10000 1.5 190 19:40 26.09.2019
1236 Clouds 18 1015 78 10000 1.5 190 19:18 26.09.2019
1237 Clouds 18 1015 78 10000 2.1 170 18:57 26.09.2019
1238 Clouds 18 1015 78 10000 2.1 170 18:37 26.09.2019
1239 Clouds 22 1015 78 10000 2.1 170 18:19 26.09.2019
1240 Clouds 23 1015 78 10000 2.1 100 17:38 26.09.2019
1241 Clouds 23 1015 78 10000 2.1 100 17:38 26.09.2019
1242 Clouds 22 1014 78 10000 2.6 110 17:19 26.09.2019
1243 Clouds 23 1015 73 10000 2.1 140 16:58 26.09.2019
1244 Clouds 23 1015 73 10000 2.1 140 16:39 26.09.2019
1245 Clouds 23 1014 73 10000 3.1 150 16:20 26.09.2019
1246 Clouds 23 1014 73 10000 3.1 150 15:57 26.09.2019
1247 Clouds 23 1014 73 10000 3.1 150 15:37 26.09.2019
1248 Clouds 24 1014 69 10000 2.6 140 15:18 26.09.2019
1249 Clear 24 1014 69 10000 3.1 150 14:42 26.09.2019
1250 Clouds 23 1015 69 10000 2.6 170 14:23 26.09.2019
1251 Clouds 23 1015 69 10000 2.6 170 14:23 26.09.2019
1252 Clouds 23 1015 69 10000 2.1 150 13:58 26.09.2019
1253 Clouds 23 1015 69 10000 2.1 150 13:58 26.09.2019
1254 Clouds 24 1015 69 10000 2.1 150 13:40 26.09.2019
1255 Clouds 24 1015 64 10000 2.1 160 13:20 26.09.2019
1256 Clouds 24 1015 64 10000 2.1 160 12:56 26.09.2019
1257 Clouds 24 1015 64 10000 2.1 160 12:38 26.09.2019
1258 Clouds 23 1014 69 10000 2.1 140 12:19 26.09.2019
1259 Clouds 22 1014 64 10000 2.1 150 11:42 26.09.2019
1260 Clouds 20 1014 69 10000 1.5 0 11:21 26.09.2019
1261 Clouds 21 1014 49 10000 3.1 320 10:56 26.09.2019
1262 Clouds 21 1014 49 10000 3.1 320 10:56 26.09.2019
1263 Clouds 21 1014 49 10000 3.1 320 10:56 26.09.2019
1264 Clouds 21 1014 49 10000 3.1 320 10:56 26.09.2019
1265 Clouds 21 1014 49 10000 3.1 320 10:38 26.09.2019
1266 Clouds 21 1013 73 10000 0.5 0 10:38 26.09.2019
1267 Clouds 19 1013 73 10000 0.5 0 10:19 26.09.2019
1268 Clouds 21 1013 52 10000 3.1 330 09:44 26.09.2019
1269 Clouds 17 1013 59 10000 4.1 330 09:25 26.09.2019
1270 Clouds 19 1012 72 10000 2.6 20 08:57 26.09.2019
1271 Clouds 18 1012 72 10000 2.6 20 08:39 26.09.2019
1272 Clouds 18 1012 55 10000 4.1 320 08:21 26.09.2019
1273 Clouds 17 1011 55 10000 3.1 340 07:42 26.09.2019
1274 Clouds 17 1011 55 10000 3.6 330 07:21 26.09.2019
1275 Clouds 18 1011 63 10000 2.6 10 06:44 26.09.2019
1276 Clouds 18 1011 55 10000 3.6 330 06:25 26.09.2019
1277 Clouds 18 1011 59 10000 2.1 320 05:44 26.09.2019
1278 Clouds 18 1010 59 10000 3.6 330 05:24 26.09.2019
1279 Clouds 18 1011 88 10000 1.5 330 02:53 26.09.2019
1280 Clouds 15 1010 88 10000 2.6 320 01:54 26.09.2019
1281 Clear 15 1010 88 10000 2.6 300 01:29 26.09.2019
1282 Clear 16 1010 77 10000 2.1 320 00:56 26.09.2019
1283 Clear 17 1010 83 10000 3.1 110 00:37 26.09.2019
1284 Clear 20 1010 83 10000 4.6 100 23:58 25.09.2019
1285 Clear 20 1010 83 10000 4.6 100 23:39 25.09.2019
1286 Clear 21 1009 78 10000 5.1 110 23:18 25.09.2019
1287 Clear 19 1009 78 10000 6.7 100 22:42 25.09.2019
1288 Clear 19 1009 78 10000 7.2 90 22:21 25.09.2019
1289 Clear 19 1008 78 10000 7.2 90 21:58 25.09.2019
1290 Clear 19 1008 78 10000 7.2 90 21:39 25.09.2019
1291 Clear 22 1008 64 10000 4.6 110 21:19 25.09.2019
1292 Clouds 22 1007 33 10000 3.6 300 20:58 25.09.2019
1293 Clouds 23 1007 33 10000 3.6 300 20:40 25.09.2019
1294 Clouds 23 1007 41 10000 4.6 270 20:22 25.09.2019
1295 Clouds 20 1006 44 10000 7.7 270 19:55 25.09.2019
1296 Clouds 20 1006 44 10000 7.7 270 19:36 25.09.2019
1297 Clouds 20 1006 39 10000 8.7 250 19:18 25.09.2019
1298 Clouds 21 1006 32 10000 10.3 260 18:55 25.09.2019
1299 Clouds 20 1006 32 10000 10.3 260 18:37 25.09.2019
1300 Clouds 26 1006 32 10000 10.3 250 18:18 25.09.2019
1301 Clouds 26 1006 36 10000 8.7 240 17:40 25.09.2019
1302 Clouds 26 1006 32 10000 11.8 240 17:20 25.09.2019
1303 Clouds 25 1006 37 10000 12.3 240 16:56 25.09.2019
1304 Clouds 26 1006 37 10000 12.3 250 16:37 25.09.2019
1305 Clouds 25 1006 37 10000 12.3 250 16:19 25.09.2019
1306 Clouds 27 1007 26 10000 12.3 260 15:42 25.09.2019
1307 Clouds 27 1007 28 10000 12.3 260 15:23 25.09.2019
1308 Clouds 27 1007 32 10000 10.3 250 14:59 25.09.2019
1309 Clouds 27 1007 32 10000 10.3 250 14:41 25.09.2019
1310 Clouds 27 1008 30 10000 9.3 260 14:21 25.09.2019
1311 Clouds 27 1008 35 10000 9.3 250 13:56 25.09.2019
1312 Clouds 27 1008 35 10000 9.3 250 13:38 25.09.2019
1313 Clouds 26 1008 54 10000 10.8 220 13:19 25.09.2019
1314 Clouds 24 1009 50 10000 7.7 220 12:42 25.09.2019
1315 Clouds 24 1009 64 10000 2.1 190 12:24 25.09.2019
1316 Clouds 23 1010 64 10000 1 0 11:59 25.09.2019
1317 Clouds 23 1010 64 10000 1 0 11:59 25.09.2019
1318 Clouds 23 1010 64 10000 1 0 11:40 25.09.2019
1319 Clouds 23 1010 64 10000 1 0 11:40 25.09.2019
1320 Clouds 23 1010 60 10000 2.1 140 11:19 25.09.2019
1321 Clouds 22 1010 64 10000 2.6 340 10:46 25.09.2019
1322 Clouds 21 1010 68 10000 2.1 310 10:26 25.09.2019
1323 Clouds 21 1010 68 10000 2.1 310 10:26 25.09.2019
1324 Clouds 20 1010 72 10000 4.1 330 09:58 25.09.2019
1325 Clouds 20 1010 72 10000 4.1 330 09:58 25.09.2019
1326 Clouds 20 1010 72 10000 4.1 330 09:58 25.09.2019
1327 Clouds 20 1010 72 10000 4.1 330 09:38 25.09.2019
1328 Clouds 19 1010 72 10000 3.6 320 09:20 25.09.2019
1329 Clouds 18 1010 77 10000 4.1 320 08:56 25.09.2019
1330 Clouds 18 1010 77 10000 4.1 320 08:37 25.09.2019
1331 Clouds 18 1010 77 10000 3.6 340 08:19 25.09.2019
1332 Clouds 18 1010 77 10000 3.6 330 07:40 25.09.2019
1333 Clouds 17 1010 77 10000 3.6 330 07:22 25.09.2019
1334 Clouds 17 1010 77 10000 3.6 330 06:52 25.09.2019
1335 Clouds 17 1010 77 10000 4.6 320 06:32 25.09.2019
1336 Clouds 17 1010 77 10000 4.1 320 05:39 25.09.2019
1337 Clear 17 1010 82 10000 3.1 340 04:57 25.09.2019
1338 Clear 17 1011 77 10000 3.6 330 02:32 25.09.2019
1339 Clear 17 1011 77 10000 3.1 340 01:19 25.09.2019
1340 Clear 18 1011 77 10000 3.6 320 00:37 25.09.2019
1341 Clear 18 1011 77 10000 3.6 320 00:18 25.09.2019
1342 Clear 18 1011 72 10000 3.1 320 23:41 24.09.2019
1343 Clear 17 1011 72 10000 1.5 320 23:21 24.09.2019
1344 Clear 17 1011 68 10000 1.5 310 22:56 24.09.2019
1345 Clear 16 1011 68 10000 1 0 22:36 24.09.2019
1346 Clear 17 1011 68 10000 1 0 22:18 24.09.2019
1347 Clear 17 1011 68 10000 1 0 22:18 24.09.2019
1348 Clear 16 1011 64 10000 3.1 10 21:54 24.09.2019
1349 Clear 16 1011 64 10000 3.1 20 21:36 24.09.2019
1350 Clear 18 1011 64 10000 3.1 20 21:18 24.09.2019
1351 Clear 18 1011 64 10000 3.1 20 21:18 24.09.2019
1352 Clear 19 1011 68 10000 4.1 20 20:55 24.09.2019
1353 Clear 19 1011 68 10000 4.1 20 20:37 24.09.2019
1354 Clouds 21 1011 69 10000 4.6 50 20:18 24.09.2019
1355 Clouds 19 1011 73 10000 3.1 40 19:42 24.09.2019
1356 Clouds 19 1011 73 10000 1 0 19:19 24.09.2019
1357 Clouds 19 1011 73 10000 1 0 19:19 24.09.2019
1358 Clouds 20 1011 69 10000 2.1 190 18:57 24.09.2019
1359 Clouds 20 1011 69 10000 2.1 190 18:57 24.09.2019
1360 Clouds 20 1011 69 10000 2.1 190 18:39 24.09.2019
1361 Clouds 20 1011 69 10000 2.1 190 18:39 24.09.2019
1362 Clouds 21 1011 69 10000 2.6 190 18:20 24.09.2019
1363 Clouds 21 1011 69 10000 2.6 190 18:20 24.09.2019
1364 Clouds 22 1011 64 10000 5.1 190 17:56 24.09.2019
1365 Clouds 23 1011 64 10000 5.1 190 17:37 24.09.2019
1366 Clouds 23 1012 64 10000 4.6 190 17:19 24.09.2019
1367 Clouds 23 1012 69 10000 4.6 200 16:42 24.09.2019
1368 Clouds 23 1012 73 10000 5.7 190 16:20 24.09.2019
1369 Clouds 23 1012 64 10000 5.7 200 15:58 24.09.2019
1370 Clouds 23 1012 64 10000 5.7 200 15:39 24.09.2019
1371 Clouds 23 1013 69 10000 5.1 200 15:21 24.09.2019
1372 Clouds 22 1013 69 10000 4.6 190 14:40 24.09.2019
1373 Clouds 23 1013 69 10000 4.6 190 14:18 24.09.2019
1374 Clouds 23 1014 73 10000 5.1 180 13:45 24.09.2019
1375 Clouds 23 1014 73 10000 5.1 180 13:23 24.09.2019
1376 Clouds 23 1014 69 10000 5.1 190 12:57 24.09.2019
1377 Clouds 23 1014 57 10000 3.1 190 12:39 24.09.2019
1378 Clouds 22 1014 57 10000 3.1 190 12:18 24.09.2019
1379 Clouds 22 1014 53 10000 2.1 230 11:41 24.09.2019
1380 Clouds 23 1014 50 10000 2.1 250 11:21 24.09.2019
1381 Clear 22 1014 53 10000 2.6 320 10:56 24.09.2019
1382 Clear 22 1014 53 10000 2.6 320 10:36 24.09.2019
1383 Clear 21 1014 60 10000 3.6 330 10:18 24.09.2019
1384 Clear 20 1013 64 10000 3.6 330 09:45 24.09.2019
1385 Clear 19 1013 64 10000 3.1 330 09:27 24.09.2019
1386 Clouds 18 1013 63 10000 3.1 350 08:57 24.09.2019
1387 Clouds 17 1013 63 10000 3.1 350 08:38 24.09.2019
1388 Clouds 16 1013 72 10000 4.6 330 08:20 24.09.2019
1389 Clouds 16 1013 63 10000 4.6 330 07:52 24.09.2019
1390 Clear 16 1013 68 10000 4.1 320 07:25 24.09.2019
1391 Clear 16 1013 68 10000 3.6 320 06:57 24.09.2019
1392 Clear 16 1013 72 10000 3.1 330 06:36 24.09.2019
1393 Clear 16 1013 72 10000 3.1 330 06:36 24.09.2019
1394 Clear 16 1012 72 10000 4.1 330 05:51 24.09.2019
1395 Clear 16 1013 68 10000 3.1 340 05:20 24.09.2019
1396 Clear 17 1013 68 10000 3.6 340 03:45 24.09.2019
1397 Clear 17 1013 72 10000 4.6 340 02:57 24.09.2019
1398 Clear 17 1013 72 10000 4.6 340 02:39 24.09.2019
1399 Clear 17 1013 77 10000 3.1 340 01:39 24.09.2019
1400 Clear 17 1013 77 10000 3.6 340 00:38 24.09.2019
1401 Clear 18 1013 82 10000 3.1 330 00:20 24.09.2019
1402 Clear 17 1013 82 10000 4.6 330 23:40 23.09.2019
1403 Clear 17 1013 77 10000 4.1 330 23:21 23.09.2019
1404 Clear 17 1013 77 10000 4.1 330 22:40 23.09.2019
1405 Clear 18 1013 77 10000 3.1 340 22:21 23.09.2019
1406 Clouds 18 1012 77 10000 3.1 320 21:59 23.09.2019
1407 Clouds 18 1012 77 10000 3.1 320 21:41 23.09.2019
1408 Clouds 18 1012 77 10000 1.5 300 21:20 23.09.2019
1409 Clouds 18 1012 77 10000 1.5 300 21:20 23.09.2019
1410 Clouds 18 1012 77 10000 1.5 300 21:20 23.09.2019
1411 Clouds 19 1012 73 10000 0.5 0 20:58 23.09.2019
1412 Clouds 19 1012 73 10000 0.5 0 20:39 23.09.2019
1413 Clouds 19 1012 68 10000 1 0 20:18 23.09.2019
1414 Clouds 20 1012 68 10000 1 0 20:18 23.09.2019
1415 Clouds 18 1011 73 10000 3.1 70 19:40 23.09.2019
1416 Clouds 18 1011 73 10000 3.6 70 19:22 23.09.2019
1417 Clouds 18 1011 73 10000 3.6 70 19:22 23.09.2019
1418 Clouds 18 1011 73 10000 3.6 70 19:22 23.09.2019
1419 Clouds 18 1011 73 10000 5.1 60 18:59 23.09.2019
1420 Clouds 18 1011 73 10000 5.1 60 18:41 23.09.2019
1421 Clouds 21 1011 73 10000 7.7 70 18:19 23.09.2019
1422 Clouds 22 1011 73 10000 8.7 80 17:56 23.09.2019
1423 Clouds 22 1011 73 10000 8.7 80 17:56 23.09.2019
1424 Clouds 21 1011 73 10000 8.7 80 17:38 23.09.2019
1425 Clouds 22 1011 69 10000 8.7 80 17:20 23.09.2019
1426 Clouds 21 1010 69 10000 8.2 80 16:57 23.09.2019
1427 Clouds 22 1010 69 10000 8.2 80 16:36 23.09.2019
1428 Clouds 22 1010 64 10000 8.2 70 16:18 23.09.2019
1429 Clouds 22 1010 64 10000 6.7 70 15:56 23.09.2019
1430 Clouds 22 1010 64 10000 6.7 70 15:38 23.09.2019
1431 Clouds 22 1010 64 10000 4.6 90 15:18 23.09.2019
1432 Clouds 22 1010 69 10000 3.6 110 14:40 23.09.2019
1433 Clouds 22 1010 69 10000 4.1 150 14:20 23.09.2019
1434 Clouds 23 1010 73 10000 3.6 180 13:58 23.09.2019
1435 Clouds 22 1010 73 10000 3.6 180 13:38 23.09.2019
1436 Clouds 22 1010 73 10000 4.6 210 13:18 23.09.2019
1437 Clouds 22 1010 73 10000 4.6 210 13:18 23.09.2019
1438 Clouds 22 1011 73 10000 3.1 200 12:54 23.09.2019
1439 Clouds 21 1011 78 10000 3.1 210 12:36 23.09.2019
1440 Clouds 20 1011 78 10000 3.1 210 12:18 23.09.2019
1441 Clouds 18 1012 78 10000 2.6 240 11:43 23.09.2019
1442 Clouds 19 1012 78 10000 1.5 260 11:24 23.09.2019
1443 Clouds 18 1012 78 10000 0.5 0 10:49 23.09.2019
1444 Clouds 18 1013 88 10000 1.5 320 10:22 23.09.2019
1445 Clouds 18 1013 88 10000 1.5 320 10:22 23.09.2019
1446 Clouds 19 1013 88 10000 2.1 280 09:59 23.09.2019
1447 Clouds 19 1013 88 10000 2.1 280 09:38 23.09.2019
1448 Clouds 18 1013 88 10000 2.6 270 09:20 23.09.2019
1449 Clouds 18 1013 93 10000 2.1 270 08:48 23.09.2019
1450 Clouds 17 1013 93 10000 2.6 290 08:29 23.09.2019
1451 Drizzle 17 1013 93 10000 2.1 290 07:58 23.09.2019
1452 Drizzle 17 1013 93 10000 2.1 290 07:58 23.09.2019
1453 Drizzle 17 1013 93 10000 2.1 290 07:58 23.09.2019
1454 Clouds 17 1013 93 10000 1.5 280 07:30 23.09.2019
1455 Clouds 17 1013 93 10000 1.5 280 06:42 23.09.2019
1456 Clouds 17 1013 93 10000 0.27 135.606 05:56 23.09.2019
1457 Rain 17 1013 93 10000 0.27 135.606 05:22 23.09.2019
1458 Rain 18 1013 93 10000 1 0 04:54 23.09.2019
1459 Rain 18 1013 93 1200 1 230 03:34 23.09.2019
1460 Clouds 18 1013 94 10000 1.5 290 01:19 23.09.2019
1461 Clouds 19 1013 88 10000 1.5 100 00:23 23.09.2019
1462 Clouds 19 1013 88 10000 1.5 290 23:57 22.09.2019
1463 Clouds 19 1014 88 10000 1.5 290 23:33 22.09.2019
1464 Clouds 19 1014 88 10000 1 0 22:59 22.09.2019
1465 Clouds 19 1014 88 10000 1 0 22:41 22.09.2019
1466 Clouds 19 1013 88 10000 0.5 0 22:22 22.09.2019
1467 Clouds 19 1013 78 10000 2.1 70 21:55 22.09.2019
1468 Clouds 19 1013 78 10000 2.1 70 21:37 22.09.2019
1469 Clouds 19 1013 78 10000 2.6 90 21:19 22.09.2019
1470 Clouds 20 1013 88 10000 3.6 100 20:42 22.09.2019
1471 Clouds 20 1013 83 10000 1.5 50 20:24 22.09.2019
1472 Clouds 20 1013 83 10000 2.1 90 19:56 22.09.2019
1473 Clouds 18 1013 83 10000 1.5 100 19:37 22.09.2019
1474 Clouds 18 1013 83 10000 1.5 100 19:19 22.09.2019
1475 Clouds 20 1013 88 10000 0.5 0 18:56 22.09.2019
1476 Clouds 20 1013 88 10000 0.5 0 18:36 22.09.2019
1477 Clouds 20 1013 88 10000 0.5 0 18:36 22.09.2019
1478 Clouds 20 1013 88 10000 0.5 0 18:18 22.09.2019
1479 Rain 20 1013 88 10000 1.5 310 17:42 22.09.2019
1480 Rain 20 1013 88 10000 2.1 10 17:24 22.09.2019
1481 Rain 20 1013 83 9000 3.6 50 16:56 22.09.2019
1482 Rain 19 1013 83 8000 3.6 60 16:37 22.09.2019
1483 Rain 19 1013 83 8000 3.6 60 16:18 22.09.2019
1484 Rain 20 1014 83 8000 4.1 70 15:43 22.09.2019
1485 Rain 20 1014 83 10000 4.6 90 15:24 22.09.2019
1486 Clouds 20 1014 83 10000 3.1 70 14:47 22.09.2019
1487 Clouds 20 1014 83 10000 3.1 70 14:47 22.09.2019
1488 Clouds 20 1014 77 10000 4.6 70 14:27 22.09.2019
1489 Clouds 19 1014 77 10000 3.6 80 13:59 22.09.2019
1490 Clouds 19 1014 77 10000 3.6 80 13:41 22.09.2019
1491 Clouds 19 1014 82 10000 2.6 60 13:23 22.09.2019
1492 Clouds 18 1014 82 10000 4.1 50 12:56 22.09.2019
1493 Rain 18 1014 82 10000 4.1 50 12:38 22.09.2019
1494 Rain 18 1015 82 10000 5.1 60 12:18 22.09.2019
1495 Rain 18 1015 82 3000 8.7 80 11:43 22.09.2019
1496 Rain 18 1015 82 4000 9.3 80 11:25 22.09.2019
1497 Rain 18 1015 82 4000 10.3 90 10:57 22.09.2019
1498 Rain 19 1015 82 4000 10.3 90 10:39 22.09.2019
1499 Rain 19 1014 68 10000 7.2 90 10:19 22.09.2019
1500 Rain 19 1014 83 10000 1.5 60 09:43 22.09.2019
1501 Rain 19 1014 83 10000 1.5 60 09:43 22.09.2019
1502 Rain 19 1014 82 10000 2.1 330 09:21 22.09.2019
1503 Clouds 18 1014 88 10000 1.5 360 08:56 22.09.2019
1504 Clouds 18 1014 88 10000 1.5 360 08:38 22.09.2019
1505 Clouds 18 1014 88 10000 2.1 360 08:19 22.09.2019
1506 Clouds 18 1014 88 10000 1.5 10 07:43 22.09.2019
1507 Clouds 18 1014 88 10000 2.1 330 07:25 22.09.2019
1508 Rain 18 1014 88 10000 2.6 320 06:58 22.09.2019
1509 Clouds 18 1014 88 10000 2.6 340 06:34 22.09.2019
1510 Clouds 18 1014 88 10000 3.1 340 03:56 22.09.2019
1511 Rain 18 1015 82 10000 4.6 20 02:44 22.09.2019
1512 Rain 18 1016 88 10000 1.5 340 02:24 22.09.2019
1513 Rain 18 1016 88 10000 6.2 40 01:38 22.09.2019
1514 Rain 17 1017 93 10000 2.6 360 00:46 22.09.2019
1515 Rain 17 1018 93 10000 3.6 320 00:27 22.09.2019
1516 Rain 17 1018 88 9000 3.1 360 23:51 21.09.2019
1517 Rain 17 1018 88 7000 2.6 330 23:33 21.09.2019
1518 Rain 16 1018 88 9000 2.1 360 22:46 21.09.2019
1519 Rain 17 1018 88 10000 2.1 350 22:25 21.09.2019
1520 Rain 17 1017 82 10000 2.6 320 21:59 21.09.2019
1521 Rain 17 1017 82 10000 2.6 320 21:59 21.09.2019
1522 Rain 17 1017 82 10000 2.6 320 21:41 21.09.2019
1523 Rain 18 1017 82 10000 1.5 350 21:19 21.09.2019
1524 Rain 18 1017 77 10000 3.1 40 20:56 21.09.2019
1525 Rain 19 1018 64 10000 4.1 20 20:36 21.09.2019
1526 Rain 19 1018 64 10000 4.1 20 20:18 21.09.2019
1527 Rain 19 1018 68 10000 8.2 60 19:43 21.09.2019
1528 Rain 19 1019 64 10000 9.3 80 19:19 21.09.2019
1529 Rain 19 1019 68 9000 8.2 70 18:40 21.09.2019
1530 Rain 21 1018 56 10000 9.8 80 18:21 21.09.2019
1531 Clouds 20 1018 64 10000 10.3 80 17:43 21.09.2019
1532 Rain 20 1019 60 10000 10.3 90 17:23 21.09.2019
1533 Rain 21 1019 60 10000 10.8 90 16:57 21.09.2019
1534 Clouds 21 1019 56 10000 10.8 90 16:38 21.09.2019
1535 Clouds 21 1019 56 10000 10.8 90 16:19 21.09.2019
1536 Clouds 21 1019 60 10000 9.8 80 15:44 21.09.2019
1537 Clouds 21 1020 60 10000 8.2 90 15:22 21.09.2019
1538 Clouds 21 1020 60 10000 7.2 70 14:49 21.09.2019
1539 Clouds 21 1021 56 10000 6.7 90 14:31 21.09.2019
1540 Clouds 20 1021 56 10000 6.7 100 13:54 21.09.2019
1541 Clouds 21 1021 56 10000 6.7 100 13:36 21.09.2019
1542 Clouds 22 1021 56 10000 6.7 100 13:18 21.09.2019
1543 Clouds 22 1022 60 10000 7.2 100 12:41 21.09.2019
1544 Clouds 21 1021 56 10000 7.7 90 12:22 21.09.2019
1545 Clear 22 1021 56 10000 7.7 90 11:59 21.09.2019
1546 Clear 21 1021 56 10000 7.7 90 11:41 21.09.2019
1547 Clear 21 1021 56 10000 6.2 90 11:22 21.09.2019
1548 Clear 20 1021 64 10000 4.6 80 10:43 21.09.2019
1549 Clear 20 1021 60 10000 2.1 340 10:24 21.09.2019
1550 Clear 20 1021 60 10000 3.1 330 09:58 21.09.2019
1551 Clear 20 1021 60 10000 3.1 330 09:39 21.09.2019
1552 Clear 18 1021 60 10000 3.6 330 09:20 21.09.2019
1553 Clear 18 1021 60 10000 3.6 330 09:20 21.09.2019
1554 Clear 18 1020 63 10000 3.1 330 08:52 21.09.2019
1555 Clear 17 1020 63 10000 3.1 330 08:28 21.09.2019
1556 Clear 17 1020 63 10000 3.1 330 07:42 21.09.2019
1557 Clear 17 1020 63 10000 3.6 330 07:24 21.09.2019
1558 Clouds 17 1021 63 10000 3.6 320 06:58 21.09.2019
1559 Clouds 17 1021 63 10000 3.1 320 06:33 21.09.2019
1560 Clear 17 1020 82 10000 1.5 360 05:36 21.09.2019
1561 Clouds 17 1021 64 10000 2.6 330 04:36 21.09.2019
1562 Clouds 18 1021 64 10000 3.1 330 03:22 21.09.2019
1563 Clouds 18 1021 64 10000 3.6 320 02:21 21.09.2019
1564 Clouds 18 1021 64 10000 2.6 330 01:46 21.09.2019
1565 Clouds 18 1021 64 10000 2.6 320 00:51 21.09.2019
1566 Clouds 19 1021 60 10000 3.1 330 00:20 21.09.2019
1567 Clouds 19 1021 60 10000 2.1 340 23:46 20.09.2019
1568 Clouds 19 1021 60 10000 3.1 320 23:28 20.09.2019
1569 Clouds 20 1021 60 10000 2.1 320 22:42 20.09.2019
1570 Clouds 20 1021 60 10000 2.1 40 22:24 20.09.2019
1571 Clouds 17 1021 60 10000 5.1 100 21:57 20.09.2019
1572 Clouds 16 1021 60 10000 5.1 100 21:38 20.09.2019
1573 Clouds 19 1021 57 10000 5.1 110 21:20 20.09.2019
1574 Clouds 19 1020 64 10000 4.6 110 20:57 20.09.2019
1575 Clouds 19 1020 64 10000 4.6 110 20:38 20.09.2019
1576 Clouds 20 1020 60 10000 5.1 110 20:19 20.09.2019
1577 Clouds 18 1020 57 10000 6.2 100 19:45 20.09.2019
1578 Clouds 19 1020 60 10000 7.2 90 19:26 20.09.2019
1579 Clouds 19 1020 57 10000 7.2 80 18:58 20.09.2019
1580 Clouds 20 1020 57 10000 7.2 80 18:38 20.09.2019
1581 Clouds 23 1020 57 10000 6.7 90 18:18 20.09.2019
1582 Clouds 23 1021 57 10000 6.2 100 17:46 20.09.2019
1583 Clouds 23 1021 53 10000 6.2 100 17:27 20.09.2019
1584 Clouds 23 1021 53 10000 6.7 100 16:54 20.09.2019
1585 -273 0 0 0 0 0 16:54 20.09.2019
1586 Clouds 23 1021 53 10000 6.7 100 16:36 20.09.2019
1587 Clouds 24 1021 53 10000 7.7 100 16:18 20.09.2019
1588 Clouds 24 1021 53 10000 8.2 100 15:41 20.09.2019
1589 Clouds 24 1021 53 10000 8.2 100 15:22 20.09.2019
1590 Clouds 23 1021 50 10000 7.7 100 14:44 20.09.2019
1591 Clouds 23 1021 50 10000 7.7 100 14:20 20.09.2019
1592 Clouds 24 1022 50 10000 7.2 100 14:00 20.09.2019
1593 Clouds 24 1022 50 10000 7.2 100 13:40 20.09.2019
1594 Clouds 24 1022 53 10000 6.2 110 13:21 20.09.2019
1595 Clouds 24 1022 53 10000 5.7 100 12:41 20.09.2019
1596 Clouds 23 1022 57 10000 5.1 110 12:22 20.09.2019
1597 Clouds 22 1022 57 10000 6.2 100 11:51 20.09.2019
1598 Clouds 22 1022 60 10000 6.2 100 11:26 20.09.2019
1599 Clouds 23 1022 60 10000 4.1 90 10:58 20.09.2019
1600 Clouds 23 1022 60 10000 4.1 90 10:40 20.09.2019
1601 Clouds 23 1021 60 10000 2.1 310 10:22 20.09.2019
1602 Clouds 21 1021 73 10000 1.5 0 09:38 20.09.2019
1603 Clouds 21 1021 68 10000 3.6 320 09:19 20.09.2019
1604 Clouds 19 1020 72 10000 2.6 340 08:48 20.09.2019
1605 Clouds 19 1020 72 10000 5.1 320 08:29 20.09.2019
1606 Clouds 18 1020 77 10000 5.7 330 07:59 20.09.2019
1607 Clouds 18 1020 77 10000 5.7 330 07:40 20.09.2019
1608 Clouds 18 1020 72 10000 4.6 330 07:22 20.09.2019
1609 Clouds 18 1020 72 10000 4.6 330 06:43 20.09.2019
1610 Clouds 18 1020 72 10000 4.1 330 06:18 20.09.2019
1611 Clouds 19 1020 73 10000 2.1 330 04:58 20.09.2019
1612 Clear 19 1020 73 10000 4.1 330 03:29 20.09.2019
1613 Clear 19 1020 73 10000 4.1 330 03:29 20.09.2019
1614 Clear 19 1020 73 10000 3.1 340 02:39 20.09.2019
1615 Clouds 19 1020 68 10000 3.1 340 01:43 20.09.2019
1616 Clouds 19 1019 73 10000 2.6 350 00:43 20.09.2019
1617 Clear 20 1019 73 10000 3.6 320 23:56 19.09.2019
1618 Clear 20 1019 73 10000 3.6 320 23:38 19.09.2019
1619 Clear 20 1019 73 10000 2.1 340 23:18 19.09.2019
1620 Clear 20 1019 73 10000 2.6 320 22:40 19.09.2019
1621 Clear 21 1018 78 10000 2.1 280 22:22 19.09.2019
1622 Clear 21 1018 78 10000 2.6 260 21:58 19.09.2019
1623 Clear 21 1018 78 10000 2.6 260 21:39 19.09.2019
1624 Clear 21 1018 78 10000 1 230 21:20 19.09.2019
1625 Clear 21 1017 73 10000 1 220 20:59 19.09.2019
1626 Clear 22 1017 73 10000 1 220 20:40 19.09.2019
1627 Clouds 22 1017 73 10000 2.1 230 20:19 19.09.2019
1628 Clouds 21 1017 73 10000 0.5 0 19:55 19.09.2019
1629 Clouds 18 1017 73 10000 1.5 0 19:37 19.09.2019
1630 Clouds 18 1017 73 10000 1.5 0 19:18 19.09.2019
1631 Clouds 19 1016 73 10000 1.5 200 18:42 19.09.2019
1632 Clouds 23 1016 73 10000 2.6 160 18:23 19.09.2019
1633 Clouds 22 1016 69 10000 2.1 170 17:44 19.09.2019
1634 Clouds 23 1016 73 10000 2.6 170 17:25 19.09.2019
1635 Clouds 23 1016 73 10000 2.6 170 17:25 19.09.2019
1636 Clouds 23 1016 73 10000 1.5 150 16:59 19.09.2019
1637 Clouds 24 1016 73 10000 1.5 150 16:40 19.09.2019
1638 Clouds 24 1016 65 10000 1.5 170 16:20 19.09.2019
1639 -273 0 0 0 0 0 15:55 19.09.2019
1640 Thunderstorm 24 1016 65 10000 1.5 130 15:55 19.09.2019
1641 Thunderstorm 24 1016 65 10000 1.5 130 15:36 19.09.2019
1642 Clouds 24 1017 69 10000 2.1 170 15:18 19.09.2019
1643 Clouds 24 1017 69 10000 2.1 160 14:41 19.09.2019
1644 Clouds 24 1016 74 10000 2.6 160 14:22 19.09.2019
1645 Thunderstorm 25 1017 73 10000 2.6 160 13:58 19.09.2019
1646 Thunderstorm 25 1017 73 10000 2.6 160 13:38 19.09.2019
1647 Clouds 25 1017 69 10000 2.6 150 13:18 19.09.2019
1648 Clouds 25 1017 73 10000 2.1 140 12:38 19.09.2019
1649 Clouds 25 1017 69 10000 3.1 180 12:18 19.09.2019
1650 Clouds 24 1017 73 10000 2.1 130 11:56 19.09.2019
1651 Clouds 24 1017 65 10000 1.5 140 11:37 19.09.2019
1652 Clouds 24 1017 65 10000 1.5 140 11:18 19.09.2019
1653 Clouds 23 1016 65 10000 1.5 100 10:40 19.09.2019
1654 Clouds 23 1016 64 10000 1.5 0 10:21 19.09.2019
1655 Clouds 22 1016 83 10000 1.5 0 09:58 19.09.2019
1656 Clouds 22 1016 83 10000 1.5 0 09:40 19.09.2019
1657 Clouds 21 1016 73 10000 2.6 340 09:20 19.09.2019
1658 Clouds 20 1016 73 10000 3.6 330 08:51 19.09.2019
1659 Clouds 19 1015 77 10000 3.6 330 08:27 19.09.2019
1660 Clouds 19 1015 77 10000 3.6 330 07:46 19.09.2019
1661 Clouds 19 1015 77 10000 2.6 320 07:24 19.09.2019
1662 Clouds 19 1015 77 10000 2.1 350 06:59 19.09.2019
1663 Clouds 19 1015 77 10000 2.1 350 06:40 19.09.2019
1664 Clouds 19 1015 77 10000 2.1 330 06:21 19.09.2019
1665 Clouds 19 1015 77 10000 2.6 330 05:50 19.09.2019
1666 Clouds 19 1015 78 10000 3.1 330 04:23 19.09.2019
1667 Clouds 20 1015 83 10000 1.5 310 03:21 19.09.2019
1668 Clouds 20 1015 83 10000 2.6 320 01:45 19.09.2019
1669 Clouds 20 1015 83 10000 1.5 330 01:20 19.09.2019
1670 Clouds 20 1016 83 10000 1 0 00:45 19.09.2019
1671 Clouds 20 1016 83 10000 1.5 300 00:20 19.09.2019
1672 Clouds 20 1016 83 10000 1.5 320 23:38 18.09.2019
1673 Clouds 20 1016 83 10000 1.5 280 23:20 18.09.2019
1674 Clouds 21 1015 78 10000 0.5 0 22:42 18.09.2019
1675 Clouds 21 1015 83 10000 1 50 22:20 18.09.2019
1676 Clouds 21 1015 83 10000 1 90 21:58 18.09.2019
1677 Clouds 21 1015 83 10000 1 90 21:40 18.09.2019
1678 Clouds 21 1015 83 10000 1 90 21:40 18.09.2019
1679 Clouds 21 1015 78 10000 1 110 21:19 18.09.2019
1680 Clouds 21 1015 83 10000 1 110 20:58 18.09.2019
1681 Clouds 21 1015 83 10000 1 110 20:40 18.09.2019
1682 Clouds 22 1015 83 10000 0.9 119.129 20:22 18.09.2019
1683 Clouds 21 1015 73 10000 1 0 19:57 18.09.2019
1684 Clouds 20 1015 73 10000 1 0 19:38 18.09.2019
1685 Clouds 20 1015 73 10000 1 0 19:19 18.09.2019
1686 Clouds 20 1015 73 10000 1 0 19:19 18.09.2019
1687 Clouds 21 1015 73 10000 1.5 130 18:56 18.09.2019
1688 Clouds 21 1015 73 10000 1.5 120 18:37 18.09.2019
1689 Clouds 23 1015 73 10000 1.5 120 18:19 18.09.2019
1690 Clouds 23 1015 73 10000 1.5 120 18:19 18.09.2019
1691 Clouds 23 1015 73 10000 2.6 120 17:57 18.09.2019
1692 Clouds 23 1015 69 10000 2.6 120 17:39 18.09.2019
1693 Clouds 23 1015 69 10000 2.6 120 17:19 18.09.2019
1694 Clouds 23 1015 69 10000 2.6 120 16:56 18.09.2019
1695 Clouds 23 1015 69 10000 2.6 120 16:56 18.09.2019
1696 Clouds 24 1015 73 10000 3.1 130 16:37 18.09.2019
1697 Clouds 23 1015 73 10000 3.1 130 16:18 18.09.2019
1698 Clouds 24 1015 73 10000 3.1 120 15:55 18.09.2019
1699 Clouds 23 1015 69 10000 2.6 110 15:36 18.09.2019
1700 Clouds 24 1015 69 10000 2.6 110 15:18 18.09.2019
1701 Clouds 24 1015 69 10000 2.6 110 14:57 18.09.2019
1702 Clouds 24 1015 69 10000 2.6 110 14:38 18.09.2019
1703 Clouds 24 1015 73 10000 3.6 110 14:20 18.09.2019
1704 Clouds 24 1015 73 10000 4.1 100 13:43 18.09.2019
1705 Clouds 24 1015 73 10000 4.1 110 13:19 18.09.2019
1706 Clouds 24 1015 73 10000 4.1 110 13:19 18.09.2019
1707 Clouds 24 1015 73 10000 4.6 110 12:55 18.09.2019
1708 Clouds 24 1015 73 10000 5.1 100 12:37 18.09.2019
1709 Clouds 24 1015 73 10000 5.1 100 12:18 18.09.2019
1710 Clouds 23 1015 73 10000 5.7 80 11:39 18.09.2019
1711 Clouds 23 1015 73 10000 6.2 80 11:19 18.09.2019
1712 Clouds 23 1015 78 10000 6.2 90 10:41 18.09.2019
1713 Clouds 23 1015 78 10000 6.2 90 10:22 18.09.2019
1714 Clouds 22 1015 73 10000 6.2 80 09:59 18.09.2019
1715 Clouds 22 1015 73 10000 6.2 80 09:41 18.09.2019
1716 Clouds 21 1014 78 10000 5.7 80 09:22 18.09.2019
1717 Clouds 21 1014 83 10000 5.7 90 08:56 18.09.2019
1718 Clouds 20 1014 83 10000 5.7 80 08:38 18.09.2019
1719 Clouds 20 1014 83 10000 5.7 80 08:19 18.09.2019
1720 Clouds 19 1014 83 10000 5.1 80 07:43 18.09.2019
1721 Clouds 18 1014 83 10000 3.6 90 07:23 18.09.2019
1722 Clouds 20 1014 83 10000 2.6 80 06:46 18.09.2019
1723 Clouds 20 1013 94 10000 1 0 06:21 18.09.2019
1724 Clouds 20 1013 94 10000 1 0 06:21 18.09.2019
1725 Clouds 20 1014 78 10000 3.1 80 05:27 18.09.2019
1726 Clouds 21 1014 83 10000 3.1 80 03:40 18.09.2019
1727 Clouds 21 1014 78 10000 3.6 90 02:40 18.09.2019
1728 Clouds 22 1014 78 10000 2.6 100 01:50 18.09.2019
1729 Clouds 20 1014 78 10000 3.1 120 00:56 18.09.2019
1730 Clouds 20 1014 78 10000 3.6 90 00:33 18.09.2019
1731 Clouds 19 1014 78 10000 3.1 90 23:48 17.09.2019
1732 Clouds 18 1014 78 10000 3.1 90 23:48 17.09.2019
1733 Clouds 18 1014 78 10000 2.6 80 23:25 17.09.2019
1734 Clouds 18 1014 78 10000 2.6 80 23:25 17.09.2019
1735 Clouds 18 1014 78 10000 2.6 90 22:59 17.09.2019
1736 Clouds 18 1014 78 10000 2.6 90 22:41 17.09.2019
1737 Clouds 18 1014 78 10000 2.1 80 22:22 17.09.2019
1738 Clouds 18 1014 78 10000 1.5 90 21:54 17.09.2019
1739 Clouds 18 1014 78 10000 1.5 90 21:36 17.09.2019
1740 Clouds 23 1014 78 10000 1.5 80 21:18 17.09.2019
1741 Clouds 23 1014 78 10000 1.5 80 21:18 17.09.2019
1742 Clouds 22 1014 78 10000 1.5 0 20:57 17.09.2019
1743 Clouds 22 1014 78 10000 2.1 110 20:38 17.09.2019
1744 Clouds 22 1014 78 10000 2.1 110 20:20 17.09.2019
1745 Clouds 22 1014 78 10000 2.1 110 20:20 17.09.2019
1746 Clouds 20 1014 78 10000 2.6 100 19:57 17.09.2019
1747 Clouds 20 1014 78 10000 2.6 100 19:38 17.09.2019
1748 Clouds 23 1014 78 10000 2.1 120 19:18 17.09.2019
1749 Clouds 23 1014 78 10000 2.6 130 18:54 17.09.2019
1750 Clouds 23 1014 78 10000 2.6 130 18:36 17.09.2019
1751 Clouds 23 1014 78 10000 3.1 110 18:18 17.09.2019
1752 Clouds 24 1014 73 10000 3.6 110 17:44 17.09.2019
1753 Clouds 24 1014 73 10000 3.1 110 17:19 17.09.2019
1754 Clouds 24 1014 73 10000 2.6 120 16:56 17.09.2019
1755 Clouds 24 1014 73 10000 2.6 120 16:37 17.09.2019
1756 Clouds 24 1015 73 10000 2.6 120 16:19 17.09.2019
1757 Clouds 25 1015 73 10000 3.1 110 15:39 17.09.2019
1758 Clouds 24 1015 73 10000 3.1 110 15:20 17.09.2019
1759 Clouds 24 1016 73 10000 3.1 110 14:56 17.09.2019
1760 Clouds 24 1016 73 10000 3.1 110 14:56 17.09.2019
1761 Clouds 25 1016 73 10000 3.6 100 14:38 17.09.2019
1762 Clouds 24 1016 73 10000 3.6 100 14:19 17.09.2019
1763 Clouds 24 1016 73 10000 3.6 90 13:54 17.09.2019
1764 Clouds 24 1016 73 10000 4.1 90 13:36 17.09.2019
1765 Clouds 24 1016 73 10000 4.1 90 13:18 17.09.2019
1766 Clouds 24 1016 69 10000 4.6 90 12:41 17.09.2019
1767 Clouds 24 1016 73 10000 5.7 90 12:19 17.09.2019
1768 Clouds 24 1016 73 10000 4.6 90 11:44 17.09.2019
1769 Clouds 24 1016 78 10000 4.6 90 11:26 17.09.2019
1770 Clouds 24 1016 69 10000 3.1 70 10:59 17.09.2019
1771 Clouds 22 1016 69 10000 3.1 70 10:40 17.09.2019
1772 Clouds 22 1016 64 10000 1.5 0 10:20 17.09.2019
1773 Clouds 21 1016 68 10000 3.6 330 09:43 17.09.2019
1774 Clouds 19 1016 73 10000 3.6 330 09:24 17.09.2019
1775 Clouds 19 1016 72 10000 4.1 330 08:57 17.09.2019
1776 Clouds 19 1016 72 10000 4.1 330 08:39 17.09.2019
1777 Clouds 19 1016 72 10000 4.1 330 08:39 17.09.2019
1778 Clouds 19 1016 72 10000 4.6 330 08:20 17.09.2019
1779 Clouds 17 1016 72 10000 3.6 330 07:42 17.09.2019
1780 Clouds 17 1016 72 10000 3.6 330 07:42 17.09.2019
1781 Clouds 18 1016 72 10000 3.6 330 07:24 17.09.2019
1782 Clouds 18 1016 72 10000 3.6 330 07:24 17.09.2019
1783 Clouds 18 1016 72 10000 3.6 330 06:52 17.09.2019
1784 Clouds 18 1016 72 10000 4.1 330 06:29 17.09.2019
1785 Clouds 18 1016 77 10000 3.1 330 05:53 17.09.2019
1786 Clouds 18 1016 72 10000 3.1 330 04:55 17.09.2019
1787 Clouds 19 1016 73 10000 3.1 330 03:40 17.09.2019
1788 Clouds 19 1016 73 10000 2.6 330 02:39 17.09.2019
1789 Clouds 19 1017 73 10000 3.1 320 01:50 17.09.2019
1790 Clear 20 1017 73 10000 1.5 340 00:50 17.09.2019
1791 Clear 20 1017 69 10000 2.1 330 23:42 16.09.2019
1792 Clear 20 1017 73 10000 1.5 0 23:20 16.09.2019
1793 Clear 19 1017 78 10000 1 0 22:59 16.09.2019
1794 Clear 19 1017 78 10000 1 0 22:40 16.09.2019
1795 Clear 19 1017 83 10000 0.5 190 22:22 16.09.2019
1796 Clear 19 1017 83 10000 0.5 190 22:22 16.09.2019
1797 Clear 19 1017 83 10000 1 210 21:57 16.09.2019
1798 Clear 19 1017 83 10000 1 210 21:38 16.09.2019
1799 Clear 20 1017 78 10000 1.5 200 21:38 16.09.2019
1800 Clear 21 1017 78 10000 1.5 200 21:20 16.09.2019
1801 Clear 22 1017 78 10000 1.5 190 20:42 16.09.2019
1802 Clear 22 1017 78 10000 1.5 180 20:23 16.09.2019
1803 Clear 21 1017 78 10000 1.5 180 19:58 16.09.2019
1804 Clear 21 1017 78 10000 1.5 180 19:40 16.09.2019
1805 Clear 24 1017 69 10000 2.6 190 19:20 16.09.2019
1806 Clouds 24 1017 73 10000 3.1 200 18:57 16.09.2019
1807 Clouds 22 1017 69 10000 2.6 190 18:39 16.09.2019
1808 Clouds 24 1017 69 10000 2.6 190 18:20 16.09.2019
1809 Clouds 25 1017 69 10000 2.6 190 17:43 16.09.2019
1810 Clouds 25 1017 65 10000 2.6 180 17:24 16.09.2019
1811 Clouds 26 1017 65 10000 2.6 180 16:58 16.09.2019
1812 Clouds 26 1017 65 10000 2.6 180 16:39 16.09.2019
1813 Clouds 26 1018 65 10000 3.1 160 16:21 16.09.2019
1814 Clouds 26 1018 57 10000 3.1 160 15:56 16.09.2019
1815 Clear 26 1018 54 10000 3.1 170 15:38 16.09.2019
1816 Clear 26 1018 54 10000 3.1 170 15:20 16.09.2019
1817 Clear 26 1018 54 10000 3.6 170 14:57 16.09.2019
1818 Clear 26 1018 54 10000 3.6 170 14:38 16.09.2019
1819 Clear 26 1018 57 10000 3.6 170 14:19 16.09.2019
1820 Clear 26 1019 57 10000 3.6 180 13:40 16.09.2019
1821 Clear 26 1019 61 10000 3.1 180 13:22 16.09.2019
1822 Clear 26 1019 54 10000 3.1 190 12:54 16.09.2019
1823 Clear 26 1019 54 10000 3.1 190 12:54 16.09.2019
1824 Clear 26 1019 54 10000 3.1 190 12:54 16.09.2019
1825 Clear 26 1019 57 10000 3.1 190 12:36 16.09.2019
1826 Clear 25 1019 57 10000 3.1 190 12:18 16.09.2019
1827 Clear 24 1020 57 10000 3.6 210 11:44 16.09.2019
1828 Clear 25 1020 50 10000 1.5 0 11:22 16.09.2019
1829 Clear 25 1020 50 10000 2.6 330 10:40 16.09.2019
1830 Clear 24 1020 53 10000 3.1 330 10:21 16.09.2019
1831 Clear 23 1020 57 10000 3.1 330 09:59 16.09.2019
1832 Clear 23 1020 57 10000 3.1 330 09:41 16.09.2019
1833 Clear 22 1020 60 10000 3.1 340 09:20 16.09.2019
1834 Clear 21 1020 60 10000 3.6 330 08:52 16.09.2019
1835 Clear 20 1020 68 10000 2.6 330 08:31 16.09.2019
1836 Clear 19 1019 64 10000 4.1 330 07:59 16.09.2019
1837 Clear 18 1019 64 10000 4.1 330 07:40 16.09.2019
1838 Clear 20 1019 68 10000 3.1 340 07:20 16.09.2019
1839 Clear 20 1019 68 10000 3.6 330 06:49 16.09.2019
1840 Clear 20 1019 64 10000 3.6 330 06:31 16.09.2019
1841 Clear 20 1019 64 10000 5.1 330 05:58 16.09.2019
1842 Clear 20 1019 64 10000 5.1 330 05:39 16.09.2019
1843 Clear 20 1020 64 10000 5.1 330 05:18 16.09.2019
1844 Clear 20 1020 64 10000 3.1 330 03:35 16.09.2019
1845 Clear 21 1021 64 10000 3.6 320 00:58 16.09.2019
1846 Clear 21 1021 64 10000 3.1 320 00:37 16.09.2019
1847 Clear 21 1021 64 10000 3.1 320 00:19 16.09.2019
1848 Clear 20 1021 64 10000 2.6 330 23:39 15.09.2019
1849 Clear 20 1021 64 10000 2.6 330 23:20 15.09.2019
1850 Clear 19 1021 64 10000 1.5 320 22:39 15.09.2019
1851 Clear 19 1021 78 10000 1 30 22:20 15.09.2019
1852 Clear 20 1021 78 10000 1.5 110 21:57 15.09.2019
1853 Clear 20 1021 78 10000 1.5 110 21:39 15.09.2019
1854 Clear 21 1021 73 10000 1 110 21:20 15.09.2019
1855 Clear 21 1021 73 10000 1 110 21:20 15.09.2019
1856 Clear 22 1021 73 10000 1 110 20:55 15.09.2019
1857 Clear 22 1021 73 10000 1 110 20:37 15.09.2019
1858 Clear 22 1021 73 10000 1 110 20:19 15.09.2019
1859 Clear 21 1021 69 10000 0.92 66.678 19:42 15.09.2019
1860 Clear 22 1021 69 10000 1 180 19:22 15.09.2019
1861 Clear 22 1022 65 10000 2.1 180 18:42 15.09.2019
1862 Clear 25 1022 65 10000 2.6 170 18:24 15.09.2019
1863 Clear 25 1022 61 10000 3.1 160 17:56 15.09.2019
1864 Clear 26 1022 61 10000 3.1 160 17:36 15.09.2019
1865 Clear 26 1022 65 10000 2.1 150 17:18 15.09.2019
1866 Clear 26 1022 65 10000 1.5 140 16:42 15.09.2019
1867 Clear 26 1023 65 10000 2.6 80 16:24 15.09.2019
1868 Clear 26 1023 65 10000 2.1 100 15:58 15.09.2019
1869 Clear 26 1023 65 10000 2.1 100 15:58 15.09.2019
1870 Clear 26 1023 65 10000 2.1 100 15:39 15.09.2019
1871 Clear 26 1023 65 10000 2.6 100 15:19 15.09.2019
1872 Clear 26 1023 69 10000 4.1 90 14:56 15.09.2019
1873 Clear 25 1023 69 10000 4.1 90 14:38 15.09.2019
1874 Clear 26 1024 69 10000 4.1 90 14:20 15.09.2019
1875 Clear 26 1024 57 10000 2.6 110 13:45 15.09.2019
1876 Clear 26 1024 65 10000 1.5 110 13:24 15.09.2019
1877 Clear 27 1024 65 10000 2.6 110 12:55 15.09.2019
1878 Clear 27 1024 57 10000 2.1 120 12:36 15.09.2019
1879 Clear 26 1024 57 10000 2.1 120 12:18 15.09.2019
1880 Clear 25 1024 54 10000 1.5 120 11:42 15.09.2019
1881 Clear 26 1024 47 10000 1.5 0 11:22 15.09.2019
1882 Clear 27 1024 47 10000 1.5 70 10:56 15.09.2019
1883 Clear 24 1024 50 10000 2.6 30 10:38 15.09.2019
1884 Clear 23 1024 50 10000 2.6 30 10:20 15.09.2019
1885 Clear 24 1024 53 10000 4.1 350 09:40 15.09.2019
1886 Clear 23 1024 56 10000 5.1 330 09:20 15.09.2019
1887 Clear 21 1024 60 10000 4.6 330 08:48 15.09.2019
1888 Clear 21 1024 60 10000 4.1 330 08:29 15.09.2019
1889 Clear 20 1024 60 10000 4.6 340 07:51 15.09.2019
1890 Clear 18 1023 56 10000 5.1 340 07:33 15.09.2019
1891 Clear 21 1023 56 10000 4.6 340 06:43 15.09.2019
1892 Clear 21 1024 56 10000 3.6 320 04:38 15.09.2019
1893 Clear 22 1024 56 10000 4.1 340 02:55 15.09.2019
1894 Clear 22 1024 53 10000 4.1 340 01:58 15.09.2019
1895 Clear 22 1024 56 10000 4.6 340 01:35 15.09.2019
1896 Clear 22 1024 53 10000 3.6 340 00:56 15.09.2019
1897 Clear 22 1024 53 10000 3.6 340 00:36 15.09.2019
1898 Clear 22 1024 53 10000 4.1 330 00:18 15.09.2019
1899 Clear 21 1025 53 10000 3.6 330 23:54 14.09.2019
1900 Clear 21 1025 53 10000 3.6 330 23:54 14.09.2019
1901 Clear 21 1025 53 10000 4.6 330 23:36 14.09.2019
1902 Clear 21 1025 53 10000 4.6 330 23:18 14.09.2019
1903 -273 0 0 0 0 0 22:55 14.09.2019
1904 Clear 21 1025 57 10000 2.6 360 22:36 14.09.2019
1905 Clear 21 1025 57 10000 2.6 360 22:18 14.09.2019
1906 Clear 22 1025 57 10000 2.1 330 21:40 14.09.2019
1907 Clear 22 1025 50 10000 3.1 320 21:20 14.09.2019
1908 Clear 22 1025 53 10000 2.1 300 20:56 14.09.2019
1909 Clear 22 1025 53 10000 2.1 300 20:38 14.09.2019
1910 Clear 23 1025 53 10000 2.1 270 20:19 14.09.2019
1911 Clear 25 1025 47 10000 1.5 250 19:45 14.09.2019
1912 Clear 22 1024 47 10000 1.5 210 19:21 14.09.2019
1913 Clear 23 1024 47 10000 0.97 75.491 18:57 14.09.2019
1914 Clear 24 1024 47 10000 0.97 75.491 18:37 14.09.2019
1915 Clear 26 1025 47 10000 0.5 0 18:19 14.09.2019
1916 Clear 26 1025 57 10000 0.5 0 17:44 14.09.2019
1917 Clear 26 1025 54 10000 1 0 17:23 14.09.2019
1918 Clear 27 1025 57 10000 1.5 120 16:50 14.09.2019
1919 Clear 27 1025 54 10000 2.1 120 16:29 14.09.2019
1920 Clear 27 1025 57 10000 3.1 90 15:59 14.09.2019
1921 Clear 26 1025 57 10000 3.1 90 15:40 14.09.2019
1922 Clear 27 1026 57 10000 3.6 90 15:22 14.09.2019
1923 Clear 27 1026 57 10000 3.6 90 15:22 14.09.2019
1924 Clear 27 1026 57 10000 3.6 90 15:22 14.09.2019
1925 Clear 27 1026 54 10000 3.1 90 14:45 14.09.2019
1926 Clear 27 1026 57 10000 4.1 100 14:20 14.09.2019
1927 Clear 27 1026 69 10000 3.6 100 13:56 14.09.2019
1928 Clear 27 1026 69 10000 3.6 100 13:38 14.09.2019
1929 Clear 27 1026 65 10000 3.1 110 13:20 14.09.2019
1930 Clear 27 1026 69 10000 4.1 90 12:45 14.09.2019
1931 Clear 26 1026 65 10000 2.1 110 12:22 14.09.2019
1932 Clear 27 1026 69 10000 3.1 100 11:41 14.09.2019
1933 Clear 27 1026 74 10000 4.1 90 11:20 14.09.2019
1934 Clear 24 1027 65 10000 3.1 70 10:40 14.09.2019
1935 Clear 24 1026 44 10000 3.6 30 10:21 14.09.2019
1936 Clear 22 1026 50 10000 3.1 340 09:58 14.09.2019
1937 Clear 25 1026 50 10000 3.1 340 09:40 14.09.2019
1938 Clear 22 1027 53 10000 4.1 330 09:20 14.09.2019
1939 Clear 21 1027 60 10000 6.7 330 08:56 14.09.2019
1940 Clear 21 1026 60 10000 6.2 330 08:37 14.09.2019
1941 Clear 20 1026 60 10000 6.2 330 08:18 14.09.2019
1942 Clear 18 1026 56 10000 4.1 330 07:42 14.09.2019
1943 Clear 18 1026 56 10000 4.1 330 07:20 14.09.2019
1944 Clear 20 1026 60 10000 4.1 340 06:32 14.09.2019
1945 Clear 20 1026 60 10000 5.1 330 05:43 14.09.2019
1946 Clear 21 1026 60 10000 4.1 340 03:59 14.09.2019
1947 Clear 21 1026 60 10000 3.6 340 03:20 14.09.2019
1948 Clear 21 1026 60 10000 4.6 340 02:42 14.09.2019
1949 Clear 21 1026 56 10000 4.6 340 01:45 14.09.2019
1950 Clear 21 1026 56 10000 4.6 330 01:19 14.09.2019
1951 Clear 21 1026 56 10000 4.1 340 00:40 14.09.2019
1952 Clear 22 1026 56 10000 4.1 340 00:21 14.09.2019
1953 Clear 21 1026 60 10000 4.6 340 23:55 13.09.2019
1954 Clear 21 1026 60 10000 4.6 340 23:55 13.09.2019
1955 Clear 20 1026 60 10000 4.6 340 23:36 13.09.2019
1956 Clear 20 1026 57 10000 4.1 330 23:18 13.09.2019
1957 Clear 20 1026 57 10000 3.1 340 22:40 13.09.2019
1958 Clear 21 1026 57 10000 3.6 320 22:22 13.09.2019
1959 Clear 21 1026 53 10000 3.1 320 21:59 13.09.2019
1960 Clear 22 1026 47 10000 2.1 330 21:39 13.09.2019
1961 Clear 22 1026 47 10000 2.1 330 21:19 13.09.2019
1962 Clear 22 1026 53 10000 1 0 20:57 13.09.2019
1963 Clear 23 1026 54 10000 1 70 20:37 13.09.2019
1964 Clear 23 1026 54 10000 1 70 20:19 13.09.2019
1965 Clear 21 1026 50 10000 1 0 19:54 13.09.2019
1966 Clear 22 1026 42 10000 0.5 100 19:36 13.09.2019
1967 Clear 23 1026 42 10000 0.5 100 19:18 13.09.2019
1968 Clear 24 1027 61 10000 1 0 18:38 13.09.2019
1969 Clear 24 1027 61 10000 1 0 18:20 13.09.2019
1970 Clear 26 1027 61 10000 1.5 170 17:55 13.09.2019
1971 Clear 26 1027 61 10000 1.5 170 17:55 13.09.2019
1972 Clear 26 1027 65 10000 1.5 0 17:36 13.09.2019
1973 Clear 26 1027 65 10000 1.5 0 17:18 13.09.2019
1974 Clear 26 1027 69 10000 2.6 100 16:40 13.09.2019
1975 Clear 26 1027 69 10000 2.6 100 16:20 13.09.2019
1976 Clear 26 1028 69 10000 1.5 140 15:44 13.09.2019
1977 Clear 26 1028 65 10000 2.1 170 15:25 13.09.2019
1978 Clear 26 1028 65 10000 2.6 150 14:56 13.09.2019
1979 Clear 26 1028 65 10000 2.6 110 14:38 13.09.2019
1980 Clear 26 1028 65 10000 2.6 110 14:19 13.09.2019
1981 Clear 27 1028 65 10000 3.1 110 13:44 13.09.2019
1982 Clear 27 1028 61 10000 2.1 110 13:22 13.09.2019
1983 Clear 27 1029 61 10000 2.1 130 12:54 13.09.2019
1984 Clear 26 1029 65 10000 2.6 120 12:36 13.09.2019
1985 Clear 26 1029 65 10000 2.6 120 12:18 13.09.2019
1986 Clear 26 1028 54 10000 1.5 130 11:54 13.09.2019
1987 Clear 27 1028 42 10000 1.5 120 11:18 13.09.2019
1988 Clear 27 1028 44 10000 1.5 320 10:37 13.09.2019
1989 Clear 26 1028 47 10000 5.1 340 10:19 13.09.2019
1990 Clear 24 1028 53 10000 4.6 330 09:44 13.09.2019
1991 Clear 24 1028 53 10000 4.6 330 09:44 13.09.2019
1992 Clear 21 1028 56 10000 5.1 330 09:23 13.09.2019
1993 Clear 20 1028 60 10000 5.7 330 08:58 13.09.2019
1994 Clear 21 1028 60 10000 5.7 330 08:40 13.09.2019
1995 Clear 21 1028 64 10000 5.7 320 08:20 13.09.2019
1996 Clear 20 1028 64 10000 4.1 340 07:45 13.09.2019
1997 Clear 19 1028 77 10000 2.1 10 07:27 13.09.2019
1998 Clear 19 1028 77 10000 2.1 10 07:27 13.09.2019
1999 Clear 20 1028 64 10000 3.1 330 06:45 13.09.2019
2000 Clear 19 1028 64 10000 4.6 330 05:48 13.09.2019
2001 Clear 19 1028 64 10000 4.1 340 04:53 13.09.2019
2002 Clear 21 1028 60 10000 4.6 340 03:39 13.09.2019
2003 Clear 21 1028 60 10000 3.1 330 02:20 13.09.2019
2004 Clear 21 1027 60 10000 4.6 330 01:52 13.09.2019
2005 Clear 21 1027 60 10000 4.1 330 01:33 13.09.2019
2006 Clear 21 1027 56 10000 3.6 330 00:39 13.09.2019
2007 Clear 21 1027 56 10000 4.1 330 23:59 12.09.2019
2008 Clear 20 1027 56 10000 5.1 330 23:38 12.09.2019
2009 Clear 20 1027 56 10000 5.1 330 23:19 12.09.2019
2010 Clear 21 1027 60 10000 4.6 330 22:42 12.09.2019
2011 Clear 20 1027 60 10000 3.1 330 22:23 12.09.2019
2012 Clear 21 1027 53 10000 2.1 320 21:57 12.09.2019
2013 Clear 21 1027 57 10000 1.5 240 21:38 12.09.2019
2014 Clear 21 1027 57 10000 1.5 240 21:38 12.09.2019
2015 Clear 22 1027 57 10000 1.5 240 21:20 12.09.2019
2016 Clear 23 1027 64 10000 1.5 360 20:56 12.09.2019
2017 Clear 23 1027 64 10000 1.5 360 20:38 12.09.2019
2018 Clear 22 1027 57 10000 1.25 45.715 20:20 12.09.2019
2019 Clear 22 1027 57 10000 1.25 45.715 20:20 12.09.2019
2020 Clouds 24 1027 57 10000 0.5 0 19:54 12.09.2019
2021 Clouds 22 1027 57 10000 0.5 0 19:36 12.09.2019
2022 Clouds 23 1027 57 10000 1 0 19:18 12.09.2019
2023 Clouds 23 1027 57 10000 1 0 18:38 12.09.2019
2024 Clouds 25 1027 57 10000 1 0 18:20 12.09.2019
2025 Clouds 26 1027 57 10000 1 0 17:57 12.09.2019
2026 Clouds 26 1027 57 10000 1 0 17:38 12.09.2019
2027 Clear 26 1027 57 10000 1.5 160 17:19 12.09.2019
2028 Clear 26 1027 57 10000 2.1 160 16:42 12.09.2019
2029 Clear 26 1027 57 10000 2.1 150 16:22 12.09.2019
2030 Clouds 26 1027 61 10000 2.6 130 15:58 12.09.2019
2031 Clouds 26 1027 61 10000 2.6 130 15:38 12.09.2019
2032 Clear 26 1027 54 10000 3.1 140 15:20 12.09.2019
2033 Clear 26 1028 57 10000 3.1 130 14:44 12.09.2019
2034 Clear 26 1028 57 10000 3.1 140 14:21 12.09.2019
2035 Clear 26 1027 61 10000 3.6 170 13:54 12.09.2019
2036 Clear 26 1027 61 10000 3.6 170 13:36 12.09.2019
2037 Clear 26 1027 57 10000 3.6 180 13:18 12.09.2019
2038 Clear 26 1027 57 10000 3.6 180 13:18 12.09.2019
2039 Clear 27 1027 51 10000 3.6 200 12:41 12.09.2019
2040 Clear 26 1027 42 10000 1.5 0 12:18 12.09.2019
2041 Clear 24 1027 39 10000 2.6 340 11:55 12.09.2019
2042 Clear 26 1027 47 10000 4.6 330 11:36 12.09.2019
2043 Clear 26 1027 47 10000 4.6 330 11:18 12.09.2019
2044 Clear 26 1027 53 10000 5.1 330 10:43 12.09.2019
2045 Clear 23 1027 57 10000 4.1 330 10:24 12.09.2019
2046 Clear 23 1026 60 10000 4.6 330 09:44 12.09.2019
2047 Clear 23 1026 60 10000 4.6 330 09:44 12.09.2019
2048 Clear 21 1026 64 10000 4.6 330 09:21 12.09.2019
2049 Clear 18 1026 68 10000 5.1 330 08:58 12.09.2019
2050 Clear 19 1025 68 10000 4.6 330 08:39 12.09.2019
2051 Clear 19 1025 68 10000 4.6 330 08:21 12.09.2019
2052 Clear 18 1025 72 10000 4.1 340 07:39 12.09.2019
2053 Clear 18 1025 72 10000 4.1 340 07:19 12.09.2019
2054 Clear 18 1024 68 10000 4.6 330 06:50 12.09.2019
2055 Clear 18 1024 68 10000 4.6 330 06:50 12.09.2019
2056 Clear 18 1024 68 10000 4.6 330 06:19 12.09.2019
2057 Clear 18 1024 68 10000 3.6 330 05:48 12.09.2019
2058 Clear 19 1023 64 10000 3.6 330 05:29 12.09.2019
2059 Clear 19 1023 64 10000 2.1 340 04:35 12.09.2019
2060 Clear 19 1023 64 10000 2.6 340 02:24 12.09.2019
2061 Clear 19 1022 72 10000 3.1 340 01:30 12.09.2019
2062 Clear 18 1023 68 10000 4.1 340 00:59 12.09.2019
2063 Clear 18 1023 68 10000 4.1 340 00:41 12.09.2019
2064 Clear 19 1023 68 10000 3.6 340 00:23 12.09.2019
2065 Clear 18 1023 82 10000 2.6 10 23:41 11.09.2019
2066 Clear 18 1023 72 10000 3.6 320 23:22 11.09.2019
2067 Clear 18 1023 73 10000 2.6 330 22:56 11.09.2019
2068 Clear 18 1023 73 10000 2.6 330 22:37 11.09.2019
2069 Clear 16 1023 68 10000 2.6 320 22:19 11.09.2019
2070 Clear 16 1023 68 10000 2.6 320 22:19 11.09.2019
2071 Clear 17 1023 64 10000 2.1 300 21:42 11.09.2019
2072 Clear 20 1022 64 10000 1 0 21:24 11.09.2019
2073 Clouds 21 1021 64 10000 1.5 200 20:58 11.09.2019
2074 Clouds 21 1021 64 10000 1.5 200 20:39 11.09.2019
2075 Clouds 21 1021 64 10000 1.5 200 20:39 11.09.2019
2076 Clouds 21 1021 64 10000 1.5 200 20:19 11.09.2019
2077 Clouds 18 1021 60 10000 2.1 170 19:58 11.09.2019
2078 Clouds 19 1021 57 10000 2.1 170 19:39 11.09.2019
2079 Clouds 19 1021 57 10000 2.1 170 19:21 11.09.2019
2080 Clouds 21 1020 57 10000 2.1 130 18:58 11.09.2019
2081 Clouds 20 1020 57 10000 2.1 130 18:38 11.09.2019
2082 Clouds 24 1020 57 10000 2.6 100 18:19 11.09.2019
2083 Clouds 25 1020 57 10000 2.6 120 17:56 11.09.2019
2084 Clouds 24 1020 53 10000 3.1 120 17:37 11.09.2019
2085 Clouds 24 1020 53 10000 3.1 120 17:19 11.09.2019
2086 Clear 24 1020 50 10000 2.6 180 16:48 11.09.2019
2087 Clouds 24 1021 57 10000 3.1 120 16:25 11.09.2019
2088 Clouds 24 1021 57 10000 3.1 120 16:25 11.09.2019
2089 Clouds 24 1021 57 10000 4.1 130 15:54 11.09.2019
2090 Clouds 24 1021 57 10000 4.1 130 15:54 11.09.2019
2091 Clouds 24 1021 57 10000 3.1 140 15:36 11.09.2019
2092 Clouds 25 1021 57 10000 3.1 140 15:18 11.09.2019
2093 Clouds 25 1021 57 10000 3.1 140 14:55 11.09.2019
2094 Clouds 25 1021 61 10000 3.6 130 14:36 11.09.2019
2095 Clouds 25 1021 61 10000 3.6 130 14:18 11.09.2019
2096 Clouds 26 1021 61 10000 4.1 150 13:38 11.09.2019
2097 Clouds 26 1021 61 10000 4.1 150 13:38 11.09.2019
2098 Clouds 26 1021 50 10000 2.6 170 13:20 11.09.2019
2099 Clouds 26 1021 50 10000 2.6 170 13:20 11.09.2019
2100 Clouds 26 1021 44 10000 2.1 150 12:56 11.09.2019
2101 Clouds 26 1021 44 10000 2.1 150 12:38 11.09.2019
2102 Clear 24 1021 41 10000 1.5 0 12:20 11.09.2019
2103 Clear 24 1020 44 10000 2.1 340 11:39 11.09.2019
2104 Clear 24 1020 47 10000 4.1 320 11:21 11.09.2019
2105 Clear 24 1019 49 10000 5.7 330 10:57 11.09.2019
2106 Clear 23 1019 49 10000 6.2 330 10:38 11.09.2019
2107 Clear 23 1019 49 10000 6.2 330 10:19 11.09.2019
2108 Clear 22 1018 56 10000 5.7 330 09:40 11.09.2019
2109 Clear 16 1018 56 10000 6.2 340 09:20 11.09.2019
2110 Clouds 16 1018 59 10000 6.7 340 08:56 11.09.2019
2111 Clouds 16 1018 55 10000 6.7 330 08:38 11.09.2019
2112 Clouds 15 1018 55 10000 6.7 330 08:20 11.09.2019
2113 Clouds 14 1017 55 10000 7.2 330 07:40 11.09.2019
2114 Clouds 14 1017 59 10000 7.7 330 07:22 11.09.2019
2115 Clouds 17 1017 63 10000 7.2 330 06:48 11.09.2019
2116 Clear 17 1017 55 10000 7.2 330 06:29 11.09.2019
2117 Clear 16 1016 63 10000 6.7 320 05:37 11.09.2019
2118 Clear 17 1016 63 10000 6.7 320 05:19 11.09.2019
2119 Clear 17 1016 63 10000 6.7 320 05:19 11.09.2019
2120 Clear 17 1017 63 10000 7.2 330 04:39 11.09.2019
2121 Clear 17 1016 55 10000 7.7 360 03:32 11.09.2019
2122 Clouds 17 1016 49 10000 7.2 360 02:42 11.09.2019
2123 Clouds 18 1015 49 10000 8.2 360 01:53 11.09.2019
2124 Clouds 18 1015 52 10000 7.7 360 00:50 11.09.2019
2125 Clouds 17 1015 68 10000 6.7 360 00:21 11.09.2019
2126 -273 0 0 0 0 0 23:55 10.09.2019
2127 Clouds 17 1015 68 10000 6.7 360 23:36 10.09.2019
2128 Clouds 18 1015 52 10000 7.2 360 23:18 10.09.2019
2129 Clouds 18 1015 52 10000 6.2 10 22:41 10.09.2019
2130 Clouds 18 1015 56 10000 6.7 360 22:19 10.09.2019
2131 Clouds 18 1015 56 10000 6.7 360 22:19 10.09.2019
2132 Clouds 18 1014 59 10000 7.2 360 21:55 10.09.2019
2133 Clouds 17 1014 59 10000 7.2 360 21:37 10.09.2019
2134 Clouds 17 1014 59 10000 7.7 360 21:18 10.09.2019
2135 Clouds 17 1014 59 10000 7.2 360 20:57 10.09.2019
2136 Clouds 18 1014 63 10000 6.2 360 20:38 10.09.2019
2137 Clouds 18 1014 63 10000 6.2 360 20:20 10.09.2019
2138 Rain 17 1014 63 10000 6.7 350 19:56 10.09.2019
2139 Rain 17 1014 63 10000 6.7 350 19:37 10.09.2019
2140 Rain 17 1014 72 10000 6.2 360 19:19 10.09.2019
2141 Rain 17 1014 72 10000 5.1 10 18:55 10.09.2019
2142 Rain 17 1014 72 10000 6.2 10 18:37 10.09.2019
2143 Rain 17 1014 72 10000 6.2 10 18:18 10.09.2019
2144 Rain 16 1014 72 10000 7.2 10 17:43 10.09.2019
2145 Rain 16 1014 82 10000 5.7 20 17:22 10.09.2019
2146 Rain 16 1014 82 10000 6.2 20 16:58 10.09.2019
2147 Rain 16 1014 82 10000 6.2 20 16:39 10.09.2019
2148 Rain 16 1014 82 6000 5.7 10 16:21 10.09.2019
2149 Rain 16 1014 82 8000 4.6 20 15:58 10.09.2019
2150 Rain 16 1014 82 8000 4.6 20 15:39 10.09.2019
2151 Rain 15 1014 87 6000 5.7 10 15:20 10.09.2019
2152 Rain 16 1014 82 8000 5.7 20 14:41 10.09.2019
2153 Rain 16 1014 82 8000 6.7 30 14:23 10.09.2019
2154 Rain 16 1014 82 9000 3.6 20 13:56 10.09.2019
2155 Rain 16 1015 82 6000 3.1 30 13:37 10.09.2019
2156 Rain 15 1015 82 6000 3.1 30 13:19 10.09.2019
2157 Rain 15 1015 82 6000 3.1 30 12:43 10.09.2019
2158 Rain 15 1015 82 6000 3.1 30 12:43 10.09.2019
2159 Rain 15 1015 87 6000 4.6 360 12:24 10.09.2019
2160 Rain 15 1015 87 4000 4.6 20 11:57 10.09.2019
2161 Rain 15 1015 87 4000 5.1 360 11:39 10.09.2019
2162 Rain 15 1015 87 4000 5.1 360 11:20 10.09.2019
2163 Rain 16 1014 72 8000 9.3 60 10:42 10.09.2019
2164 Rain 16 1014 72 8000 9.3 60 10:19 10.09.2019
2165 Rain 17 1014 82 4000 8.7 90 09:56 10.09.2019
2166 Rain 17 1013 68 8000 4.1 330 09:37 10.09.2019
2167 Rain 17 1013 68 8000 4.1 330 09:18 10.09.2019
2168 Clouds 18 1013 59 10000 5.1 330 08:43 10.09.2019
2169 Clouds 18 1013 59 10000 5.1 330 08:24 10.09.2019
2170 Clouds 17 1013 55 10000 3.6 350 07:45 10.09.2019
2171 Clouds 17 1012 59 10000 6.2 10 07:26 10.09.2019
2172 Clouds 17 1012 59 10000 6.2 10 07:26 10.09.2019
2173 Clouds 17 1012 59 10000 4.6 330 06:53 10.09.2019
2174 Clouds 16 1013 63 10000 4.6 330 06:35 10.09.2019
2175 Clouds 16 1013 63 10000 5.1 330 05:24 10.09.2019
2176 Clouds 16 1013 63 10000 4.6 330 03:51 10.09.2019
2177 Clear 16 1013 59 10000 4.1 330 02:23 10.09.2019
2178 Clear 16 1013 59 10000 4.1 330 02:23 10.09.2019
2179 Clear 16 1013 59 10000 4.1 330 02:23 10.09.2019
2180 Clear 16 1013 59 10000 4.1 330 02:23 10.09.2019
2181 Clear 16 1013 59 10000 4.1 330 02:23 10.09.2019
2182 Clear 16 1014 63 10000 3.1 330 01:58 10.09.2019
2183 Clear 16 1014 63 10000 3.1 330 01:40 10.09.2019
2184 Clear 16 1013 63 10000 2.6 340 00:54 10.09.2019
2185 Clear 17 1014 63 10000 3.1 350 00:25 10.09.2019
2186 Clear 17 1014 68 10000 2.6 350 23:47 09.09.2019
2187 Clear 16 1014 60 10000 2.1 10 23:20 09.09.2019
2188 Clear 15 1013 60 10000 3.6 20 22:57 09.09.2019
2189 Clear 15 1013 56 10000 2.6 320 22:39 09.09.2019
2190 Clear 15 1013 56 10000 2.6 320 22:39 09.09.2019
2191 Clear 14 1013 56 10000 2.6 320 22:20 09.09.2019
2192 Clear 15 1013 60 10000 2.6 260 21:57 09.09.2019
2193 Clear 15 1013 56 10000 1.5 260 21:39 09.09.2019
2194 Clear 18 1013 56 10000 1.5 260 21:20 09.09.2019
2195 Clear 19 1013 49 10000 1.5 0 20:57 09.09.2019
2196 Clear 19 1013 49 10000 2.1 230 20:37 09.09.2019
2197 Clear 20 1013 49 10000 2.1 230 20:19 09.09.2019
2198 Clouds 17 1013 49 10000 3.6 220 19:58 09.09.2019
2199 Clouds 17 1013 53 10000 3.6 200 19:39 09.09.2019
2200 Clouds 17 1013 53 10000 3.6 200 19:19 09.09.2019
2201 Clouds 17 1012 56 10000 3.6 190 18:58 09.09.2019
2202 Clouds 17 1012 53 10000 3.1 180 18:40 09.09.2019
2203 Clouds 22 1012 53 10000 3.1 180 18:21 09.09.2019
2204 Clouds 22 1012 53 10000 3.1 180 18:21 09.09.2019
2205 Clouds 22 1012 50 10000 3.1 170 17:58 09.09.2019
2206 Clouds 22 1012 50 10000 3.1 180 17:40 09.09.2019
2207 Clouds 22 1012 50 10000 3.1 180 17:21 09.09.2019
2208 Clouds 22 1012 53 10000 3.6 180 16:56 09.09.2019
2209 Clouds 22 1013 50 10000 3.1 180 16:38 09.09.2019
2210 Clouds 22 1013 50 10000 3.1 180 16:19 09.09.2019
2211 -273 0 0 0 0 0 15:56 09.09.2019
2212 Clouds 23 1013 47 10000 2.6 160 15:36 09.09.2019
2213 Clouds 22 1013 47 10000 2.6 160 15:18 09.09.2019
2214 Clouds 23 1013 47 10000 2.1 160 14:55 09.09.2019
2215 Clouds 23 1013 47 10000 2.1 170 14:37 09.09.2019
2216 Clouds 23 1013 47 10000 2.1 170 14:37 09.09.2019
2217 Clouds 23 1013 47 10000 2.1 170 14:18 09.09.2019
2218 Clouds 23 1013 44 10000 2.1 150 13:44 09.09.2019
2219 Clouds 23 1013 41 10000 2.1 170 13:20 09.09.2019
2220 Clouds 23 1013 43 10000 2.1 170 12:58 09.09.2019
2221 Clouds 23 1013 40 10000 2.1 160 12:38 09.09.2019
2222 Clouds 23 1013 40 10000 2.1 160 12:20 09.09.2019
2223 Clouds 23 1013 40 10000 2.1 160 12:20 09.09.2019
2224 Clouds 23 1013 33 10000 2.1 160 11:47 09.09.2019
2225 Clear 22 1013 28 10000 1 0 11:23 09.09.2019
2226 Clear 22 1012 28 10000 3.6 340 10:59 09.09.2019
2227 Clouds 21 1012 32 10000 4.6 330 10:41 09.09.2019
2228 Clouds 21 1012 32 10000 4.6 330 10:20 09.09.2019
2229 Clouds 20 1012 37 10000 4.6 320 09:57 09.09.2019
2230 Clouds 20 1012 37 10000 4.6 320 09:57 09.09.2019
2231 Clouds 19 1012 39 10000 5.7 330 09:38 09.09.2019
2232 Clouds 13 1012 39 10000 5.7 330 09:19 09.09.2019
2233 Clouds 13 1012 42 10000 2.6 330 08:39 09.09.2019
2234 Clouds 13 1012 42 10000 2.6 330 08:39 09.09.2019
2235 Clouds 15 1012 42 10000 2.6 330 08:20 09.09.2019
2236 Clouds 15 1012 42 10000 2.6 330 08:20 09.09.2019
2237 Clear 14 1011 44 10000 3.6 340 07:46 09.09.2019
2238 Clear 14 1011 44 10000 5.1 340 07:23 09.09.2019
2239 Clear 14 1011 44 10000 3.1 350 06:57 09.09.2019
2240 Clear 14 1011 44 10000 4.1 330 06:35 09.09.2019
2241 Clear 15 1011 45 10000 4.1 340 04:56 09.09.2019
2242 Clouds 16 1012 45 10000 3.6 330 02:54 09.09.2019
2243 Clouds 16 1012 45 10000 4.1 330 02:34 09.09.2019
2244 Clouds 17 1012 48 10000 4.6 320 00:43 09.09.2019
2245 Clouds 17 1012 55 10000 3.6 330 00:22 09.09.2019
2246 Clouds 18 1012 56 10000 2.6 350 23:45 08.09.2019
2247 Clouds 18 1012 49 10000 3.6 90 23:24 08.09.2019
2248 Clouds 18 1012 49 10000 3.6 90 23:24 08.09.2019
2249 Clouds 16 1012 53 10000 1 0 22:56 08.09.2019
2250 Clouds 16 1011 46 10000 1 360 22:38 08.09.2019
2251 Clouds 16 1011 46 10000 1 360 22:19 08.09.2019
2252 Clouds 16 1011 46 10000 3.1 20 21:42 08.09.2019
2253 Clouds 20 1010 46 10000 3.1 40 21:23 08.09.2019
2254 Clouds 20 1009 49 10000 8.2 80 20:58 08.09.2019
2255 Clouds 20 1009 56 10000 8.7 90 20:39 08.09.2019
2256 Clouds 20 1009 56 10000 8.7 90 20:20 08.09.2019
2257 Clouds 20 1008 60 10000 8.7 90 19:59 08.09.2019
2258 Clouds 19 1007 53 10000 5.1 90 19:38 08.09.2019
2259 Clouds 19 1007 53 10000 5.1 90 19:19 08.09.2019
2260 Clouds 22 1007 60 10000 6.2 70 18:57 08.09.2019
2261 Clouds 23 1007 60 10000 7.7 80 18:38 08.09.2019
2262 Clouds 21 1007 60 10000 7.7 80 18:18 08.09.2019
2263 Clouds 21 1007 60 10000 7.7 90 17:56 08.09.2019
2264 Clouds 21 1007 53 10000 8.2 80 17:36 08.09.2019
2265 Clouds 23 1008 57 10000 8.2 80 17:18 08.09.2019
2266 Clouds 22 1008 57 10000 8.2 80 16:43 08.09.2019
2267 Clouds 22 1009 50 10000 6.7 80 16:22 08.09.2019
2268 Clouds 22 1009 53 10000 5.1 90 15:58 08.09.2019
2269 Clouds 22 1009 57 10000 5.1 90 15:40 08.09.2019
2270 Clouds 22 1009 57 10000 5.1 90 15:21 08.09.2019
2271 Clouds 22 1010 57 10000 5.1 100 14:56 08.09.2019
2272 Clouds 22 1010 57 10000 4.6 120 14:37 08.09.2019
2273 Clouds 22 1010 57 10000 4.6 120 14:19 08.09.2019
2274 -273 0 0 0 0 0 13:55 08.09.2019
2275 Clouds 22 1010 57 10000 5.1 140 13:36 08.09.2019
2276 Clouds 21 1010 57 10000 5.1 140 13:18 08.09.2019
2277 Clouds 19 1011 57 10000 5.1 160 12:41 08.09.2019
2278 Clouds 22 1010 50 10000 3.6 190 12:23 08.09.2019
2279 Clouds 20 1011 53 10000 4.6 200 11:58 08.09.2019
2280 Clouds 21 1011 56 10000 4.1 210 11:39 08.09.2019
2281 Clouds 23 1011 56 10000 4.1 210 11:20 08.09.2019
2282 Clear 22 1010 40 10000 0.5 0 10:57 08.09.2019
2283 Clear 23 1010 40 10000 0.5 0 10:57 08.09.2019
2284 Clouds 22 1010 46 10000 2.6 330 10:39 08.09.2019
2285 Clouds 22 1010 46 10000 2.6 330 10:21 08.09.2019
2286 Clouds 20 1010 60 10000 4.1 330 09:38 08.09.2019
2287 Clouds 20 1010 60 10000 4.1 330 09:20 08.09.2019
2288 Clouds 18 1010 63 10000 4.6 320 08:56 08.09.2019
2289 Clouds 18 1010 63 10000 4.6 320 08:56 08.09.2019
2290 Clouds 18 1010 63 10000 2.6 320 08:38 08.09.2019
2291 Clouds 18 1010 63 10000 2.6 320 08:38 08.09.2019
2292 Clouds 18 1010 63 10000 2.6 320 08:18 08.09.2019
2293 Clouds 18 1010 63 10000 2.6 320 08:18 08.09.2019
2294 Clouds 16 1010 68 10000 4.1 330 07:39 08.09.2019
2295 Clouds 17 1010 68 10000 4.1 330 07:21 08.09.2019
2296 Clouds 17 1010 68 10000 4.1 340 06:53 08.09.2019
2297 Clouds 16 1010 68 10000 5.1 330 06:32 08.09.2019
2298 Clouds 16 1010 68 10000 5.1 330 06:32 08.09.2019
2299 Clouds 16 1011 68 10000 4.1 340 05:38 08.09.2019
2300 Clouds 17 1011 68 10000 4.1 330 04:18 08.09.2019
2301 Clouds 17 1012 68 10000 4.6 330 02:59 08.09.2019
2302 Clouds 18 1013 68 10000 4.1 330 02:29 08.09.2019
2303 Clouds 18 1013 68 10000 3.6 330 01:52 08.09.2019
2304 Clouds 18 1013 68 10000 4.1 330 01:22 08.09.2019
2305 Clear 18 1013 72 10000 3.6 330 00:45 08.09.2019
2306 Clear 18 1013 72 10000 3.1 320 00:27 08.09.2019
2307 Clear 18 1013 68 10000 2.1 320 23:39 07.09.2019
2308 Clear 18 1013 68 10000 2.1 320 23:21 07.09.2019
2309 Clear 19 1014 64 10000 2.1 320 22:58 07.09.2019
2310 Clear 20 1013 64 10000 2.1 320 22:40 07.09.2019
2311 Clear 20 1013 64 10000 2.1 320 22:22 07.09.2019
2312 Clouds 20 1013 64 10000 1.44 9.502 21:45 07.09.2019
2313 Clouds 20 1013 60 10000 1.61 96.439 21:26 07.09.2019
2314 Clouds 20 1013 64 10000 1.5 210 20:59 07.09.2019
2315 Clouds 21 1013 64 10000 3.1 220 20:39 07.09.2019
2316 Clouds 21 1013 64 10000 3.1 220 20:20 07.09.2019
2317 Clouds 21 1013 60 10000 3.6 220 19:55 07.09.2019
2318 Clouds 22 1013 60 10000 4.6 220 19:37 07.09.2019
2319 Clouds 22 1013 60 10000 4.6 220 19:19 07.09.2019
2320 Clouds 22 1013 60 10000 4.6 200 18:56 07.09.2019
2321 Clouds 22 1013 61 10000 4.1 200 18:37 07.09.2019
2322 Clouds 23 1013 61 10000 4.1 200 18:18 07.09.2019
2323 Clouds 23 1013 61 10000 5.1 190 17:56 07.09.2019
2324 Clouds 24 1013 60 10000 5.1 200 17:38 07.09.2019
2325 Clouds 24 1013 60 10000 5.7 190 17:18 07.09.2019
2326 Clouds 23 1013 57 10000 5.7 180 16:43 07.09.2019
2327 Clouds 20 1013 57 10000 5.7 180 16:23 07.09.2019
2328 Clouds 22 1014 61 10000 6.2 190 15:57 07.09.2019
2329 Clouds 23 1014 61 10000 5.1 180 15:38 07.09.2019
2330 Clouds 24 1014 64 10000 5.1 180 15:20 07.09.2019
2331 Clouds 23 1014 64 10000 5.1 180 14:55 07.09.2019
2332 Clouds 24 1014 60 10000 5.1 190 14:36 07.09.2019
2333 Clouds 24 1014 60 10000 5.1 190 14:36 07.09.2019
2334 Clouds 24 1014 60 10000 5.1 190 14:18 07.09.2019
2335 Clouds 24 1014 60 10000 4.1 200 13:43 07.09.2019
2336 Clouds 24 1014 60 10000 4.1 200 13:25 07.09.2019
2337 Clouds 24 1014 60 10000 4.1 200 13:25 07.09.2019
2338 Clouds 24 1014 57 10000 3.6 190 12:54 07.09.2019
2339 Clouds 23 1015 60 10000 2.6 190 12:36 07.09.2019
2340 Clouds 23 1015 60 10000 2.6 190 12:36 07.09.2019
2341 Clouds 23 1015 60 10000 2.6 190 12:18 07.09.2019
2342 Clouds 22 1015 50 10000 1 0 11:40 07.09.2019
2343 Clouds 22 1015 50 10000 1 0 11:21 07.09.2019
2344 Clouds 22 1015 49 10000 3.1 320 10:41 07.09.2019
2345 Clouds 18 1015 56 10000 4.6 330 10:23 07.09.2019
2346 Clouds 20 1015 60 10000 5.1 330 09:59 07.09.2019
2347 Clouds 19 1015 63 10000 5.1 330 09:40 07.09.2019
2348 Clouds 19 1015 63 10000 5.1 330 09:40 07.09.2019
2349 Clouds 18 1015 63 10000 5.1 330 09:21 07.09.2019
2350 Clouds 18 1015 68 10000 5.1 330 08:48 07.09.2019
2351 Clouds 15 1015 72 10000 5.7 330 08:30 07.09.2019
2352 Clouds 15 1015 72 10000 5.1 330 07:49 07.09.2019
2353 Clouds 15 1014 72 10000 5.1 330 07:29 07.09.2019
2354 Clouds 15 1014 72 10000 4.1 340 06:57 07.09.2019
2355 Clear 15 1014 72 10000 4.1 330 06:39 07.09.2019
2356 Clear 15 1014 77 10000 4.6 340 05:38 07.09.2019
2357 Clear 16 1015 72 10000 3.6 340 04:26 07.09.2019
2358 Clear 16 1015 72 10000 4.1 340 03:31 07.09.2019
2359 Clear 16 1015 72 10000 3.6 350 02:22 07.09.2019
2360 Clear 17 1015 77 10000 3.1 340 01:27 07.09.2019
2361 Clear 17 1015 77 10000 3.1 340 01:27 07.09.2019
2362 Clear 17 1015 72 10000 4.1 330 00:52 07.09.2019
2363 Clear 17 1015 72 10000 4.6 340 00:23 07.09.2019
2364 Clear 18 1015 77 10000 5.1 320 23:57 06.09.2019
2365 Clear 18 1015 77 10000 4.6 320 23:37 06.09.2019
2366 Clear 18 1015 77 10000 4.6 320 23:19 06.09.2019
2367 Clear 18 1015 77 10000 4.6 320 23:19 06.09.2019
2368 Clear 18 1015 77 10000 5.1 330 22:55 06.09.2019
2369 Clear 18 1015 82 10000 5.1 330 22:36 06.09.2019
2370 Clear 18 1015 82 10000 5.1 330 22:18 06.09.2019
2371 Clouds 17 1015 82 10000 5.7 320 21:54 06.09.2019
2372 Clouds 18 1015 82 10000 5.1 320 21:36 06.09.2019
2373 Clouds 18 1015 82 10000 5.1 320 21:18 06.09.2019
2374 Rain 16 1015 82 10000 3.1 330 20:41 06.09.2019
2375 Rain 16 1015 82 10000 3.1 330 20:21 06.09.2019
2376 Rain 17 1015 82 10000 2.1 350 19:59 06.09.2019
2377 Rain 17 1015 77 10000 3.6 340 19:41 06.09.2019
2378 Rain 17 1015 77 10000 3.6 340 19:41 06.09.2019
2379 Rain 17 1015 77 10000 3.6 340 19:21 06.09.2019
2380 Rain 17 1015 82 10000 6.2 320 18:55 06.09.2019
2381 Rain 17 1014 82 10000 7.2 330 18:37 06.09.2019
2382 Rain 17 1014 82 10000 7.2 330 18:37 06.09.2019
2383 Rain 17 1014 82 10000 7.2 330 18:18 06.09.2019
2384 Rain 20 1014 50 10000 3.1 220 17:40 06.09.2019
2385 Thunderstorm 22 1014 50 10000 3.1 220 17:20 06.09.2019
2386 Thunderstorm 24 1013 50 10000 5.1 190 16:43 06.09.2019
2387 Thunderstorm 25 1013 50 10000 5.1 190 16:20 06.09.2019
2388 Clouds 25 1013 50 10000 5.7 200 15:59 06.09.2019
2389 Clouds 25 1013 47 10000 4.1 150 15:41 06.09.2019
2390 Clouds 25 1013 47 10000 4.1 150 15:22 06.09.2019
2391 Clouds 25 1013 47 10000 4.1 150 15:22 06.09.2019
2392 Clouds 25 1013 44 10000 5.1 110 14:47 06.09.2019
2393 Clouds 24 1013 47 10000 5.7 110 14:19 06.09.2019
2394 Clouds 25 1013 47 10000 5.7 120 13:44 06.09.2019
2395 Clouds 25 1013 50 10000 4.1 180 13:23 06.09.2019
2396 Clouds 25 1013 47 10000 2.6 150 12:59 06.09.2019
2397 Clouds 25 1013 41 10000 1.5 170 12:37 06.09.2019
2398 Clouds 23 1013 41 10000 1.5 170 12:18 06.09.2019
2399 Clouds 22 1013 50 10000 3.1 210 11:41 06.09.2019
2400 Clouds 18 1013 50 10000 3.1 210 11:23 06.09.2019
2401 Clouds 22 1012 53 10000 2.6 190 10:57 06.09.2019
2402 Clouds 23 1012 44 10000 3.1 310 10:39 06.09.2019
2403 Clouds 23 1012 44 10000 3.1 310 10:19 06.09.2019
2404 Clouds 22 1012 49 10000 6.2 320 09:40 06.09.2019
2405 Clouds 19 1012 49 10000 6.2 320 09:20 06.09.2019
2406 Clouds 20 1012 49 10000 4.1 330 08:57 06.09.2019
2407 Clouds 19 1012 49 10000 4.1 320 08:38 06.09.2019
2408 Clouds 19 1012 49 10000 4.1 320 08:20 06.09.2019
2409 Clouds 19 1012 56 10000 4.1 300 07:45 06.09.2019
2410 Clouds 18 1011 52 10000 3.6 320 07:26 06.09.2019
2411 Clouds 19 1011 60 10000 3.6 280 06:56 06.09.2019
2412 Clouds 20 1011 52 10000 4.1 290 05:58 06.09.2019
2413 Clouds 20 1010 53 10000 4.1 290 05:27 06.09.2019
2414 Clear 20 1011 77 10000 2.6 10 04:42 06.09.2019
2415 Thunderstorm 18 1010 64 10000 4.1 260 03:45 06.09.2019
2416 Thunderstorm 21 1009 38 10000 5.1 20 01:53 06.09.2019
2417 Clouds 22 1009 69 10000 8.7 80 00:40 06.09.2019
2418 Clouds 21 1009 64 10000 3.1 40 23:44 05.09.2019
2419 Clouds 21 1009 64 10000 3.1 40 23:25 05.09.2019
2420 Clouds 21 1009 64 10000 3.1 40 23:25 05.09.2019
2421 Clouds 17 1009 69 10000 4.6 70 22:58 05.09.2019
2422 Clouds 17 1009 69 10000 4.6 70 22:40 05.09.2019
2423 Clouds 18 1009 65 10000 4.1 80 22:22 05.09.2019
2424 Clouds 18 1009 65 10000 3.6 90 21:56 05.09.2019
2425 Clouds 18 1009 69 10000 3.1 100 21:37 05.09.2019
2426 Clouds 22 1009 69 10000 3.1 100 21:19 05.09.2019
2427 Clouds 22 1009 69 10000 3.1 100 20:56 05.09.2019
2428 Clouds 22 1009 69 10000 2.6 100 20:37 05.09.2019
2429 Clouds 22 1009 69 10000 2.6 100 20:19 05.09.2019
2430 Clouds 20 1009 65 10000 3.6 110 19:42 05.09.2019
2431 Clouds 19 1009 65 10000 3.6 110 19:24 05.09.2019
2432 Clouds 20 1009 65 10000 4.6 110 18:58 05.09.2019
2433 Clouds 20 1009 65 10000 4.6 110 18:39 05.09.2019
2434 Clouds 25 1009 65 10000 4.6 110 18:20 05.09.2019
2435 Clouds 25 1009 61 10000 5.1 100 17:56 05.09.2019
2436 Clouds 25 1009 57 10000 6.2 90 17:37 05.09.2019
2437 Clouds 26 1009 57 10000 6.2 90 17:19 05.09.2019
2438 Clouds 24 1010 57 10000 4.1 90 16:41 05.09.2019
2439 Clouds 24 1010 57 10000 4.1 90 16:20 05.09.2019
2440 Clouds 24 1010 57 10000 4.1 100 15:58 05.09.2019
2441 Clouds 25 1010 61 10000 3.1 120 15:39 05.09.2019
2442 Clouds 25 1010 61 10000 3.1 120 15:19 05.09.2019
2443 Clouds 25 1011 65 10000 3.6 120 14:43 05.09.2019
2444 Clouds 25 1011 65 10000 3.1 130 14:23 05.09.2019
2445 Clouds 25 1011 65 10000 4.1 120 13:59 05.09.2019
2446 Clouds 25 1011 65 10000 3.6 120 13:39 05.09.2019
2447 Clouds 25 1011 65 10000 3.6 120 13:18 05.09.2019
2448 Clouds 25 1011 65 10000 3.6 120 12:41 05.09.2019
2449 Clouds 25 1011 65 10000 3.6 120 12:23 05.09.2019
2450 Clouds 25 1011 65 10000 4.1 120 11:44 05.09.2019
2451 Clouds 24 1011 69 10000 3.1 100 11:20 05.09.2019
2452 Clouds 25 1011 69 10000 3.6 100 10:59 05.09.2019
2453 Clouds 25 1011 69 10000 1.5 80 10:37 05.09.2019
2454 Clouds 25 1011 69 10000 1.5 80 10:37 05.09.2019
2455 Clouds 25 1011 69 10000 1.5 80 10:19 05.09.2019
2456 Clouds 24 1011 64 10000 3.6 330 09:41 05.09.2019
2457 Clouds 23 1011 64 10000 3.6 330 09:22 05.09.2019
2458 Clouds 22 1011 64 10000 4.1 330 08:57 05.09.2019
2459 Clouds 21 1011 69 10000 3.6 330 08:39 05.09.2019
2460 Clouds 21 1011 69 10000 3.6 330 08:21 05.09.2019
2461 Clouds 18 1011 73 10000 3.1 330 07:44 05.09.2019
2462 Clouds 20 1011 73 10000 3.1 330 07:25 05.09.2019
2463 Clouds 20 1011 73 10000 3.6 330 06:48 05.09.2019
2464 Clouds 20 1011 73 10000 3.6 330 06:28 05.09.2019
2465 Clouds 20 1011 69 10000 3.6 330 05:47 05.09.2019
2466 Clouds 20 1011 73 10000 2.6 340 05:28 05.09.2019
2467 Clouds 20 1012 69 10000 3.6 340 04:41 05.09.2019
2468 Clouds 20 1012 69 10000 3.6 340 04:18 05.09.2019
2469 Clear 21 1012 69 10000 3.1 330 02:59 05.09.2019
2470 Clear 21 1012 69 10000 3.1 330 02:59 05.09.2019
2471 Clear 21 1012 69 10000 2.1 340 02:40 05.09.2019
2472 Clouds 21 1013 73 10000 2.6 350 02:18 05.09.2019
2473 Clouds 21 1013 69 10000 2.6 320 01:19 05.09.2019
2474 Clouds 21 1013 69 10000 2.1 330 00:40 05.09.2019
2475 Clouds 21 1013 69 10000 2.1 330 00:19 05.09.2019
2476 Clouds 22 1013 65 10000 2.6 20 23:42 04.09.2019
2477 Clouds 22 1013 65 10000 2.6 20 23:23 04.09.2019
2478 Clouds 20 1014 65 10000 0.92 2.363 22:49 04.09.2019
2479 Clear 20 1014 69 10000 1.5 0 22:22 04.09.2019
2480 Clouds 20 1014 65 10000 1.5 0 21:58 04.09.2019
2481 Clouds 20 1014 65 10000 1.5 220 21:39 04.09.2019
2482 Clouds 23 1014 65 10000 1.5 220 21:20 04.09.2019
2483 Clouds 24 1014 65 10000 2.6 220 20:56 04.09.2019
2484 Clouds 24 1014 65 10000 3.1 220 20:37 04.09.2019
2485 Clouds 24 1014 65 10000 3.1 220 20:18 04.09.2019
2486 Clouds 24 1014 65 10000 4.1 210 19:45 04.09.2019
2487 Clouds 25 1014 61 10000 4.1 200 19:25 04.09.2019
2488 Clouds 25 1014 61 10000 4.1 200 19:25 04.09.2019
2489 Clouds 25 1014 61 10000 4.1 200 18:58 04.09.2019
2490 Clouds 25 1015 61 10000 4.1 200 18:38 04.09.2019
2491 Clouds 26 1015 61 10000 4.1 200 18:19 04.09.2019
2492 Clouds 26 1015 61 10000 3.6 190 17:41 04.09.2019
2493 Clouds 27 1015 61 10000 3.6 190 17:23 04.09.2019
2494 Clouds 25 1015 61 10000 3.6 180 16:58 04.09.2019
2495 Clouds 26 1015 58 10000 3.6 180 16:39 04.09.2019
2496 Clouds 26 1015 58 10000 3.6 180 16:21 04.09.2019
2497 Clouds 26 1016 58 10000 3.6 180 15:55 04.09.2019
2498 Clouds 26 1016 54 10000 3.6 180 15:37 04.09.2019
2499 Clouds 26 1016 54 10000 3.6 180 15:18 04.09.2019
2500 Clouds 27 1016 54 10000 3.1 170 14:54 04.09.2019
2501 Clouds 27 1017 58 10000 3.1 160 14:36 04.09.2019
2502 Clouds 27 1017 58 10000 3.1 160 14:18 04.09.2019
2503 Clouds 27 1017 58 10000 2.6 160 13:39 04.09.2019
2504 Clouds 27 1017 58 10000 2.6 160 13:21 04.09.2019
2505 Clouds 27 1018 58 10000 2.1 150 12:46 04.09.2019
2506 Clouds 27 1018 61 10000 2.6 140 12:27 04.09.2019
2507 Clouds 27 1018 61 10000 2.6 140 12:27 04.09.2019
2508 Clouds 27 1018 61 10000 2.6 140 11:59 04.09.2019
2509 Clouds 25 1018 57 10000 1.5 130 11:41 04.09.2019
2510 Clouds 25 1018 57 10000 1.5 130 11:21 04.09.2019
2511 Clouds 25 1018 61 10000 2.1 110 10:59 04.09.2019
2512 Clouds 25 1018 61 10000 1.5 90 10:40 04.09.2019
2513 Clouds 25 1018 61 10000 1.5 90 10:21 04.09.2019
2514 Clouds 25 1018 57 10000 2.1 320 09:46 04.09.2019
2515 Clouds 23 1018 61 10000 3.1 330 09:22 04.09.2019
2516 Clouds 23 1018 64 10000 3.6 330 08:58 04.09.2019
2517 Clouds 21 1018 69 10000 3.6 330 08:39 04.09.2019
2518 Clouds 22 1018 69 10000 3.6 330 08:19 04.09.2019
2519 Clouds 21 1018 69 10000 3.6 330 07:46 04.09.2019
2520 Clouds 21 1018 69 10000 4.1 330 07:28 04.09.2019
2521 Clear 21 1018 69 10000 3.6 330 06:39 04.09.2019
2522 Clouds 21 1018 69 10000 2.6 330 04:57 04.09.2019
2523 Clear 21 1018 69 10000 3.1 340 04:25 04.09.2019
2524 Clear 22 1018 64 10000 3.1 340 03:45 04.09.2019
2525 Clouds 22 1018 69 10000 3.1 330 01:27 04.09.2019
2526 Clouds 23 1018 65 10000 3.6 320 00:50 04.09.2019
2527 Clouds 23 1018 69 10000 3.1 320 00:32 04.09.2019
2528 Clouds 23 1018 69 10000 3.1 320 23:54 03.09.2019
2529 Clouds 23 1018 69 10000 3.1 320 23:54 03.09.2019
2530 Clouds 23 1018 65 10000 3.1 320 23:28 03.09.2019
2531 Clouds 20 1018 69 10000 2.1 290 22:59 03.09.2019
2532 Clouds 21 1018 65 10000 1 0 22:40 03.09.2019
2533 Clouds 21 1018 65 10000 1 0 22:21 03.09.2019
2534 Clouds 21 1018 69 10000 2.1 260 21:56 03.09.2019
2535 Clouds 21 1018 69 10000 2.1 260 21:56 03.09.2019
2536 Clouds 23 1018 74 10000 1.5 220 21:36 03.09.2019
2537 Clouds 24 1018 74 10000 1.5 220 21:18 03.09.2019
2538 Clouds 24 1018 65 10000 2.1 210 20:42 03.09.2019
2539 Clouds 25 1017 65 10000 2.6 210 20:24 03.09.2019
2540 Clouds 23 1017 65 10000 2.6 220 19:56 03.09.2019
2541 Clouds 23 1017 65 10000 2.6 220 19:56 03.09.2019
2542 Clouds 23 1017 61 10000 2.6 220 19:38 03.09.2019
2543 Clouds 24 1017 61 10000 2.6 220 19:19 03.09.2019
2544 Clouds 23 1017 61 10000 2.6 190 18:47 03.09.2019
2545 Clouds 26 1017 61 10000 2.6 190 18:27 03.09.2019
2546 Clouds 28 1017 65 10000 2.6 190 17:59 03.09.2019
2547 Clouds 26 1017 61 10000 2.6 180 17:41 03.09.2019
2548 Clouds 27 1017 61 10000 2.6 180 17:20 03.09.2019
2549 Clouds 28 1017 62 10000 2.6 170 16:58 03.09.2019
2550 Clouds 27 1017 62 10000 3.1 170 16:38 03.09.2019
2551 Clouds 28 1017 62 10000 3.1 170 16:20 03.09.2019
2552 Clouds 28 1017 62 10000 3.1 170 16:20 03.09.2019
2553 Clouds 27 1018 62 10000 3.6 170 15:41 03.09.2019
2554 Clouds 27 1018 65 10000 3.6 190 15:21 03.09.2019
2555 Clouds 27 1018 65 10000 3.6 180 14:58 03.09.2019
2556 Clouds 28 1018 65 10000 3.6 190 14:40 03.09.2019
2557 Clouds 28 1018 65 10000 3.6 190 14:20 03.09.2019
2558 Clouds 28 1018 62 10000 3.1 180 13:57 03.09.2019
2559 Clouds 27 1018 62 10000 3.6 170 13:37 03.09.2019
2560 Clouds 27 1018 62 10000 3.6 170 13:19 03.09.2019
2561 Clouds 27 1018 62 10000 3.6 170 13:19 03.09.2019
2562 Clouds 28 1018 65 10000 3.6 160 12:56 03.09.2019
2563 Clouds 27 1018 65 10000 3.6 160 12:56 03.09.2019
2564 Clouds 27 1018 65 10000 3.1 160 12:38 03.09.2019
2565 Clouds 27 1018 65 10000 3.1 160 12:19 03.09.2019
2566 Clouds 27 1018 65 10000 3.1 160 12:19 03.09.2019
2567 Clouds 27 1018 58 10000 2.6 170 11:41 03.09.2019
2568 Clouds 27 1017 58 10000 3.1 200 11:22 03.09.2019
2569 Clouds 28 1017 54 10000 1.5 0 10:56 03.09.2019
2570 Clouds 27 1017 57 10000 3.1 330 10:38 03.09.2019
2571 Clouds 27 1017 57 10000 3.1 330 10:20 03.09.2019
2572 Clear 25 1017 61 10000 4.1 330 09:44 03.09.2019
2573 Clear 24 1017 61 10000 4.1 330 09:25 03.09.2019
2574 Clouds 23 1016 64 10000 4.1 340 08:55 03.09.2019
2575 Clouds 23 1016 69 10000 3.6 340 08:36 03.09.2019
2576 Clouds 22 1016 69 10000 3.6 340 08:18 03.09.2019
2577 Clouds 21 1016 69 10000 4.1 330 07:40 03.09.2019
2578 Clouds 22 1016 69 10000 4.1 330 07:22 03.09.2019
2579 Clear 21 1015 69 10000 3.6 330 06:45 03.09.2019
2580 Clear 22 1015 69 10000 3.1 330 05:53 03.09.2019
2581 Clear 22 1015 73 10000 2.6 340 03:42 03.09.2019
2582 Clear 22 1014 73 10000 2.1 340 02:46 03.09.2019
2583 Clear 22 1014 73 10000 2.1 340 02:24 03.09.2019
2584 Clear 23 1015 73 10000 2.6 340 01:51 03.09.2019
2585 Clear 23 1014 73 10000 2.1 330 01:32 03.09.2019
2586 Clear 22 1014 78 10000 2.1 330 00:43 03.09.2019
2587 Clear 23 1014 78 10000 1.5 350 00:23 03.09.2019
2588 Clear 23 1014 83 10000 1.5 40 23:40 02.09.2019
2589 Clear 23 1014 83 10000 1.5 40 23:40 02.09.2019
2590 Clear 23 1014 83 10000 1.5 40 23:20 02.09.2019
2591 Clouds 22 1014 78 10000 1.5 80 22:56 02.09.2019
2592 Clouds 22 1014 78 10000 1.5 80 22:56 02.09.2019
2593 Clouds 22 1014 78 10000 1.5 60 22:38 02.09.2019
2594 Clouds 22 1014 78 10000 1.5 60 22:20 02.09.2019
2595 Clouds 22 1013 78 10000 1 90 21:58 02.09.2019
2596 Clear 23 1013 78 10000 2.2 2.579 21:40 02.09.2019
2597 Clear 24 1013 78 10000 0.77 86.026 21:20 02.09.2019
2598 Clouds 24 1013 78 10000 0.77 86.026 20:59 02.09.2019
2599 Clouds 25 1012 78 10000 1 0 20:40 02.09.2019
2600 Clouds 25 1012 78 10000 1 0 20:18 02.09.2019
2601 Clouds 25 1012 74 10000 1 130 19:56 02.09.2019
2602 Clouds 25 1012 78 10000 1.5 140 19:38 02.09.2019
2603 Clouds 25 1012 78 10000 1.5 140 19:38 02.09.2019
2604 Clouds 26 1012 78 10000 1.5 140 19:19 02.09.2019
2605 Clouds 25 1012 78 10000 1.5 100 18:40 02.09.2019
2606 Clouds 26 1012 78 10000 1.5 100 18:22 02.09.2019
2607 Clouds 26 1012 78 10000 2.1 90 17:58 02.09.2019
2608 Clouds 26 1012 74 10000 2.1 90 17:39 02.09.2019
2609 Clouds 27 1012 74 10000 2.1 90 17:20 02.09.2019
2610 Clouds 26 1012 74 10000 2.1 100 16:58 02.09.2019
2611 Clouds 27 1012 74 10000 2.1 120 16:36 02.09.2019
2612 Clouds 27 1012 74 10000 2.1 120 16:18 02.09.2019
2613 Clouds 27 1012 69 10000 2.6 110 15:44 02.09.2019
2614 Clouds 27 1013 69 10000 3.6 110 15:22 02.09.2019
2615 Clouds 27 1013 69 10000 3.6 110 14:56 02.09.2019
2616 Clouds 27 1013 69 10000 3.6 110 14:37 02.09.2019
2617 Clouds 27 1013 69 10000 3.6 110 14:19 02.09.2019
2618 Clouds 28 1013 69 10000 3.1 100 13:54 02.09.2019
2619 Clouds 28 1013 69 10000 3.6 90 13:36 02.09.2019
2620 Clouds 28 1013 69 10000 3.6 90 13:18 02.09.2019
2621 Clouds 28 1013 74 10000 4.1 90 12:42 02.09.2019
2622 Clouds 26 1013 74 10000 4.1 90 12:24 02.09.2019
2623 Clouds 27 1013 69 10000 4.6 90 11:58 02.09.2019
2624 Clouds 26 1013 69 10000 3.1 80 11:38 02.09.2019
2625 Clouds 26 1013 69 10000 3.1 80 11:20 02.09.2019
2626 Clouds 26 1013 69 10000 3.1 80 11:20 02.09.2019
2627 Clouds 27 1013 65 10000 1.5 0 10:56 02.09.2019
2628 Clouds 27 1013 50 10000 3.6 330 10:37 02.09.2019
2629 Clouds 24 1013 50 10000 3.6 330 10:19 02.09.2019
2630 Clouds 25 1012 57 10000 4.1 330 09:43 02.09.2019
2631 Clouds 24 1012 57 10000 4.1 330 09:22 02.09.2019
2632 Clouds 23 1012 60 10000 4.6 320 08:45 02.09.2019
2633 Clouds 23 1012 60 10000 4.6 320 08:45 02.09.2019
2634 Clouds 22 1012 64 10000 4.1 330 08:23 02.09.2019
2635 Clouds 21 1011 64 10000 4.1 320 07:58 02.09.2019
2636 Clouds 20 1011 64 10000 3.1 340 07:40 02.09.2019
2637 Clouds 21 1011 64 10000 3.1 340 07:21 02.09.2019
2638 Clouds 21 1011 64 10000 4.1 340 06:44 02.09.2019
2639 Clouds 21 1011 64 10000 3.6 340 06:22 02.09.2019
2640 Clouds 21 1011 64 10000 4.6 330 05:44 02.09.2019
2641 Clouds 21 1011 64 10000 4.6 330 05:18 02.09.2019
2642 Clear 22 1011 64 10000 4.1 320 02:59 02.09.2019
2643 Clear 22 1011 57 10000 5.7 340 01:45 02.09.2019
2644 Clear 23 1011 57 10000 3.6 340 00:47 02.09.2019
2645 Clear 23 1011 57 10000 4.1 330 00:28 02.09.2019
2646 Clear 23 1012 57 10000 4.1 330 23:43 01.09.2019
2647 Clear 24 1012 57 10000 4.1 330 23:22 01.09.2019
2648 Clear 19 1012 54 10000 3.6 330 22:58 01.09.2019
2649 Clear 20 1012 54 10000 2.6 330 22:39 01.09.2019
2650 Clear 20 1012 54 10000 2.6 330 22:39 01.09.2019
2651 Clear 20 1012 54 10000 2.6 330 22:19 01.09.2019
2652 Clear 20 1011 47 10000 2.1 330 21:57 01.09.2019
2653 Clear 25 1011 51 10000 2.1 30 21:38 01.09.2019
2654 Clear 25 1011 51 10000 2.1 30 21:20 01.09.2019
2655 Clear 25 1011 78 10000 3.1 250 20:56 01.09.2019
2656 Clouds 26 1011 74 10000 2.1 200 20:36 01.09.2019
2657 Clouds 26 1011 74 10000 2.1 200 20:18 01.09.2019
2658 Clouds 26 1011 74 10000 2.1 200 20:18 01.09.2019
2659 Clouds 24 1011 69 10000 1.5 150 19:56 01.09.2019
2660 Clouds 21 1011 69 10000 2.1 190 19:37 01.09.2019
2661 Clouds 22 1011 69 10000 2.1 190 19:18 01.09.2019
2662 Clouds 23 1010 69 10000 3.1 170 18:43 01.09.2019
2663 Clouds 27 1010 69 10000 3.1 170 18:25 01.09.2019
2664 Clouds 27 1011 61 10000 2.1 180 17:55 01.09.2019
2665 Clouds 27 1011 58 10000 1.5 0 17:37 01.09.2019
2666 Clouds 28 1011 58 10000 1.5 0 17:18 01.09.2019
2667 Clouds 28 1011 54 10000 2.6 120 16:39 01.09.2019
2668 Clouds 28 1011 54 10000 2.6 120 16:19 01.09.2019
2669 Clouds 28 1011 58 10000 2.6 150 15:48 01.09.2019
2670 Clouds 29 1011 62 10000 3.6 150 15:29 01.09.2019
2671 Clouds 28 1011 62 10000 3.1 160 14:59 01.09.2019
2672 Clouds 29 1011 62 10000 2.6 160 14:40 01.09.2019
2673 Clouds 29 1011 62 10000 2.6 160 14:20 01.09.2019
2674 Clouds 28 1012 62 10000 2.6 180 13:54 01.09.2019
2675 Clouds 28 1012 62 10000 2.6 180 13:54 01.09.2019
2676 Clouds 29 1012 62 10000 4.1 160 13:36 01.09.2019
2677 Clouds 29 1012 61 10000 3.1 150 13:18 01.09.2019
2678 Clouds 29 1012 65 10000 3.1 130 12:41 01.09.2019
2679 Clouds 29 1012 65 10000 3.1 130 12:22 01.09.2019
2680 Clouds 29 1012 42 10000 2.1 80 11:41 01.09.2019
2681 Clouds 29 1012 58 10000 2.6 110 11:41 01.09.2019
2682 Clouds 29 1012 40 10000 1.5 350 11:20 01.09.2019
2683 Clouds 29 1012 40 10000 1.5 350 10:59 01.09.2019
2684 Clear 28 1012 42 10000 3.6 340 10:41 01.09.2019
2685 Clear 28 1012 42 10000 3.6 340 10:21 01.09.2019
2686 Clear 27 1012 44 10000 5.1 330 09:43 01.09.2019
2687 Clear 23 1012 47 10000 5.1 340 09:25 01.09.2019
2688 Clear 24 1012 50 10000 5.1 340 08:44 01.09.2019
2689 Clear 23 1012 53 10000 4.6 340 08:24 01.09.2019
2690 Clear 22 1012 53 10000 4.1 350 07:51 01.09.2019
2691 Clear 22 1012 53 10000 4.1 340 07:33 01.09.2019
2692 Clear 22 1012 53 10000 4.6 340 06:51 01.09.2019
2693 Clear 22 1012 53 10000 4.1 340 06:28 01.09.2019
2694 Clear 22 1012 53 10000 4.1 340 05:56 01.09.2019
2695 Clear 23 1013 53 10000 4.6 340 04:32 01.09.2019
2696 Clear 23 1013 53 10000 4.1 340 03:42 01.09.2019
2697 Clear 23 1013 53 10000 4.1 340 03:42 01.09.2019
2698 Clear 23 1013 50 10000 3.1 340 02:58 01.09.2019
2699 Clear 23 1013 50 10000 2.6 350 02:28 01.09.2019
2700 Clear 23 1014 47 10000 3.1 360 01:51 01.09.2019
2701 Clear 23 1014 47 10000 3.1 350 01:51 01.09.2019
2702 Clear 23 1014 47 10000 3.1 350 01:23 01.09.2019
2703 Clear 24 1014 50 10000 3.6 340 00:46 01.09.2019
2704 Clear 24 1014 51 10000 2.6 350 00:23 01.09.2019
2705 Clear 24 1014 51 10000 3.1 340 23:55 31.08.2019
2706 Clear 24 1014 57 10000 2.6 320 23:36 31.08.2019
2707 Clear 24 1014 57 10000 2.1 330 23:18 31.08.2019
2708 Clear 25 1014 61 10000 0.5 0 22:44 31.08.2019
2709 Clear 25 1014 61 10000 0.5 0 22:25 31.08.2019
2710 Clear 25 1014 78 10000 1 0 21:58 31.08.2019
2711 Clear 25 1014 74 10000 1.5 220 21:39 31.08.2019
2712 Clear 25 1014 74 10000 1.5 220 21:20 31.08.2019
2713 Clear 26 1014 74 10000 2.1 210 20:49 31.08.2019
2714 Clear 26 1014 69 10000 1.5 210 20:31 31.08.2019
2715 Clear 27 1013 69 10000 2.6 230 19:57 31.08.2019
2716 Clear 27 1013 65 10000 2.6 220 19:39 31.08.2019
2717 Clear 27 1013 65 10000 2.6 220 19:39 31.08.2019
2718 Clear 27 1013 65 10000 2.6 220 19:20 31.08.2019
2719 Clear 24 1013 65 10000 2.6 190 18:40 31.08.2019
2720 Clear 28 1013 65 10000 2.6 190 18:21 31.08.2019
2721 Clouds 28 1014 65 10000 2.6 200 17:58 31.08.2019
2722 Clouds 28 1014 61 10000 3.1 220 17:37 31.08.2019
2723 Clouds 28 1014 61 10000 3.1 220 17:37 31.08.2019
2724 Clouds 29 1014 61 10000 3.1 220 17:19 31.08.2019
2725 Clouds 29 1014 62 10000 2.6 190 16:59 31.08.2019
2726 Clouds 29 1014 62 10000 2.1 170 16:40 31.08.2019
2727 Clouds 29 1014 62 10000 2.1 170 16:21 31.08.2019
2728 Clouds 29 1015 66 10000 1.5 0 15:59 31.08.2019
2729 Clouds 29 1015 66 10000 1.5 150 15:38 31.08.2019
2730 Clouds 29 1015 66 10000 1.5 150 15:18 31.08.2019
2731 Thunderstorm 30 1016 66 10000 2.1 120 14:41 31.08.2019
2732 Thunderstorm 30 1016 66 10000 2.1 120 14:22 31.08.2019
2733 Thunderstorm 30 1016 55 10000 2.6 160 13:42 31.08.2019
2734 Thunderstorm 30 1016 55 10000 2.6 160 13:23 31.08.2019
2735 Clouds 29 1016 55 10000 2.6 170 12:59 31.08.2019
2736 Clouds 28 1016 62 10000 3.1 170 12:40 31.08.2019
2737 Clouds 30 1016 62 10000 3.1 170 12:21 31.08.2019
2738 Clouds 29 1016 58 10000 2.6 140 11:56 31.08.2019
2739 Clouds 30 1016 40 10000 1 0 11:38 31.08.2019
2740 Clouds 29 1016 40 10000 1 0 11:20 31.08.2019
2741 Clouds 29 1016 40 10000 3.1 330 10:43 31.08.2019
2742 Clear 29 1016 42 10000 3.6 330 10:19 31.08.2019
2743 Clear 28 1016 47 10000 4.1 330 09:59 31.08.2019
2744 Clear 26 1016 50 10000 4.6 340 09:39 31.08.2019
2745 Clear 26 1016 50 10000 4.6 340 09:21 31.08.2019
2746 Clear 24 1016 57 10000 4.6 340 08:44 31.08.2019
2747 Clear 24 1016 57 10000 4.6 340 08:26 31.08.2019
2748 Clear 22 1016 57 10000 4.1 340 07:42 31.08.2019
2749 Clear 22 1016 57 10000 4.6 340 07:23 31.08.2019
2750 Clouds 22 1016 57 10000 4.6 340 06:49 31.08.2019
2751 Clear 22 1016 57 10000 4.6 340 06:21 31.08.2019
2752 Clear 22 1016 57 10000 3.6 340 05:34 31.08.2019
2753 Clear 23 1016 53 10000 3.6 350 04:39 31.08.2019
2754 Clear 23 1016 53 10000 3.1 340 03:50 31.08.2019
2755 Clear 23 1017 57 10000 3.6 340 02:59 31.08.2019
2756 Clear 24 1017 54 10000 3.6 340 01:59 31.08.2019
2757 Clear 24 1017 54 10000 4.6 20 01:41 31.08.2019
2758 Clear 24 1017 54 10000 4.6 20 01:22 31.08.2019
2759 Clear 24 1017 51 10000 4.6 350 00:42 31.08.2019
2760 Clear 24 1017 47 10000 5.1 350 00:24 31.08.2019
2761 Clear 25 1017 51 10000 3.6 340 23:48 30.08.2019
2762 Clear 25 1017 51 10000 3.6 350 23:18 30.08.2019
2763 Clear 21 1017 51 10000 3.6 350 22:56 30.08.2019
2764 Clear 21 1017 51 10000 4.1 350 22:37 30.08.2019
2765 Clear 20 1017 51 10000 4.1 350 22:19 30.08.2019
2766 Clear 21 1017 51 10000 4.6 330 21:55 30.08.2019
2767 Clouds 21 1017 51 10000 5.7 320 21:36 30.08.2019
2768 Clouds 26 1017 51 10000 5.7 320 21:18 30.08.2019
2769 Clouds 26 1017 45 10000 3.6 330 20:42 30.08.2019
2770 Clouds 26 1017 48 10000 3.6 320 20:22 30.08.2019
2771 Clouds 26 1017 74 10000 1.5 230 19:59 30.08.2019
2772 Clouds 27 1017 69 10000 1 0 19:41 30.08.2019
2773 Clouds 27 1017 69 10000 1 0 19:21 30.08.2019
2774 Clouds 27 1017 69 10000 1.5 140 18:58 30.08.2019
2775 Clouds 27 1017 65 10000 2.1 170 18:40 30.08.2019
2776 Clouds 28 1017 65 10000 2.1 170 18:22 30.08.2019
2777 Thunderstorm 28 1017 65 10000 2.1 160 17:56 30.08.2019
2778 Thunderstorm 29 1017 69 10000 1.5 150 17:38 30.08.2019
2779 Thunderstorm 29 1017 69 10000 1.5 150 17:18 30.08.2019
2780 Clouds 29 1017 69 10000 1.5 140 16:46 30.08.2019
2781 Clouds 29 1017 66 10000 2.1 170 16:27 30.08.2019
2782 Clouds 29 1018 62 10000 2.6 160 15:57 30.08.2019
2783 Clouds 29 1018 58 10000 2.6 160 15:37 30.08.2019
2784 Clouds 29 1018 58 10000 2.6 160 15:37 30.08.2019
2785 Clouds 29 1018 58 10000 2.6 160 15:19 30.08.2019
2786 Clouds 29 1018 66 10000 3.1 150 14:42 30.08.2019
2787 Clouds 29 1018 66 10000 3.1 150 14:42 30.08.2019
2788 Clouds 29 1018 66 10000 3.1 150 14:24 30.08.2019
2789 Clouds 29 1019 65 10000 2.6 140 13:56 30.08.2019
2790 Clouds 29 1019 65 10000 3.6 140 13:37 30.08.2019
2791 Clouds 28 1019 65 10000 3.6 140 13:19 30.08.2019
2792 Clouds 29 1019 65 10000 3.1 150 12:42 30.08.2019
2793 Clouds 29 1019 65 10000 3.1 150 12:22 30.08.2019
2794 Clouds 29 1019 61 10000 3.1 150 11:43 30.08.2019
2795 Clear 29 1019 61 10000 2.6 160 11:25 30.08.2019
2796 Clear 29 1019 58 10000 2.6 120 10:59 30.08.2019
2797 Clear 29 1019 48 10000 1.5 80 10:37 30.08.2019
2798 Clear 29 1019 48 10000 1.5 80 10:18 30.08.2019
2799 Clear 26 1018 54 10000 3.1 340 09:42 30.08.2019
2800 Clear 23 1018 54 10000 3.1 340 09:20 30.08.2019
2801 Clear 25 1018 57 10000 2.6 340 08:59 30.08.2019
2802 Clear 24 1018 61 10000 3.6 340 08:40 30.08.2019
2803 Clear 24 1018 61 10000 3.6 340 08:21 30.08.2019
2804 Clear 22 1018 64 10000 2.6 350 07:44 30.08.2019
2805 Clear 23 1018 64 10000 2.6 330 07:23 30.08.2019
2806 Clear 23 1018 64 10000 2.6 330 06:49 30.08.2019
2807 Clear 23 1017 61 10000 2.6 350 06:30 30.08.2019
2808 Clear 23 1017 61 10000 4.1 330 05:55 30.08.2019
2809 Clear 23 1017 61 10000 3.6 340 04:53 30.08.2019
2810 Clear 23 1018 65 10000 3.6 340 03:55 30.08.2019
2811 Clear 23 1018 65 10000 3.6 340 03:55 30.08.2019
2812 Clear 23 1018 65 10000 3.6 340 03:33 30.08.2019
2813 Clear 23 1018 65 10000 3.1 340 02:34 30.08.2019
2814 Clear 23 1018 61 10000 3.1 340 01:38 30.08.2019
2815 Clear 24 1018 61 10000 3.6 330 00:46 30.08.2019
2816 Clear 21 1018 57 10000 4.1 320 00:18 30.08.2019
2817 Clear 23 1018 57 10000 3.6 320 23:42 29.08.2019
2818 Clear 23 1018 57 10000 3.6 320 23:21 29.08.2019
2819 Clear 23 1018 57 10000 3.6 320 23:21 29.08.2019
2820 Clear 23 1018 57 10000 3.6 320 23:21 29.08.2019
2821 Clear 20 1018 57 10000 3.1 330 22:45 29.08.2019
2822 Clear 21 1018 65 10000 3.1 280 22:26 29.08.2019
2823 Clear 21 1018 65 10000 3.1 260 21:58 29.08.2019
2824 Clear 21 1018 65 10000 3.1 260 21:58 29.08.2019
2825 Clear 21 1018 65 10000 3.1 260 21:58 29.08.2019
2826 Clear 22 1018 69 10000 3.1 240 21:40 29.08.2019
2827 Clear 26 1018 69 10000 3.1 240 21:21 29.08.2019
2828 Clear 26 1017 69 10000 3.1 210 20:58 29.08.2019
2829 Clear 26 1017 69 10000 1.5 0 20:39 29.08.2019
2830 Clear 26 1017 69 10000 1.5 0 20:18 29.08.2019
2831 Clouds 27 1017 65 10000 1 0 19:47 29.08.2019
2832 Clouds 24 1017 65 10000 1 0 19:26 29.08.2019
2833 Clouds 27 1017 65 10000 2.1 190 18:58 29.08.2019
2834 Clouds 25 1017 61 10000 2.1 160 18:40 29.08.2019
2835 Clouds 27 1017 61 10000 2.1 160 18:19 29.08.2019
2836 Clouds 27 1017 61 10000 2.1 160 18:18 29.08.2019
2837 Clouds 28 1017 61 10000 1.5 160 17:54 29.08.2019
2838 Clouds 28 1017 61 10000 2.1 160 17:36 29.08.2019
2839 Clouds 28 1017 61 10000 2.1 160 17:18 29.08.2019
2840 Clouds 28 1017 61 10000 2.6 150 16:42 29.08.2019
2841 Clouds 28 1017 61 10000 3.1 130 16:23 29.08.2019
2842 Clouds 27 1017 54 10000 3.6 120 15:54 29.08.2019
2843 Clouds 28 1018 54 10000 3.6 140 15:36 29.08.2019
2844 Clouds 28 1018 54 10000 3.6 140 15:18 29.08.2019
2845 Clouds 28 1018 61 10000 4.1 150 14:42 29.08.2019
2846 Clouds 28 1018 62 10000 3.6 150 14:21 29.08.2019
2847 Clouds 28 1018 65 10000 3.6 160 13:57 29.08.2019
2848 Clouds 28 1017 69 10000 4.6 160 13:39 29.08.2019
2849 Clouds 28 1017 69 10000 4.6 160 13:39 29.08.2019
2850 Clouds 28 1017 69 10000 4.6 160 13:19 29.08.2019
2851 Clouds 28 1017 65 10000 4.1 160 12:57 29.08.2019
2852 Clouds 28 1017 61 10000 4.6 160 12:38 29.08.2019
2853 Clouds 28 1017 61 10000 4.6 160 12:20 29.08.2019
2854 Clear 28 1017 58 10000 3.6 150 11:57 29.08.2019
2855 Clear 29 1017 51 10000 2.6 90 11:36 29.08.2019
2856 Clear 28 1017 51 10000 2.6 90 11:18 29.08.2019
2857 Clear 29 1017 42 10000 2.1 330 10:42 29.08.2019
2858 Clear 28 1017 48 10000 4.1 330 10:23 29.08.2019
2859 Clear 26 1017 47 10000 4.1 340 09:42 29.08.2019
2860 Clear 25 1017 50 10000 4.6 340 09:21 29.08.2019
2861 Clear 24 1017 53 10000 4.6 340 08:58 29.08.2019
2862 Clear 23 1017 57 10000 3.6 330 08:39 29.08.2019
2863 Clear 23 1017 57 10000 3.6 330 08:21 29.08.2019
2864 Clear 22 1017 57 10000 3.6 340 07:48 29.08.2019
2865 Clear 22 1017 57 10000 4.1 340 07:26 29.08.2019
2866 Clear 22 1017 57 10000 3.6 340 06:47 29.08.2019
2867 Clear 22 1017 57 10000 3.1 340 06:28 29.08.2019
2868 Clear 22 1016 57 10000 3.1 350 05:41 29.08.2019
2869 Clear 22 1016 57 10000 4.1 340 04:50 29.08.2019
2870 Clear 22 1016 57 10000 3.1 330 04:29 29.08.2019
2871 Clear 22 1016 53 10000 3.6 340 02:49 29.08.2019
2872 Clear 22 1017 53 10000 3.6 330 01:49 29.08.2019
2873 Clear 23 1017 53 10000 4.1 340 01:30 29.08.2019
2874 Clear 24 1017 54 10000 2.6 330 00:40 29.08.2019
2875 Clear 23 1017 54 10000 2.6 330 00:20 29.08.2019
2876 Clear 23 1016 57 10000 3.6 320 23:43 28.08.2019
2877 Clear 23 1016 57 10000 3.6 320 23:24 28.08.2019
2878 Clear 19 1016 54 10000 2.1 270 22:59 28.08.2019
2879 Clear 20 1016 61 10000 1.5 250 22:39 28.08.2019
2880 Clear 20 1016 61 10000 1.5 250 22:18 28.08.2019
2881 Clear 22 1016 61 10000 3.6 270 21:57 28.08.2019
2882 Clear 22 1016 65 10000 3.6 240 21:39 28.08.2019
2883 Clear 25 1016 65 10000 3.6 240 21:20 28.08.2019
2884 Clouds 26 1016 65 10000 3.1 250 20:42 28.08.2019
2885 Clouds 26 1016 65 10000 3.1 250 20:24 28.08.2019
2886 Clouds 24 1016 69 10000 2.1 240 19:57 28.08.2019
2887 Clouds 23 1016 69 10000 3.1 260 19:39 28.08.2019
2888 Clouds 22 1016 69 10000 3.1 260 19:20 28.08.2019
2889 Clouds 23 1016 69 10000 2.6 140 18:42 28.08.2019
2890 Clouds 28 1016 69 10000 2.6 140 18:22 28.08.2019
2891 Clouds 28 1015 65 10000 1.5 0 17:57 28.08.2019
2892 Clouds 28 1015 65 10000 3.1 100 17:37 28.08.2019
2893 Clouds 27 1015 65 10000 3.1 100 17:19 28.08.2019
2894 Clouds 28 1015 62 10000 4.1 130 16:43 28.08.2019
2895 Clouds 28 1015 62 10000 4.1 130 16:19 28.08.2019
2896 Clouds 27 1015 62 10000 5.1 130 15:58 28.08.2019
2897 Clouds 27 1016 62 10000 5.7 130 15:37 28.08.2019
2898 Clouds 28 1016 62 10000 5.7 130 15:18 28.08.2019
2899 Clouds 28 1016 66 10000 6.2 120 14:56 28.08.2019
2900 Clouds 28 1016 62 10000 3.1 120 14:37 28.08.2019
2901 Clouds 29 1016 62 10000 3.1 120 14:19 28.08.2019
2902 Clouds 29 1016 66 10000 1.5 130 13:56 28.08.2019
2903 Clouds 29 1016 66 10000 2.6 120 13:37 28.08.2019
2904 Clouds 29 1016 66 10000 2.6 120 13:18 28.08.2019
2905 Clouds 29 1016 69 10000 4.1 90 12:41 28.08.2019
2906 Clouds 28 1016 69 10000 4.1 90 12:23 28.08.2019
2907 Clouds 28 1016 61 10000 2.6 90 11:41 28.08.2019
2908 Clouds 28 1016 61 10000 2.6 90 11:23 28.08.2019
2909 Clouds 27 1016 54 10000 2.6 50 10:59 28.08.2019
2910 Clouds 27 1016 54 10000 3.6 30 10:41 28.08.2019
2911 Clouds 26 1016 54 10000 3.6 30 10:21 28.08.2019
2912 Clear 25 1015 57 10000 3.6 330 09:58 28.08.2019
2913 Clouds 24 1015 61 10000 3.6 340 09:39 28.08.2019
2914 Clouds 24 1015 61 10000 3.6 340 09:18 28.08.2019
2915 Clouds 23 1015 61 10000 3.6 330 08:39 28.08.2019
2916 Clouds 23 1015 61 10000 3.6 330 08:20 28.08.2019
2917 Clouds 22 1016 64 10000 4.6 340 07:40 28.08.2019
2918 Clouds 23 1016 64 10000 4.6 340 07:20 28.08.2019
2919 Clouds 23 1016 61 10000 3.1 340 06:51 28.08.2019
2920 Clouds 23 1016 69 10000 1 0 06:32 28.08.2019
2921 Clouds 22 1016 73 10000 5.7 340 05:32 28.08.2019
2922 Clear 24 1016 54 10000 3.6 320 02:48 28.08.2019
2923 Clouds 24 1017 54 10000 1.5 310 01:32 28.08.2019
2924 Clear 25 1016 51 10000 2.1 340 00:55 28.08.2019
2925 Clear 24 1016 51 10000 2.6 350 00:37 28.08.2019
2926 Clear 23 1016 57 10000 0.5 0 23:59 27.08.2019
2927 Clear 23 1016 51 10000 1 0 23:39 27.08.2019
2928 Clear 23 1016 51 10000 1 0 23:21 27.08.2019
2929 Clear 20 1016 51 10000 1.5 0 22:42 27.08.2019
2930 Clear 21 1016 51 10000 1 0 22:23 27.08.2019
2931 Clear 21 1016 65 10000 1.76 2.934 21:57 27.08.2019
2932 Clear 21 1015 69 10000 1.76 2.934 21:39 27.08.2019
2933 Clear 25 1015 69 10000 1.02 94.261 21:21 27.08.2019
2934 Clear 26 1016 65 10000 0.5 230 20:59 27.08.2019
2935 Clear 26 1016 65 10000 1 190 20:40 27.08.2019
2936 Clear 26 1016 65 10000 1 190 20:20 27.08.2019
2937 Clouds 26 1016 65 10000 1.5 190 19:57 27.08.2019
2938 Clouds 27 1016 61 10000 1 130 19:39 27.08.2019
2939 Clouds 27 1016 61 10000 1 130 19:20 27.08.2019
2940 Clouds 23 1016 61 10000 2.1 130 18:42 27.08.2019
2941 Clouds 27 1016 61 10000 2.1 130 18:19 27.08.2019
2942 Clouds 28 1016 61 10000 2.1 120 17:59 27.08.2019
2943 Clouds 28 1016 61 10000 2.1 120 17:41 27.08.2019
2944 Clouds 29 1016 65 10000 2.1 120 17:22 27.08.2019
2945 Clouds 28 1016 61 10000 2.6 130 16:47 27.08.2019
2946 Clouds 28 1017 62 10000 2.6 150 16:28 27.08.2019
2947 Clouds 29 1017 62 10000 2.1 130 15:58 27.08.2019
2948 Clouds 28 1017 62 10000 1.5 140 15:39 27.08.2019
2949 Clouds 29 1017 62 10000 1.5 140 15:20 27.08.2019
2950 Clouds 28 1018 66 10000 2.1 150 14:55 27.08.2019
2951 Clouds 28 1017 69 10000 2.1 130 14:37 27.08.2019
2952 Clouds 28 1017 69 10000 2.1 130 14:18 27.08.2019
2953 Clear 29 1017 66 10000 1.5 140 13:41 27.08.2019
2954 Clear 29 1017 66 10000 1.5 140 13:21 27.08.2019
2955 Clear 28 1018 69 10000 1.5 170 12:42 27.08.2019
2956 Clear 29 1018 65 10000 2.1 160 12:21 27.08.2019
2957 Clear 29 1018 65 10000 2.1 160 12:21 27.08.2019
2958 Clear 28 1018 69 10000 3.1 150 11:58 27.08.2019
2959 Clear 28 1018 65 10000 2.1 140 11:40 27.08.2019
2960 Clear 28 1018 65 10000 2.1 140 11:21 27.08.2019
2961 Clear 28 1017 58 10000 2.1 80 10:41 27.08.2019
2962 Clear 28 1017 58 10000 2.1 80 10:20 27.08.2019
2963 Clear 27 1017 51 10000 2.1 50 09:57 27.08.2019
2964 Clear 26 1017 54 10000 3.1 340 09:38 27.08.2019
2965 Clear 26 1017 54 10000 3.1 340 09:19 27.08.2019
2966 Clear 24 1017 61 10000 3.6 340 08:46 27.08.2019
2967 Clear 23 1017 57 10000 4.1 330 08:26 27.08.2019
2968 Clear 23 1017 60 10000 2.6 340 07:59 27.08.2019
2969 Clear 23 1017 60 10000 3.6 340 07:37 27.08.2019
2970 Clear 22 1017 60 10000 3.6 340 07:19 27.08.2019
2971 Clear 22 1017 60 10000 3.1 330 06:50 27.08.2019
2972 Clear 22 1017 60 10000 3.1 330 06:50 27.08.2019
2973 Clear 22 1017 64 10000 3.6 320 06:21 27.08.2019
2974 Clear 23 1017 61 10000 3.1 330 05:29 27.08.2019
2975 Clouds 23 1016 61 10000 3.6 20 04:28 27.08.2019
2976 Clouds 23 1016 57 10000 2.1 10 03:32 27.08.2019
2977 Clouds 23 1016 57 10000 3.6 340 02:22 27.08.2019
2978 Clear 23 1016 61 10000 3.1 320 01:34 27.08.2019
2979 Clear 22 1016 61 10000 2.6 330 00:50 27.08.2019
2980 Clear 24 1016 61 10000 2.1 320 00:29 27.08.2019
2981 Clear 24 1016 61 10000 2.6 320 23:54 26.08.2019
2982 Clear 24 1017 61 10000 1.5 10 23:36 26.08.2019
2983 Clear 24 1017 61 10000 1.5 10 23:18 26.08.2019
2984 Clouds 20 1017 65 10000 1.5 220 22:38 26.08.2019
2985 Clouds 20 1017 65 10000 1.5 220 22:19 26.08.2019
2986 Clouds 20 1017 74 10000 2.6 230 21:57 26.08.2019
2987 Clouds 22 1017 69 10000 2.6 210 21:37 26.08.2019
2988 Clouds 26 1017 69 10000 2.6 210 21:18 26.08.2019
2989 Clouds 26 1016 69 10000 1.5 180 20:54 26.08.2019
2990 Clouds 26 1016 69 10000 1.5 180 20:36 26.08.2019
2991 Clouds 26 1016 69 10000 1.5 180 20:18 26.08.2019
2992 Clouds 27 1016 61 10000 2.1 190 19:42 26.08.2019
2993 Clouds 27 1016 61 10000 2.1 190 19:19 26.08.2019
2994 Clouds 24 1016 65 10000 3.1 190 18:58 26.08.2019
2995 Clouds 23 1016 65 10000 1.5 140 18:38 26.08.2019
2996 Clouds 28 1016 65 10000 1.5 140 18:19 26.08.2019
2997 Clouds 29 1016 62 10000 1.5 0 17:44 26.08.2019
2998 Clouds 29 1016 62 10000 1.5 0 17:20 26.08.2019
2999 Clouds 29 1016 62 10000 1.5 110 16:57 26.08.2019
3000 Clouds 28 1017 65 10000 2.1 120 16:39 26.08.2019
3001 Clouds 28 1017 65 10000 2.1 120 16:18 26.08.2019
3002 Clouds 28 1017 62 10000 2.1 130 15:55 26.08.2019
3003 Clouds 28 1017 70 10000 2.6 140 15:37 26.08.2019
3004 Clouds 28 1017 70 10000 2.6 140 15:18 26.08.2019
3005 Clouds 28 1017 69 10000 3.6 130 14:43 26.08.2019
3006 Clouds 28 1017 69 10000 3.6 130 14:23 26.08.2019
3007 Clouds 28 1017 74 10000 3.6 140 13:56 26.08.2019
3008 Clouds 29 1017 74 10000 4.6 160 13:36 26.08.2019
3009 Clouds 28 1017 74 10000 4.6 160 13:18 26.08.2019
3010 Clouds 28 1017 62 10000 4.6 160 12:42 26.08.2019
3011 Clouds 29 1017 62 10000 4.6 160 12:21 26.08.2019
3012 Clouds 30 1017 43 10000 1 0 11:43 26.08.2019
3013 Clouds 29 1017 43 10000 1 0 11:25 26.08.2019
3014 Clouds 29 1017 43 10000 1 0 11:25 26.08.2019
3015 Clouds 30 1017 45 10000 4.1 330 10:59 26.08.2019
3016 Clear 29 1017 51 10000 3.6 340 10:41 26.08.2019
3017 Clear 28 1017 51 10000 3.6 340 10:19 26.08.2019
3018 Clear 28 1017 51 10000 3.6 340 10:19 26.08.2019
3019 Clear 27 1017 54 10000 3.1 340 09:47 26.08.2019
3020 Clear 24 1017 54 10000 3.1 340 09:26 26.08.2019
3021 Clear 25 1017 61 10000 3.6 340 08:59 26.08.2019
3022 Clear 24 1017 61 10000 3.6 350 08:41 26.08.2019
3023 Clear 23 1017 61 10000 3.6 350 08:22 26.08.2019
3024 Clear 23 1017 64 10000 4.1 340 07:59 26.08.2019
3025 Clear 22 1017 64 10000 4.1 330 07:38 26.08.2019
3026 Clear 22 1017 64 10000 4.1 330 07:20 26.08.2019
3027 Clear 22 1016 64 10000 2.6 340 06:40 26.08.2019
3028 Clear 22 1016 64 10000 2.6 340 06:21 26.08.2019
3029 Clear 22 1016 64 10000 3.1 350 05:48 26.08.2019
3030 Clear 23 1017 65 10000 3.6 360 04:25 26.08.2019
3031 Clear 23 1017 65 10000 3.1 350 02:51 26.08.2019
3032 Clouds 23 1017 69 10000 2.6 340 01:27 26.08.2019
3033 Clouds 23 1017 61 10000 3.1 340 00:48 26.08.2019
3034 Clouds 24 1017 61 10000 3.6 340 00:28 26.08.2019
3035 Clouds 24 1017 61 10000 3.1 330 23:59 25.08.2019
3036 Clear 24 1017 61 10000 4.1 330 23:40 25.08.2019
3037 Clear 24 1017 61 10000 4.1 330 23:18 25.08.2019
3038 Clear 20 1017 61 10000 3.6 330 22:55 25.08.2019
3039 Clear 20 1017 57 10000 3.1 320 22:37 25.08.2019
3040 Clear 20 1017 57 10000 3.1 320 22:18 25.08.2019
3041 Clear 21 1017 57 10000 2.1 300 21:55 25.08.2019
3042 Clouds 21 1016 69 10000 1 0 21:36 25.08.2019
3043 Clouds 25 1016 69 10000 1 0 21:18 25.08.2019
3044 Clouds 26 1016 69 10000 1 0 20:39 25.08.2019
3045 Clouds 26 1016 69 10000 1 0 20:19 25.08.2019
3046 Clouds 27 1016 61 10000 1 140 19:56 25.08.2019
3047 Clouds 27 1016 65 10000 1.5 0 19:37 25.08.2019
3048 Clouds 27 1016 65 10000 1.5 0 19:18 25.08.2019
3049 Clouds 27 1016 65 10000 1.5 150 18:57 25.08.2019
3050 Clouds 26 1016 65 10000 1.5 0 18:39 25.08.2019
3051 Clouds 28 1016 65 10000 1.5 0 18:19 25.08.2019
3052 Clouds 29 1016 58 10000 2.1 180 17:42 25.08.2019
3053 Clouds 29 1016 58 10000 2.1 180 17:24 25.08.2019
3054 Clouds 29 1016 58 10000 2.6 190 16:45 25.08.2019
3055 Clouds 29 1016 62 10000 3.1 190 16:25 25.08.2019
3056 Clouds 28 1016 58 10000 4.1 190 15:59 25.08.2019
3057 Clouds 28 1017 62 10000 4.1 190 15:41 25.08.2019
3058 Clouds 28 1017 62 10000 4.1 190 15:23 25.08.2019
3059 Clouds 28 1017 66 10000 4.6 200 14:42 25.08.2019
3060 Clouds 29 1017 62 10000 5.1 200 14:23 25.08.2019
3061 Clouds 28 1017 62 10000 4.6 190 13:56 25.08.2019
3062 Clouds 28 1017 62 10000 4.1 180 13:37 25.08.2019
3063 Clouds 28 1017 62 10000 4.1 180 13:18 25.08.2019
3064 Clouds 29 1017 66 10000 2.6 170 12:41 25.08.2019
3065 Clouds 29 1017 66 10000 2.6 170 12:23 25.08.2019
3066 Clouds 28 1017 62 10000 3.1 170 11:57 25.08.2019
3067 Clouds 28 1017 42 10000 2.1 220 11:37 25.08.2019
3068 Clouds 27 1017 42 10000 2.1 220 11:19 25.08.2019
3069 Clouds 29 1017 48 10000 3.1 320 10:56 25.08.2019
3070 Clouds 28 1017 51 10000 4.1 320 10:37 25.08.2019
3071 Clouds 28 1017 51 10000 4.1 320 10:19 25.08.2019
3072 Clear 27 1017 57 10000 4.1 330 09:42 25.08.2019
3073 Clear 25 1017 57 10000 4.1 330 09:24 25.08.2019
3074 Clear 24 1017 61 10000 3.6 340 08:47 25.08.2019
3075 Clear 23 1017 64 10000 3.6 340 08:29 25.08.2019
3076 Clear 22 1017 64 10000 3.6 340 07:54 25.08.2019
3077 Clear 22 1017 64 10000 4.1 340 07:32 25.08.2019
3078 Clear 22 1016 64 10000 3.1 340 06:39 25.08.2019
3079 Clear 22 1016 64 10000 3.1 340 05:27 25.08.2019
3080 Clear 22 1017 69 10000 4.6 330 03:48 25.08.2019
3081 Clear 22 1017 69 10000 5.7 330 02:43 25.08.2019
3082 Clear 22 1017 69 10000 4.1 330 02:20 25.08.2019
3083 Clear 23 1018 65 10000 3.1 330 00:55 25.08.2019
3084 Clear 23 1018 65 10000 2.6 330 00:24 25.08.2019
3085 Clear 23 1017 61 10000 2.1 330 23:58 24.08.2019
3086 Clear 23 1018 61 10000 1.5 0 23:40 24.08.2019
3087 Clear 23 1018 61 10000 1.5 0 23:22 24.08.2019
3088 Clouds 19 1017 65 10000 1 0 22:54 24.08.2019
3089 Clouds 20 1017 61 10000 1 260 22:36 24.08.2019
3090 Clouds 19 1017 61 10000 1 260 22:18 24.08.2019
3091 Clouds 20 1017 65 10000 2.1 240 21:42 24.08.2019
3092 Clouds 20 1017 65 10000 2.1 240 21:42 24.08.2019
3093 Clouds 25 1017 65 10000 2.6 230 21:24 24.08.2019
3094 Clouds 25 1017 65 10000 2.6 220 20:59 24.08.2019
3095 Clouds 25 1017 65 10000 2.6 220 20:40 24.08.2019
3096 Clouds 26 1017 65 10000 2.6 220 20:20 24.08.2019
3097 Clouds 26 1017 61 10000 3.1 200 19:59 24.08.2019
3098 Clouds 23 1017 61 10000 3.1 200 19:39 24.08.2019
3099 Clouds 27 1017 61 10000 3.1 200 19:21 24.08.2019
3100 Clouds 23 1017 61 10000 3.1 190 18:47 24.08.2019
3101 Clouds 28 1017 58 10000 2.6 160 18:25 24.08.2019
3102 Clouds 27 1017 58 10000 3.1 130 17:59 24.08.2019
3103 Clouds 27 1017 58 10000 3.1 170 17:41 24.08.2019
3104 Clouds 27 1017 58 10000 3.1 170 17:22 24.08.2019
3105 Clouds 28 1018 58 10000 3.1 170 16:42 24.08.2019
3106 Clouds 29 1018 58 10000 3.1 170 16:19 24.08.2019
3107 Clouds 28 1018 62 10000 3.6 150 15:55 24.08.2019
3108 Clouds 28 1018 62 10000 3.1 150 15:37 24.08.2019
3109 Clouds 28 1018 62 10000 3.1 150 15:19 24.08.2019
3110 Clouds 27 1018 61 10000 2.6 150 14:42 24.08.2019
3111 Clouds 28 1018 61 10000 3.6 150 14:20 24.08.2019
3112 Clouds 28 1018 61 10000 3.6 150 13:55 24.08.2019
3113 Clouds 28 1019 61 10000 3.6 170 13:37 24.08.2019
3114 Clouds 28 1019 61 10000 3.6 170 13:18 24.08.2019
3115 Clouds 28 1019 51 10000 3.1 160 12:42 24.08.2019
3116 Clouds 28 1019 51 10000 3.1 160 12:42 24.08.2019
3117 Clouds 28 1019 51 10000 3.1 160 12:23 24.08.2019
3118 Clouds 28 1019 48 10000 2.6 180 11:55 24.08.2019
3119 Clouds 28 1018 45 10000 1.5 220 11:37 24.08.2019
3120 Clouds 27 1018 45 10000 1.5 220 11:18 24.08.2019
3121 Clear 27 1019 54 10000 3.6 330 10:41 24.08.2019
3122 Clear 27 1019 54 10000 3.6 330 10:21 24.08.2019
3123 Clear 26 1018 54 10000 4.1 330 09:44 24.08.2019
3124 Clear 24 1018 61 10000 4.6 330 09:20 24.08.2019
3125 Clear 23 1018 64 10000 4.1 340 08:56 24.08.2019
3126 Clear 22 1018 64 10000 4.6 340 08:36 24.08.2019
3127 Clear 22 1018 64 10000 4.6 340 08:18 24.08.2019
3128 Clear 21 1018 64 10000 4.6 340 07:41 24.08.2019
3129 Clear 20 1018 64 10000 4.6 340 07:22 24.08.2019
3130 Clear 21 1018 64 10000 3.6 330 06:24 24.08.2019
3131 Clear 21 1018 69 10000 3.6 340 05:40 24.08.2019
3132 Clear 21 1018 64 10000 3.6 330 03:54 24.08.2019
3133 Clear 21 1018 64 10000 2.6 340 03:34 24.08.2019
3134 Clear 21 1019 64 10000 3.6 330 02:25 24.08.2019
3135 -273 0 0 0 0 0 02:25 24.08.2019
3136 Clear 21 1019 64 10000 3.6 330 01:30 24.08.2019
3137 Clear 21 1019 61 10000 3.1 350 00:52 24.08.2019
3138 Clear 21 1019 61 10000 3.1 340 00:25 24.08.2019
3139 Clear 21 1019 61 10000 3.1 340 23:57 23.08.2019
3140 Clear 21 1019 65 10000 4.1 330 23:37 23.08.2019
3141 Clear 21 1019 65 10000 4.1 330 23:18 23.08.2019
3142 Clouds 22 1019 61 10000 2.1 340 22:41 23.08.2019
3143 Clouds 22 1019 61 10000 2.1 340 22:23 23.08.2019
3144 Clouds 22 1019 54 10000 4.1 320 21:39 23.08.2019
3145 Clouds 22 1019 54 10000 4.1 320 21:20 23.08.2019
3146 Clouds 22 1018 57 10000 4.6 290 20:56 23.08.2019
3147 Rain 22 1019 65 10000 5.1 290 20:37 23.08.2019
3148 Rain 23 1019 65 10000 5.1 290 20:19 23.08.2019
3149 Rain 24 1018 69 10000 1 120 19:43 23.08.2019
3150 Rain 24 1018 69 10000 1 120 19:18 23.08.2019
3151 Rain 25 1018 61 10000 0.5 0 18:45 23.08.2019
3152 Clouds 26 1018 57 10000 1.5 100 18:27 23.08.2019
3153 Clouds 25 1019 61 10000 2.6 100 17:56 23.08.2019
3154 Thunderstorm 26 1019 69 10000 3.1 100 17:38 23.08.2019
3155 Thunderstorm 25 1019 69 10000 3.1 100 17:20 23.08.2019
3156 Thunderstorm 25 1019 69 10000 4.6 90 16:47 23.08.2019
3157 Thunderstorm 24 1018 65 10000 5.1 90 16:29 23.08.2019
3158 Thunderstorm 26 1019 69 10000 6.2 80 15:56 23.08.2019
3159 Clouds 26 1019 69 10000 5.7 90 15:37 23.08.2019
3160 Clouds 26 1019 69 10000 5.7 90 15:19 23.08.2019
3161 Clouds 26 1020 61 10000 5.1 90 14:41 23.08.2019
3162 Clouds 26 1020 61 10000 5.1 90 14:21 23.08.2019
3163 Clouds 26 1020 61 10000 5.1 90 14:21 23.08.2019
3164 Clouds 27 1020 61 10000 4.6 90 13:57 23.08.2019
3165 Clouds 27 1020 61 10000 4.1 100 13:39 23.08.2019
3166 Clouds 27 1020 61 10000 4.1 100 13:21 23.08.2019
3167 Clouds 27 1020 69 10000 3.6 130 12:57 23.08.2019
3168 Clouds 26 1020 74 10000 5.7 160 12:39 23.08.2019
3169 Clouds 26 1020 74 10000 5.7 160 12:20 23.08.2019
3170 Clouds 26 1020 54 10000 4.1 180 11:56 23.08.2019
3171 Clouds 27 1020 42 10000 2.1 140 11:37 23.08.2019
3172 Clouds 27 1020 42 10000 2.1 140 11:18 23.08.2019
3173 Clouds 27 1019 42 10000 4.1 320 10:44 23.08.2019
3174 Clouds 27 1019 42 10000 4.1 320 10:22 23.08.2019
3175 Clear 26 1018 44 10000 5.1 330 09:58 23.08.2019
3176 Clear 25 1018 50 10000 6.2 330 09:39 23.08.2019
3177 Clear 25 1018 50 10000 6.2 330 09:20 23.08.2019
3178 Clouds 23 1018 49 10000 6.2 320 08:44 23.08.2019
3179 Clouds 22 1018 49 10000 6.2 320 08:20 23.08.2019
3180 Clear 21 1018 53 10000 3.6 340 07:43 23.08.2019
3181 Clear 21 1018 53 10000 3.6 340 07:24 23.08.2019
3182 Clear 21 1018 53 10000 3.6 340 07:24 23.08.2019
3183 Clear 21 1018 53 10000 4.6 330 06:59 23.08.2019
3184 Clear 21 1018 53 10000 3.1 340 06:40 23.08.2019
3185 Clear 21 1018 53 10000 3.1 340 06:21 23.08.2019
3186 Clear 21 1018 77 10000 2.1 360 05:43 23.08.2019
3187 Clear 22 1018 53 10000 5.1 350 05:23 23.08.2019
3188 Clear 22 1018 53 10000 5.1 340 03:36 23.08.2019
3189 Clear 22 1018 57 10000 4.6 350 02:37 23.08.2019
3190 Clear 22 1018 57 10000 4.6 350 02:18 23.08.2019
3191 Clear 23 1018 60 10000 6.2 330 00:46 23.08.2019
3192 Clear 23 1018 60 10000 4.6 330 00:22 23.08.2019
3193 Clear 23 1019 57 10000 5.1 330 23:53 22.08.2019
3194 Clear 24 1018 57 10000 5.1 320 23:33 22.08.2019
3195 Clear 22 1019 57 10000 5.1 320 22:59 22.08.2019
3196 Clear 24 1019 50 10000 5.1 320 22:41 22.08.2019
3197 Clear 24 1019 50 10000 5.1 320 22:22 22.08.2019
3198 Clear 25 1019 50 10000 4.6 330 21:58 22.08.2019
3199 Clear 24 1018 47 10000 4.1 320 21:40 22.08.2019
3200 Clear 25 1018 47 10000 4.1 320 21:21 22.08.2019
3201 Clear 26 1018 47 10000 3.6 300 20:57 22.08.2019
3202 Clouds 26 1018 69 10000 2.6 240 20:39 22.08.2019
3203 Clouds 26 1018 69 10000 2.6 240 20:19 22.08.2019
3204 Clouds 26 1018 74 10000 2.6 230 19:56 22.08.2019
3205 Clouds 27 1018 65 10000 2.6 240 19:38 22.08.2019
3206 Clouds 26 1018 65 10000 2.6 240 19:20 22.08.2019
3207 Clouds 27 1018 65 10000 3.1 220 18:57 22.08.2019
3208 Clouds 27 1018 69 10000 3.6 190 18:39 22.08.2019
3209 Clouds 28 1018 69 10000 3.6 190 18:18 22.08.2019
3210 Clouds 29 1018 66 10000 3.6 180 17:43 22.08.2019
3211 Clouds 28 1018 66 10000 3.6 180 17:24 22.08.2019
3212 Clouds 27 1018 62 10000 3.1 180 16:59 22.08.2019
3213 Clouds 27 1018 62 10000 3.6 200 16:40 22.08.2019
3214 Clouds 28 1018 62 10000 3.6 200 16:21 22.08.2019
3215 Clouds 28 1018 62 10000 3.6 200 16:21 22.08.2019
3216 Clouds 28 1018 62 10000 3.6 200 16:21 22.08.2019
3217 Clouds 28 1018 62 10000 3.6 200 16:21 22.08.2019
3218 Clouds 27 1018 65 10000 4.6 190 15:59 22.08.2019
3219 Clouds 27 1018 65 10000 4.6 190 15:59 22.08.2019
3220 Clouds 28 1018 69 10000 4.1 190 15:40 22.08.2019
3221 Clouds 28 1018 69 10000 4.1 190 15:40 22.08.2019
3222 Clouds 28 1018 69 10000 4.1 190 15:40 22.08.2019
3223 Clouds 28 1018 69 10000 4.1 190 15:21 22.08.2019
3224 Clouds 28 1018 62 10000 4.6 200 14:57 22.08.2019
3225 Clouds 28 1019 62 10000 4.1 210 14:38 22.08.2019
3226 Clouds 28 1019 62 10000 4.1 210 14:18 22.08.2019
3227 Clouds 28 1019 65 10000 3.6 200 13:56 22.08.2019
3228 Clouds 29 1019 69 10000 3.1 190 13:37 22.08.2019
3229 Clouds 29 1019 69 10000 3.1 190 13:18 22.08.2019
3230 Clouds 28 1019 65 10000 1.5 150 12:40 22.08.2019
3231 Clouds 28 1019 65 10000 1.5 150 12:22 22.08.2019
3232 Clouds 28 1019 69 10000 1.5 130 11:57 22.08.2019
3233 Clouds 27 1018 61 10000 2.1 110 11:39 22.08.2019
3234 Clouds 27 1018 61 10000 2.1 110 11:19 22.08.2019
3235 Clouds 26 1018 48 10000 1.5 320 10:57 22.08.2019
3236 Clouds 26 1018 51 10000 2.6 340 10:37 22.08.2019
3237 Clouds 26 1018 51 10000 2.6 340 10:19 22.08.2019
3238 Clouds 25 1018 54 10000 4.1 340 09:54 22.08.2019
3239 Clouds 25 1018 54 10000 3.6 330 09:36 22.08.2019
3240 Clouds 25 1018 54 10000 3.6 330 09:18 22.08.2019
3241 Clear 24 1018 57 10000 4.1 330 08:41 22.08.2019
3242 Clear 24 1018 57 10000 4.1 330 08:21 22.08.2019
3243 Clear 23 1017 60 10000 3.6 350 07:55 22.08.2019
3244 Clear 22 1017 60 10000 3.6 330 07:37 22.08.2019
3245 Clear 22 1017 60 10000 3.6 330 07:18 22.08.2019
3246 Clear 22 1017 60 10000 4.1 340 06:44 22.08.2019
3247 Clear 22 1017 60 10000 3.6 330 06:20 22.08.2019
3248 Clear 22 1017 60 10000 3.1 330 05:26 22.08.2019
3249 Clear 22 1017 65 10000 3.1 340 03:22 22.08.2019
3250 Clear 23 1017 65 10000 3.1 330 02:36 22.08.2019
3251 Clear 23 1018 69 10000 2.6 330 01:36 22.08.2019
3252 Clear 23 1018 65 10000 2.1 320 00:52 22.08.2019
3253 Clear 23 1018 65 10000 2.6 320 00:30 22.08.2019
3254 Clear 23 1017 78 10000 1 0 23:59 21.08.2019
3255 Clear 23 1018 65 10000 1.5 340 23:40 21.08.2019
3256 Clear 23 1018 65 10000 1.5 340 23:21 21.08.2019
3257 Clear 21 1017 69 10000 1 20 22:58 21.08.2019
3258 Clear 20 1017 73 10000 2.23 6.337 22:39 21.08.2019
3259 Clear 20 1017 73 10000 2.23 6.337 22:20 21.08.2019
3260 Clear 20 1017 69 10000 2.23 6.337 21:56 21.08.2019
3261 Clear 20 1017 69 10000 2.26 4.113 21:38 21.08.2019
3262 Clear 25 1017 69 10000 0.75 150.738 21:19 21.08.2019
3263 Clear 25 1017 69 10000 1 0 20:56 21.08.2019
3264 Clear 25 1016 65 10000 0.5 0 20:37 21.08.2019
3265 Clear 26 1016 65 10000 0.5 0 20:19 21.08.2019
3266 Clouds 26 1016 65 10000 1 90 19:42 21.08.2019
3267 Clouds 26 1016 65 10000 1 90 19:24 21.08.2019
3268 Clouds 27 1017 69 10000 1 0 18:58 21.08.2019
3269 Clouds 26 1017 69 10000 1 0 18:39 21.08.2019
3270 Clouds 27 1017 69 10000 1 0 18:20 21.08.2019
3271 Clouds 27 1017 65 10000 1.5 0 17:45 21.08.2019
3272 Clouds 28 1017 65 10000 1 0 17:23 21.08.2019
3273 Clouds 27 1017 65 10000 1.5 140 16:58 21.08.2019
3274 Clouds 28 1018 65 10000 1.5 150 16:40 21.08.2019
3275 Clouds 27 1018 65 10000 1.5 150 16:20 21.08.2019
3276 Clouds 27 1017 69 10000 2.1 140 15:58 21.08.2019
3277 Clouds 27 1018 69 10000 2.6 140 15:39 21.08.2019
3278 Clouds 27 1018 69 10000 2.6 140 15:20 21.08.2019
3279 Clouds 27 1018 65 10000 3.6 130 14:57 21.08.2019
3280 Clouds 27 1018 65 10000 3.6 110 14:38 21.08.2019
3281 Clouds 27 1018 65 10000 3.6 110 14:19 21.08.2019
3282 Clouds 27 1018 69 10000 3.1 120 13:43 21.08.2019
3283 Clouds 27 1018 69 10000 3.1 120 13:21 21.08.2019
3284 Clouds 27 1018 69 10000 3.1 120 13:21 21.08.2019
3285 Clouds 27 1018 69 10000 3.1 100 12:59 21.08.2019
3286 Clouds 27 1018 74 10000 2.6 110 12:40 21.08.2019
3287 Clouds 26 1018 74 10000 2.6 110 12:21 21.08.2019
3288 Clouds 26 1018 74 10000 2.6 90 11:57 21.08.2019
3289 Clouds 26 1018 74 10000 4.1 90 11:39 21.08.2019
3290 Clouds 26 1018 74 10000 4.1 90 11:20 21.08.2019
3291 Clouds 26 1018 74 10000 4.6 80 10:56 21.08.2019
3292 Clouds 25 1018 74 10000 4.6 80 10:37 21.08.2019
3293 Clouds 25 1018 74 10000 4.6 80 10:19 21.08.2019
3294 Clouds 25 1018 57 10000 2.1 50 09:42 21.08.2019
3295 Clouds 24 1018 57 10000 1.5 360 09:23 21.08.2019
3296 Clouds 23 1017 60 10000 3.6 330 08:59 21.08.2019
3297 Clouds 23 1017 60 10000 3.6 330 08:41 21.08.2019
3298 Clouds 22 1017 60 10000 3.1 330 08:21 21.08.2019
3299 Clouds 21 1017 64 10000 2.6 330 07:40 21.08.2019
3300 Clouds 21 1017 64 10000 2.6 330 07:21 21.08.2019
3301 Clouds 21 1017 64 10000 2.6 330 06:49 21.08.2019
3302 Clear 21 1016 60 10000 2.1 330 06:22 21.08.2019
3303 Clear 21 1016 60 10000 2.1 340 05:42 21.08.2019
3304 Clear 21 1016 60 10000 2.1 340 05:23 21.08.2019
3305 Clear 22 1016 64 10000 2.6 330 03:38 21.08.2019
3306 Clear 22 1016 65 10000 2.6 350 01:47 21.08.2019
3307 Clear 19 1017 65 10000 2.6 330 00:46 21.08.2019
3308 Clear 22 1017 73 10000 1 0 00:24 21.08.2019
3309 Clear 23 1017 73 10000 2.1 310 23:59 20.08.2019
3310 Clear 23 1017 73 10000 0.5 0 23:41 20.08.2019
3311 Clear 23 1017 73 10000 0.5 0 23:19 20.08.2019
3312 Clear 20 1017 78 10000 1.5 180 22:56 20.08.2019
3313 Clear 20 1016 74 10000 1.5 190 22:38 20.08.2019
3314 Clear 20 1016 74 10000 1.5 190 22:20 20.08.2019
3315 Clear 20 1016 74 10000 1.5 190 22:20 20.08.2019
3316 Clear 20 1016 74 10000 1.5 190 22:20 20.08.2019
3317 Clear 20 1016 74 10000 1 190 21:57 20.08.2019
3318 Clear 22 1016 74 10000 1.5 200 21:38 20.08.2019
3319 Clear 24 1016 74 10000 1.5 200 21:19 20.08.2019
3320 Clear 24 1016 69 10000 2.1 210 20:56 20.08.2019
3321 Clear 25 1016 69 10000 2.1 200 20:36 20.08.2019
3322 Clear 25 1016 69 10000 2.1 200 20:18 20.08.2019
3323 Clouds 25 1016 69 10000 2.1 180 19:39 20.08.2019
3324 Clouds 25 1016 69 10000 2.1 180 19:20 20.08.2019
3325 Clouds 26 1016 74 10000 3.1 180 18:56 20.08.2019
3326 Clouds 26 1017 74 10000 3.1 190 18:38 20.08.2019
3327 Clouds 26 1017 74 10000 3.1 190 18:19 20.08.2019
3328 Clouds 26 1017 69 10000 3.1 190 17:55 20.08.2019
3329 Clouds 26 1017 69 10000 3.1 170 17:37 20.08.2019
3330 Clouds 27 1017 69 10000 3.1 170 17:18 20.08.2019
3331 Clouds 27 1017 69 10000 2.6 180 16:42 20.08.2019
3332 Clouds 27 1017 69 10000 2.6 170 16:23 20.08.2019
3333 Clouds 27 1017 69 10000 3.1 140 15:42 20.08.2019
3334 Clouds 27 1017 69 10000 3.1 140 15:19 20.08.2019
3335 Clouds 27 1017 74 10000 3.6 130 14:58 20.08.2019
3336 Clouds 26 1017 69 10000 3.1 130 14:40 20.08.2019
3337 Clouds 27 1017 69 10000 3.1 130 14:21 20.08.2019
3338 Clouds 27 1017 69 10000 3.1 130 14:21 20.08.2019
3339 Clouds 27 1017 74 10000 3.1 120 13:56 20.08.2019
3340 Clouds 27 1017 69 10000 3.1 110 13:37 20.08.2019
3341 Clouds 27 1017 69 10000 3.1 110 13:19 20.08.2019
3342 Clouds 27 1017 74 10000 3.1 120 12:50 20.08.2019
3343 Clouds 26 1018 69 10000 2.6 120 12:25 20.08.2019
3344 Clouds 26 1018 65 10000 2.1 110 11:58 20.08.2019
3345 Clouds 26 1018 65 10000 2.1 110 11:58 20.08.2019
3346 Clouds 25 1018 65 10000 2.1 120 11:38 20.08.2019
3347 Clouds 26 1018 65 10000 2.1 120 11:18 20.08.2019
3348 Clouds 26 1017 69 10000 2.1 100 10:56 20.08.2019
3349 Clouds 26 1017 74 10000 2.6 90 10:38 20.08.2019
3350 Clouds 25 1017 74 10000 2.6 90 10:19 20.08.2019
3351 Clouds 25 1017 78 10000 1.5 40 09:43 20.08.2019
3352 Clouds 24 1017 78 10000 1.5 40 09:25 20.08.2019
3353 Clouds 24 1017 78 10000 1.5 0 08:57 20.08.2019
3354 Clouds 23 1017 78 10000 2.1 330 08:39 20.08.2019
3355 Clouds 22 1017 78 10000 2.1 330 08:20 20.08.2019
3356 Clouds 22 1016 78 10000 1.5 340 07:55 20.08.2019
3357 Clouds 21 1016 78 10000 1.5 350 07:37 20.08.2019
3358 Clouds 21 1016 78 10000 1.5 350 07:18 20.08.2019
3359 Clouds 21 1016 78 10000 1.5 350 07:18 20.08.2019
3360 Clear 21 1016 83 10000 2.1 320 06:28 20.08.2019
3361 Clear 21 1016 83 10000 2.6 320 05:51 20.08.2019
3362 Clear 22 1016 73 10000 1.5 330 05:30 20.08.2019
3363 Clear 22 1016 78 10000 1.5 360 04:18 20.08.2019
3364 Clear 22 1016 73 10000 1 340 02:44 20.08.2019
3365 Clear 22 1017 78 10000 1.5 0 01:39 20.08.2019
3366 Clear 22 1017 78 10000 1.5 290 00:59 20.08.2019
3367 Clear 22 1017 78 10000 1.5 290 00:40 20.08.2019
3368 Clear 22 1017 78 10000 2.6 320 00:21 20.08.2019
3369 Clear 22 1017 73 10000 1.36 349.507 23:40 19.08.2019
3370 Clear 22 1017 73 10000 1.36 349.507 23:18 19.08.2019
3371 Clear 24 1017 78 10000 1 180 22:57 19.08.2019
3372 Clear 24 1017 73 10000 1 200 22:39 19.08.2019
3373 Clear 24 1017 73 10000 1 200 22:18 19.08.2019
3374 Clear 24 1017 73 10000 1 200 21:56 19.08.2019
3375 Clear 23 1017 74 10000 1.5 180 21:37 19.08.2019
3376 Clear 23 1017 74 10000 1.5 180 21:19 19.08.2019
3377 Clear 25 1016 78 10000 1.5 140 20:40 19.08.2019
3378 Clear 25 1016 78 10000 1.5 140 20:21 19.08.2019
3379 Clouds 24 1016 74 10000 1.5 0 19:59 19.08.2019
3380 Clouds 24 1017 74 10000 2.1 190 19:40 19.08.2019
3381 Clouds 25 1017 74 10000 2.1 190 19:19 19.08.2019
3382 Clouds 25 1017 69 10000 2.6 180 18:58 19.08.2019
3383 Clouds 25 1017 69 10000 2.6 180 18:39 19.08.2019
3384 Clouds 26 1017 69 10000 2.6 180 18:21 19.08.2019
3385 Clouds 27 1017 69 10000 2.6 180 17:55 19.08.2019
3386 Clouds 27 1017 69 10000 3.1 190 17:36 19.08.2019
3387 Clouds 27 1017 69 10000 3.1 190 17:18 19.08.2019
3388 Clouds 26 1017 69 10000 2.6 170 16:38 19.08.2019
3389 Clouds 26 1017 69 10000 2.6 170 16:20 19.08.2019
3390 Clouds 26 1017 69 10000 2.6 160 15:56 19.08.2019
3391 Clouds 26 1017 69 10000 3.1 150 15:38 19.08.2019
3392 Clouds 26 1017 69 10000 3.1 150 15:19 19.08.2019
3393 Clouds 27 1017 69 10000 3.1 140 14:43 19.08.2019
3394 Clouds 27 1017 69 10000 3.1 140 14:23 19.08.2019
3395 Clouds 27 1017 69 10000 3.6 140 13:58 19.08.2019
3396 Clouds 27 1016 69 10000 3.6 140 13:39 19.08.2019
3397 Clouds 27 1016 69 10000 3.6 140 13:20 19.08.2019
3398 Clouds 27 1017 69 10000 3.1 160 12:58 19.08.2019
3399 Clouds 27 1016 69 10000 3.6 160 12:40 19.08.2019
3400 Clouds 26 1016 69 10000 3.6 160 12:20 19.08.2019
3401 Clouds 25 1016 69 10000 3.1 160 11:40 19.08.2019
3402 Clouds 25 1016 69 10000 3.1 160 11:22 19.08.2019
3403 Clouds 26 1016 69 10000 2.6 180 10:58 19.08.2019
3404 Clouds 26 1016 69 10000 1.5 250 10:38 19.08.2019
3405 Clouds 25 1016 69 10000 1.5 250 10:19 19.08.2019
3406 Clouds 24 1016 65 10000 2.1 320 09:54 19.08.2019
3407 Clouds 23 1016 64 10000 3.1 320 09:36 19.08.2019
3408 Clouds 23 1016 64 10000 3.1 320 09:18 19.08.2019
3409 Clouds 22 1016 69 10000 3.1 320 08:41 19.08.2019
3410 Clouds 21 1016 73 10000 3.1 330 08:21 19.08.2019
3411 Clouds 19 1015 73 10000 4.1 330 07:52 19.08.2019
3412 Clouds 18 1015 77 10000 3.1 330 07:34 19.08.2019
3413 Clouds 19 1015 77 10000 3.6 330 06:59 19.08.2019
3414 Clouds 19 1015 83 10000 3.6 330 06:36 19.08.2019
3415 Clouds 19 1015 78 10000 2.6 340 05:26 19.08.2019
3416 Clouds 19 1015 83 10000 3.6 330 04:33 19.08.2019
3417 Clouds 20 1015 83 10000 3.1 340 03:26 19.08.2019
3418 Clouds 20 1016 78 10000 3.6 320 02:30 19.08.2019
3419 Clouds 21 1016 78 10000 3.6 320 01:37 19.08.2019
3420 Clouds 21 1016 78 10000 2.1 320 00:47 19.08.2019
3421 Clouds 21 1016 78 10000 2.1 10 00:23 19.08.2019
3422 Clouds 21 1016 73 10000 3.1 90 23:56 18.08.2019
3423 Clouds 21 1016 78 10000 2.6 80 23:36 18.08.2019
3424 Clouds 21 1016 78 10000 2.6 80 23:18 18.08.2019
3425 Clear 20 1015 73 10000 2.1 90 22:40 18.08.2019
3426 Clear 20 1015 73 10000 2.1 90 22:21 18.08.2019
3427 Clear 25 1015 73 10000 1.5 90 21:57 18.08.2019
3428 Clear 25 1015 73 10000 1.5 110 21:39 18.08.2019
3429 Clear 25 1015 73 10000 1.5 110 21:20 18.08.2019
3430 Clear 25 1015 73 10000 1 100 20:46 18.08.2019
3431 Clear 25 1015 78 10000 1.5 110 20:27 18.08.2019
3432 Clouds 26 1015 69 10000 2.1 130 19:59 18.08.2019
3433 Clouds 26 1015 69 10000 2.1 120 19:41 18.08.2019
3434 Clouds 26 1015 69 10000 2.1 120 19:23 18.08.2019
3435 Clouds 27 1015 69 10000 1.5 140 18:56 18.08.2019
3436 Clouds 27 1015 69 10000 1.5 140 18:56 18.08.2019
3437 Clouds 27 1015 69 10000 2.1 120 18:38 18.08.2019
3438 Clouds 26 1015 69 10000 2.1 120 18:20 18.08.2019
3439 Clouds 26 1015 69 10000 2.6 140 17:54 18.08.2019
3440 Clouds 26 1015 65 10000 2.6 140 17:36 18.08.2019
3441 Clouds 26 1015 65 10000 2.6 140 17:18 18.08.2019
3442 Clouds 26 1016 65 10000 3.1 150 16:42 18.08.2019
3443 Clouds 26 1016 65 10000 3.1 150 16:23 18.08.2019
3444 Clouds 26 1016 69 10000 3.1 140 15:59 18.08.2019
3445 Clouds 26 1016 69 10000 3.6 140 15:39 18.08.2019
3446 Clouds 26 1016 69 10000 3.6 140 15:20 18.08.2019
3447 Clouds 26 1016 69 10000 3.6 140 15:20 18.08.2019
3448 Clouds 26 1016 69 10000 3.6 140 14:57 18.08.2019
3449 Clouds 26 1016 69 10000 3.6 150 14:38 18.08.2019
3450 Clouds 26 1016 69 10000 3.6 150 14:19 18.08.2019
3451 Clouds 26 1016 69 10000 3.1 150 13:56 18.08.2019
3452 Clouds 27 1016 69 10000 3.6 150 13:38 18.08.2019
3453 Clouds 28 1016 69 10000 3.6 150 13:19 18.08.2019
3454 Clouds 27 1016 74 10000 3.1 130 12:44 18.08.2019
3455 Clouds 28 1016 69 10000 3.6 130 12:22 18.08.2019
3456 Clouds 28 1016 69 10000 3.1 110 11:55 18.08.2019
3457 Clouds 26 1016 74 10000 3.1 100 11:37 18.08.2019
3458 Clouds 26 1016 74 10000 3.1 100 11:18 18.08.2019
3459 Clouds 25 1016 69 10000 1.5 60 10:41 18.08.2019
3460 Clouds 25 1016 69 10000 1.5 60 10:22 18.08.2019
3461 Clouds 25 1016 65 10000 2.6 350 09:53 18.08.2019
3462 Clouds 24 1016 64 10000 3.6 330 09:24 18.08.2019
3463 Clouds 22 1016 69 10000 4.1 330 08:59 18.08.2019
3464 Clouds 21 1015 73 10000 4.1 330 08:41 18.08.2019
3465 Clouds 21 1015 73 10000 4.1 330 08:23 18.08.2019
3466 Clouds 21 1015 73 10000 4.6 330 07:49 18.08.2019
3467 Clouds 21 1015 73 10000 4.1 330 07:29 18.08.2019
3468 Clouds 21 1015 73 10000 3.6 330 05:49 18.08.2019
3469 Clouds 21 1015 78 10000 4.1 340 04:54 18.08.2019
3470 Clouds 21 1015 78 10000 3.6 330 03:43 18.08.2019
3471 Clouds 22 1016 78 10000 3.1 330 02:48 18.08.2019
3472 Clouds 22 1016 78 10000 2.6 330 02:25 18.08.2019
3473 Clouds 23 1016 78 10000 2.6 330 01:47 18.08.2019
3474 Clouds 23 1016 78 10000 2.6 330 01:22 18.08.2019
3475 Clouds 23 1016 78 10000 2.1 320 00:39 18.08.2019
3476 Clouds 23 1016 78 10000 2.1 320 00:19 18.08.2019
3477 Clouds 23 1016 78 10000 1 0 23:57 17.08.2019
3478 Clouds 23 1016 78 10000 0.5 0 23:37 17.08.2019
3479 Clouds 23 1016 78 10000 0.5 0 23:18 17.08.2019
3480 Clouds 24 1016 78 10000 1.3 356.174 22:56 17.08.2019
3481 Clouds 24 1016 78 10000 1.3 356.174 22:38 17.08.2019
3482 Clouds 24 1016 78 10000 1.3 356.174 22:20 17.08.2019
3483 Clouds 25 1016 78 10000 1.5 0 21:42 17.08.2019
3484 Clouds 25 1016 78 10000 1.5 0 21:23 17.08.2019
3485 Clouds 25 1016 78 10000 2.1 190 20:57 17.08.2019
3486 Clouds 24 1016 78 10000 2.6 190 20:36 17.08.2019
3487 Clouds 24 1016 78 10000 2.6 190 20:18 17.08.2019
3488 Clouds 23 1015 69 10000 2.6 180 19:43 17.08.2019
3489 Clouds 23 1015 69 10000 2.6 180 19:43 17.08.2019
3490 Clouds 23 1015 69 10000 2.6 180 19:24 17.08.2019
3491 Clouds 23 1016 74 10000 3.1 180 18:55 17.08.2019
3492 Clouds 26 1016 69 10000 3.1 180 18:37 17.08.2019
3493 Clouds 26 1016 69 10000 3.1 180 18:18 17.08.2019
3494 Clouds 26 1016 74 10000 4.1 190 17:42 17.08.2019
3495 Clouds 26 1016 74 10000 4.1 190 17:22 17.08.2019
3496 Clouds 26 1016 69 10000 4.1 190 16:56 17.08.2019
3497 Clouds 26 1016 69 10000 4.1 190 16:38 17.08.2019
3498 Clouds 26 1016 69 10000 4.1 190 16:19 17.08.2019
3499 Clouds 26 1016 69 10000 4.6 190 15:54 17.08.2019
3500 Clouds 26 1016 69 10000 4.6 190 15:54 17.08.2019
3501 Clouds 27 1016 69 10000 4.1 190 15:36 17.08.2019
3502 Clouds 27 1016 69 10000 4.1 190 15:18 17.08.2019
3503 Clouds 27 1017 61 10000 3.6 170 14:40 17.08.2019
3504 Clouds 26 1017 61 10000 3.6 170 14:21 17.08.2019
3505 Clouds 27 1017 65 10000 3.1 170 13:45 17.08.2019
3506 Clouds 26 1017 61 10000 3.1 180 13:21 17.08.2019
3507 Clouds 26 1017 69 10000 2.6 160 12:45 17.08.2019
3508 Clouds 26 1017 69 10000 2.6 160 12:45 17.08.2019
3509 Clouds 25 1017 65 10000 2.1 140 12:21 17.08.2019
3510 Clouds 26 1017 65 10000 2.1 150 11:59 17.08.2019
3511 Clouds 26 1017 69 10000 2.1 150 11:39 17.08.2019
3512 Clouds 26 1017 69 10000 2.1 150 11:20 17.08.2019
3513 Clouds 25 1017 65 10000 1.5 110 10:44 17.08.2019
3514 Clear 24 1016 57 10000 1.5 0 10:25 17.08.2019
3515 Clear 25 1016 57 10000 1.5 0 10:25 17.08.2019
3516 Clear 24 1016 57 10000 2.6 330 09:59 17.08.2019
3517 Clear 24 1016 57 10000 2.6 330 09:41 17.08.2019
3518 Clear 24 1016 60 10000 3.1 340 09:41 17.08.2019
3519 Clear 23 1016 60 10000 3.1 340 09:23 17.08.2019
3520 Clear 22 1016 60 10000 4.1 340 08:52 17.08.2019
3521 Clear 21 1016 64 10000 4.1 340 08:23 17.08.2019
3522 Clear 20 1016 64 10000 3.1 340 07:44 17.08.2019
3523 Clear 20 1016 64 10000 3.6 330 07:20 17.08.2019
3524 Clear 20 1016 64 10000 5.1 330 06:40 17.08.2019
3525 Clear 20 1015 64 10000 4.6 330 04:52 17.08.2019
3526 Clear 20 1015 68 10000 4.1 330 04:27 17.08.2019
3527 Clear 20 1016 64 10000 4.1 320 02:49 17.08.2019
3528 Clear 21 1016 64 10000 3.6 330 01:40 17.08.2019
3529 Clear 20 1016 64 10000 3.6 330 01:22 17.08.2019
3530 Clear 20 1016 64 10000 3.1 320 00:48 17.08.2019
3531 Clear 21 1016 64 10000 3.1 320 00:27 17.08.2019
3532 Clear 21 1016 69 10000 2.6 320 23:48 16.08.2019
3533 Clear 21 1016 69 10000 1.2 354.18 23:26 16.08.2019
3534 Clear 20 1016 73 10000 0.5 0 22:55 16.08.2019
3535 Clear 20 1015 73 10000 1 0 22:36 16.08.2019
3536 Clear 20 1015 73 10000 1 0 22:18 16.08.2019
3537 Clear 20 1015 73 10000 1 0 22:18 16.08.2019
3538 Clouds 22 1015 78 10000 0.5 0 21:39 16.08.2019
3539 Clouds 23 1015 78 10000 0.5 0 21:19 16.08.2019
3540 Clouds 24 1015 78 10000 1.5 0 20:55 16.08.2019
3541 Clouds 24 1014 74 10000 1.5 0 20:37 16.08.2019
3542 Clouds 24 1014 74 10000 1.5 0 20:18 16.08.2019
3543 Clouds 25 1014 69 10000 1.5 100 19:41 16.08.2019
3544 Clouds 25 1014 69 10000 1.5 100 19:22 16.08.2019
3545 Clouds 25 1015 69 10000 1.5 120 18:44 16.08.2019
3546 Clouds 26 1015 65 10000 2.1 100 18:25 16.08.2019
3547 Clouds 27 1015 69 10000 1.5 0 17:57 16.08.2019
3548 Clouds 27 1015 74 10000 2.6 110 17:38 16.08.2019
3549 Clouds 26 1015 74 10000 2.6 110 17:20 16.08.2019
3550 Clouds 27 1015 65 10000 3.1 110 16:42 16.08.2019
3551 Clouds 27 1015 65 10000 3.1 110 16:21 16.08.2019
3552 Clouds 27 1015 65 10000 3.1 120 15:59 16.08.2019
3553 Clouds 26 1015 61 10000 3.6 100 15:40 16.08.2019
3554 Clouds 26 1015 61 10000 3.6 100 15:21 16.08.2019
3555 Clouds 26 1016 65 10000 3.6 110 14:57 16.08.2019
3556 Clouds 27 1016 61 10000 3.6 130 14:38 16.08.2019
3557 Clouds 27 1016 61 10000 3.6 130 14:19 16.08.2019
3558 Clouds 28 1016 58 10000 2.6 120 13:42 16.08.2019
3559 Clouds 27 1016 57 10000 2.1 120 13:23 16.08.2019
3560 Clouds 27 1016 57 10000 3.1 140 12:58 16.08.2019
3561 Clouds 27 1016 57 10000 3.1 150 12:37 16.08.2019
3562 Clouds 27 1016 57 10000 3.1 150 12:37 16.08.2019
3563 Clouds 27 1016 57 10000 3.1 150 12:19 16.08.2019
3564 Clouds 27 1016 51 10000 2.1 320 11:42 16.08.2019
3565 Clouds 25 1016 51 10000 2.1 320 11:24 16.08.2019
3566 Clouds 27 1015 47 10000 3.1 340 10:44 16.08.2019
3567 Clouds 26 1015 47 10000 3.1 340 10:26 16.08.2019
3568 Clouds 25 1016 50 10000 4.1 330 09:56 16.08.2019
3569 Clouds 24 1015 53 10000 5.1 330 09:37 16.08.2019
3570 Clouds 24 1015 53 10000 5.1 330 09:18 16.08.2019
3571 Clouds 24 1015 53 10000 5.1 330 09:18 16.08.2019
3572 Clouds 21 1015 60 10000 5.7 330 08:41 16.08.2019
3573 Clouds 21 1015 60 10000 5.7 330 08:21 16.08.2019
3574 Clouds 20 1014 64 10000 4.6 320 07:59 16.08.2019
3575 Clouds 20 1014 64 10000 4.1 330 07:41 16.08.2019
3576 Clouds 19 1014 64 10000 4.1 330 07:21 16.08.2019
3577 Clear 19 1014 64 10000 4.1 320 06:32 16.08.2019
3578 Clear 19 1013 64 10000 3.6 330 05:43 16.08.2019
3579 Clear 20 1013 64 10000 4.6 330 04:32 16.08.2019
3580 Clear 20 1013 64 10000 3.6 330 03:18 16.08.2019
3581 Clear 20 1013 64 10000 3.6 330 01:43 16.08.2019
3582 Clear 21 1013 60 10000 3.6 320 01:21 16.08.2019
3583 Clear 21 1013 64 10000 3.1 320 00:43 16.08.2019
3584 Clear 21 1013 64 10000 3.1 320 00:22 16.08.2019
3585 Clear 21 1013 69 10000 3.6 30 23:46 15.08.2019
3586 Clear 21 1013 73 10000 5.7 70 23:22 15.08.2019
3587 Clear 21 1013 73 10000 7.2 80 22:59 15.08.2019
3588 Clear 19 1013 73 10000 8.2 80 22:40 15.08.2019
3589 Clear 19 1013 73 10000 8.2 80 22:21 15.08.2019
3590 Clear 20 1013 65 10000 7.7 80 21:56 15.08.2019
3591 Clear 20 1013 65 10000 7.2 80 21:38 15.08.2019
3592 Clear 24 1013 65 10000 7.2 80 21:18 15.08.2019
3593 Clear 24 1012 61 10000 6.2 90 20:44 15.08.2019
3594 Clear 25 1012 65 10000 5.7 90 20:22 15.08.2019
3595 Clear 26 1012 61 10000 5.1 90 19:58 15.08.2019
3596 Clear 26 1012 61 10000 5.7 100 19:39 15.08.2019
3597 Clear 26 1012 61 10000 5.7 100 19:21 15.08.2019
3598 Clear 26 1012 61 10000 4.1 90 18:48 15.08.2019
3599 Clear 27 1013 57 10000 4.6 70 18:24 15.08.2019
3600 Clouds 26 1013 57 10000 2.6 110 17:58 15.08.2019
3601 Clouds 26 1013 54 10000 2.6 160 17:38 15.08.2019
3602 Clouds 26 1013 54 10000 2.6 160 17:20 15.08.2019
3603 Clouds 26 1013 54 10000 3.6 190 16:58 15.08.2019
3604 Clouds 26 1014 58 10000 3.1 170 16:40 15.08.2019
3605 Clouds 26 1014 58 10000 3.1 170 16:22 15.08.2019
3606 Clouds 26 1014 58 10000 3.6 150 15:39 15.08.2019
3607 Clouds 26 1014 65 10000 4.1 160 15:20 15.08.2019
3608 Clouds 26 1014 65 10000 4.1 160 14:58 15.08.2019
3609 Clouds 26 1014 65 10000 4.1 140 14:40 15.08.2019
3610 Clouds 27 1014 65 10000 4.1 140 14:21 15.08.2019
3611 Clouds 27 1015 61 10000 3.1 130 13:56 15.08.2019
3612 Clouds 28 1015 61 10000 3.1 130 13:38 15.08.2019
3613 Clouds 27 1015 61 10000 3.1 130 13:19 15.08.2019
3614 Clouds 27 1015 61 10000 3.1 130 13:19 15.08.2019
3615 Clouds 27 1015 57 10000 2.6 140 12:41 15.08.2019
3616 Clouds 27 1015 57 10000 2.6 140 12:23 15.08.2019
3617 Clear 27 1015 57 10000 2.1 110 11:59 15.08.2019
3618 Clear 27 1015 57 10000 1.5 0 11:39 15.08.2019
3619 Clear 27 1015 57 10000 1.5 0 11:39 15.08.2019
3620 Clear 27 1015 57 10000 1.5 0 11:20 15.08.2019
3621 Clear 27 1015 51 10000 1.5 0 10:59 15.08.2019
3622 Clear 27 1015 42 10000 2.6 320 10:38 15.08.2019
3623 Clear 27 1015 42 10000 2.6 320 10:20 15.08.2019
3624 Clear 25 1015 47 10000 2.6 340 09:45 15.08.2019
3625 Clear 24 1015 47 10000 2.6 340 09:24 15.08.2019
3626 Clear 22 1015 53 10000 4.6 340 08:57 15.08.2019
3627 Clear 22 1015 53 10000 3.1 330 08:37 15.08.2019
3628 Clear 21 1015 53 10000 3.1 330 08:18 15.08.2019
3629 Clear 20 1015 56 10000 3.6 330 07:44 15.08.2019
3630 Clear 19 1015 56 10000 5.1 330 07:26 15.08.2019
3631 Clear 19 1014 56 10000 5.7 330 06:54 15.08.2019
3632 Clear 19 1014 56 10000 5.1 330 06:33 15.08.2019
3633 Clear 19 1014 60 10000 5.1 330 05:51 15.08.2019
3634 Clear 19 1014 60 10000 5.1 330 05:29 15.08.2019
3635 Clear 20 1015 53 10000 4.1 330 04:35 15.08.2019
3636 Clear 20 1015 56 10000 4.1 330 03:48 15.08.2019
3637 Clear 20 1015 53 10000 3.6 340 02:46 15.08.2019
3638 Clear 21 1015 49 10000 3.6 330 01:54 15.08.2019
3639 Clear 21 1015 49 10000 4.1 330 01:36 15.08.2019
3640 Clear 20 1014 49 10000 4.1 330 00:42 15.08.2019
3641 Clear 20 1014 49 10000 4.1 330 00:22 15.08.2019
3642 Clear 20 1014 47 10000 3.6 320 23:59 14.08.2019
3643 Clear 20 1014 50 10000 3.1 320 23:40 14.08.2019
3644 Clear 20 1014 50 10000 3.1 320 23:20 14.08.2019
3645 Clear 18 1014 50 10000 2.6 320 22:59 14.08.2019
3646 Clear 18 1014 61 10000 2.6 270 22:40 14.08.2019
3647 Clear 18 1014 61 10000 2.6 270 22:21 14.08.2019
3648 Clear 19 1014 57 10000 2.1 230 21:57 14.08.2019
3649 Clear 19 1014 54 10000 1 210 21:38 14.08.2019
3650 Clear 24 1014 54 10000 1 210 21:19 14.08.2019
3651 Clear 24 1014 61 10000 1.5 190 20:54 14.08.2019
3652 Clear 25 1014 54 10000 1.5 180 20:36 14.08.2019
3653 Clear 25 1014 54 10000 1.5 180 20:18 14.08.2019
3654 Clouds 27 1013 57 10000 1.5 0 19:40 14.08.2019
3655 Clouds 27 1013 57 10000 1.5 0 19:22 14.08.2019
3656 Clouds 27 1013 57 10000 1 0 18:57 14.08.2019
3657 Clouds 28 1013 54 10000 1.5 0 18:39 14.08.2019
3658 Clouds 28 1013 54 10000 1.5 0 18:39 14.08.2019
3659 Clouds 28 1013 54 10000 1.5 0 18:20 14.08.2019
3660 Clouds 28 1013 54 10000 1.5 160 17:59 14.08.2019
3661 Clouds 28 1013 58 10000 2.1 160 17:38 14.08.2019
3662 Clouds 28 1013 58 10000 2.1 160 17:20 14.08.2019
3663 Clouds 29 1013 54 10000 2.6 170 16:55 14.08.2019
3664 Clouds 29 1013 54 10000 3.1 160 16:37 14.08.2019
3665 Clouds 29 1013 54 10000 3.1 160 16:18 14.08.2019
3666 Clouds 29 1014 48 10000 3.1 130 15:42 14.08.2019
3667 Clouds 29 1014 48 10000 3.1 130 15:18 14.08.2019
3668 Clouds 28 1014 58 10000 3.1 140 14:55 14.08.2019
3669 Clouds 29 1014 61 10000 3.1 140 14:36 14.08.2019
3670 Clouds 29 1014 61 10000 3.1 140 14:18 14.08.2019
3671 Clouds 28 1014 65 10000 3.1 130 13:43 14.08.2019
3672 Clouds 28 1014 65 10000 3.1 130 13:43 14.08.2019
3673 Clouds 28 1014 65 10000 3.1 130 13:24 14.08.2019
3674 Clouds 28 1014 65 10000 3.1 130 13:24 14.08.2019
3675 Clouds 28 1013 69 10000 2.6 130 12:57 14.08.2019
3676 Clouds 28 1014 69 10000 1.5 150 12:38 14.08.2019
3677 Clouds 28 1014 69 10000 1.5 150 12:38 14.08.2019
3678 Clouds 28 1014 69 10000 1.5 150 12:20 14.08.2019
3679 Clouds 28 1013 69 10000 1.5 120 11:55 14.08.2019
3680 Clouds 28 1013 65 10000 2.1 110 11:37 14.08.2019
3681 Clouds 28 1013 65 10000 2.1 110 11:19 14.08.2019
3682 Clouds 25 1013 44 10000 3.6 330 10:42 14.08.2019
3683 Clouds 25 1013 44 10000 3.6 330 10:24 14.08.2019
3684 Clouds 24 1013 47 10000 5.1 330 09:56 14.08.2019
3685 Clouds 23 1012 50 10000 4.1 330 09:37 14.08.2019
3686 Clouds 23 1012 50 10000 4.1 330 09:19 14.08.2019
3687 Clouds 21 1012 53 10000 4.6 340 08:37 14.08.2019
3688 Clouds 21 1012 53 10000 4.6 340 08:19 14.08.2019
3689 Clouds 20 1012 56 10000 4.1 350 07:50 14.08.2019
3690 Clouds 20 1011 56 10000 3.1 350 07:31 14.08.2019
3691 Clear 19 1011 60 10000 3.6 340 06:45 14.08.2019
3692 Clear 20 1011 60 10000 6.2 350 05:52 14.08.2019
3693 Clear 20 1011 60 10000 3.6 350 04:54 14.08.2019
3694 Clear 21 1011 69 10000 4.1 340 03:38 14.08.2019
3695 Clear 21 1010 69 10000 4.1 330 02:33 14.08.2019
3696 Clear 21 1011 73 10000 3.1 340 01:45 14.08.2019
3697 Clear 21 1011 73 10000 3.6 340 01:18 14.08.2019
3698 Clear 22 1010 73 10000 3.1 330 23:50 13.08.2019
3699 Clear 18 1011 73 10000 3.1 320 23:25 13.08.2019
3700 Clear 18 1010 69 10000 1.5 360 22:59 13.08.2019
3701 Clear 19 1010 69 10000 1.81 358.638 22:39 13.08.2019
3702 Clear 19 1010 69 10000 1.81 358.638 22:21 13.08.2019
3703 Clear 19 1010 69 10000 1.81 358.638 21:58 13.08.2019
3704 Clouds 23 1010 69 10000 1.81 358.638 21:38 13.08.2019
3705 Clouds 24 1010 69 10000 1.38 92.62 21:19 13.08.2019
3706 Clouds 24 1010 69 10000 1.38 92.62 20:56 13.08.2019
3707 Clouds 25 1010 69 10000 1 0 20:37 13.08.2019
3708 Clouds 25 1010 65 10000 1 0 20:18 13.08.2019
3709 Clouds 26 1010 65 10000 1 0 19:43 13.08.2019
3710 Clouds 26 1010 65 10000 2.1 200 19:22 13.08.2019
3711 Clouds 26 1010 69 10000 1.5 0 18:59 13.08.2019
3712 Clouds 25 1010 65 10000 1.5 160 18:40 13.08.2019
3713 Clouds 26 1010 65 10000 1.5 160 18:20 13.08.2019
3714 Clouds 26 1010 65 10000 1.5 130 17:43 13.08.2019
3715 Clouds 27 1010 65 10000 2.1 160 17:22 13.08.2019
3716 Clouds 27 1010 65 10000 3.6 140 16:57 13.08.2019
3717 Clouds 28 1010 65 10000 3.1 140 16:39 13.08.2019
3718 Clouds 27 1010 65 10000 3.1 140 16:21 13.08.2019
3719 Clouds 27 1011 61 10000 2.1 120 15:59 13.08.2019
3720 Clouds 27 1011 61 10000 1.5 0 15:38 13.08.2019
3721 Clouds 27 1011 61 10000 1.5 0 15:19 13.08.2019
3722 Clouds 27 1011 61 10000 1.5 0 15:19 13.08.2019
3723 Clouds 27 1011 58 10000 2.6 150 14:42 13.08.2019
3724 Clouds 27 1011 58 10000 2.6 150 14:20 13.08.2019
3725 Clouds 26 1011 61 10000 2.6 110 13:56 13.08.2019
3726 Clouds 26 1011 61 10000 2.6 110 13:56 13.08.2019
3727 Clouds 27 1011 57 10000 3.1 130 13:38 13.08.2019
3728 Clouds 26 1011 57 10000 3.1 130 13:18 13.08.2019
3729 Clouds 26 1011 58 10000 3.1 110 12:56 13.08.2019
3730 Clouds 26 1011 61 10000 2.6 80 12:37 13.08.2019
3731 Clouds 26 1011 61 10000 2.6 80 12:18 13.08.2019
3732 Clouds 27 1011 48 10000 2.6 30 11:40 13.08.2019
3733 Clouds 26 1011 48 10000 2.6 30 11:21 13.08.2019
3734 Clouds 27 1011 36 10000 3.6 320 10:57 13.08.2019
3735 Clouds 26 1011 39 10000 5.1 320 10:38 13.08.2019
3736 Clouds 26 1011 39 10000 5.1 320 10:19 13.08.2019
3737 Clouds 24 1011 44 10000 5.1 320 09:45 13.08.2019
3738 Clouds 20 1011 44 10000 5.1 320 09:24 13.08.2019
3739 Clouds 22 1011 49 10000 6.2 330 08:57 13.08.2019
3740 Clouds 22 1011 49 10000 5.7 330 08:39 13.08.2019
3741 Clouds 21 1011 49 10000 5.7 330 08:19 13.08.2019
3742 Clouds 19 1011 56 10000 4.6 350 07:41 13.08.2019
3743 Clouds 19 1011 56 10000 4.6 350 07:21 13.08.2019
3744 Clear 19 1011 56 10000 5.1 340 06:43 13.08.2019
3745 Clear 20 1011 53 10000 5.7 350 05:47 13.08.2019
3746 Clear 21 1011 64 10000 3.6 340 04:24 13.08.2019
3747 Clear 19 1011 64 10000 2.1 340 02:22 13.08.2019
3748 Clear 19 1011 69 10000 2.1 340 01:29 13.08.2019
3749 Clear 18 1011 73 10000 3.1 330 00:48 13.08.2019
3750 Clear 20 1012 73 10000 3.6 340 00:22 13.08.2019
3751 Clear 20 1012 73 10000 3.6 330 23:43 12.08.2019
3752 Clear 21 1012 73 10000 3.6 330 23:21 12.08.2019
3753 Clouds 21 1012 73 10000 3.1 330 22:54 12.08.2019
3754 Clouds 21 1012 73 10000 3.6 340 22:36 12.08.2019
3755 Clouds 24 1012 73 10000 3.6 340 22:18 12.08.2019
3756 Clouds 24 1012 69 10000 3.6 340 21:54 12.08.2019
3757 Clouds 21 1012 69 10000 4.1 340 21:36 12.08.2019
3758 Clouds 24 1012 69 10000 4.1 340 21:18 12.08.2019
3759 Clouds 25 1012 65 10000 3.6 350 20:41 12.08.2019
3760 Clouds 25 1011 65 10000 3.6 360 20:21 12.08.2019
3761 Clouds 25 1011 65 10000 4.6 20 19:58 12.08.2019
3762 Clouds 25 1011 69 10000 5.1 30 19:39 12.08.2019
3763 Clouds 25 1011 69 10000 5.1 30 19:20 12.08.2019
3764 Clouds 23 1012 69 10000 5.1 330 18:58 12.08.2019
3765 Clouds 26 1011 74 10000 1.5 160 18:39 12.08.2019
3766 Clouds 26 1011 74 10000 1.5 160 18:20 12.08.2019
3767 Thunderstorm 26 1012 83 10000 4.1 180 17:55 12.08.2019
3768 Thunderstorm 26 1011 83 10000 6.2 190 17:37 12.08.2019
3769 Thunderstorm 26 1011 83 10000 6.2 190 17:19 12.08.2019
3770 Clouds 27 1011 74 10000 6.2 170 16:40 12.08.2019
3771 Clouds 27 1011 74 10000 6.2 170 16:20 12.08.2019
3772 Clouds 27 1012 74 10000 5.1 170 15:59 12.08.2019
3773 Clouds 27 1012 74 10000 4.1 160 15:41 12.08.2019
3774 Clouds 27 1012 74 10000 4.1 160 15:22 12.08.2019
3775 Clouds 27 1012 74 10000 2.1 150 14:58 12.08.2019
3776 Clouds 27 1012 74 10000 1.5 130 14:39 12.08.2019
3777 Clouds 27 1012 74 10000 1.5 130 14:39 12.08.2019
3778 Clouds 27 1012 74 10000 1.5 130 14:39 12.08.2019
3779 Clouds 27 1012 74 10000 1.5 130 14:39 12.08.2019
3780 Clouds 27 1012 74 10000 1.5 130 14:20 12.08.2019
3781 Clouds 26 1013 78 10000 2.1 170 13:55 12.08.2019
3782 Clouds 26 1013 78 10000 2.1 170 13:55 12.08.2019
3783 Clouds 26 1013 78 10000 2.1 170 13:55 12.08.2019
3784 Clouds 27 1013 74 10000 2.6 180 13:37 12.08.2019
3785 Clouds 26 1013 74 10000 2.6 180 13:19 12.08.2019
3786 Clouds 26 1012 78 10000 2.1 140 12:43 12.08.2019
3787 Clouds 26 1012 83 10000 2.6 140 12:19 12.08.2019
3788 -273 0 0 0 0 0 11:44 12.08.2019
3789 Clouds 26 1012 78 10000 2.1 100 11:26 12.08.2019
3790 -273 0 0 0 0 0 10:58 12.08.2019
3791 Clouds 26 1013 78 10000 1.5 0 10:40 12.08.2019
3792 Clouds 26 1013 78 10000 1.5 0 10:21 12.08.2019
3793 Clouds 25 1012 83 10000 3.6 330 09:55 12.08.2019
3794 Rain 24 1013 78 10000 2.1 320 09:36 12.08.2019
3795 Rain 24 1013 78 10000 2.1 320 09:36 12.08.2019
3796 Rain 23 1013 78 10000 2.1 320 09:18 12.08.2019
3797 Rain 23 1012 83 10000 3.1 350 08:40 12.08.2019
3798 Rain 23 1012 83 10000 3.1 350 08:22 12.08.2019
3799 Rain 23 1012 83 10000 3.1 350 08:22 12.08.2019
3800 Clouds 23 1012 83 10000 1.17 3.984 07:56 12.08.2019
3801 Clouds 23 1012 78 10000 0.5 0 07:35 12.08.2019
3802 Rain 23 1011 83 10000 4.6 360 06:54 12.08.2019
3803 Rain 23 1012 83 10000 1.5 0 06:18 12.08.2019
3804 Clouds 23 1011 78 10000 2.1 350 04:29 12.08.2019
3805 Rain 23 1013 83 10000 2.1 260 02:43 12.08.2019
3806 Clouds 23 1013 88 10000 1.5 280 01:45 12.08.2019
3807 Clear 22 1013 83 10000 1.5 270 01:18 12.08.2019
3808 Clear 22 1013 83 10000 1.5 290 00:54 12.08.2019
3809 Clear 23 1013 83 10000 1 0 00:36 12.08.2019
3810 Clear 24 1013 83 10000 1 0 00:18 12.08.2019
3811 Clouds 24 1013 83 10000 1 210 23:39 11.08.2019
3812 Clouds 24 1013 83 10000 1 210 23:20 11.08.2019
3813 Clouds 24 1013 83 10000 1.5 200 22:57 11.08.2019
3814 Clouds 21 1013 83 10000 0.5 180 22:38 11.08.2019
3815 Clouds 21 1013 83 10000 0.5 180 22:18 11.08.2019
3816 Clouds 21 1013 83 10000 1 200 21:56 11.08.2019
3817 Clouds 24 1013 78 10000 0.5 0 21:38 11.08.2019
3818 Clouds 24 1013 78 10000 0.5 0 21:19 11.08.2019
3819 Clouds 25 1013 78 10000 1.5 170 20:44 11.08.2019
3820 Clouds 26 1013 78 10000 1.5 170 20:23 11.08.2019
3821 Clouds 26 1013 74 10000 2.1 170 19:57 11.08.2019
3822 Clouds 26 1013 74 10000 1.5 170 19:39 11.08.2019
3823 Clouds 27 1013 74 10000 1.5 170 19:18 11.08.2019
3824 Clouds 27 1013 74 10000 1.5 140 18:41 11.08.2019
3825 Clouds 28 1013 74 10000 1.5 140 18:20 11.08.2019
3826 Clouds 28 1014 74 10000 2.1 130 17:57 11.08.2019
3827 Clouds 28 1014 74 10000 2.1 120 17:39 11.08.2019
3828 Clouds 28 1014 74 10000 2.1 120 17:20 11.08.2019
3829 Clouds 29 1014 74 10000 2.6 120 16:55 11.08.2019
3830 Clouds 29 1014 70 10000 2.6 120 16:37 11.08.2019
3831 Clouds 28 1014 70 10000 2.6 120 16:18 11.08.2019
3832 Clouds 29 1015 70 10000 3.6 130 15:43 11.08.2019
3833 Clouds 29 1015 70 10000 3.6 130 15:43 11.08.2019
3834 Clouds 28 1015 70 10000 3.6 130 15:24 11.08.2019
3835 Clouds 28 1015 74 10000 3.6 120 14:57 11.08.2019
3836 Clouds 28 1015 70 10000 3.6 110 14:38 11.08.2019
3837 Clouds 28 1015 70 10000 3.6 110 14:19 11.08.2019
3838 Clouds 28 1015 74 10000 4.1 100 13:44 11.08.2019
3839 Clouds 28 1015 74 10000 3.6 100 13:24 11.08.2019
3840 Clouds 28 1015 74 10000 3.1 110 12:48 11.08.2019
3841 Clouds 28 1015 78 10000 3.1 130 12:23 11.08.2019
3842 Clouds 27 1015 78 10000 3.6 140 11:57 11.08.2019
3843 Clouds 27 1015 78 10000 3.1 120 11:38 11.08.2019
3844 Clouds 27 1015 78 10000 3.1 120 11:20 11.08.2019
3845 Clouds 27 1015 78 10000 3.1 120 10:55 11.08.2019
3846 Clouds 27 1015 74 10000 2.6 150 10:36 11.08.2019
3847 Clouds 27 1015 74 10000 2.6 150 10:18 11.08.2019
3848 Clouds 27 1015 74 10000 2.6 150 10:18 11.08.2019
3849 Clouds 26 1015 78 10000 2.1 110 09:40 11.08.2019
3850 Clouds 26 1015 78 10000 2.1 110 09:22 11.08.2019
3851 Clouds 25 1015 78 10000 2.6 110 08:48 11.08.2019
3852 Clouds 25 1015 83 10000 2.6 100 08:29 11.08.2019
3853 Clouds 24 1015 88 10000 2.6 100 07:56 11.08.2019
3854 Clouds 24 1015 88 10000 2.6 100 07:27 11.08.2019
3855 Clouds 24 1015 88 10000 2.6 100 06:45 11.08.2019
3856 Clouds 24 1014 78 10000 2.6 100 06:26 11.08.2019
3857 Clouds 24 1015 83 10000 2.6 80 04:38 11.08.2019
3858 Clouds 25 1015 83 10000 1 110 02:50 11.08.2019
3859 Clouds 22 1015 88 10000 1 150 01:56 11.08.2019
3860 Clouds 22 1015 88 10000 1 160 01:30 11.08.2019
3861 Clouds 22 1015 88 10000 1 150 00:55 11.08.2019
3862 Clouds 22 1015 88 10000 1 0 00:34 11.08.2019
3863 Clouds 23 1015 83 10000 1 160 23:49 10.08.2019
3864 Clouds 23 1015 88 10000 1.5 160 23:29 10.08.2019
3865 Clouds 23 1015 88 10000 1.5 160 23:29 10.08.2019
3866 Clouds 22 1015 83 10000 2.1 160 22:56 10.08.2019
3867 Clouds 22 1015 83 10000 2.1 160 22:36 10.08.2019
3868 Clouds 23 1015 83 10000 2.1 160 22:18 10.08.2019
3869 Clouds 22 1015 83 10000 1.5 180 21:40 10.08.2019
3870 Clouds 25 1015 83 10000 1.5 180 21:21 10.08.2019
3871 Clouds 25 1015 83 10000 1.5 180 21:21 10.08.2019
3872 Clouds 25 1015 83 10000 2.6 180 20:58 10.08.2019
3873 Clouds 25 1014 83 10000 2.6 170 20:39 10.08.2019
3874 Clouds 25 1014 83 10000 2.6 170 20:20 10.08.2019
3875 Clouds 26 1014 78 10000 2.6 180 19:44 10.08.2019
3876 Clouds 26 1014 78 10000 3.1 180 19:25 10.08.2019
3877 Clouds 26 1014 78 10000 3.1 180 19:25 10.08.2019
3878 Clouds 27 1014 78 10000 3.6 180 18:46 10.08.2019
3879 Clouds 28 1014 78 10000 3.6 180 18:26 10.08.2019
3880 Clouds 28 1015 78 10000 3.6 180 17:57 10.08.2019
3881 Clouds 28 1015 74 10000 4.1 180 17:39 10.08.2019
3882 Clouds 29 1015 74 10000 4.1 180 17:21 10.08.2019
3883 Clouds 29 1015 74 10000 3.6 180 16:43 10.08.2019
3884 Clouds 29 1015 74 10000 3.6 180 16:25 10.08.2019
3885 Clouds 28 1015 74 10000 4.1 180 15:49 10.08.2019
3886 Clouds 28 1015 74 10000 4.1 170 15:22 10.08.2019
3887 Clouds 29 1015 74 10000 5.1 180 14:44 10.08.2019
3888 Clouds 29 1015 74 10000 5.1 180 14:44 10.08.2019
3889 Clouds 29 1015 74 10000 5.1 180 14:21 10.08.2019
3890 Clouds 29 1016 74 10000 4.1 180 13:41 10.08.2019
3891 Clouds 29 1016 74 10000 4.1 180 13:20 10.08.2019
3892 Clouds 29 1016 74 10000 4.1 180 12:55 10.08.2019
3893 Clouds 29 1016 74 10000 4.6 190 12:37 10.08.2019
3894 Clouds 28 1016 74 10000 4.6 190 12:19 10.08.2019
3895 Clouds 27 1016 78 10000 3.6 190 11:42 10.08.2019
3896 Clouds 27 1016 78 10000 3.6 190 11:23 10.08.2019
3897 Clouds 27 1016 78 10000 2.6 190 10:58 10.08.2019
3898 Clouds 27 1016 74 10000 3.1 190 10:37 10.08.2019
3899 Clouds 27 1016 74 10000 3.1 190 10:19 10.08.2019
3900 Clouds 27 1016 74 10000 3.1 190 10:19 10.08.2019
3901 Clouds 26 1016 69 10000 2.6 240 09:43 10.08.2019
3902 Clouds 25 1015 69 10000 0.5 0 09:24 10.08.2019
3903 Clouds 25 1015 69 10000 1.5 0 08:56 10.08.2019
3904 Clouds 24 1015 73 10000 2.1 330 08:37 10.08.2019
3905 Clouds 24 1015 73 10000 2.1 330 08:18 10.08.2019
3906 Clouds 22 1015 78 10000 1.5 310 07:46 10.08.2019
3907 Clouds 21 1015 83 10000 2.1 310 07:22 10.08.2019
3908 Clouds 21 1015 83 10000 2.1 310 06:46 10.08.2019
3909 Clear 22 1014 78 10000 1.5 320 05:46 10.08.2019
3910 Clear 22 1014 78 10000 1.5 300 05:19 10.08.2019
3911 Clear 23 1014 73 10000 2.6 310 03:54 10.08.2019
3912 Clear 23 1015 73 10000 3.1 310 02:48 10.08.2019
3913 Clear 23 1014 73 10000 2.6 330 01:56 10.08.2019
3914 Clear 23 1014 74 10000 2.6 330 01:36 10.08.2019
3915 Clear 22 1014 74 10000 2.6 330 01:18 10.08.2019
3916 Clear 23 1015 74 10000 2.1 340 00:41 10.08.2019
3917 Clear 23 1015 74 10000 2.1 340 00:19 10.08.2019
3918 Clear 23 1015 78 10000 2.1 270 23:39 09.08.2019
3919 Clear 23 1015 78 10000 2.1 270 23:20 09.08.2019
3920 Clear 22 1015 83 10000 1.5 250 22:55 09.08.2019
3921 Clear 22 1015 78 10000 2.1 220 22:37 09.08.2019
3922 Clear 22 1015 78 10000 2.1 220 22:18 09.08.2019
3923 Clear 22 1014 78 10000 1.5 180 21:41 09.08.2019
3924 Clear 25 1014 78 10000 1.5 180 21:22 09.08.2019
3925 Clear 26 1014 78 10000 1.5 180 20:58 09.08.2019
3926 Clear 26 1014 74 10000 1.5 180 20:39 09.08.2019
3927 Clear 26 1014 74 10000 1.5 180 20:20 09.08.2019
3928 Clouds 27 1013 74 10000 1.5 150 19:43 09.08.2019
3929 Clouds 27 1013 74 10000 1.5 150 19:23 09.08.2019
3930 Clouds 28 1014 69 10000 2.1 130 18:59 09.08.2019
3931 Clouds 27 1014 74 10000 2.6 140 18:39 09.08.2019
3932 Clouds 27 1014 74 10000 2.6 140 18:20 09.08.2019
3933 Clouds 28 1014 74 10000 2.6 140 17:45 09.08.2019
3934 Clouds 28 1014 70 10000 2.1 140 17:25 09.08.2019
3935 Clouds 28 1014 74 10000 2.6 140 16:58 09.08.2019
3936 Clouds 28 1014 74 10000 2.1 150 16:38 09.08.2019
3937 Clouds 28 1014 74 10000 2.1 150 16:20 09.08.2019
3938 Clouds 28 1015 74 10000 2.6 150 15:55 09.08.2019
3939 Clouds 28 1015 69 10000 2.6 130 15:36 09.08.2019
3940 Clouds 28 1015 69 10000 2.6 130 15:18 09.08.2019
3941 Clouds 28 1015 74 10000 3.6 130 14:42 09.08.2019
3942 Clouds 28 1015 74 10000 3.6 130 14:21 09.08.2019
3943 -273 0 0 0 0 0 14:21 09.08.2019
3944 Clouds 28 1015 74 10000 3.1 120 13:55 09.08.2019
3945 Clouds 28 1015 74 10000 3.1 130 13:37 09.08.2019
3946 Clouds 28 1015 74 10000 3.1 130 13:18 09.08.2019
3947 Clouds 28 1015 74 10000 2.6 120 12:41 09.08.2019
3948 Clouds 28 1015 74 10000 2.6 120 12:22 09.08.2019
3949 Clouds 27 1015 74 10000 2.6 120 11:42 09.08.2019
3950 Clouds 27 1014 69 10000 3.1 100 11:21 09.08.2019
3951 Clouds 27 1014 69 10000 3.1 100 11:21 09.08.2019
3952 Clouds 27 1014 74 10000 3.1 110 10:58 09.08.2019
3953 Clouds 27 1014 74 10000 2.1 100 10:39 09.08.2019
3954 Clouds 27 1014 74 10000 2.1 100 10:20 09.08.2019
3955 Clouds 26 1014 65 10000 2.1 340 09:42 09.08.2019
3956 Clouds 25 1014 65 10000 2.1 340 09:19 09.08.2019
3957 Clouds 25 1014 73 10000 3.1 330 08:46 09.08.2019
3958 -273 0 0 0 0 0 08:26 09.08.2019
3959 Clouds 22 1014 78 10000 4.1 320 07:59 09.08.2019
3960 Clouds 22 1014 83 10000 3.6 320 07:41 09.08.2019
3961 Clouds 21 1014 83 10000 3.6 320 07:21 09.08.2019
3962 Clouds 21 1014 78 10000 3.1 330 06:50 09.08.2019
3963 Clouds 21 1014 78 10000 3.6 320 06:22 09.08.2019
3964 Clouds 22 1013 78 10000 2.6 330 05:46 09.08.2019
3965 Clouds 23 1013 78 10000 2.1 330 02:30 09.08.2019
3966 Clouds 23 1013 78 10000 2.1 30 01:41 09.08.2019
3967 Clouds 22 1013 78 10000 1.7 4.803 00:43 09.08.2019
3968 Clouds 23 1013 78 10000 1.5 357.279 00:24 09.08.2019
3969 Clouds 23 1013 83 10000 1.5 357.279 23:59 08.08.2019
3970 Clouds 24 1013 83 10000 1 140 23:38 08.08.2019
3971 Clouds 24 1013 83 10000 1 140 23:19 08.08.2019
3972 Clouds 24 1012 83 10000 1 120 22:56 08.08.2019
3973 Clouds 25 1012 83 10000 1.5 357.279 22:36 08.08.2019
3974 Clouds 25 1012 83 10000 1 100 22:18 08.08.2019
3975 Clouds 25 1012 83 10000 1 100 21:55 08.08.2019
3976 Clouds 24 1012 83 10000 0.5 0 21:36 08.08.2019
3977 Clouds 25 1012 83 10000 0.5 0 21:18 08.08.2019
3978 Clouds 25 1011 78 10000 2.1 160 20:42 08.08.2019
3979 Clouds 25 1011 78 10000 2.1 160 20:20 08.08.2019
3980 Clouds 25 1011 78 10000 2.1 150 19:56 08.08.2019
3981 Clouds 27 1011 74 10000 2.1 160 19:37 08.08.2019
3982 Clouds 27 1011 74 10000 2.1 160 19:19 08.08.2019
3983 Clouds 27 1011 74 10000 2.1 130 18:41 08.08.2019
3984 Clouds 28 1011 74 10000 2.1 130 18:21 08.08.2019
3985 Clouds 28 1011 74 10000 2.6 110 17:55 08.08.2019
3986 Clouds 28 1011 74 10000 2.6 110 17:36 08.08.2019
3987 Clouds 28 1011 74 10000 2.6 110 17:18 08.08.2019
3988 Clouds 27 1011 74 10000 2.6 140 16:41 08.08.2019
3989 Clouds 27 1011 74 10000 3.1 160 16:23 08.08.2019
3990 Clouds 27 1011 74 10000 2.6 130 15:58 08.08.2019
3991 Clouds 28 1011 74 10000 2.6 140 15:39 08.08.2019
3992 Clouds 28 1011 74 10000 2.6 140 15:39 08.08.2019
3993 Clouds 27 1011 74 10000 2.6 140 15:20 08.08.2019
3994 Clouds 27 1011 74 10000 2.6 140 15:20 08.08.2019
3995 Clouds 27 1011 74 10000 3.1 130 14:41 08.08.2019
3996 Clouds 27 1011 74 10000 3.1 130 14:22 08.08.2019
3997 Clouds 27 1011 74 10000 3.6 120 13:57 08.08.2019
3998 Clouds 27 1011 74 10000 3.6 120 13:37 08.08.2019
3999 Clouds 27 1011 74 10000 3.6 120 13:18 08.08.2019
4000 Clouds 27 1011 74 10000 3.1 120 12:39 08.08.2019
4001 Clouds 27 1011 74 10000 3.1 120 12:19 08.08.2019
4002 Clouds 27 1011 78 10000 3.1 120 11:48 08.08.2019
4003 Clouds 26 1011 78 10000 3.1 120 11:27 08.08.2019
4004 Clouds 27 1011 78 10000 3.6 110 10:59 08.08.2019
4005 Clouds 27 1011 78 10000 3.6 110 10:59 08.08.2019
4006 Clouds 25 1011 74 10000 2.6 90 10:40 08.08.2019
4007 Clouds 25 1011 74 10000 2.6 90 10:20 08.08.2019
4008 Clouds 26 1011 69 10000 2.1 60 09:44 08.08.2019
4009 Clouds 23 1011 69 10000 2.1 340 09:25 08.08.2019
4010 Clouds 24 1010 73 10000 3.1 340 08:55 08.08.2019
4011 Clouds 24 1010 73 10000 3.6 330 08:36 08.08.2019
4012 Clouds 23 1010 73 10000 3.6 330 08:18 08.08.2019
4013 Clouds 22 1010 78 10000 4.6 330 07:39 08.08.2019
4014 Clouds 22 1010 78 10000 4.6 330 07:19 08.08.2019
4015 Clouds 22 1010 78 10000 3.6 330 06:47 08.08.2019
4016 Clouds 22 1010 78 10000 3.1 320 06:23 08.08.2019
4017 Clouds 22 1010 78 10000 3.1 330 05:51 08.08.2019
4018 Clouds 22 1010 78 10000 3.1 30 04:48 08.08.2019
4019 Clouds 22 1010 83 10000 2.6 60 03:51 08.08.2019
4020 Clouds 23 1009 78 10000 1 0 01:59 08.08.2019
4021 Clouds 23 1009 83 10000 2.04 354.2 01:33 08.08.2019
4022 Clouds 23 1009 83 10000 1 180 00:26 08.08.2019
4023 Clouds 23 1009 83 10000 1.5 190 23:46 07.08.2019
4024 Clouds 24 1009 83 10000 1 0 23:19 07.08.2019
4025 Clouds 25 1009 83 10000 1 0 22:55 07.08.2019
4026 Clouds 25 1009 83 10000 1.5 230 22:36 07.08.2019
4027 Clouds 25 1009 83 10000 1.5 230 22:36 07.08.2019
4028 Clouds 24 1009 83 10000 1.5 230 22:18 07.08.2019
4029 Clouds 25 1009 83 10000 1.5 200 21:55 07.08.2019
4030 Clouds 24 1009 83 10000 1.5 0 21:36 07.08.2019
4031 Clouds 24 1009 83 10000 1.5 0 21:18 07.08.2019
4032 Clouds 25 1008 78 10000 2.1 160 20:41 07.08.2019
4033 Clouds 26 1008 78 10000 2.1 160 20:23 07.08.2019
4034 Clouds 26 1008 78 10000 2.1 160 20:23 07.08.2019
4035 Clouds 25 1008 78 10000 2.1 120 19:57 07.08.2019
4036 Clouds 25 1009 78 10000 1.5 0 19:38 07.08.2019
4037 Clouds 26 1009 78 10000 1.5 0 19:20 07.08.2019
4038 Clouds 26 1009 78 10000 2.1 90 18:43 07.08.2019
4039 Clouds 27 1009 78 10000 2.1 90 18:21 07.08.2019
4040 Clouds 27 1009 78 10000 2.1 90 18:21 07.08.2019
4041 Clouds 26 1009 78 10000 1.5 110 17:58 07.08.2019
4042 Clouds 27 1009 74 10000 2.1 130 17:39 07.08.2019
4043 Clouds 27 1009 74 10000 2.1 130 17:21 07.08.2019
4044 Clouds 27 1010 74 10000 2.6 140 16:57 07.08.2019
4045 Clouds 27 1010 74 10000 4.6 130 16:39 07.08.2019
4046 Clouds 27 1010 74 10000 4.6 130 16:20 07.08.2019
4047 Clouds 27 1010 74 10000 4.6 120 15:56 07.08.2019
4048 Clouds 27 1010 74 10000 5.7 120 15:37 07.08.2019
4049 Clouds 28 1010 74 10000 5.7 120 15:19 07.08.2019
4050 Clouds 27 1010 70 10000 6.7 110 14:45 07.08.2019
4051 Clouds 28 1010 74 10000 6.7 110 14:27 07.08.2019
4052 Clouds 28 1010 78 10000 6.7 100 13:54 07.08.2019
4053 Clouds 28 1010 74 10000 7.2 100 13:36 07.08.2019
4054 Clouds 28 1010 74 10000 7.2 100 13:18 07.08.2019
4055 Clouds 28 1010 74 10000 6.7 90 12:55 07.08.2019
4056 Clouds 28 1011 78 10000 6.7 100 12:36 07.08.2019
4057 Clouds 27 1011 78 10000 6.7 100 12:18 07.08.2019
4058 Clouds 27 1011 74 10000 6.7 90 11:41 07.08.2019
4059 Clouds 27 1011 74 10000 6.7 90 11:19 07.08.2019
4060 Clouds 28 1010 74 10000 5.7 90 10:56 07.08.2019
4061 Clouds 27 1010 69 10000 1.5 80 10:38 07.08.2019
4062 Clouds 27 1010 69 10000 1.5 80 10:18 07.08.2019
4063 Clouds 26 1011 61 10000 2.1 330 09:44 07.08.2019
4064 Clouds 25 1011 61 10000 2.1 330 09:22 07.08.2019
4065 Clouds 24 1011 65 10000 3.1 330 08:56 07.08.2019
4066 Clouds 24 1011 65 10000 3.1 330 08:38 07.08.2019
4067 Clouds 23 1011 65 10000 3.1 330 08:20 07.08.2019
4068 Clouds 22 1011 69 10000 3.1 330 07:39 07.08.2019
4069 Clouds 22 1011 69 10000 3.1 330 07:20 07.08.2019
4070 Clear 22 1010 73 10000 2.6 330 06:29 07.08.2019
4071 Clear 21 1010 78 10000 2.1 330 05:50 07.08.2019
4072 Clear 21 1011 78 10000 2.6 340 04:57 07.08.2019
4073 Clouds 22 1011 78 10000 2.6 310 03:21 07.08.2019
4074 Clouds 21 1012 83 10000 2.6 330 02:49 07.08.2019
4075 Clouds 22 1012 78 10000 3.1 90 01:58 07.08.2019
4076 Clouds 22 1012 83 10000 2.6 100 01:39 07.08.2019
4077 Clouds 22 1012 78 10000 2.6 90 00:51 07.08.2019
4078 Clouds 22 1012 78 10000 2.6 90 00:22 07.08.2019
4079 Clear 22 1012 78 10000 1.5 70 23:42 06.08.2019
4080 Clear 22 1012 78 10000 2.1 70 23:21 06.08.2019
4081 Clear 24 1012 78 10000 3.1 90 22:57 06.08.2019
4082 Clear 24 1012 78 10000 3.1 80 22:38 06.08.2019
4083 Clear 24 1012 78 10000 3.1 80 22:19 06.08.2019
4084 Clear 23 1012 78 10000 2.6 100 21:43 06.08.2019
4085 Clear 24 1012 74 10000 2.1 120 21:25 06.08.2019
4086 Clear 24 1012 78 10000 1.5 180 20:59 06.08.2019
4087 Clear 25 1012 74 10000 2.1 100 20:40 06.08.2019
4088 Clear 25 1012 74 10000 2.1 100 20:22 06.08.2019
4089 Clear 27 1012 69 10000 1.5 110 19:45 06.08.2019
4090 Clear 27 1012 69 10000 2.6 120 19:26 06.08.2019
4091 Clouds 26 1012 69 10000 2.6 110 18:55 06.08.2019
4092 Clouds 26 1013 69 10000 3.6 120 18:36 06.08.2019
4093 Clouds 27 1013 69 10000 3.6 120 18:18 06.08.2019
4094 Clouds 27 1013 65 10000 3.1 120 17:55 06.08.2019
4095 Clouds 27 1014 69 10000 2.6 120 17:36 06.08.2019
4096 Clouds 27 1014 69 10000 2.6 120 17:18 06.08.2019
4097 Clouds 27 1014 69 10000 2.1 130 16:42 06.08.2019
4098 Clouds 27 1014 69 10000 2.1 130 16:21 06.08.2019
4099 Clouds 27 1014 65 10000 2.6 140 15:57 06.08.2019
4100 Clouds 28 1014 65 10000 3.1 140 15:39 06.08.2019
4101 Clouds 28 1014 65 10000 3.1 140 15:39 06.08.2019
4102 Clouds 28 1014 65 10000 3.1 140 15:20 06.08.2019
4103 Clouds 27 1014 69 10000 3.6 120 14:44 06.08.2019
4104 Clouds 27 1014 69 10000 3.6 120 14:26 06.08.2019
4105 Clouds 28 1015 69 10000 3.6 120 13:58 06.08.2019
4106 Clouds 27 1015 74 10000 3.6 110 13:40 06.08.2019
4107 Clouds 27 1015 74 10000 3.6 110 13:21 06.08.2019
4108 Clouds 27 1015 74 10000 3.6 120 12:58 06.08.2019
4109 Clouds 27 1015 69 10000 3.1 120 12:39 06.08.2019
4110 Clouds 26 1015 69 10000 3.1 120 12:21 06.08.2019
4111 Clouds 26 1015 69 10000 2.6 140 11:43 06.08.2019
4112 Clouds 26 1015 69 10000 2.6 130 11:19 06.08.2019
4113 Clouds 27 1015 69 10000 1.5 120 10:56 06.08.2019
4114 Clouds 26 1015 74 10000 1.5 0 10:37 06.08.2019
4115 Clouds 26 1015 74 10000 1.5 0 10:19 06.08.2019
4116 Clouds 25 1016 65 10000 2.1 330 09:40 06.08.2019
4117 Clouds 24 1016 65 10000 2.1 330 09:20 06.08.2019
4118 Clouds 23 1015 73 10000 2.6 330 08:48 06.08.2019
4119 Clouds 22 1015 73 10000 3.1 330 08:26 06.08.2019
4120 Clouds 21 1015 73 10000 3.1 330 07:56 06.08.2019
4121 Clouds 20 1015 78 10000 3.1 330 07:23 06.08.2019
4122 Clouds 20 1015 73 10000 3.6 320 06:43 06.08.2019
4123 Clouds 20 1015 73 10000 3.1 330 06:19 06.08.2019
4124 Clouds 21 1015 78 10000 2.6 330 04:36 06.08.2019
4125 Clear 22 1015 78 10000 2.1 320 01:59 06.08.2019
4126 Clear 22 1015 78 10000 1.5 320 01:24 06.08.2019
4127 Clear 21 1015 78 10000 1.98 356.169 00:39 06.08.2019
4128 Clear 23 1015 78 10000 1 230 23:52 05.08.2019
4129 Clear 22 1015 83 10000 1.5 190 23:19 05.08.2019
4130 Clear 22 1015 78 10000 1.5 200 22:42 05.08.2019
4131 Clear 22 1015 83 10000 1 210 22:23 05.08.2019
4132 Clear 22 1014 78 10000 1.5 210 21:58 05.08.2019
4133 Clouds 23 1014 78 10000 1.5 190 21:39 05.08.2019
4134 Clouds 23 1014 78 10000 1.5 190 21:19 05.08.2019
4135 Clouds 25 1014 78 10000 1.5 190 20:56 05.08.2019
4136 Clouds 24 1014 78 10000 1.5 0 20:37 05.08.2019
4137 Clouds 25 1014 78 10000 1.5 170 20:19 05.08.2019
4138 Clouds 25 1014 78 10000 1.5 170 19:43 05.08.2019
4139 Clouds 26 1014 69 10000 1.5 170 19:25 05.08.2019
4140 Clouds 26 1014 69 10000 2.1 150 18:59 05.08.2019
4141 Clouds 26 1014 69 10000 2.1 160 18:40 05.08.2019
4142 Clouds 26 1014 69 10000 2.1 160 18:19 05.08.2019
4143 Clouds 26 1014 69 10000 2.1 160 18:19 05.08.2019
4144 Clouds 26 1014 69 10000 2.6 150 17:46 05.08.2019
4145 Clouds 26 1015 65 10000 3.1 160 17:27 05.08.2019
4146 Clouds 27 1015 65 10000 3.6 160 16:47 05.08.2019
4147 Clouds 27 1015 69 10000 3.6 160 16:27 05.08.2019
4148 Clouds 27 1015 69 10000 3.1 140 15:58 05.08.2019
4149 Clouds 27 1015 69 10000 3.6 130 15:40 05.08.2019
4150 Clouds 27 1015 69 10000 3.6 130 15:20 05.08.2019
4151 Clear 27 1015 69 10000 3.6 130 14:40 05.08.2019
4152 Clear 28 1015 69 10000 3.6 130 14:21 05.08.2019
4153 Clear 28 1015 69 10000 3.1 140 13:48 05.08.2019
4154 Clouds 28 1015 74 10000 3.6 160 13:24 05.08.2019
4155 Clouds 28 1016 69 10000 3.1 160 12:51 05.08.2019
4156 Clouds 27 1016 69 10000 3.1 160 12:22 05.08.2019
4157 Clouds 27 1016 69 10000 2.6 170 11:59 05.08.2019
4158 Clouds 27 1016 69 10000 2.6 160 11:40 05.08.2019
4159 Clouds 27 1016 69 10000 2.6 160 11:22 05.08.2019
4160 Clouds 27 1016 54 10000 1 0 10:44 05.08.2019
4161 Clouds 26 1016 54 10000 1 0 10:26 05.08.2019
4162 Clouds 26 1016 47 10000 2.6 320 09:55 05.08.2019
4163 Clouds 25 1016 50 10000 3.6 320 09:36 05.08.2019
4164 Clouds 24 1016 50 10000 3.6 320 09:18 05.08.2019
4165 Clouds 23 1016 53 10000 3.6 330 08:43 05.08.2019
4166 Clouds 22 1016 53 10000 4.1 330 08:23 05.08.2019
4167 Clouds 21 1016 56 10000 4.1 330 07:47 05.08.2019
4168 Clouds 21 1015 56 10000 3.1 330 07:27 05.08.2019
4169 Clouds 20 1015 60 10000 3.6 330 06:51 05.08.2019
4170 Clear 20 1015 60 10000 3.1 330 05:53 05.08.2019
4171 Clear 20 1015 60 10000 3.1 330 05:23 05.08.2019
4172 Clear 21 1015 56 10000 3.1 320 04:35 05.08.2019
4173 Clear 21 1015 56 10000 3.1 330 03:47 05.08.2019
4174 Clear 21 1015 60 10000 3.1 330 02:38 05.08.2019
4175 Clear 21 1015 60 10000 3.6 330 01:41 05.08.2019
4176 Clear 22 1015 64 10000 3.1 330 00:59 05.08.2019
4177 Clear 22 1015 64 10000 2.6 320 00:39 05.08.2019
4178 Clear 22 1015 64 10000 2.6 320 00:18 05.08.2019
4179 Clear 21 1015 65 10000 1.5 320 23:41 04.08.2019
4180 Clear 23 1015 73 10000 1.61 354.725 23:22 04.08.2019
4181 Clear 23 1015 78 10000 1.61 354.725 22:57 04.08.2019
4182 Clear 24 1014 78 10000 1.61 354.725 22:38 04.08.2019
4183 Clear 24 1014 78 10000 1.61 354.725 22:19 04.08.2019
4184 Clear 24 1014 78 10000 1.61 354.725 22:19 04.08.2019
4185 Clear 24 1014 78 10000 1.61 354.725 22:19 04.08.2019
4186 Clear 22 1014 78 10000 1 180 21:45 04.08.2019
4187 Clear 24 1014 74 10000 1.5 170 21:24 04.08.2019
4188 Clear 24 1014 74 10000 1 170 20:59 04.08.2019
4189 Clear 25 1014 74 10000 1.5 180 20:41 04.08.2019
4190 Clear 24 1014 74 10000 1.5 180 20:18 04.08.2019
4191 Clear 26 1014 69 10000 1.5 0 19:48 04.08.2019
4192 Clear 26 1014 69 10000 1.5 180 19:28 04.08.2019
4193 Clouds 27 1013 69 10000 2.1 150 18:58 04.08.2019
4194 Clouds 26 1014 74 10000 2.6 150 18:40 04.08.2019
4195 Clouds 27 1014 74 10000 2.6 150 18:20 04.08.2019
4196 Clouds 27 1014 69 10000 3.1 130 17:43 04.08.2019
4197 Clouds 27 1014 69 10000 3.1 130 17:22 04.08.2019
4198 Clouds 27 1013 61 10000 3.6 110 16:45 04.08.2019
4199 Clouds 27 1013 61 10000 3.1 100 16:26 04.08.2019
4200 Clouds 27 1014 65 10000 3.1 100 15:55 04.08.2019
4201 Clouds 27 1014 69 10000 3.1 110 15:37 04.08.2019
4202 Clouds 27 1014 69 10000 3.1 110 15:37 04.08.2019
4203 Clouds 27 1014 69 10000 3.1 110 15:37 04.08.2019
4204 Clouds 28 1014 69 10000 3.1 110 15:18 04.08.2019
4205 Clouds 27 1014 74 10000 2.6 120 14:42 04.08.2019
4206 Clouds 27 1014 74 10000 2.6 120 14:21 04.08.2019
4207 Clouds 28 1014 74 10000 2.6 110 13:43 04.08.2019
4208 Clouds 28 1014 74 10000 2.6 130 13:24 04.08.2019
4209 Clouds 28 1014 69 10000 2.6 140 12:55 04.08.2019
4210 Clouds 27 1014 69 10000 3.1 120 12:37 04.08.2019
4211 Clouds 27 1014 69 10000 3.1 120 12:18 04.08.2019
4212 Clouds 27 1014 65 10000 3.1 110 11:41 04.08.2019
4213 Clouds 27 1014 65 10000 3.1 110 11:22 04.08.2019
4214 Clouds 27 1014 65 10000 2.6 100 10:43 04.08.2019
4215 Clouds 27 1014 57 10000 1.5 90 10:22 04.08.2019
4216 Clouds 26 1014 57 10000 1.5 0 09:46 04.08.2019
4217 Clouds 25 1013 44 10000 2.1 340 09:25 04.08.2019
4218 Clouds 24 1013 47 10000 2.1 330 08:57 04.08.2019
4219 Clouds 23 1013 50 10000 3.6 340 08:33 04.08.2019
4220 Clouds 21 1013 53 10000 3.1 330 07:54 04.08.2019
4221 Clouds 20 1013 53 10000 4.1 330 07:23 04.08.2019
4222 Clouds 20 1012 53 10000 3.1 340 06:40 04.08.2019
4223 Clouds 20 1012 53 10000 3.1 340 06:18 04.08.2019
4224 Clear 21 1012 50 10000 3.1 330 03:36 04.08.2019
4225 Clear 22 1012 53 10000 2.6 330 01:52 04.08.2019
4226 Clear 22 1012 53 10000 2.6 340 01:32 04.08.2019
4227 Clear 22 1012 57 10000 3.1 320 00:42 04.08.2019
4228 Clear 23 1012 57 10000 3.1 320 00:23 04.08.2019
4229 Clear 23 1012 61 10000 2.6 320 23:55 03.08.2019
4230 Clear 23 1012 78 10000 0.5 220 23:36 03.08.2019
4231 Clear 23 1012 78 10000 0.5 220 23:18 03.08.2019
4232 Clear 25 1011 74 10000 1.5 200 22:39 03.08.2019
4233 Clear 25 1011 74 10000 1.5 200 22:19 03.08.2019
4234 Clear 23 1011 74 10000 2.1 200 21:39 03.08.2019
4235 Clear 25 1011 74 10000 2.1 200 21:21 03.08.2019
4236 Clear 26 1011 69 10000 1.5 200 20:45 03.08.2019
4237 Clear 26 1011 69 10000 1.5 180 20:24 03.08.2019
4238 Clear 25 1011 69 10000 2.1 180 19:55 03.08.2019
4239 Clear 25 1011 65 10000 2.6 180 19:37 03.08.2019
4240 Clear 26 1011 65 10000 2.6 180 19:18 03.08.2019
4241 Clouds 26 1012 54 10000 3.1 180 18:40 03.08.2019
4242 Clouds 27 1012 54 10000 3.1 180 18:22 03.08.2019
4243 Clouds 28 1012 54 10000 3.6 190 17:42 03.08.2019
4244 Clouds 29 1012 54 10000 3.6 190 17:20 03.08.2019
4245 Clouds 28 1012 58 10000 3.6 180 16:39 03.08.2019
4246 Clouds 28 1012 58 10000 3.6 180 16:21 03.08.2019
4247 Clouds 29 1012 55 10000 3.1 170 15:55 03.08.2019
4248 Clouds 30 1012 58 10000 2.6 160 15:37 03.08.2019
4249 Clouds 30 1012 58 10000 2.6 160 15:18 03.08.2019
4250 Clouds 29 1012 54 10000 2.6 180 14:36 03.08.2019
4251 Clouds 29 1012 54 10000 2.6 180 14:18 03.08.2019
4252 Clouds 30 1012 62 10000 3.6 190 13:43 03.08.2019
4253 Clouds 30 1012 65 10000 3.1 190 13:23 03.08.2019
4254 Clouds 29 1012 65 10000 3.6 190 12:56 03.08.2019
4255 Clouds 29 1012 69 10000 3.6 180 12:37 03.08.2019
4256 Clouds 29 1012 69 10000 3.6 180 12:19 03.08.2019
4257 Clouds 29 1012 65 10000 3.1 150 11:39 03.08.2019
4258 Clouds 29 1012 65 10000 3.1 150 11:20 03.08.2019
4259 Clouds 29 1012 48 10000 3.6 330 10:38 03.08.2019
4260 Clouds 28 1012 48 10000 3.6 330 10:19 03.08.2019
4261 Clouds 27 1012 54 10000 3.6 340 09:38 03.08.2019
4262 Clouds 26 1012 54 10000 3.6 340 09:18 03.08.2019
4263 Clouds 25 1012 61 10000 3.6 340 08:43 03.08.2019
4264 Clouds 22 1011 73 10000 3.6 340 07:40 03.08.2019
4265 Clouds 21 1011 73 10000 3.6 340 06:58 03.08.2019
4266 Clouds 22 1011 73 10000 3.1 340 06:20 03.08.2019
4267 Clear 22 1011 78 10000 2.6 330 03:35 03.08.2019
4268 Clear 22 1011 78 10000 3.1 330 02:27 03.08.2019
4269 Clear 21 1011 78 10000 3.1 330 00:59 03.08.2019
4270 Clouds 22 1011 83 10000 2.1 350 00:32 03.08.2019
4271 Clouds 22 1011 78 10000 2.6 90 23:55 02.08.2019
4272 Clear 22 1011 83 10000 4.1 90 23:36 02.08.2019
4273 Clear 22 1011 83 10000 4.1 90 23:18 02.08.2019
4274 Clouds 24 1010 78 10000 3.6 100 22:40 02.08.2019
4275 Clouds 24 1010 78 10000 3.6 100 22:22 02.08.2019
4276 Clouds 24 1010 78 10000 5.7 90 21:57 02.08.2019
4277 Clouds 23 1009 78 10000 6.7 90 21:39 02.08.2019
4278 Clouds 23 1009 78 10000 6.7 90 21:21 02.08.2019
4279 Clouds 24 1009 78 10000 7.2 90 20:44 02.08.2019
4280 Clouds 24 1009 78 10000 7.2 90 20:26 02.08.2019
4281 Clouds 26 1009 74 10000 6.7 90 19:55 02.08.2019
4282 Clouds 25 1008 74 10000 5.7 100 19:33 02.08.2019
4283 Clouds 26 1008 74 10000 5.7 100 18:57 02.08.2019
4284 Clouds 26 1009 74 10000 6.7 100 18:38 02.08.2019
4285 Clouds 26 1009 74 10000 6.7 100 18:18 02.08.2019
4286 Clouds 27 1009 74 10000 6.2 100 17:41 02.08.2019
4287 Clouds 27 1009 74 10000 6.2 100 17:22 02.08.2019
4288 Clouds 27 1010 74 10000 4.6 110 16:40 02.08.2019
4289 Clouds 27 1010 74 10000 4.6 110 16:21 02.08.2019
4290 Clear 27 1009 61 10000 3.1 150 15:58 02.08.2019
4291 Clouds 27 1010 74 10000 3.1 160 15:38 02.08.2019
4292 Clouds 27 1010 74 10000 3.1 160 15:18 02.08.2019
4293 Clouds 27 1010 74 10000 4.1 140 14:45 02.08.2019
4294 Clouds 27 1010 69 10000 4.1 140 14:18 02.08.2019
4295 Clouds 27 1010 74 10000 4.1 140 13:47 02.08.2019
4296 Clouds 27 1010 69 10000 3.1 150 13:23 02.08.2019
4297 Clouds 27 1011 74 10000 3.1 140 12:44 02.08.2019
4298 Clouds 26 1011 74 10000 2.6 150 12:21 02.08.2019
4299 Clouds 26 1011 74 10000 3.1 170 11:48 02.08.2019
4300 Clouds 25 1011 69 10000 2.6 150 11:26 02.08.2019
4301 Clouds 25 1011 74 10000 2.1 140 10:55 02.08.2019
4302 Clouds 26 1011 74 10000 1.5 0 10:37 02.08.2019
4303 Clouds 26 1011 74 10000 1.5 0 10:19 02.08.2019
4304 Clouds 25 1011 78 10000 1.5 90 09:51 02.08.2019
4305 Clouds 23 1011 73 10000 1.5 60 09:25 02.08.2019
4306 Clouds 23 1011 73 10000 1.5 0 08:47 02.08.2019
4307 Clouds 22 1011 73 10000 1.5 320 08:21 02.08.2019
4308 Clouds 21 1011 73 10000 1 340 07:49 02.08.2019
4309 Clouds 20 1011 78 10000 2.6 300 07:31 02.08.2019
4310 Clear 20 1011 78 10000 2.1 320 06:44 02.08.2019
4311 Clear 20 1011 83 10000 2.6 320 05:52 02.08.2019
4312 Clear 20 1011 78 10000 2.6 330 05:21 02.08.2019
4313 Clouds 21 1012 83 10000 2.6 320 03:27 02.08.2019
4314 Clouds 21 1013 83 10000 2.6 290 02:33 02.08.2019
4315 Clouds 21 1013 83 10000 1 0 00:40 02.08.2019
4316 Clouds 21 1013 83 10000 1 0 23:47 01.08.2019
4317 Clear 21 1013 78 10000 1.5 130 23:28 01.08.2019
4318 Clear 22 1013 78 10000 1.5 120 22:59 01.08.2019
4319 Clear 23 1013 78 10000 1.5 90 22:39 01.08.2019
4320 Clear 23 1013 78 10000 1.5 90 22:20 01.08.2019
4321 Clear 22 1013 78 10000 2.1 120 21:44 01.08.2019
4322 Clear 23 1013 78 10000 2.6 100 21:24 01.08.2019
4323 Clear 24 1012 78 10000 3.1 100 20:59 01.08.2019
4324 Clear 25 1012 73 10000 3.1 100 20:40 01.08.2019
4325 Clear 25 1012 73 10000 3.1 100 20:21 01.08.2019
4326 Clear 25 1013 69 10000 3.6 90 19:42 01.08.2019
4327 Clouds 25 1013 74 10000 2.6 110 19:20 01.08.2019
4328 Clouds 26 1013 74 10000 2.1 110 18:46 01.08.2019
4329 Clouds 26 1014 69 10000 1.5 80 18:25 01.08.2019
4330 Clouds 25 1014 74 10000 1.5 110 17:57 01.08.2019
4331 Clouds 25 1014 74 10000 2.6 130 17:39 01.08.2019
4332 Clouds 25 1014 74 10000 2.6 130 17:20 01.08.2019
4333 Clouds 26 1014 74 10000 3.6 120 16:44 01.08.2019
4334 Clouds 26 1014 69 10000 3.6 100 16:21 01.08.2019
4335 Clouds 26 1014 74 10000 4.6 100 15:45 01.08.2019
4336 Clouds 25 1015 74 10000 4.6 120 15:20 01.08.2019
4337 Clouds 26 1015 69 10000 6.2 110 14:44 01.08.2019
4338 Clouds 26 1014 74 10000 6.7 100 14:22 01.08.2019
4339 Clouds 27 1014 69 10000 7.2 100 13:59 01.08.2019
4340 Clouds 27 1014 74 10000 6.7 100 13:41 01.08.2019
4341 Clouds 27 1014 74 10000 6.7 100 13:21 01.08.2019
4342 Clouds 27 1014 74 10000 6.2 100 12:58 01.08.2019
4343 Clouds 27 1014 78 10000 6.7 100 12:40 01.08.2019
4344 Clouds 26 1014 78 10000 6.7 100 12:21 01.08.2019
4345 Clouds 26 1014 74 10000 6.7 80 11:41 01.08.2019
4346 Clouds 26 1014 74 10000 6.7 80 11:22 01.08.2019
4347 Clouds 26 1014 74 10000 6.7 80 11:22 01.08.2019
4348 Clouds 26 1014 74 10000 6.7 80 11:22 01.08.2019
4349 Clouds 25 1015 74 10000 4.1 90 10:46 01.08.2019
4350 Clouds 26 1015 69 10000 2.6 90 10:28 01.08.2019
4351 Clouds 25 1015 57 10000 1.5 350 09:59 01.08.2019
4352 Clear 24 1014 73 10000 1.5 0 09:39 01.08.2019
4353 Clear 23 1014 73 10000 1.5 0 09:21 01.08.2019
4354 Clouds 22 1015 68 10000 3.6 340 08:42 01.08.2019
4355 Clouds 21 1015 68 10000 3.6 340 08:19 01.08.2019
4356 Clouds 20 1014 73 10000 4.6 330 07:47 01.08.2019
4357 Clouds 20 1014 73 10000 4.6 330 07:24 01.08.2019
4358 Clouds 19 1015 73 10000 3.6 330 06:47 01.08.2019
4359 Clouds 19 1014 77 10000 4.6 320 05:48 01.08.2019
4360 Clouds 20 1014 73 10000 3.1 320 04:18 01.08.2019
4361 Clouds 20 1014 78 10000 3.6 330 02:32 01.08.2019
4362 Clouds 21 1013 78 10000 2.6 30 00:42 01.08.2019
4363 Clouds 21 1013 78 10000 2.6 30 00:24 01.08.2019
4364 Clouds 21 1014 83 10000 4.1 80 23:42 31.07.2019
4365 Clouds 21 1014 78 10000 4.6 80 23:21 31.07.2019
4366 Clouds 21 1013 78 10000 4.6 90 22:47 31.07.2019
4367 Clouds 23 1013 78 10000 4.6 100 22:29 31.07.2019
4368 Clouds 24 1013 78 10000 5.1 100 21:56 31.07.2019
4369 Clouds 22 1013 78 10000 5.7 110 21:37 31.07.2019
4370 Clouds 24 1013 78 10000 5.7 110 21:18 31.07.2019
4371 Clouds 24 1013 78 10000 5.7 110 21:18 31.07.2019
4372 Clouds 24 1012 74 10000 5.7 100 20:41 31.07.2019
4373 Clear 24 1012 74 10000 5.7 100 20:21 31.07.2019
4374 Clear 26 1012 69 10000 6.7 100 19:41 31.07.2019
4375 Clear 26 1012 69 10000 6.7 100 19:23 31.07.2019
4376 Clouds 27 1012 69 10000 6.7 90 18:53 31.07.2019
4377 Clouds 26 1012 69 10000 6.7 90 18:26 31.07.2019
4378 Clouds 27 1012 65 10000 7.2 90 17:59 31.07.2019
4379 Clouds 27 1012 69 10000 6.2 90 17:40 31.07.2019
4380 Clouds 27 1012 69 10000 6.2 90 17:19 31.07.2019
4381 Clouds 27 1012 69 10000 5.1 90 16:43 31.07.2019
4382 Clouds 27 1013 65 10000 4.6 100 16:20 31.07.2019
4383 Clouds 27 1013 65 10000 4.1 110 15:45 31.07.2019
4384 Clouds 27 1013 61 10000 4.1 120 15:26 31.07.2019
4385 Clouds 27 1013 61 10000 4.1 120 15:26 31.07.2019
4386 Clouds 27 1013 61 10000 3.6 120 14:54 31.07.2019
4387 Clouds 27 1013 65 10000 3.1 120 14:36 31.07.2019
4388 Clouds 27 1013 65 10000 3.1 120 14:18 31.07.2019
4389 Clouds 27 1013 61 10000 3.6 100 13:42 31.07.2019
4390 Clouds 27 1013 61 10000 3.6 100 13:23 31.07.2019
4391 Clouds 26 1013 69 10000 3.6 110 12:56 31.07.2019
4392 Clouds 26 1013 69 10000 3.1 100 12:37 31.07.2019
4393 Clouds 26 1013 69 10000 3.1 100 12:18 31.07.2019
4394 Clouds 26 1013 69 10000 2.6 160 11:38 31.07.2019
4395 Clouds 25 1013 69 10000 2.6 160 11:19 31.07.2019
4396 Clouds 25 1013 69 10000 1.5 0 10:42 31.07.2019
4397 Clouds 25 1013 69 10000 1.5 0 10:20 31.07.2019
4398 Clouds 25 1013 65 10000 2.1 310 09:54 31.07.2019
4399 Clouds 24 1013 69 10000 3.1 320 09:36 31.07.2019
4400 Clouds 23 1013 69 10000 3.1 320 09:18 31.07.2019
4401 Clouds 23 1013 69 10000 3.1 320 09:18 31.07.2019
4402 Clouds 22 1013 73 10000 4.1 320 08:40 31.07.2019
4403 Clouds 22 1013 73 10000 4.1 320 08:20 31.07.2019
4404 Clouds 20 1013 83 10000 4.1 340 07:35 31.07.2019
4405 Clouds 19 1012 83 10000 3.6 330 06:35 31.07.2019
4406 Clouds 19 1012 88 10000 3.6 320 04:52 31.07.2019
4407 Clear 20 1012 83 10000 2.6 320 03:24 31.07.2019
4408 Clear 20 1012 83 10000 1.5 310 00:20 31.07.2019
4409 Clear 21 1012 78 10000 1.5 0 23:40 30.07.2019
4410 Clear 21 1012 78 10000 1.5 0 23:19 30.07.2019
4411 Clouds 22 1012 73 10000 2.39 335.407 22:46 30.07.2019
4412 Clouds 22 1012 73 10000 0.5 0 22:25 30.07.2019
4413 Clouds 23 1012 73 10000 1 0 21:56 30.07.2019
4414 Clouds 22 1011 73 10000 1 0 21:36 30.07.2019
4415 Clouds 22 1011 73 10000 1 0 21:18 30.07.2019
4416 Clouds 23 1011 69 10000 1 0 20:42 30.07.2019
4417 Clouds 24 1011 69 10000 1 0 20:23 30.07.2019
4418 Clouds 24 1011 69 10000 1.5 0 19:58 30.07.2019
4419 Clouds 24 1011 69 10000 1.5 0 19:39 30.07.2019
4420 Clouds 25 1011 69 10000 2.1 170 18:58 30.07.2019
4421 Clouds 25 1012 65 10000 2.6 170 18:38 30.07.2019
4422 Clouds 25 1012 65 10000 2.6 170 18:18 30.07.2019
4423 Clouds 25 1012 74 10000 3.6 180 17:41 30.07.2019
4424 Clouds 25 1012 74 10000 3.6 180 17:19 30.07.2019
4425 Clouds 25 1012 74 10000 3.6 180 17:19 30.07.2019
4426 Clouds 25 1012 74 10000 3.6 170 16:51 30.07.2019
4427 Clouds 25 1012 74 10000 3.6 160 16:21 30.07.2019
4428 Clouds 25 1012 74 10000 3.1 140 15:58 30.07.2019
4429 Clouds 26 1012 69 10000 3.1 160 15:38 30.07.2019
4430 Clouds 26 1012 69 10000 3.1 160 15:19 30.07.2019
4431 Clouds 26 1012 69 10000 3.6 160 14:42 30.07.2019
4432 Clouds 25 1012 69 10000 3.6 160 14:21 30.07.2019
4433 Clouds 26 1012 69 10000 3.6 160 14:21 30.07.2019
4434 Clouds 26 1012 69 10000 3.1 160 13:47 30.07.2019
4435 Clouds 26 1012 69 10000 3.1 140 13:29 30.07.2019
4436 Clouds 25 1012 74 10000 3.1 140 12:59 30.07.2019
4437 Clouds 26 1012 74 10000 2.6 140 12:40 30.07.2019
4438 Clouds 25 1012 74 10000 2.6 140 12:22 30.07.2019
4439 Clouds 25 1012 69 10000 2.1 130 11:42 30.07.2019
4440 Clouds 25 1012 69 10000 2.1 130 11:20 30.07.2019
4441 Clouds 26 1012 69 10000 3.1 110 10:55 30.07.2019
4442 Clouds 26 1012 74 10000 3.6 80 10:37 30.07.2019
4443 Clouds 26 1012 74 10000 3.6 80 10:18 30.07.2019
4444 Clouds 25 1012 73 10000 2.1 20 09:44 30.07.2019
4445 Clouds 23 1012 73 10000 2.1 20 09:24 30.07.2019
4446 Clouds 22 1011 73 10000 3.1 330 08:32 30.07.2019
4447 Clouds 21 1011 78 10000 3.6 330 07:52 30.07.2019
4448 Clouds 20 1011 78 10000 3.1 340 07:34 30.07.2019
4449 Clouds 20 1011 83 10000 2.6 330 06:50 30.07.2019
4450 Clouds 20 1010 78 10000 2.6 330 06:31 30.07.2019
4451 Clouds 20 1010 83 10000 3.1 330 05:34 30.07.2019
4452 Clouds 20 1010 83 10000 2.6 320 03:29 30.07.2019
4453 Clouds 20 1010 83 10000 1.5 340 01:22 30.07.2019
4454 Clouds 21 1010 73 10000 3.1 90 00:26 30.07.2019
4455 Clouds 21 1010 73 10000 3.6 90 23:57 29.07.2019
4456 Clear 21 1010 73 10000 2.6 90 23:38 29.07.2019
4457 Clear 21 1010 73 10000 2.6 90 23:19 29.07.2019
4458 Clear 23 1010 73 10000 2.1 90 22:54 29.07.2019
4459 Clear 23 1009 78 10000 1.5 90 22:36 29.07.2019
4460 Clear 23 1009 78 10000 1.5 90 22:18 29.07.2019
4461 Clouds 22 1009 73 10000 1.5 110 21:41 29.07.2019
4462 Clouds 22 1009 73 10000 1.5 110 21:23 29.07.2019
4463 Clouds 23 1009 73 10000 1.5 100 20:57 29.07.2019
4464 Clouds 24 1009 69 10000 2.1 110 20:38 29.07.2019
4465 Clouds 24 1009 69 10000 2.1 110 20:19 29.07.2019
4466 Clouds 26 1008 69 10000 2.6 120 19:43 29.07.2019
4467 Clouds 26 1008 69 10000 2.6 120 19:22 29.07.2019
4468 Clouds 26 1008 69 10000 2.6 140 18:55 29.07.2019
4469 Clouds 25 1008 69 10000 3.1 130 18:37 29.07.2019
4470 Clouds 26 1008 69 10000 3.1 130 18:18 29.07.2019
4471 Clouds 25 1008 69 10000 3.6 120 17:46 29.07.2019
4472 Clouds 25 1008 65 10000 5.1 110 17:27 29.07.2019
4473 Clouds 26 1008 65 10000 5.1 100 16:46 29.07.2019
4474 Clouds 26 1008 61 10000 5.1 100 16:27 29.07.2019
4475 Clouds 26 1008 61 10000 4.6 100 15:54 29.07.2019
4476 Clouds 26 1007 61 10000 4.6 110 15:36 29.07.2019
4477 Clouds 27 1007 65 10000 3.6 120 14:58 29.07.2019
4478 Clouds 27 1007 65 10000 3.6 130 14:39 29.07.2019
4479 Clouds 27 1007 65 10000 3.6 130 14:21 29.07.2019
4480 Clouds 27 1007 65 10000 3.1 130 13:45 29.07.2019
4481 Clouds 27 1007 65 10000 3.1 120 13:24 29.07.2019
4482 Clouds 27 1007 65 10000 2.6 110 12:45 29.07.2019
4483 Clouds 26 1006 61 10000 2.6 130 12:26 29.07.2019
4484 Clouds 26 1006 65 10000 2.1 140 11:59 29.07.2019
4485 Clouds 26 1006 61 10000 1.5 0 11:39 29.07.2019
4486 Clouds 26 1006 61 10000 1.5 0 11:18 29.07.2019
4487 Clouds 26 1006 65 10000 2.6 110 10:42 29.07.2019
4488 Clouds 26 1006 65 10000 2.1 100 10:21 29.07.2019
4489 Clouds 25 1006 61 10000 1.5 0 09:43 29.07.2019
4490 Clouds 23 1006 61 10000 1.5 0 09:21 29.07.2019
4491 Clouds 23 1006 61 10000 1.5 0 09:21 29.07.2019
4492 Clouds 22 1005 64 10000 3.6 340 08:43 29.07.2019
4493 Clouds 21 1005 64 10000 3.6 340 08:24 29.07.2019
4494 Clouds 21 1005 68 10000 3.6 330 07:46 29.07.2019
4495 Clouds 20 1004 68 10000 3.1 340 07:27 29.07.2019
4496 Clear 20 1004 68 10000 4.6 330 06:37 29.07.2019
4497 Clear 20 1003 68 10000 3.1 330 05:32 29.07.2019
4498 Clear 21 1002 64 10000 2.1 350 02:49 29.07.2019
4499 Clear 21 1002 73 10000 2.6 310 01:48 29.07.2019
4500 Clear 21 1002 69 10000 1 0 01:27 29.07.2019
4501 Clear 21 1002 69 10000 1.5 340 00:57 29.07.2019
4502 Clear 21 1002 65 10000 3.1 340 00:24 29.07.2019
4503 Clear 22 1001 73 10000 2.1 290 23:42 28.07.2019
4504 Clear 22 1001 73 10000 2.1 290 23:24 28.07.2019
4505 Clear 22 1001 65 10000 2.6 310 22:44 28.07.2019
4506 Clear 25 1001 65 10000 2.1 330 22:26 28.07.2019
4507 Clear 25 1000 65 10000 3.6 80 21:52 28.07.2019
4508 Clear 25 1000 69 10000 4.6 80 21:20 28.07.2019
4509 Clear 26 1000 65 10000 4.6 80 20:57 28.07.2019
4510 Clouds 26 1000 65 10000 5.1 80 20:39 28.07.2019
4511 Clouds 26 1000 65 10000 5.1 80 20:21 28.07.2019
4512 Clouds 27 999 65 10000 4.6 90 19:40 28.07.2019
4513 Clouds 27 999 65 10000 4.6 90 19:20 28.07.2019
4514 Clouds 28 999 58 10000 4.1 70 18:46 28.07.2019
4515 Clouds 27 999 58 10000 4.6 70 18:27 28.07.2019
4516 Clouds 27 999 58 10000 4.1 80 17:56 28.07.2019
4517 Clouds 27 999 61 10000 3.6 100 17:38 28.07.2019
4518 Clouds 27 999 61 10000 3.6 100 17:19 28.07.2019
4519 Clouds 27 999 65 10000 4.6 90 16:42 28.07.2019
4520 Clouds 27 999 65 10000 4.6 90 16:24 28.07.2019
4521 Clouds 27 999 65 10000 3.6 90 15:48 28.07.2019
4522 Clouds 26 999 61 10000 2.6 100 15:27 28.07.2019
4523 Clouds 26 999 65 10000 3.6 120 14:56 28.07.2019
4524 Clouds 26 999 65 10000 3.6 130 14:36 28.07.2019
4525 Clouds 25 999 65 10000 3.6 130 14:18 28.07.2019
4526 Clouds 25 999 65 10000 3.6 130 14:18 28.07.2019
4527 Clouds 26 999 69 10000 2.1 180 13:39 28.07.2019
4528 Clouds 25 999 73 10000 2.6 180 13:20 28.07.2019
4529 Clouds 25 999 73 10000 2.6 180 12:45 28.07.2019
4530 Clouds 24 999 73 10000 3.1 200 12:27 28.07.2019
4531 Clouds 24 998 73 10000 2.6 240 11:51 28.07.2019
4532 Clouds 23 998 73 10000 3.1 250 11:29 28.07.2019
4533 Rain 22 998 78 10000 3.1 310 10:59 28.07.2019
4534 Rain 21 999 83 10000 3.6 330 10:38 28.07.2019
4535 Rain 20 999 83 10000 3.6 330 10:19 28.07.2019
4536 Rain 19 998 82 10000 4.6 320 09:40 28.07.2019
4537 Rain 19 998 82 10000 4.6 320 09:22 28.07.2019
4538 Rain 18 998 82 10000 4.1 320 08:44 28.07.2019
4539 Rain 18 998 88 10000 4.6 320 08:26 28.07.2019
4540 Rain 18 998 88 10000 4.1 320 07:44 28.07.2019
4541 Rain 18 998 88 10000 4.1 320 07:26 28.07.2019
4542 Rain 18 998 93 10000 2.6 330 06:36 28.07.2019
4543 Rain 18 998 93 10000 3.1 350 05:22 28.07.2019
4544 Rain 18 999 82 10000 4.1 300 02:43 28.07.2019
4545 Rain 18 999 82 10000 4.1 300 02:18 28.07.2019
4546 Rain 18 997 77 8000 11.3 360 01:18 28.07.2019
4547 Rain 18 1000 94 6000 1.5 10 00:43 28.07.2019
4548 Rain 18 1001 94 2000 6.7 220 23:56 27.07.2019
4549 Rain 19 1000 77 9000 4.1 310 23:31 27.07.2019
4550 Rain 20 1000 78 10000 4.6 360 22:56 27.07.2019
4551 Rain 20 1000 78 10000 4.6 360 22:56 27.07.2019
4552 Rain 20 1000 78 10000 3.1 360 22:37 27.07.2019
4553 Rain 19 1000 78 10000 3.1 360 22:18 27.07.2019
4554 Rain 19 1000 83 10000 3.1 30 21:38 27.07.2019
4555 Rain 19 1000 83 10000 3.1 30 21:19 27.07.2019
4556 Rain 19 1001 83 10000 2.1 310 20:49 27.07.2019
4557 Rain 21 1001 73 10000 4.6 290 20:23 27.07.2019
4558 Thunderstorm 23 999 61 10000 3.6 360 19:43 27.07.2019
4559 Thunderstorm 23 999 61 10000 3.6 360 19:43 27.07.2019
4560 Thunderstorm 23 999 61 10000 3.6 360 19:25 27.07.2019
4561 Thunderstorm 23 1000 61 10000 3.6 360 18:51 27.07.2019
4562 Clouds 23 1000 57 10000 4.1 10 18:32 27.07.2019
4563 Clouds 24 1000 57 10000 5.1 360 17:52 27.07.2019
4564 Clouds 23 1001 64 10000 5.7 10 17:33 27.07.2019
4565 Clouds 22 1001 78 10000 4.1 350 16:59 27.07.2019
4566 Rain 20 1002 83 10000 5.1 350 16:39 27.07.2019
4567 Rain 20 1002 83 10000 5.1 350 16:20 27.07.2019
4568 Rain 19 1004 78 10000 8.2 310 15:46 27.07.2019
4569 Rain 21 1004 69 10000 7.7 320 15:20 27.07.2019
4570 Thunderstorm 25 1003 78 10000 5.1 60 14:49 27.07.2019
4571 Thunderstorm 26 1003 78 10000 5.7 100 14:31 27.07.2019
4572 Thunderstorm 26 1003 78 10000 7.2 100 13:52 27.07.2019
4573 Thunderstorm 26 1002 74 10000 8.7 100 13:25 27.07.2019
4574 Clouds 27 1003 74 10000 7.2 100 12:59 27.07.2019
4575 Clouds 27 1003 70 10000 6.2 100 12:41 27.07.2019
4576 Clouds 27 1003 70 10000 6.2 100 12:21 27.07.2019
4577 Clouds 28 1004 70 10000 5.1 80 11:41 27.07.2019
4578 Clouds 27 1004 70 10000 5.1 80 11:23 27.07.2019
4579 Clouds 28 1004 69 10000 6.2 70 10:42 27.07.2019
4580 Clouds 27 1004 69 10000 6.2 70 10:23 27.07.2019
4581 Clouds 27 1004 69 10000 5.1 70 09:43 27.07.2019
4582 Clouds 26 1005 57 10000 2.1 340 09:23 27.07.2019
4583 Clear 25 1005 54 10000 3.1 320 08:53 27.07.2019
4584 Clear 25 1005 54 10000 3.1 330 08:33 27.07.2019
4585 Clear 23 1005 57 10000 3.1 330 07:58 27.07.2019
4586 Clear 23 1004 57 10000 4.1 330 07:40 27.07.2019
4587 Clear 23 1004 57 10000 4.1 330 07:20 27.07.2019
4588 Clear 23 1005 57 10000 3.6 330 06:49 27.07.2019
4589 Clear 23 1005 57 10000 3.6 330 06:49 27.07.2019
4590 Clear 23 1004 78 10000 1.5 10 06:21 27.07.2019
4591 Clear 23 1005 61 10000 3.1 330 05:35 27.07.2019
4592 Clear 23 1005 65 10000 1.5 360 04:46 27.07.2019
4593 Clear 23 1005 69 10000 1.5 10 03:46 27.07.2019
4594 Clear 24 1006 74 10000 2.6 340 02:43 27.07.2019
4595 Clear 24 1006 74 10000 2.6 50 01:57 27.07.2019
4596 Clear 24 1006 74 10000 2.6 50 01:57 27.07.2019
4597 Clear 24 1007 69 10000 2.1 50 01:36 27.07.2019
4598 Clear 23 1007 74 10000 0.5 140 00:41 27.07.2019
4599 Clear 24 1007 74 10000 0.5 140 00:22 27.07.2019
4600 Clear 25 1007 83 10000 0.5 220 23:44 26.07.2019
4601 Clear 25 1007 83 10000 0.5 220 23:44 26.07.2019
4602 Clear 25 1007 78 10000 1.5 210 23:26 26.07.2019
4603 Clear 26 1007 78 10000 1.5 190 22:43 26.07.2019
4604 Clear 26 1007 78 10000 1 180 22:25 26.07.2019
4605 Clear 26 1007 78 10000 1.5 150 21:52 26.07.2019
4606 Clear 27 1007 69 10000 1.98 137.952 21:21 26.07.2019
4607 Clear 27 1007 65 10000 1.93 122.94 20:58 26.07.2019
4608 Clouds 28 1008 78 10000 2.1 140 20:39 26.07.2019
4609 Clouds 28 1008 78 10000 2.1 140 20:21 26.07.2019
4610 Clouds 28 1008 74 10000 2.6 110 19:41 26.07.2019
4611 Clouds 29 1008 74 10000 2.6 110 19:22 26.07.2019
4612 Clouds 27 1008 74 10000 3.1 120 18:45 26.07.2019
4613 Clouds 29 1009 74 10000 3.6 100 18:22 26.07.2019
4614 Clouds 29 1009 79 10000 3.6 100 17:58 26.07.2019
4615 Clouds 28 1010 74 10000 4.1 100 17:38 26.07.2019
4616 Clouds 28 1010 74 10000 4.1 100 17:18 26.07.2019
4617 Clouds 28 1010 74 10000 3.6 100 16:55 26.07.2019
4618 Clouds 28 1010 74 10000 4.1 100 16:37 26.07.2019
4619 Clouds 29 1010 74 10000 4.1 100 16:18 26.07.2019
4620 Clouds 29 1011 79 10000 4.1 100 15:45 26.07.2019
4621 Clouds 29 1011 79 10000 4.1 100 15:22 26.07.2019
4622 Clouds 29 1011 79 10000 4.1 100 14:54 26.07.2019
4623 Clouds 29 1011 74 10000 5.1 110 14:36 26.07.2019
4624 Clouds 28 1011 74 10000 5.1 110 14:18 26.07.2019
4625 Clouds 29 1011 74 10000 5.1 110 13:39 26.07.2019
4626 Clouds 29 1011 74 10000 5.1 110 13:21 26.07.2019
4627 Clear 29 1011 74 10000 5.1 110 12:43 26.07.2019
4628 Clear 29 1011 74 10000 5.1 110 12:19 26.07.2019
4629 Clear 29 1012 74 10000 3.1 110 11:39 26.07.2019
4630 Clear 29 1012 74 10000 3.1 110 11:19 26.07.2019
4631 Clear 29 1012 74 10000 3.1 110 10:52 26.07.2019
4632 Clear 30 1012 65 10000 2.1 100 10:34 26.07.2019
4633 Clear 29 1012 61 10000 2.1 90 09:55 26.07.2019
4634 Clear 29 1012 45 10000 1.5 70 09:34 26.07.2019
4635 Clear 26 1012 42 10000 2.1 350 08:43 26.07.2019
4636 Clear 26 1012 42 10000 2.1 350 08:22 26.07.2019
4637 Clear 25 1012 47 10000 3.1 330 07:59 26.07.2019
4638 Clear 25 1013 47 10000 2.1 340 07:29 26.07.2019
4639 Clear 24 1013 44 10000 1.5 350 06:53 26.07.2019
4640 Clear 24 1013 44 10000 1.5 360 05:23 26.07.2019
4641 Clear 24 1013 44 10000 3.1 350 04:22 26.07.2019
4642 Clear 25 1013 44 10000 4.1 330 02:45 26.07.2019
4643 Clear 25 1014 47 10000 3.6 330 01:43 26.07.2019
4644 Clear 26 1014 48 10000 3.1 330 00:45 26.07.2019
4645 Clear 26 1014 54 10000 1.5 320 23:57 25.07.2019
4646 Clear 26 1014 78 10000 1.77 2.428 23:25 25.07.2019
4647 Clear 25 1014 78 10000 0.5 140 22:58 25.07.2019
4648 Clear 26 1014 74 10000 0.5 0 22:39 25.07.2019
4649 Clear 26 1014 74 10000 0.5 0 22:20 25.07.2019
4650 Clear 26 1014 74 10000 1.77 2.428 21:45 25.07.2019
4651 Clear 28 1014 74 10000 0.5 0 21:22 25.07.2019
4652 Clear 29 1014 74 10000 1 150 20:48 25.07.2019
4653 Clear 29 1014 70 10000 1 130 20:23 25.07.2019
4654 Clear 30 1014 70 10000 1.5 0 19:54 25.07.2019
4655 Clear 30 1014 66 10000 1.5 140 19:36 25.07.2019
4656 Clear 31 1014 66 10000 1.5 140 19:18 25.07.2019
4657 Clear 30 1014 70 10000 2.1 150 18:39 25.07.2019
4658 Clear 30 1014 70 10000 2.1 150 18:20 25.07.2019
4659 Clear 31 1015 70 10000 2.1 130 17:44 25.07.2019
4660 Clear 31 1015 70 10000 2.1 120 17:25 25.07.2019
4661 Clear 30 1015 70 10000 2.1 120 16:47 25.07.2019
4662 Clear 30 1015 70 10000 2.1 130 16:29 25.07.2019
4663 Clear 31 1015 70 10000 2.1 140 15:58 25.07.2019
4664 Clear 31 1015 74 10000 2.1 140 15:38 25.07.2019
4665 Clear 31 1015 74 10000 2.1 140 15:18 25.07.2019
4666 Clear 31 1016 70 10000 2.1 160 14:41 25.07.2019
4667 Clear 31 1016 70 10000 2.1 160 14:22 25.07.2019
4668 Clear 31 1016 70 10000 2.1 160 14:22 25.07.2019
4669 Clear 31 1016 70 10000 3.1 140 13:44 25.07.2019
4670 Clear 31 1016 70 10000 3.1 140 13:25 25.07.2019
4671 Clear 30 1016 74 10000 3.1 140 12:55 25.07.2019
4672 Clear 31 1016 70 10000 2.6 140 12:28 25.07.2019
4673 Clear 31 1016 66 10000 2.1 110 11:45 25.07.2019
4674 Clear 31 1016 58 10000 2.1 120 11:24 25.07.2019
4675 Clear 32 1016 58 10000 2.1 130 10:55 25.07.2019
4676 Clear 32 1016 40 10000 1.67 169.188 10:36 25.07.2019
4677 Clear 31 1016 58 10000 1.5 120 10:18 25.07.2019
4678 Clear 29 1016 45 10000 1.5 70 09:40 25.07.2019
4679 Clear 28 1016 42 10000 3.1 330 08:59 25.07.2019
4680 Clear 27 1016 45 10000 3.6 330 08:40 25.07.2019
4681 Clear 25 1016 44 10000 4.1 330 07:55 25.07.2019
4682 Clear 24 1016 47 10000 3.1 320 07:30 25.07.2019
4683 Clear 24 1015 47 10000 2.6 340 06:42 25.07.2019
4684 Clear 24 1015 47 10000 2.6 340 06:42 25.07.2019
4685 Clear 24 1015 44 10000 3.6 330 05:37 25.07.2019
4686 Clear 25 1015 47 10000 3.6 340 04:57 25.07.2019
4687 Clear 25 1015 47 10000 3.1 330 04:31 25.07.2019
4688 Clear 25 1016 69 10000 3.6 260 01:31 25.07.2019
4689 Clear 25 1016 69 10000 2.6 290 00:45 25.07.2019
4690 Clear 26 1015 64 10000 1.5 0 00:19 25.07.2019
4691 Clear 26 1016 69 10000 2.1 300 23:45 24.07.2019
4692 Clear 26 1015 83 10000 1.5 220 23:27 24.07.2019
4693 Clear 27 1015 78 10000 1.5 190 22:55 24.07.2019
4694 Clear 27 1015 78 10000 1.5 190 22:36 24.07.2019
4695 Clear 27 1015 78 10000 1.5 190 22:18 24.07.2019
4696 Clear 26 1015 78 10000 1.69 0.102 21:42 24.07.2019
4697 Clear 28 1015 78 10000 1.46 127.24 21:21 24.07.2019
4698 Clear 28 1015 58 10000 1.42 132.634 20:55 24.07.2019
4699 Clear 29 1015 70 10000 1.5 190 20:37 24.07.2019
4700 Clear 29 1015 70 10000 1.5 190 20:19 24.07.2019
4701 Clear 29 1015 58 10000 2.1 150 19:42 24.07.2019
4702 Clear 29 1015 74 10000 3.1 200 19:22 24.07.2019
4703 Clear 29 1015 79 10000 3.6 180 18:45 24.07.2019
4704 Clear 30 1015 79 10000 3.6 180 18:25 24.07.2019
4705 Clouds 30 1016 74 10000 2.6 180 17:56 24.07.2019
4706 Clouds 31 1016 74 10000 2.6 180 17:37 24.07.2019
4707 Clouds 31 1016 74 10000 2.6 180 17:18 24.07.2019
4708 Clouds 31 1016 74 10000 2.1 140 16:40 24.07.2019
4709 Clouds 31 1016 74 10000 2.1 140 16:40 24.07.2019
4710 Clouds 31 1016 74 10000 2.1 140 16:21 24.07.2019
4711 Clouds 31 1016 70 10000 2.1 130 15:39 24.07.2019
4712 Clouds 31 1016 70 10000 2.1 130 15:21 24.07.2019
4713 Clear 31 1016 74 10000 2.1 140 14:50 24.07.2019
4714 Clear 31 1016 70 10000 2.6 150 14:23 24.07.2019
4715 Clear 31 1016 70 10000 2.6 140 13:59 24.07.2019
4716 Clear 32 1016 70 10000 2.1 140 13:36 24.07.2019
4717 Clear 31 1016 70 10000 2.1 140 13:18 24.07.2019
4718 Clear 31 1016 70 10000 2.1 140 12:46 24.07.2019
4719 Clear 31 1016 66 10000 2.1 150 12:24 24.07.2019
4720 Clear 30 1016 70 10000 1.5 130 11:38 24.07.2019
4721 Clear 30 1016 70 10000 1.5 130 11:19 24.07.2019
4722 Clouds 31 1016 66 10000 2.1 120 10:43 24.07.2019
4723 Clouds 31 1016 66 10000 2.1 120 10:24 24.07.2019
4724 Clear 30 1016 45 10000 2.1 110 09:45 24.07.2019
4725 Clear 29 1016 48 10000 3.6 350 09:24 24.07.2019
4726 Clear 28 1016 54 10000 4.6 330 08:56 24.07.2019
4727 Clear 27 1016 54 10000 3.1 360 08:30 24.07.2019
4728 Clear 26 1016 61 10000 3.6 340 07:51 24.07.2019
4729 Clear 25 1016 61 10000 3.6 340 07:24 24.07.2019
4730 Clear 25 1016 61 10000 3.1 340 06:29 24.07.2019
4731 Clear 25 1016 61 10000 3.1 350 05:40 24.07.2019
4732 Clear 26 1016 58 10000 2.1 340 02:45 24.07.2019
4733 Clear 23 1016 61 10000 2.1 320 01:30 24.07.2019
4734 Clear 24 1016 69 10000 2.6 300 00:57 24.07.2019
4735 Clear 24 1016 69 10000 2.6 300 00:57 24.07.2019
4736 Clear 23 1017 65 10000 2.1 300 00:23 24.07.2019
4737 Clear 25 1017 74 10000 1.5 210 23:42 23.07.2019
4738 Clear 25 1017 74 10000 1.5 210 23:42 23.07.2019
4739 Clear 25 1017 74 10000 1.5 210 23:24 23.07.2019
4740 Clear 22 1017 74 10000 1.5 230 22:40 23.07.2019
4741 Clear 22 1017 74 10000 1.5 230 22:20 23.07.2019
4742 Clear 23 1017 74 10000 2.1 210 21:59 23.07.2019
4743 Clear 23 1016 74 10000 2.1 210 21:41 23.07.2019
4744 Clear 28 1016 74 10000 2.1 210 21:23 23.07.2019
4745 Clear 29 1016 74 10000 2.6 190 20:48 23.07.2019
4746 Clear 29 1017 78 10000 2.1 190 20:26 23.07.2019
4747 Clear 26 1017 70 10000 2.1 180 19:43 23.07.2019
4748 Clear 26 1017 70 10000 2.1 180 19:23 23.07.2019
4749 Clouds 28 1017 62 10000 2.1 180 18:53 23.07.2019
4750 Clouds 31 1017 62 10000 1.5 180 18:25 23.07.2019
4751 Clouds 30 1017 62 10000 2.1 180 17:58 23.07.2019
4752 Clouds 30 1018 66 10000 2.6 180 17:40 23.07.2019
4753 Clouds 30 1018 66 10000 2.6 180 17:20 23.07.2019
4754 Clouds 31 1018 70 10000 2.6 190 16:41 23.07.2019
4755 Clouds 31 1018 70 10000 2.6 190 16:22 23.07.2019
4756 Clouds 31 1018 66 10000 2.6 180 15:47 23.07.2019
4757 Clouds 30 1018 70 10000 2.6 170 15:27 23.07.2019
4758 Clouds 30 1019 70 10000 2.6 150 14:41 23.07.2019
4759 Clouds 30 1019 70 10000 2.6 150 14:23 23.07.2019
4760 Clouds 30 1019 66 10000 2.6 150 13:59 23.07.2019
4761 Clouds 30 1019 66 10000 2.1 150 13:41 23.07.2019
4762 Clouds 30 1019 66 10000 2.1 150 13:23 23.07.2019
4763 Clouds 30 1019 70 10000 2.1 100 12:49 23.07.2019
4764 Clouds 30 1019 70 10000 1.5 120 12:27 23.07.2019
4765 Clouds 30 1019 70 10000 1.5 120 11:59 23.07.2019
4766 Clouds 29 1019 74 10000 2.6 100 11:40 23.07.2019
4767 Clouds 29 1019 74 10000 2.6 100 11:20 23.07.2019
4768 Clouds 31 1019 74 10000 3.1 90 10:42 23.07.2019
4769 Clear 30 1019 65 10000 2.6 110 10:22 23.07.2019
4770 Clear 30 1019 51 10000 2.1 60 09:42 23.07.2019
4771 Clear 29 1019 51 10000 2.1 60 09:20 23.07.2019
4772 Clear 27 1019 54 10000 3.6 350 08:44 23.07.2019
4773 Clear 26 1019 54 10000 3.6 350 08:20 23.07.2019
4774 Clear 26 1019 57 10000 2.1 350 07:56 23.07.2019
4775 Clear 25 1019 61 10000 2.1 350 07:37 23.07.2019
4776 Clear 24 1019 61 10000 3.1 330 06:50 23.07.2019
4777 Clear 24 1019 61 10000 2.1 320 06:31 23.07.2019
4778 Clear 24 1019 65 10000 2.1 340 04:26 23.07.2019
4779 Clear 24 1019 61 10000 1.5 330 01:37 23.07.2019
4780 Clear 24 1019 65 10000 2.1 330 00:37 23.07.2019
4781 Clear 24 1019 65 10000 2.1 330 00:18 23.07.2019
4782 Clear 24 1019 74 10000 2.1 280 23:39 22.07.2019
4783 Clear 24 1019 74 10000 2.1 280 23:19 22.07.2019
4784 Clear 23 1020 78 10000 2.1 240 22:45 22.07.2019
4785 Clear 23 1020 74 10000 1.5 210 22:23 22.07.2019
4786 Clear 23 1019 74 10000 1 190 21:44 22.07.2019
4787 Clear 26 1019 74 10000 1 190 21:24 22.07.2019
4788 Clear 26 1020 69 10000 1.5 190 20:59 22.07.2019
4789 Clear 27 1020 69 10000 2.1 190 20:41 22.07.2019
4790 Clear 27 1020 69 10000 2.1 190 20:21 22.07.2019
4791 Clear 27 1020 69 10000 2.1 180 19:42 22.07.2019
4792 Clear 28 1020 61 10000 2.1 170 19:22 22.07.2019
4793 Clouds 28 1020 61 10000 2.1 180 18:48 22.07.2019
4794 Clouds 28 1020 65 10000 2.6 160 18:28 22.07.2019
4795 Clouds 28 1020 65 10000 2.1 160 17:59 22.07.2019
4796 Clouds 28 1020 61 10000 2.1 170 17:38 22.07.2019
4797 Clouds 28 1020 61 10000 2.1 170 17:38 22.07.2019
4798 Clouds 28 1020 61 10000 2.1 170 17:20 22.07.2019
4799 Clouds 29 1021 61 10000 2.1 170 16:41 22.07.2019
4800 Clouds 29 1021 61 10000 2.1 170 16:41 22.07.2019
4801 Clouds 29 1021 61 10000 2.1 170 16:21 22.07.2019
4802 Clouds 28 1021 65 10000 2.1 160 15:46 22.07.2019
4803 Clouds 28 1021 65 10000 2.6 160 15:22 22.07.2019
4804 Clouds 28 1021 69 10000 2.6 150 14:59 22.07.2019
4805 Clouds 28 1022 69 10000 2.1 160 14:41 22.07.2019
4806 Clouds 28 1022 69 10000 2.1 160 14:19 22.07.2019
4807 Clouds 28 1022 74 10000 1.5 0 13:44 22.07.2019
4808 Clouds 28 1022 74 10000 2.1 130 13:22 22.07.2019
4809 Clouds 27 1022 74 10000 1.5 130 12:43 22.07.2019
4810 Clouds 27 1022 74 10000 1.5 130 12:23 22.07.2019
4811 Clouds 27 1022 69 10000 1.5 150 11:44 22.07.2019
4812 Clouds 27 1022 69 10000 1.5 150 11:20 22.07.2019
4813 Clouds 27 1022 69 10000 1 0 10:43 22.07.2019
4814 Clouds 26 1022 74 10000 1.5 0 10:25 22.07.2019
4815 Clouds 26 1022 69 10000 1.5 0 09:43 22.07.2019
4816 Clouds 25 1022 69 10000 1 0 09:24 22.07.2019
4817 Clouds 24 1022 73 10000 2.6 320 08:44 22.07.2019
4818 Clouds 23 1021 73 10000 2.6 330 08:25 22.07.2019
4819 Clouds 22 1021 73 10000 3.6 330 07:55 22.07.2019
4820 Clouds 21 1021 78 10000 3.6 330 07:32 22.07.2019
4821 Clouds 21 1021 78 10000 3.1 330 06:44 22.07.2019
4822 Clouds 21 1021 78 10000 2.6 320 03:55 22.07.2019
4823 Clouds 22 1021 73 10000 1.5 90 02:24 22.07.2019
4824 Clear 21 1021 74 10000 2.1 80 00:56 22.07.2019
4825 Clear 21 1021 73 10000 1 0 00:25 22.07.2019
4826 Clear 21 1021 73 10000 0.5 100 23:55 21.07.2019
4827 Clear 21 1021 73 10000 0.5 100 23:55 21.07.2019
4828 Clear 21 1021 69 10000 1 0 23:31 21.07.2019
4829 Clear 21 1020 69 10000 1 0 22:42 21.07.2019
4830 Clear 21 1020 69 10000 1 0 22:23 21.07.2019
4831 Clear 21 1020 69 10000 2.1 180 21:58 21.07.2019
4832 Clear 21 1020 69 10000 2.1 170 21:38 21.07.2019
4833 Clear 23 1020 69 10000 2.1 170 21:20 21.07.2019
4834 Clear 24 1020 69 10000 2.1 170 20:54 21.07.2019
4835 Clear 24 1020 69 10000 2.1 170 20:36 21.07.2019
4836 Clear 24 1020 69 10000 2.1 170 20:18 21.07.2019
4837 Clear 24 1019 69 10000 3.1 160 19:41 21.07.2019
4838 Clear 25 1019 69 10000 3.1 160 19:21 21.07.2019
4839 Clouds 24 1019 69 10000 3.1 160 18:46 21.07.2019
4840 Clouds 26 1020 65 10000 3.1 160 18:25 21.07.2019
4841 Clouds 27 1020 65 10000 2.6 140 17:42 21.07.2019
4842 Clouds 26 1020 69 10000 2.6 140 17:20 21.07.2019
4843 Clouds 27 1020 69 10000 3.1 150 16:57 21.07.2019
4844 Clouds 27 1020 74 10000 3.1 150 16:38 21.07.2019
4845 Clouds 27 1020 74 10000 3.1 150 16:20 21.07.2019
4846 Clouds 27 1020 69 10000 4.1 170 15:37 21.07.2019
4847 Clouds 27 1020 69 10000 4.1 170 15:18 21.07.2019
4848 Clouds 27 1020 74 10000 3.6 140 14:41 21.07.2019
4849 Clouds 28 1020 74 10000 3.6 140 14:22 21.07.2019
4850 Clouds 28 1020 74 10000 3.6 130 13:51 21.07.2019
4851 Clouds 27 1020 69 10000 3.6 130 13:30 21.07.2019
4852 Clouds 26 1020 69 10000 3.1 120 12:44 21.07.2019
4853 Clouds 26 1020 74 10000 2.6 120 12:25 21.07.2019
4854 Clouds 25 1020 74 10000 2.6 120 11:51 21.07.2019
4855 Clouds 27 1020 78 10000 2.1 160 11:31 21.07.2019
4856 Clouds 27 1020 78 10000 2.6 160 10:58 21.07.2019
4857 Clouds 26 1020 74 10000 2.1 140 10:40 21.07.2019
4858 Clouds 26 1020 74 10000 2.1 140 10:22 21.07.2019
4859 Clouds 25 1020 78 10000 1 0 09:38 21.07.2019
4860 Clouds 23 1020 78 10000 1 0 09:20 21.07.2019
4861 Clouds 22 1020 73 10000 1 0 08:45 21.07.2019
4862 Clouds 22 1020 73 10000 1 0 08:45 21.07.2019
4863 Clouds 22 1020 73 10000 1.5 350 08:26 21.07.2019
4864 Clouds 21 1020 78 10000 2.6 340 07:38 21.07.2019
4865 Clouds 19 1019 78 10000 2.6 330 06:52 21.07.2019
4866 Clouds 19 1019 78 10000 3.1 330 05:43 21.07.2019
4867 Clouds 21 1019 83 10000 2.1 320 02:53 21.07.2019
4868 Clouds 20 1019 78 10000 1.5 310 01:19 21.07.2019
4869 Clouds 20 1019 83 10000 1.5 240 00:41 21.07.2019
4870 Clouds 20 1019 83 10000 1.5 240 00:18 21.07.2019
4871 Clouds 20 1019 78 10000 1.5 190 23:42 20.07.2019
4872 Clouds 20 1019 78 10000 1.5 190 23:21 20.07.2019
4873 Clouds 20 1019 78 10000 1.5 210 22:45 20.07.2019
4874 Clouds 20 1019 78 10000 1.5 0 22:22 20.07.2019
4875 Clear 20 1018 78 10000 1 150 21:57 20.07.2019
4876 Clear 20 1018 78 10000 1.5 0 21:38 20.07.2019
4877 Clear 24 1018 78 10000 1.5 0 21:20 20.07.2019
4878 Clouds 24 1018 74 10000 1.5 180 20:41 20.07.2019
4879 Clouds 24 1018 74 10000 1.5 180 20:19 20.07.2019
4880 Clouds 24 1018 74 10000 2.1 160 19:45 20.07.2019
4881 Clouds 24 1018 74 10000 2.1 160 19:21 20.07.2019
4882 Clouds 26 1018 69 10000 2.6 140 18:44 20.07.2019
4883 Clouds 26 1018 69 10000 2.6 120 18:22 20.07.2019
4884 Clouds 26 1018 69 10000 2.6 120 17:55 20.07.2019
4885 Clouds 26 1018 74 10000 3.1 130 17:25 20.07.2019
4886 Clouds 26 1018 69 10000 3.1 120 16:45 20.07.2019
4887 Clouds 26 1019 74 10000 3.6 130 16:27 20.07.2019
4888 Clouds 26 1019 74 10000 3.6 130 15:58 20.07.2019
4889 Clouds 26 1019 69 10000 3.1 130 15:40 20.07.2019
4890 Clouds 27 1019 69 10000 3.1 130 15:20 20.07.2019
4891 Clouds 26 1019 69 10000 3.6 140 14:48 20.07.2019
4892 Clouds 26 1019 69 10000 3.1 130 14:29 20.07.2019
4893 Clouds 27 1019 69 10000 3.6 120 13:54 20.07.2019
4894 Clouds 27 1019 69 10000 3.1 130 13:36 20.07.2019
4895 Clouds 27 1019 69 10000 3.1 130 13:36 20.07.2019
4896 Clouds 27 1019 69 10000 3.1 130 13:36 20.07.2019
4897 Clouds 27 1019 69 10000 3.1 130 13:36 20.07.2019
4898 Clouds 26 1019 69 10000 3.1 130 13:18 20.07.2019
4899 Clouds 26 1019 69 10000 3.6 120 12:40 20.07.2019
4900 Clouds 26 1019 69 10000 3.6 120 12:18 20.07.2019
4901 Clouds 26 1018 74 10000 4.6 110 11:41 20.07.2019
4902 Clouds 26 1018 74 10000 4.6 110 11:20 20.07.2019
4903 Clouds 26 1018 74 10000 2.6 100 10:37 20.07.2019
4904 Clouds 26 1018 74 10000 2.6 100 10:37 20.07.2019
4905 Clouds 26 1018 74 10000 2.6 100 10:19 20.07.2019
4906 Clouds 25 1018 74 10000 3.1 100 09:46 20.07.2019
4907 Clouds 22 1018 73 10000 3.1 90 09:24 20.07.2019
4908 Clouds 23 1018 73 10000 2.1 60 08:49 20.07.2019
4909 Clouds 23 1017 65 10000 1.5 50 08:22 20.07.2019
4910 Clouds 21 1017 73 10000 2.6 330 07:35 20.07.2019
4911 Clouds 20 1017 73 10000 2.6 330 06:46 20.07.2019
4912 Clouds 20 1017 69 10000 4.1 330 05:24 20.07.2019
4913 Clouds 20 1016 82 10000 1.5 0 04:31 20.07.2019
4914 Clear 20 1016 83 10000 1.5 0 01:30 20.07.2019
4915 Clear 20 1016 83 10000 1.5 0 01:30 20.07.2019
4916 Clear 21 1016 83 10000 1.5 0 00:52 20.07.2019
4917 Clear 22 1016 83 10000 1 0 00:33 20.07.2019
4918 Clouds 22 1016 83 10000 0.5 0 23:57 19.07.2019
4919 Clouds 22 1016 83 10000 0.5 200 23:39 19.07.2019
4920 Clouds 22 1016 83 10000 0.5 200 23:20 19.07.2019
4921 Clouds 20 1016 78 10000 1 150 22:41 19.07.2019
4922 Clouds 20 1016 78 10000 1 150 22:20 19.07.2019
4923 Clouds 20 1016 78 10000 1 150 22:20 19.07.2019
4924 Clouds 20 1015 73 10000 1 0 21:43 19.07.2019
4925 Clouds 23 1015 73 10000 1 0 21:25 19.07.2019
4926 Clouds 23 1015 73 10000 1.5 170 20:44 19.07.2019
4927 Clouds 24 1015 73 10000 1.5 190 20:25 19.07.2019
4928 Clouds 23 1015 69 10000 2.1 170 19:40 19.07.2019
4929 Clouds 24 1015 69 10000 2.1 170 19:20 19.07.2019
4930 Clouds 24 1015 69 10000 2.1 170 19:20 19.07.2019
4931 Clouds 24 1015 74 10000 2.1 130 18:42 19.07.2019
4932 Clouds 26 1015 74 10000 2.1 130 18:21 19.07.2019
4933 Clouds 26 1015 74 10000 2.1 130 18:21 19.07.2019
4934 Clouds 26 1016 69 10000 2.1 130 17:50 19.07.2019
4935 Clouds 26 1016 74 10000 2.6 130 17:27 19.07.2019
4936 Clouds 26 1016 74 10000 1.5 130 16:48 19.07.2019
4937 Clouds 26 1016 74 10000 2.6 120 16:26 19.07.2019
4938 Clouds 25 1016 74 10000 3.1 130 15:50 19.07.2019
4939 Clouds 25 1016 74 10000 3.1 140 15:31 19.07.2019
4940 Clouds 26 1016 74 10000 3.1 150 14:57 19.07.2019
4941 Clouds 26 1016 74 10000 3.1 130 14:38 19.07.2019
4942 Clouds 26 1016 74 10000 3.1 130 14:20 19.07.2019
4943 Clouds 26 1016 74 10000 3.6 140 13:44 19.07.2019
4944 Clouds 26 1016 74 10000 3.6 140 13:44 19.07.2019
4945 Clouds 26 1016 74 10000 3.6 140 13:44 19.07.2019
4946 Clouds 26 1016 74 10000 4.6 120 13:44 19.07.2019
4947 Clouds 26 1016 74 10000 3.6 140 13:44 19.07.2019
4948 Clouds 26 1016 74 10000 4.6 120 13:25 19.07.2019
4949 Clouds 25 1016 69 10000 4.1 110 12:55 19.07.2019
4950 Clouds 25 1016 74 10000 4.1 120 12:31 19.07.2019
4951 Clouds 25 1016 74 10000 4.1 120 11:58 19.07.2019
4952 Clouds 25 1016 74 10000 3.6 120 11:40 19.07.2019
4953 Clouds 25 1016 74 10000 3.6 120 11:18 19.07.2019
4954 Clouds 25 1016 73 10000 2.6 110 10:41 19.07.2019
4955 Clouds 25 1016 73 10000 2.6 110 10:21 19.07.2019
4956 Clouds 25 1015 78 10000 2.6 100 09:57 19.07.2019
4957 Clouds 24 1015 73 10000 2.1 70 09:39 19.07.2019
4958 Clouds 24 1015 73 10000 2.1 70 09:20 19.07.2019
4959 Clouds 23 1015 64 10000 2.6 350 08:42 19.07.2019
4960 Clouds 21 1015 69 10000 3.1 340 07:53 19.07.2019
4961 Clouds 20 1015 73 10000 3.6 330 07:28 19.07.2019
4962 Clouds 19 1014 73 10000 2.6 330 05:55 19.07.2019
4963 Clouds 20 1014 83 10000 1.5 340 02:23 19.07.2019
4964 Clouds 19 1014 83 10000 1 300 01:18 19.07.2019
4965 Clouds 20 1014 83 10000 1 0 00:38 19.07.2019
4966 Clouds 22 1014 78 10000 1.5 120 23:45 18.07.2019
4967 Clouds 22 1013 83 10000 1.5 120 23:24 18.07.2019
4968 Clouds 18 1013 78 10000 1 0 22:59 18.07.2019
4969 Clouds 18 1013 78 10000 1 110 22:40 18.07.2019
4970 Clouds 18 1013 78 10000 1 110 22:19 18.07.2019
4971 Clouds 18 1012 78 10000 1 0 21:44 18.07.2019
4972 Clouds 23 1012 78 10000 1 0 21:26 18.07.2019
4973 Clouds 24 1012 78 10000 1.5 130 20:51 18.07.2019
4974 Clouds 24 1012 73 10000 2.1 120 20:29 18.07.2019
4975 Clouds 24 1012 73 10000 1.5 130 19:59 18.07.2019
4976 Clouds 24 1012 73 10000 2.1 160 19:40 18.07.2019
4977 Clouds 24 1012 73 10000 2.1 160 19:18 18.07.2019
4978 Clouds 23 1012 69 10000 2.1 140 18:42 18.07.2019
4979 Clouds 25 1012 69 10000 2.6 110 18:20 18.07.2019
4980 Clouds 25 1012 74 10000 3.1 120 17:44 18.07.2019
4981 Clouds 25 1012 74 10000 3.1 120 17:44 18.07.2019
4982 Clouds 25 1012 74 10000 4.6 100 17:24 18.07.2019
4983 Clouds 25 1012 74 10000 4.1 90 16:57 18.07.2019
4984 Clouds 25 1012 74 10000 3.6 100 16:39 18.07.2019
4985 Clouds 25 1012 74 10000 3.6 100 16:19 18.07.2019
4986 Clouds 25 1012 74 10000 2.6 100 15:51 18.07.2019
4987 Clouds 25 1012 69 10000 3.6 110 15:33 18.07.2019
4988 Clouds 25 1012 69 10000 4.1 110 14:53 18.07.2019
4989 Clouds 25 1012 69 10000 4.1 110 14:33 18.07.2019
4990 Clouds 25 1012 69 10000 4.6 110 13:50 18.07.2019
4991 Clouds 26 1012 69 10000 5.1 110 13:27 18.07.2019
4992 Clouds 25 1012 65 10000 3.6 100 12:54 18.07.2019
4993 Clouds 25 1012 69 10000 3.1 110 12:36 18.07.2019
4994 Clouds 25 1012 69 10000 3.1 110 12:18 18.07.2019
4995 Clouds 25 1012 69 10000 3.1 110 12:18 18.07.2019
4996 Clouds 26 1011 65 10000 3.6 100 11:46 18.07.2019
4997 Clouds 25 1011 65 10000 3.6 100 11:22 18.07.2019
4998 Clouds 25 1011 65 10000 3.6 90 10:51 18.07.2019
4999 Clouds 24 1011 69 10000 1.5 60 09:50 18.07.2019
5000 Clouds 23 1011 64 10000 3.1 330 09:27 18.07.2019
5001 Clouds 22 1011 64 10000 4.1 340 08:54 18.07.2019
5002 Clouds 21 1011 68 10000 4.1 330 08:25 18.07.2019
5003 Clouds 21 1011 73 10000 4.6 330 07:58 18.07.2019
5004 Clouds 20 1011 73 10000 4.1 340 07:35 18.07.2019
5005 Clouds 20 1011 77 10000 3.6 330 06:51 18.07.2019
5006 Clouds 20 1011 77 10000 4.1 330 06:26 18.07.2019
5007 Clouds 20 1010 78 10000 2.1 50 03:46 18.07.2019
5008 Clouds 20 1010 78 10000 2.6 10 02:50 18.07.2019
5009 Clouds 19 1011 78 10000 1.5 50 01:36 18.07.2019
5010 Clouds 20 1011 83 10000 1.33 357.12 00:22 18.07.2019
5011 Clouds 19 1011 83 10000 1 0 23:22 17.07.2019
5012 Clouds 19 1011 83 10000 1 0 22:59 17.07.2019
5013 Clouds 19 1011 83 10000 1 0 22:41 17.07.2019
5014 Clouds 19 1011 83 10000 1 0 22:22 17.07.2019
5015 Clouds 19 1011 83 10000 1.5 100 21:58 17.07.2019
5016 Clouds 20 1011 78 10000 2.1 120 21:38 17.07.2019
5017 Clouds 22 1011 78 10000 3.1 110 21:20 17.07.2019
5018 Clouds 23 1011 78 10000 3.1 110 20:56 17.07.2019
5019 Clouds 23 1011 78 10000 3.1 110 20:56 17.07.2019
5020 Clouds 23 1011 73 10000 3.1 110 20:38 17.07.2019
5021 Clouds 23 1011 73 10000 3.1 110 20:19 17.07.2019
5022 Clouds 24 1011 73 10000 3.6 100 19:42 17.07.2019
5023 Clouds 24 1011 73 10000 3.6 100 19:20 17.07.2019
5024 Clouds 25 1011 74 10000 4.1 100 18:45 17.07.2019
5025 Clouds 26 1012 74 10000 4.1 100 18:21 17.07.2019
5026 Clouds 26 1012 69 10000 4.6 110 17:59 17.07.2019
5027 Clouds 26 1012 69 10000 5.1 110 17:41 17.07.2019
5028 Clouds 25 1012 69 10000 5.1 110 17:22 17.07.2019
5029 Clouds 26 1012 69 10000 4.6 100 16:41 17.07.2019
5030 Clouds 26 1012 69 10000 4.6 100 16:22 17.07.2019
5031 Clouds 25 1012 69 10000 4.1 90 15:51 17.07.2019
5032 Clouds 26 1012 69 10000 3.6 90 15:31 17.07.2019
5033 Clouds 26 1013 73 10000 2.6 100 14:57 17.07.2019
5034 Clouds 25 1013 69 10000 3.6 100 14:39 17.07.2019
5035 Clouds 26 1013 74 10000 4.1 120 14:20 17.07.2019
5036 Clouds 26 1013 74 10000 4.1 120 13:49 17.07.2019
5037 Clouds 26 1013 69 10000 4.1 110 13:31 17.07.2019
5038 Clouds 26 1013 73 10000 4.6 110 12:59 17.07.2019
5039 Clouds 26 1013 74 10000 5.1 110 12:38 17.07.2019
5040 Clouds 25 1013 74 10000 5.1 110 12:19 17.07.2019
5041 Clouds 25 1013 78 10000 5.1 100 11:41 17.07.2019
5042 Clouds 25 1013 78 10000 5.1 100 11:19 17.07.2019
5043 Clear 26 1013 73 10000 5.1 90 10:48 17.07.2019
5044 Clear 25 1013 69 10000 4.6 90 10:24 17.07.2019
5045 Clear 25 1013 65 10000 3.6 90 09:45 17.07.2019
5046 Clear 24 1013 57 10000 2.6 50 09:27 17.07.2019
5047 Clear 23 1013 50 10000 2.6 50 08:45 17.07.2019
5048 Clear 22 1013 53 10000 2.6 350 08:24 17.07.2019
5049 Clear 21 1013 56 10000 3.1 330 07:59 17.07.2019
5050 Clear 20 1013 60 10000 3.6 330 07:40 17.07.2019
5051 Clear 20 1013 60 10000 3.6 330 07:21 17.07.2019
5052 Clear 19 1013 60 10000 4.1 340 06:45 17.07.2019
5053 Clear 19 1013 60 10000 3.1 340 06:24 17.07.2019
5054 Clear 20 1012 56 10000 2.1 330 05:38 17.07.2019
5055 Clear 20 1012 56 10000 2.6 330 04:58 17.07.2019
5056 Clear 20 1013 53 10000 2.6 330 03:55 17.07.2019
5057 Clear 20 1013 53 10000 3.1 330 02:44 17.07.2019
5058 Clear 18 1013 53 10000 3.1 330 01:42 17.07.2019
5059 Clear 18 1013 53 10000 3.1 330 01:22 17.07.2019
5060 Clear 20 1013 56 10000 2.6 330 00:43 17.07.2019
5061 Clear 20 1013 56 10000 2.6 330 00:23 17.07.2019
5062 Clear 20 1013 57 10000 3.1 20 23:47 16.07.2019
5063 Clear 21 1013 57 10000 3.1 30 23:28 16.07.2019
5064 Clear 20 1013 57 10000 1.85 0.587 22:57 16.07.2019
5065 Clear 20 1013 61 10000 2.1 230 22:39 16.07.2019
5066 Clear 20 1013 61 10000 2.1 230 22:19 16.07.2019
5067 Clear 20 1013 50 10000 2.6 210 21:43 16.07.2019
5068 Clear 24 1013 50 10000 2.6 210 21:20 16.07.2019
5069 Clear 24 1013 57 10000 2.6 200 20:56 16.07.2019
5070 Clear 25 1013 61 10000 4.1 200 20:38 16.07.2019
5071 Clear 26 1013 61 10000 4.1 200 20:19 16.07.2019
5072 Clear 26 1013 54 10000 4.6 220 19:44 16.07.2019
5073 Clouds 26 1013 47 10000 5.1 210 19:26 16.07.2019
5074 Clouds 25 1013 51 10000 5.7 220 18:45 16.07.2019
5075 Clouds 25 1014 51 10000 6.2 210 18:21 16.07.2019
5076 Clouds 26 1014 51 10000 6.2 220 17:58 16.07.2019
5077 Clouds 26 1014 54 10000 6.2 210 17:38 16.07.2019
5078 Clouds 26 1014 54 10000 6.2 210 17:20 16.07.2019
5079 Clouds 27 1014 54 10000 6.2 200 16:42 16.07.2019
5080 Clouds 26 1014 57 10000 6.7 210 16:20 16.07.2019
5081 Clouds 27 1014 54 10000 5.7 200 15:41 16.07.2019
5082 Clouds 27 1014 54 10000 5.7 200 15:21 16.07.2019
5083 Clouds 26 1014 54 10000 6.2 200 14:58 16.07.2019
5084 Clouds 27 1014 51 10000 6.2 190 14:40 16.07.2019
5085 Clouds 26 1014 51 10000 6.2 190 14:22 16.07.2019
5086 Clouds 27 1014 47 10000 6.2 190 13:45 16.07.2019
5087 Clouds 27 1014 47 10000 6.7 200 13:24 16.07.2019
5088 Clouds 27 1014 47 10000 5.1 190 12:54 16.07.2019
5089 Clouds 27 1014 47 10000 5.1 190 12:36 16.07.2019
5090 Clouds 26 1014 47 10000 5.1 190 12:18 16.07.2019
5091 Clear 26 1014 51 10000 4.1 180 11:42 16.07.2019
5092 Clear 26 1014 44 10000 2.6 180 11:23 16.07.2019
5093 Clear 27 1014 36 10000 1.5 0 10:55 16.07.2019
5094 Clear 26 1014 34 10000 1.5 0 10:37 16.07.2019
5095 Clear 26 1014 34 10000 1.5 0 10:18 16.07.2019
5096 Clear 25 1014 44 10000 4.6 330 09:42 16.07.2019
5097 Clear 21 1014 46 10000 5.1 330 09:19 16.07.2019
5098 Clear 22 1014 49 10000 5.1 320 08:43 16.07.2019
5099 Clear 20 1013 52 10000 5.7 330 08:22 16.07.2019
5100 Clear 20 1013 52 10000 5.7 330 08:22 16.07.2019
5101 Clear 19 1013 56 10000 6.7 330 07:49 16.07.2019
5102 Clear 19 1013 55 10000 6.2 330 07:31 16.07.2019
5103 Clear 18 1013 59 10000 5.7 330 06:53 16.07.2019
5104 Clear 18 1013 59 10000 6.2 330 06:31 16.07.2019
5105 Clear 18 1012 59 10000 5.7 330 05:44 16.07.2019
5106 Clear 18 1012 59 10000 5.7 330 05:24 16.07.2019
5107 Clear 18 1012 56 10000 6.2 310 04:23 16.07.2019
5108 Clear 18 1012 60 10000 5.1 320 03:34 16.07.2019
5109 Clear 18 1013 60 10000 3.1 320 02:41 16.07.2019
5110 Clear 18 1013 60 10000 3.1 320 02:18 16.07.2019
5111 Clear 19 1012 60 10000 3.1 310 00:59 16.07.2019
5112 Clear 19 1012 60 10000 4.1 320 00:22 16.07.2019
5113 Clear 20 1011 56 10000 3.6 310 23:55 15.07.2019
5114 Clear 20 1011 56 10000 4.6 320 23:37 15.07.2019
5115 Clouds 19 1011 53 10000 3.6 270 22:56 15.07.2019
5116 Clouds 19 1011 47 10000 2.6 330 22:37 15.07.2019
5117 Clouds 19 1011 47 10000 2.6 330 22:19 15.07.2019
5118 Clouds 19 1010 50 10000 2.1 340 21:42 15.07.2019
5119 Clouds 22 1010 47 10000 1.5 0 21:21 15.07.2019
5120 Clouds 22 1010 47 10000 2.1 20 20:58 15.07.2019
5121 Clouds 22 1009 47 10000 3.1 20 20:40 15.07.2019
5122 Clouds 22 1009 47 10000 3.1 20 20:22 15.07.2019
5123 Clouds 22 1009 49 10000 4.6 20 19:55 15.07.2019
5124 Clouds 22 1009 53 10000 4.1 20 19:37 15.07.2019
5125 Clouds 22 1009 53 10000 4.1 20 19:18 15.07.2019
5126 Clouds 23 1008 47 10000 4.6 40 18:43 15.07.2019
5127 Clouds 22 1008 47 10000 4.1 30 18:20 15.07.2019
5128 Rain 23 1008 41 10000 4.1 40 17:55 15.07.2019
5129 Clouds 21 1008 41 10000 4.6 40 17:37 15.07.2019
5130 Clouds 21 1008 41 10000 4.6 40 17:19 15.07.2019
5131 Clouds 23 1007 47 10000 3.1 330 16:40 15.07.2019
5132 Clouds 23 1007 47 10000 3.1 330 16:21 15.07.2019
5133 Clouds 22 1007 50 10000 3.6 280 15:59 15.07.2019
5134 Clouds 22 1007 53 10000 3.1 190 15:38 15.07.2019
5135 Clouds 22 1007 53 10000 3.1 190 15:20 15.07.2019
5136 Clouds 22 1007 57 10000 3.1 210 14:55 15.07.2019
5137 Rain 22 1006 57 10000 1.5 0 14:37 15.07.2019
5138 Rain 20 1006 57 10000 1.5 0 14:18 15.07.2019
5139 Rain 20 1006 60 10000 0.5 0 13:43 15.07.2019
5140 Rain 21 1006 64 10000 2.1 350 13:18 15.07.2019
5141 Rain 22 1005 68 10000 1 0 12:42 15.07.2019
5142 Rain 22 1005 68 10000 1 0 12:23 15.07.2019
5143 Rain 22 1006 72 10000 3.1 10 11:44 15.07.2019
5144 Rain 22 1005 64 10000 5.7 20 11:26 15.07.2019
5145 Rain 23 1005 56 10000 5.1 350 10:49 15.07.2019
5146 Rain 23 1005 64 10000 3.6 10 10:30 15.07.2019
5147 Clouds 23 1005 64 10000 4.6 20 09:58 15.07.2019
5148 Clouds 22 1005 64 10000 3.1 10 09:39 15.07.2019
5149 Clouds 22 1005 64 10000 3.1 10 09:18 15.07.2019
5150 Clouds 21 1005 73 10000 3.6 330 08:42 15.07.2019
5151 Clouds 21 1005 73 10000 3.6 330 08:23 15.07.2019
5152 Clouds 20 1005 68 10000 3.1 330 07:43 15.07.2019
5153 Clouds 20 1005 68 10000 2.1 10 07:21 15.07.2019
5154 Clouds 20 1005 68 10000 3.1 330 06:40 15.07.2019
5155 Clouds 20 1005 68 10000 3.1 330 06:18 15.07.2019
5156 Clouds 20 1005 68 10000 3.1 330 06:18 15.07.2019
5157 Clouds 20 1005 68 10000 3.1 330 05:38 15.07.2019
5158 Clouds 21 1006 64 10000 3.1 330 04:45 15.07.2019
5159 Clouds 20 1006 64 10000 3.1 330 04:21 15.07.2019
5160 Clouds 21 1006 60 10000 4.6 20 02:49 15.07.2019
5161 Clouds 22 1007 64 10000 5.1 20 01:55 15.07.2019
5162 Rain 22 1007 64 10000 7.7 20 01:33 15.07.2019
5163 Rain 20 1007 69 10000 7.7 10 00:53 15.07.2019
5164 Rain 20 1007 69 10000 7.7 10 00:53 15.07.2019
5165 Clouds 22 1007 60 10000 7.7 10 00:28 15.07.2019
5166 Clouds 22 1008 60 10000 7.2 10 23:58 14.07.2019
5167 Clouds 22 1008 57 10000 9.3 360 23:39 14.07.2019
5168 Clouds 23 1008 57 10000 9.3 360 23:19 14.07.2019
5169 Clouds 22 1008 61 10000 6.7 360 22:57 14.07.2019
5170 Clouds 24 1008 61 10000 4.1 340 22:38 14.07.2019
5171 Clouds 24 1008 61 10000 4.1 340 22:19 14.07.2019
5172 Rain 23 1007 47 10000 3.1 10 21:42 14.07.2019
5173 Rain 23 1007 47 10000 3.1 10 21:42 14.07.2019
5174 Rain 25 1007 47 10000 3.1 10 21:19 14.07.2019
5175 Rain 25 1007 47 10000 3.1 10 21:19 14.07.2019
5176 Clouds 25 1007 51 10000 3.6 80 20:57 14.07.2019
5177 Clouds 25 1007 51 10000 4.1 90 20:38 14.07.2019
5178 Clouds 26 1007 51 10000 4.1 90 20:19 14.07.2019
5179 Clouds 26 1007 54 10000 4.6 80 19:46 14.07.2019
5180 Clouds 25 1007 61 10000 5.1 70 19:28 14.07.2019
5181 Clouds 24 1007 65 10000 6.7 80 18:58 14.07.2019
5182 Clouds 25 1008 65 10000 6.2 90 18:40 14.07.2019
5183 Clouds 27 1008 65 10000 6.2 90 18:21 14.07.2019
5184 Clouds 27 1008 61 10000 6.7 90 17:54 14.07.2019
5185 Clouds 26 1008 61 10000 6.2 90 17:23 14.07.2019
5186 Clouds 26 1008 61 10000 5.7 100 16:53 14.07.2019
5187 Clouds 26 1008 61 10000 6.7 90 16:26 14.07.2019
5188 Clouds 26 1009 65 10000 7.2 90 15:57 14.07.2019
5189 Clouds 26 1009 65 10000 7.2 90 15:38 14.07.2019
5190 Clouds 28 1009 65 10000 7.2 90 15:19 14.07.2019
5191 Clouds 28 1009 65 10000 8.2 90 14:44 14.07.2019
5192 Clouds 27 1009 65 10000 8.2 90 14:20 14.07.2019
5193 Clouds 27 1009 65 10000 7.7 80 13:45 14.07.2019
5194 Clouds 28 1009 65 10000 7.7 80 13:23 14.07.2019
5195 Clouds 27 1010 62 10000 7.2 80 12:56 14.07.2019
5196 Clouds 27 1010 65 10000 6.7 90 12:37 14.07.2019
5197 Clouds 27 1010 65 10000 6.7 90 12:18 14.07.2019
5198 Clouds 27 1010 58 10000 7.2 100 11:45 14.07.2019
5199 Clouds 27 1010 65 10000 7.7 100 11:20 14.07.2019
5200 Clouds 27 1010 61 10000 7.2 90 10:43 14.07.2019
5201 Clouds 27 1010 65 10000 4.1 100 10:21 14.07.2019
5202 Clouds 27 1010 45 10000 1.5 0 09:48 14.07.2019
5203 Clouds 26 1010 44 10000 3.6 320 09:29 14.07.2019
5204 Clouds 25 1009 44 10000 4.6 320 08:46 14.07.2019
5205 Clouds 23 1009 50 10000 2.1 20 08:27 14.07.2019
5206 Clouds 22 1009 61 10000 4.1 90 07:43 14.07.2019
5207 Clouds 22 1009 61 10000 4.1 90 07:20 14.07.2019
5208 Clouds 22 1009 47 10000 3.1 340 05:46 14.07.2019
5209 Clouds 22 1009 44 10000 2.6 320 03:53 14.07.2019
5210 Clouds 22 1009 44 10000 3.1 340 03:34 14.07.2019
5211 Clouds 23 1009 44 10000 5.1 340 02:52 14.07.2019
5212 Clouds 22 1010 44 10000 2.6 330 02:23 14.07.2019
5213 Clouds 22 1010 44 10000 3.1 340 01:45 14.07.2019
5214 Clouds 22 1010 47 10000 2.6 320 01:24 14.07.2019
5215 Clear 22 1010 50 10000 3.6 330 00:41 14.07.2019
5216 Clear 23 1010 50 10000 3.6 330 00:20 14.07.2019
5217 Clear 23 1010 54 10000 1.5 330 23:57 13.07.2019
5218 Clear 23 1010 57 10000 2.1 310 23:38 13.07.2019
5219 Clear 24 1010 57 10000 2.1 310 23:20 13.07.2019
5220 Clear 21 1009 74 10000 1 220 22:41 13.07.2019
5221 Clear 21 1009 74 10000 1 220 22:21 13.07.2019
5222 Clear 21 1009 69 10000 2.1 200 21:48 13.07.2019
5223 Clouds 25 1009 69 10000 1.5 180 21:20 13.07.2019
5224 Clouds 26 1009 65 10000 1.5 150 20:51 13.07.2019
5225 Clouds 27 1008 65 10000 1.5 140 20:33 13.07.2019
5226 Clouds 27 1008 61 10000 1.5 130 19:50 13.07.2019
5227 Clouds 28 1008 58 10000 1.5 140 19:30 13.07.2019
5228 Clouds 28 1008 62 10000 2.1 140 18:47 13.07.2019
5229 Clouds 28 1008 61 10000 1.5 120 18:28 13.07.2019
5230 Clouds 28 1008 65 10000 2.1 110 17:56 13.07.2019
5231 Clouds 28 1008 65 10000 2.1 110 17:56 13.07.2019
5232 Clouds 28 1008 65 10000 2.1 100 17:37 13.07.2019
5233 Clouds 28 1009 65 10000 2.1 110 17:18 13.07.2019
5234 Clouds 28 1009 65 10000 2.1 110 16:42 13.07.2019
5235 Clouds 28 1009 65 10000 2.1 100 16:24 13.07.2019
5236 Clouds 28 1009 69 10000 2.6 120 15:46 13.07.2019
5237 Clouds 27 1009 69 10000 3.1 130 15:24 13.07.2019
5238 Clouds 27 1009 69 10000 3.6 130 14:47 13.07.2019
5239 Clouds 28 1009 65 10000 3.6 130 14:27 13.07.2019
5240 Clouds 27 1010 69 10000 3.6 140 13:58 13.07.2019
5241 Clouds 28 1010 69 10000 3.6 160 13:40 13.07.2019
5242 Clouds 28 1010 69 10000 3.6 160 13:19 13.07.2019
5243 Clouds 27 1010 65 10000 3.1 160 12:40 13.07.2019
5244 Clouds 27 1010 65 10000 3.1 160 12:22 13.07.2019
5245 Clouds 27 1010 69 10000 3.6 160 11:57 13.07.2019
5246 Clouds 27 1009 69 10000 3.6 170 11:20 13.07.2019
5247 Clouds 27 1009 69 10000 2.1 180 10:57 13.07.2019
5248 Clouds 26 1009 69 10000 1.5 0 10:39 13.07.2019
5249 Clouds 26 1009 69 10000 1.5 0 10:20 13.07.2019
5250 Clouds 25 1009 61 10000 2.1 330 09:41 13.07.2019
5251 Clouds 25 1009 61 10000 2.1 330 09:22 13.07.2019
5252 Clouds 23 1009 61 10000 3.6 320 08:46 13.07.2019
5253 Clouds 23 1008 64 10000 3.6 330 08:26 13.07.2019
5254 Clouds 21 1008 73 10000 3.1 330 07:31 13.07.2019
5255 Clouds 20 1008 73 10000 3.1 330 06:55 13.07.2019
5256 Clouds 20 1008 78 10000 4.1 320 06:29 13.07.2019
5257 Clear 21 1008 78 10000 3.1 320 05:38 13.07.2019
5258 Clear 21 1009 78 10000 2.1 320 04:39 13.07.2019
5259 Clear 21 1009 78 10000 2.1 320 04:18 13.07.2019
5260 Clear 21 1009 78 10000 2.6 320 03:40 13.07.2019
5261 Clear 22 1009 73 10000 2.6 330 02:41 13.07.2019
5262 Clear 21 1009 73 10000 2.1 320 01:46 13.07.2019
5263 Clear 21 1009 73 10000 1.5 320 01:20 13.07.2019
5264 Clear 22 1009 73 10000 1.5 320 00:58 13.07.2019
5265 Clear 22 1009 78 10000 0.5 0 00:20 13.07.2019
5266 Clear 23 1010 73 10000 1.5 280 23:49 12.07.2019
5267 Clear 23 1010 74 10000 1 200 23:30 12.07.2019
5268 Clear 21 1009 74 10000 1 160 22:57 12.07.2019
5269 Clear 21 1009 74 10000 0.5 130 22:38 12.07.2019
5270 Clear 21 1009 74 10000 0.5 130 22:18 12.07.2019
5271 Clear 21 1009 74 10000 1 0 21:41 12.07.2019
5272 Clouds 25 1009 74 10000 1.5 100 21:19 12.07.2019
5273 Clouds 25 1009 74 10000 1.5 100 21:19 12.07.2019
5274 Clouds 26 1010 69 10000 1.5 100 20:43 12.07.2019
5275 Clouds 26 1010 74 10000 2.1 90 20:22 12.07.2019
5276 Clouds 25 1010 74 10000 3.1 110 19:43 12.07.2019
5277 Clouds 26 1010 74 10000 3.1 110 19:25 12.07.2019
5278 Clouds 27 1010 69 10000 3.1 110 18:49 12.07.2019
5279 Clouds 27 1010 69 10000 3.1 120 18:23 12.07.2019
5280 Clouds 27 1010 69 10000 3.1 130 17:58 12.07.2019
5281 Clouds 27 1011 69 10000 3.1 140 17:38 12.07.2019
5282 Clouds 27 1011 69 10000 3.1 140 17:19 12.07.2019
5283 Clouds 27 1011 65 10000 3.1 150 16:36 12.07.2019
5284 Clouds 27 1011 65 10000 3.1 150 16:18 12.07.2019
5285 Clouds 28 1011 65 10000 3.1 150 15:38 12.07.2019
5286 Clouds 27 1011 65 10000 3.1 150 15:19 12.07.2019
5287 Clear 28 1011 66 10000 3.6 160 14:44 12.07.2019
5288 Clouds 27 1012 65 10000 3.1 120 14:21 12.07.2019
5289 Clouds 27 1012 65 10000 3.1 150 13:53 12.07.2019
5290 Clouds 27 1012 65 10000 3.1 160 13:32 12.07.2019
5291 Clouds 27 1012 65 10000 3.1 150 12:44 12.07.2019
5292 Clouds 28 1012 65 10000 2.6 160 12:24 12.07.2019
5293 Clouds 28 1012 61 10000 2.6 150 11:58 12.07.2019
5294 Clouds 26 1012 65 10000 3.1 150 11:39 12.07.2019
5295 Clouds 27 1012 65 10000 3.1 150 11:19 12.07.2019
5296 Clouds 27 1012 69 10000 3.1 120 10:41 12.07.2019
5297 Clouds 27 1012 69 10000 3.1 120 10:23 12.07.2019
5298 Clouds 26 1012 69 10000 3.1 90 09:53 12.07.2019
5299 Clouds 26 1012 69 10000 1.5 70 09:29 12.07.2019
5300 Clouds 25 1012 69 10000 1.5 0 08:52 12.07.2019
5301 Clouds 24 1012 73 10000 3.1 330 08:25 12.07.2019
5302 Clouds 23 1011 73 10000 2.1 340 07:54 12.07.2019
5303 Clouds 23 1011 73 10000 3.1 320 07:32 12.07.2019
5304 Clouds 23 1011 78 10000 2.6 70 06:51 12.07.2019
5305 Clouds 23 1011 74 10000 4.6 70 06:26 12.07.2019
5306 Clouds 23 1011 78 10000 5.7 80 05:24 12.07.2019
5307 Clouds 23 1011 78 10000 6.7 80 03:21 12.07.2019
5308 Clouds 19 1011 78 10000 3.1 70 01:39 12.07.2019
5309 Clouds 21 1011 78 10000 1.5 90 00:54 12.07.2019
5310 Clouds 23 1011 83 10000 1.5 0 00:20 12.07.2019
5311 Clouds 21 1011 78 10000 0.5 0 23:44 11.07.2019
5312 Clouds 21 1011 78 10000 1.31 3.508 23:26 11.07.2019
5313 Clouds 20 1011 78 10000 1 180 22:52 11.07.2019
5314 Clouds 21 1011 78 10000 1.5 170 22:27 11.07.2019
5315 Clouds 21 1011 78 10000 2.1 200 21:59 11.07.2019
5316 Clouds 20 1011 78 10000 2.6 190 21:40 11.07.2019
5317 Clouds 24 1011 78 10000 2.6 190 21:18 11.07.2019
5318 Clouds 25 1011 74 10000 2.1 170 20:42 11.07.2019
5319 Clouds 25 1011 74 10000 2.1 170 20:24 11.07.2019
5320 Clouds 25 1011 74 10000 2.1 160 19:59 11.07.2019
5321 Clouds 25 1011 74 10000 2.1 170 19:40 11.07.2019
5322 Clouds 25 1011 74 10000 2.1 170 19:22 11.07.2019
5323 Clouds 26 1011 78 10000 2.6 180 18:43 11.07.2019
5324 Clouds 27 1011 78 10000 2.6 180 18:25 11.07.2019
5325 Clouds 27 1012 78 10000 2.1 140 17:53 11.07.2019
5326 Clouds 27 1012 74 10000 2.1 160 17:31 11.07.2019
5327 Clouds 25 1012 74 10000 2.6 180 16:58 11.07.2019
5328 Clouds 26 1012 74 10000 2.6 170 16:40 11.07.2019
5329 Clouds 27 1012 74 10000 2.6 170 16:19 11.07.2019
5330 Clouds 27 1012 69 10000 3.1 180 16:19 11.07.2019
5331 Clouds 27 1012 69 10000 3.1 180 15:43 11.07.2019
5332 Clouds 27 1012 69 10000 2.6 180 15:24 11.07.2019
5333 Clouds 27 1012 65 10000 2.6 190 14:58 11.07.2019
5334 Clouds 27 1012 65 10000 2.6 180 14:38 11.07.2019
5335 Clouds 28 1012 65 10000 2.6 180 14:19 11.07.2019
5336 Clouds 27 1013 65 10000 3.1 180 13:42 11.07.2019
5337 Clouds 27 1013 69 10000 3.6 150 13:23 11.07.2019
5338 Clouds 28 1013 74 10000 4.6 130 12:39 11.07.2019
5339 Clouds 28 1013 74 10000 4.6 130 12:19 11.07.2019
5340 Clouds 28 1013 69 10000 4.6 140 11:50 11.07.2019
5341 Clouds 28 1013 69 10000 4.1 140 11:30 11.07.2019
5342 Clouds 28 1013 69 10000 4.1 130 10:54 11.07.2019
5343 Clouds 27 1013 69 10000 4.1 120 10:20 11.07.2019
5344 Clouds 27 1013 69 10000 3.6 110 09:58 11.07.2019
5345 Clouds 26 1013 58 10000 1.5 70 09:39 11.07.2019
5346 Clouds 26 1013 58 10000 1.5 70 09:21 11.07.2019
5347 Clouds 25 1013 61 10000 1.5 0 08:49 11.07.2019
5348 Clouds 24 1013 65 10000 2.6 330 08:22 11.07.2019
5349 Clouds 23 1012 65 10000 2.1 330 07:46 11.07.2019
5350 Clouds 23 1012 69 10000 3.6 340 07:28 11.07.2019
5351 Clouds 22 1012 69 10000 3.6 340 06:21 11.07.2019
5352 Clear 22 1011 73 10000 2.1 10 05:45 11.07.2019
5353 Clouds 22 1012 69 10000 3.1 330 05:26 11.07.2019
5354 Clouds 22 1012 73 10000 2.1 320 03:59 11.07.2019
5355 Clouds 23 1012 73 10000 3.1 330 02:37 11.07.2019
5356 Clouds 23 1012 73 10000 1.5 330 00:49 11.07.2019
5357 Clear 23 1012 69 10000 1 210 23:53 10.07.2019
5358 Clear 23 1012 69 10000 1.5 260 23:31 10.07.2019
5359 Clear 25 1012 65 10000 2.6 250 22:59 10.07.2019
5360 Clouds 26 1011 65 10000 2.6 250 22:41 10.07.2019
5361 Clouds 26 1011 65 10000 2.6 250 22:19 10.07.2019
5362 Clouds 24 1011 69 10000 2.1 230 21:44 10.07.2019
5363 Clouds 25 1011 78 10000 2.1 200 21:26 10.07.2019
5364 Clouds 26 1011 74 10000 2.6 200 20:54 10.07.2019
5365 Clouds 26 1011 74 10000 2.6 210 20:36 10.07.2019
5366 Clouds 26 1011 74 10000 2.6 210 20:18 10.07.2019
5367 Clouds 26 1011 78 10000 2.6 190 19:42 10.07.2019
5368 Clouds 26 1011 78 10000 2.6 190 19:21 10.07.2019
5369 Clouds 26 1011 74 10000 2.6 200 18:48 10.07.2019
5370 Clouds 27 1011 74 10000 2.6 190 18:25 10.07.2019
5371 Clouds 26 1010 69 10000 4.1 200 17:59 10.07.2019
5372 Clouds 27 1010 69 10000 3.6 190 17:40 10.07.2019
5373 Clouds 27 1010 69 10000 3.6 190 17:19 10.07.2019
5374 Clouds 28 1010 74 10000 3.6 190 16:22 10.07.2019
5375 Clouds 28 1010 74 10000 2.6 180 15:58 10.07.2019
5376 Clouds 28 1010 69 10000 3.6 190 15:39 10.07.2019
5377 Clouds 28 1010 69 10000 3.6 190 15:18 10.07.2019
5378 Clouds 28 1010 65 10000 4.1 190 14:39 10.07.2019
5379 Clouds 28 1010 65 10000 4.1 190 14:21 10.07.2019
5380 Clouds 28 1010 74 10000 4.1 190 13:44 10.07.2019
5381 Clouds 28 1010 74 10000 4.1 190 13:19 10.07.2019
5382 Clouds 28 1010 74 10000 4.1 190 13:19 10.07.2019
5383 Clouds 28 1010 74 10000 4.1 190 13:19 10.07.2019
5384 Clouds 28 1009 74 10000 3.1 190 12:55 10.07.2019
5385 Clouds 28 1009 69 10000 2.6 180 12:36 10.07.2019
5386 Clouds 27 1009 69 10000 2.6 180 12:18 10.07.2019
5387 Clouds 28 1009 65 10000 2.1 160 11:40 10.07.2019
5388 Clouds 28 1009 65 10000 2.1 160 11:20 10.07.2019
5389 Clear 27 1009 58 10000 1.5 130 10:41 10.07.2019
5390 Clear 27 1009 58 10000 1.5 130 10:19 10.07.2019
5391 Clear 27 1009 51 10000 3.1 320 09:44 10.07.2019
5392 Clear 26 1008 51 10000 3.1 340 09:21 10.07.2019
5393 Clear 25 1008 57 10000 4.1 320 08:50 10.07.2019
5394 Clear 23 1008 64 10000 3.6 340 08:29 10.07.2019
5395 Clear 21 1008 64 10000 5.1 340 07:54 10.07.2019
5396 Clear 21 1008 64 10000 4.1 340 07:31 10.07.2019
5397 Clear 21 1008 69 10000 3.6 340 06:42 10.07.2019
5398 Clear 21 1008 69 10000 3.6 330 05:44 10.07.2019
5399 Clear 21 1008 69 10000 5.1 320 04:36 10.07.2019
5400 Clear 22 1008 69 10000 5.1 330 03:38 10.07.2019
5401 Clouds 22 1009 65 10000 2.6 330 00:45 10.07.2019
5402 Clear 23 1009 65 10000 4.6 320 23:59 09.07.2019
5403 Clouds 24 1009 61 10000 4.1 320 23:41 09.07.2019
5404 Clouds 24 1009 61 10000 4.1 320 23:21 09.07.2019
5405 Clouds 21 1009 74 10000 2.6 40 22:41 09.07.2019
5406 Clouds 21 1009 74 10000 2.6 40 22:22 09.07.2019
5407 Clouds 21 1009 88 10000 3.6 70 21:56 09.07.2019
5408 Clouds 20 1009 83 10000 2.1 50 21:38 09.07.2019
5409 Clouds 25 1009 83 10000 2.1 50 21:19 09.07.2019
5410 Clouds 26 1009 88 10000 3.1 70 20:43 09.07.2019
5411 Clouds 26 1008 88 10000 5.1 90 20:24 09.07.2019
5412 Clouds 27 1008 78 10000 5.7 90 19:41 09.07.2019
5413 Clouds 27 1008 78 10000 5.7 90 19:21 09.07.2019
5414 Clouds 26 1009 58 10000 5.1 80 18:45 09.07.2019
5415 Clouds 28 1009 58 10000 5.1 80 18:23 09.07.2019
5416 Clouds 29 1009 51 10000 6.2 70 17:56 09.07.2019
5417 Clouds 29 1009 38 10000 5.7 30 17:37 09.07.2019
5418 Clouds 29 1009 38 10000 5.7 30 17:37 09.07.2019
5419 Clouds 29 1009 38 10000 5.7 30 17:18 09.07.2019
5420 Clouds 28 1009 42 10000 4.1 340 16:47 09.07.2019
5421 Clouds 27 1009 62 10000 2.6 140 16:24 09.07.2019
5422 Clouds 27 1010 45 10000 6.7 340 15:49 09.07.2019
5423 Clouds 27 1010 51 10000 8.7 350 15:31 09.07.2019
5424 Rain 26 1010 54 10000 9.3 340 14:55 09.07.2019
5425 Rain 25 1010 57 10000 8.2 360 14:37 09.07.2019
5426 Rain 24 1010 57 10000 8.2 360 14:18 09.07.2019
5427 Rain 26 1010 40 10000 8.2 360 13:43 09.07.2019
5428 Clouds 27 1010 40 10000 8.2 360 13:22 09.07.2019
5429 Clouds 29 1010 54 10000 4.1 20 12:40 09.07.2019
5430 Clouds 28 1010 54 10000 4.1 20 12:22 09.07.2019
5431 Rain 26 1011 74 10000 3.1 90 11:58 09.07.2019
5432 Rain 25 1011 74 10000 1 0 11:39 09.07.2019
5433 Rain 25 1011 74 10000 1 0 11:20 09.07.2019
5434 Rain 26 1010 74 10000 2.6 90 10:50 09.07.2019
5435 Clouds 27 1010 54 10000 1 0 10:31 09.07.2019
5436 Clouds 27 1010 45 10000 1.5 0 09:42 09.07.2019
5437 Clouds 26 1010 44 10000 1 0 09:22 09.07.2019
5438 Clouds 26 1010 44 10000 1 0 09:22 09.07.2019
5439 Clouds 25 1010 44 10000 0.5 0 08:55 09.07.2019
5440 Clouds 25 1010 50 10000 3.1 340 08:37 09.07.2019
5441 Clear 23 1017 61 10000 4.1 340 03:59 05.07.2019
5442 Clear 23 1017 61 10000 4.1 340 03:38 05.07.2019
5443 Clear 23 1017 61 10000 4.1 340 03:19 05.07.2019
5444 Clear 23 1017 61 10000 3.6 330 02:45 05.07.2019
5445 Clear 21 1016 57 10000 3.6 340 01:42 05.07.2019
5446 Clear 21 1016 57 10000 3.6 340 01:23 05.07.2019
5447 Clear 21 1016 57 10000 3.6 340 00:47 05.07.2019
5448 Clear 24 1016 57 10000 4.1 330 00:20 05.07.2019
5449 Clear 22 1016 61 10000 5.7 320 23:21 04.07.2019
5450 Clear 22 1016 54 10000 5.1 330 22:58 04.07.2019
5451 Clear 22 1016 54 10000 4.6 330 22:40 04.07.2019
5452 Clear 22 1016 54 10000 4.6 330 22:19 04.07.2019
5453 Clear 22 1016 51 10000 4.1 320 21:40 04.07.2019
5454 Clear 26 1016 51 10000 4.1 320 21:22 04.07.2019
5455 Clear 27 1016 51 10000 1 0 20:58 04.07.2019
5456 Clouds 27 1016 51 10000 2.6 330 20:37 04.07.2019
5457 Clouds 27 1016 51 10000 2.6 330 20:18 04.07.2019
5458 Clouds 24 1016 62 10000 3.1 270 19:41 04.07.2019
5459 Clouds 24 1016 62 10000 3.1 270 19:21 04.07.2019
5460 Clouds 24 1016 65 10000 2.1 200 18:46 04.07.2019
5461 Clouds 27 1016 65 10000 2.6 210 18:27 04.07.2019
5462 Thunderstorm 27 1016 62 10000 2.6 130 17:55 04.07.2019
5463 Clouds 28 1016 62 10000 1.5 0 17:37 04.07.2019
5464 Clouds 28 1016 62 10000 1.5 0 17:18 04.07.2019
5465 Clouds 28 1017 61 10000 2.1 130 15:43 04.07.2019
5466 Clouds 27 1017 58 10000 3.1 130 15:24 04.07.2019
5467 Thunderstorm 28 1017 66 10000 3.6 120 14:59 04.07.2019
5468 Clouds 28 1017 70 10000 4.1 130 14:38 04.07.2019
5469 Clouds 28 1017 70 10000 4.1 130 14:19 04.07.2019
5470 Clouds 28 1017 66 10000 4.6 120 13:56 04.07.2019
5471 Clouds 28 1017 66 10000 4.1 120 13:38 04.07.2019
5472 Clouds 28 1017 66 10000 4.1 120 13:19 04.07.2019
5473 Clouds 28 1017 62 10000 3.6 130 12:38 04.07.2019
5474 Clouds 28 1017 62 10000 3.6 130 12:19 04.07.2019
5475 Clouds 28 1017 66 10000 3.1 130 11:45 04.07.2019
5476 Clouds 28 1016 66 10000 2.6 130 11:20 04.07.2019
5477 Clouds 28 1016 58 10000 1.5 140 10:56 04.07.2019
5478 Clouds 28 1016 58 10000 1 0 10:38 04.07.2019
5479 Clouds 28 1016 58 10000 1 0 10:18 04.07.2019
5480 Clear 28 1016 39 10000 2.6 330 09:38 04.07.2019
5481 Clear 27 1016 39 10000 2.6 330 09:19 04.07.2019
5482 Clear 26 1016 42 10000 3.6 330 08:52 04.07.2019
5483 Clouds 24 1016 44 10000 4.6 330 08:18 04.07.2019
5484 Clouds 23 1015 47 10000 4.6 330 07:40 04.07.2019
5485 Clouds 23 1015 47 10000 4.6 330 07:19 04.07.2019
5486 Clear 22 1015 47 10000 4.1 330 06:32 04.07.2019
5487 Clear 23 1015 47 10000 3.6 330 05:43 04.07.2019
5488 Clear 23 1015 44 10000 2.6 340 04:59 04.07.2019
5489 Clear 20 1014 42 10000 1.5 340 02:23 04.07.2019
5490 Clear 23 1015 42 10000 1.5 0 01:27 04.07.2019
5491 Clear 21 1014 51 10000 2.6 10 00:51 04.07.2019
5492 Clear 26 1014 39 10000 3.1 350 23:53 03.07.2019
5493 Clear 26 1014 39 10000 1.5 10 23:21 03.07.2019
5494 Clear 24 1014 42 10000 2.1 350 22:57 03.07.2019
5495 Clear 24 1014 69 10000 1 0 22:38 03.07.2019
5496 Clear 24 1014 69 10000 1 0 22:20 03.07.2019
5497 Clouds 24 1014 74 10000 1.5 220 21:55 03.07.2019
5498 Clouds 24 1014 74 10000 3.6 220 21:36 03.07.2019
5499 Clouds 27 1013 74 10000 3.6 210 20:57 03.07.2019
5500 Clouds 27 1014 74 10000 3.6 230 20:37 03.07.2019
5501 Clouds 27 1014 74 10000 3.6 230 20:19 03.07.2019
5502 Clouds 24 1013 69 10000 4.1 220 19:45 03.07.2019
5503 Clouds 24 1013 66 10000 4.1 200 19:25 03.07.2019
5504 Clouds 26 1013 58 10000 3.6 180 18:45 03.07.2019
5505 Clouds 29 1013 55 10000 2.1 180 18:23 03.07.2019
5506 Clouds 30 1014 55 10000 1.5 0 17:51 03.07.2019
5507 Clouds 29 1014 58 10000 1.5 110 17:20 03.07.2019
5508 Clouds 30 1014 55 10000 2.1 110 16:58 03.07.2019
5509 Clouds 30 1014 55 10000 2.1 140 16:40 03.07.2019
5510 Clouds 29 1014 55 10000 2.1 140 16:19 03.07.2019
5511 Clear 30 1014 70 10000 3.1 170 15:47 03.07.2019
5512 Clouds 29 1014 58 10000 2.1 160 15:27 03.07.2019
5513 Clouds 29 1014 62 10000 2.1 170 14:51 03.07.2019
5514 Clouds 29 1015 58 10000 2.6 160 14:23 03.07.2019
5515 Clouds 29 1015 62 10000 2.6 160 13:50 03.07.2019
5516 Clouds 29 1015 66 10000 2.6 170 13:31 03.07.2019
5517 Clouds 29 1015 70 10000 2.6 160 12:54 03.07.2019
5518 Clear 29 1015 62 10000 2.6 140 12:21 03.07.2019
5519 Clear 29 1015 66 10000 2.6 130 11:58 03.07.2019
5520 Clear 29 1014 62 10000 3.6 130 11:39 03.07.2019
5521 Clear 28 1014 62 10000 3.6 130 11:20 03.07.2019
5522 Clear 29 1014 58 10000 3.6 90 10:41 03.07.2019
5523 Clear 29 1014 58 10000 3.6 90 10:22 03.07.2019
5524 Clear 26 1014 61 10000 3.1 80 09:42 03.07.2019
5525 Clear 26 1014 37 10000 3.1 50 09:21 03.07.2019
5526 Clear 27 1013 39 10000 5.1 340 08:53 03.07.2019
5527 Clear 27 1013 39 10000 5.1 340 08:53 03.07.2019
5528 Clear 26 1013 42 10000 3.6 340 08:32 03.07.2019
5529 Clear 25 1013 44 10000 3.6 330 07:57 03.07.2019
5530 Clear 24 1013 44 10000 3.6 330 07:36 03.07.2019
5531 Clear 24 1013 47 10000 3.6 340 06:52 03.07.2019
5532 Clear 23 1013 47 10000 4.1 330 05:53 03.07.2019
5533 Clear 23 1013 47 10000 4.6 340 05:24 03.07.2019
5534 Clear 23 1014 50 10000 3.1 330 03:50 03.07.2019
5535 Clear 24 1013 51 10000 2.1 360 02:43 03.07.2019
5536 Clear 21 1014 61 10000 1.5 0 01:23 03.07.2019
5537 Clear 21 1014 78 10000 1.5 250 00:58 03.07.2019
5538 Clear 21 1014 83 10000 1 0 00:36 03.07.2019
5539 Clear 24 1014 83 10000 2.1 220 23:54 02.07.2019
5540 Clear 25 1014 83 10000 1 200 23:36 02.07.2019
5541 Clear 25 1014 83 10000 1 200 23:18 02.07.2019
5542 Clear 25 1014 83 10000 1 200 22:41 02.07.2019
5543 Clear 25 1014 83 10000 1 200 22:23 02.07.2019
5544 Clear 26 1014 83 10000 1.5 190 21:58 02.07.2019
5545 Clear 24 1013 78 10000 2.1 180 21:39 02.07.2019
5546 Clear 26 1013 78 10000 2.1 180 21:20 02.07.2019
5547 Clear 27 1013 69 10000 1.5 190 20:42 02.07.2019
5548 Clear 27 1013 69 10000 1.5 190 20:24 02.07.2019
5549 Clear 27 1013 69 10000 2.6 190 19:59 02.07.2019
5550 Clear 26 1013 62 10000 2.1 190 19:40 02.07.2019
5551 Clear 26 1013 62 10000 2.1 190 19:21 02.07.2019
5552 Clouds 26 1013 62 10000 2.6 170 18:45 02.07.2019
5553 Clouds 29 1013 62 10000 2.6 170 18:18 02.07.2019
5554 Clouds 29 1014 62 10000 2.1 160 17:41 02.07.2019
5555 Clouds 29 1014 62 10000 2.1 160 17:22 02.07.2019
5556 Clouds 29 1014 62 10000 2.6 170 16:49 02.07.2019
5557 Clouds 30 1014 58 10000 2.6 180 16:31 02.07.2019
5558 Clouds 29 1014 58 10000 3.1 180 15:46 02.07.2019
5559 Clouds 29 1014 62 10000 3.6 180 15:25 02.07.2019
5560 Clouds 30 1014 62 10000 3.6 180 14:56 02.07.2019
5561 Clouds 30 1014 62 10000 4.1 180 14:38 02.07.2019
5562 Clouds 30 1014 62 10000 3.6 180 13:58 02.07.2019
5563 Clouds 30 1014 62 10000 3.6 170 13:36 02.07.2019
5564 Clouds 31 1014 62 10000 3.6 170 13:18 02.07.2019
5565 Clear 31 1015 55 10000 3.6 160 12:43 02.07.2019
5566 Clear 29 1014 58 10000 3.1 160 12:22 02.07.2019
5567 Clear 30 1015 48 10000 1.5 170 11:43 02.07.2019
5568 Clear 30 1015 48 10000 1.5 170 11:23 02.07.2019
5569 Clear 30 1015 43 10000 1.5 160 10:54 02.07.2019
5570 Clear 31 1015 40 10000 1 0 10:26 02.07.2019
5571 Clear 29 1015 45 10000 3.1 320 09:51 02.07.2019
5572 Clear 26 1015 48 10000 4.1 330 09:22 02.07.2019
5573 Clear 27 1015 51 10000 3.6 330 08:56 02.07.2019
5574 Clear 26 1015 54 10000 3.6 340 08:36 02.07.2019
5575 Clear 25 1015 57 10000 4.1 340 07:58 02.07.2019
5576 Clouds 24 1015 61 10000 4.1 340 07:21 02.07.2019
5577 Clouds 24 1015 61 10000 4.1 340 07:21 02.07.2019
5578 Clouds 24 1015 61 10000 3.1 330 06:55 02.07.2019
5579 Clouds 23 1015 61 10000 3.6 340 06:36 02.07.2019
5580 Clouds 23 1016 69 10000 4.1 330 05:26 02.07.2019
5581 Clear 23 1017 83 10000 3.1 320 02:37 02.07.2019
5582 Clouds 23 1017 78 10000 1 0 00:28 02.07.2019
5583 Clouds 25 1017 83 10000 3.1 100 23:32 01.07.2019
5584 Clear 26 1017 78 10000 1 0 22:54 01.07.2019
5585 Clouds 26 1016 83 10000 4.6 90 22:36 01.07.2019
5586 Clouds 26 1016 83 10000 4.6 90 22:18 01.07.2019
5587 Clouds 25 1016 69 10000 4.1 90 21:43 01.07.2019
5588 Clouds 26 1016 69 10000 4.1 90 21:24 01.07.2019
5589 Clouds 27 1016 69 10000 3.1 90 20:46 01.07.2019
5590 Clouds 27 1015 69 10000 2.6 130 20:20 01.07.2019
5591 Clouds 28 1015 78 10000 2.1 160 19:55 01.07.2019
5592 Clouds 28 1015 78 10000 2.1 150 19:36 01.07.2019
5593 Clouds 29 1015 78 10000 2.1 150 19:18 01.07.2019
5594 Clouds 28 1015 74 10000 2.1 160 18:43 01.07.2019
5595 Clouds 30 1015 70 10000 2.6 130 18:25 01.07.2019
5596 Clouds 29 1016 74 10000 2.6 130 17:46 01.07.2019
5597 Clouds 29 1016 70 10000 2.6 130 17:26 01.07.2019
5598 Clouds 29 1016 70 10000 2.6 130 16:57 01.07.2019
5599 Clouds 29 1016 70 10000 3.1 130 16:39 01.07.2019
5600 Clouds 30 1016 70 10000 3.1 130 16:20 01.07.2019
5601 Clouds 29 1017 70 10000 3.1 120 15:43 01.07.2019
5602 Clouds 29 1017 70 10000 3.6 110 15:23 01.07.2019
5603 Clouds 29 1017 74 10000 3.6 120 14:44 01.07.2019
5604 Clouds 29 1017 70 10000 3.1 110 14:20 01.07.2019
5605 Clouds 30 1018 74 10000 3.1 120 13:48 01.07.2019
5606 Clouds 30 1018 70 10000 3.1 120 13:24 01.07.2019
5607 Clouds 29 1018 62 10000 3.1 130 12:57 01.07.2019
5608 Clouds 29 1018 62 10000 3.1 140 12:38 01.07.2019
5609 Clouds 29 1018 62 10000 3.1 140 12:20 01.07.2019
5610 Clouds 30 1018 58 10000 2.6 140 11:45 01.07.2019
5611 Clouds 29 1018 54 10000 2.1 140 11:23 01.07.2019
5612 Clouds 30 1018 58 10000 1.5 130 10:48 01.07.2019
5613 Clear 30 1018 58 10000 1 0 10:25 01.07.2019
5614 Clear 30 1018 58 10000 1 0 09:59 01.07.2019
5615 Clear 29 1018 58 10000 1 0 09:40 01.07.2019
5616 Clear 28 1018 58 10000 1 0 09:22 01.07.2019
5617 Clear 26 1018 45 10000 2.1 340 08:39 01.07.2019
5618 Clear 26 1018 45 10000 2.1 340 08:21 01.07.2019
5619 Clear 25 1017 50 10000 5.1 360 07:29 01.07.2019
5620 Clear 24 1017 54 10000 2.6 350 06:39 01.07.2019
5621 Clear 24 1017 54 10000 3.6 360 02:48 01.07.2019
5622 Clear 22 1018 54 10000 1 0 00:51 01.07.2019
5623 Clear 23 1018 78 10000 1.5 40 00:30 01.07.2019
5624 Clear 23 1018 65 10000 1 50 23:58 30.06.2019
5625 Clear 27 1018 51 10000 1 0 23:23 30.06.2019
5626 Clear 22 1018 65 10000 3.1 200 22:54 30.06.2019
5627 Clear 24 1018 54 10000 1 0 22:22 30.06.2019
5628 Clear 25 1017 65 10000 1 0 21:57 30.06.2019
5629 Clouds 25 1018 69 10000 1.66 9.314 21:38 30.06.2019
5630 Clouds 28 1018 69 10000 1.57 162.107 21:18 30.06.2019
5631 Clouds 29 1018 66 10000 1.5 0 20:41 30.06.2019
5632 Clouds 29 1018 66 10000 1.5 0 20:22 30.06.2019
5633 Clouds 29 1018 66 10000 2.1 140 19:48 30.06.2019
5634 Clouds 30 1018 55 10000 1 0 19:25 30.06.2019
5635 Clouds 30 1018 66 10000 1 0 18:48 30.06.2019
5636 Clouds 30 1017 74 10000 2.6 130 18:22 30.06.2019
5637 Clouds 31 1018 62 10000 3.1 120 17:41 30.06.2019
5638 Clouds 31 1018 62 10000 3.1 120 17:20 30.06.2019
5639 Clouds 31 1018 66 10000 2.6 110 16:56 30.06.2019
5640 Clouds 30 1018 66 10000 2.6 120 16:37 30.06.2019
5641 Clouds 31 1018 66 10000 2.6 120 16:18 30.06.2019
5642 Clouds 31 1018 58 10000 2.6 90 15:36 30.06.2019
5643 Clouds 31 1018 58 10000 2.6 90 15:18 30.06.2019
5644 Clouds 31 1018 58 10000 3.1 80 14:45 30.06.2019
5645 Clouds 31 1018 62 10000 3.1 80 14:27 30.06.2019
5646 Clouds 31 1019 62 10000 4.1 90 13:43 30.06.2019
5647 Clear 31 1018 59 10000 4.6 180 13:23 30.06.2019
5648 Clouds 31 1019 70 10000 3.6 130 12:48 30.06.2019
5649 Clouds 30 1018 70 10000 4.1 160 12:25 30.06.2019
5650 Clouds 30 1018 74 10000 3.6 150 11:55 30.06.2019
5651 Clouds 30 1018 70 10000 3.1 130 11:37 30.06.2019
5652 Clouds 30 1018 70 10000 3.1 130 11:18 30.06.2019
5653 Clouds 32 1018 49 10000 2.1 330 10:40 30.06.2019
5654 Clouds 32 1018 49 10000 2.1 330 10:19 30.06.2019
5655 Clouds 31 1017 55 10000 3.6 340 09:44 30.06.2019
5656 Clouds 31 1017 55 10000 3.6 340 09:44 30.06.2019
5657 Clouds 30 1017 55 10000 3.6 340 09:23 30.06.2019
5658 Clouds 29 1017 58 10000 3.6 340 08:59 30.06.2019
5659 Clouds 29 1017 62 10000 3.1 340 08:38 30.06.2019
5660 Clouds 28 1017 62 10000 3.1 340 08:18 30.06.2019
5661 Clouds 27 1017 65 10000 3.1 340 07:38 30.06.2019
5662 Clouds 26 1017 65 10000 3.1 340 07:19 30.06.2019
5663 Clouds 25 1017 65 10000 2.6 340 06:18 30.06.2019
5664 Clear 26 1016 69 10000 4.1 340 03:25 30.06.2019
5665 Clear 25 1016 65 10000 4.1 340 01:31 30.06.2019
5666 Clear 25 1017 65 10000 3.6 330 00:38 30.06.2019
5667 Clear 25 1017 65 10000 3.6 330 00:38 30.06.2019
5668 Clear 25 1017 65 10000 3.6 330 00:38 30.06.2019
5669 Clear 26 1017 65 10000 3.6 330 00:18 30.06.2019
5670 Clear 27 1016 62 10000 1.98 353.9 23:36 29.06.2019
5671 Clear 27 1016 62 10000 1.98 353.9 23:18 29.06.2019
5672 Clear 24 1016 55 10000 1.5 40 22:42 29.06.2019
5673 Clear 26 1016 66 10000 1 40 22:21 29.06.2019
5674 Clear 26 1016 70 10000 1.5 40 21:52 29.06.2019
5675 Clear 28 1016 70 10000 3.1 90 21:23 29.06.2019
5676 Clear 29 1016 62 10000 2.1 70 20:45 29.06.2019
5677 Clear 29 1016 58 10000 2.1 110 20:27 29.06.2019
5678 Clear 28 1016 55 10000 1 0 19:55 29.06.2019
5679 Clear 28 1016 58 10000 1 0 19:36 29.06.2019
5680 Clear 28 1016 58 10000 1 0 19:18 29.06.2019
5681 Clouds 29 1016 55 10000 1 110 18:44 29.06.2019
5682 Clouds 30 1016 55 10000 1 110 18:22 29.06.2019
5683 Clouds 31 1016 52 10000 1.5 0 17:37 29.06.2019
5684 Clouds 31 1016 52 10000 1.5 0 17:19 29.06.2019
5685 Clouds 31 1016 52 10000 1.5 160 16:42 29.06.2019
5686 Clouds 29 1016 62 10000 1 0 15:59 29.06.2019
5687 Clouds 31 1016 62 10000 1.5 0 15:32 29.06.2019
5688 Clouds 31 1016 70 10000 2.1 0 14:46 29.06.2019
5689 Clear 31 1016 70 10000 1 0 14:27 29.06.2019
5690 Clear 31 1016 70 10000 1.5 0 13:56 29.06.2019
5691 Clear 31 1017 70 10000 1.5 0 13:37 29.06.2019
5692 Clear 31 1017 70 10000 1.5 0 13:19 29.06.2019
5693 Clear 30 1016 74 10000 3.1 110 12:40 29.06.2019
5694 Clear 30 1016 74 10000 3.1 110 12:22 29.06.2019
5695 Clear 30 1016 74 10000 5.1 110 11:45 29.06.2019
5696 Clear 30 1016 66 10000 2.1 90 11:27 29.06.2019
5697 Clear 30 1015 48 10000 2.1 30 10:51 29.06.2019
5698 Clear 29 1015 48 10000 2.1 30 10:22 29.06.2019
5699 Clear 29 1016 45 10000 2.6 330 09:57 29.06.2019
5700 Clear 27 1015 51 10000 2.1 350 08:55 29.06.2019
5701 Clear 27 1015 58 10000 2.1 30 08:36 29.06.2019
5702 Clear 26 1014 47 10000 1.5 350 07:46 29.06.2019
5703 Clear 25 1014 50 10000 1.5 0 06:57 29.06.2019
5704 Clear 25 1014 54 10000 0.5 0 06:39 29.06.2019
5705 Clear 25 1014 54 10000 0.5 0 06:19 29.06.2019
5706 Clear 25 1014 94 6000 1.5 50 01:56 29.06.2019
5707 Mist 25 1014 94 5000 2.1 70 00:54 29.06.2019
5708 Mist 26 1014 94 4000 2.6 90 23:55 28.06.2019
5709 Clear 26 1014 94 7000 1.5 100 23:22 28.06.2019
5710 Clear 25 1013 94 10000 1.5 70 22:50 28.06.2019
5711 Clear 26 1013 88 10000 1 80 22:27 28.06.2019
5712 Clear 26 1013 88 10000 1 0 21:46 28.06.2019
5713 Clear 29 1012 88 10000 1 0 21:20 28.06.2019
5714 Clear 30 1012 79 10000 1.5 0 20:43 28.06.2019
5715 Clear 31 1012 79 10000 1.5 0 20:20 28.06.2019
5716 Clear 31 1013 66 10000 2.1 190 19:43 28.06.2019
5717 Clear 30 1013 66 10000 2.1 190 19:24 28.06.2019
5718 Clear 32 1013 74 10000 1.5 0 18:42 28.06.2019
5719 Clear 32 1013 74 10000 1.5 0 18:22 28.06.2019
5720 Clouds 33 1013 79 10000 1.5 160 17:54 28.06.2019
5721 Clouds 33 1013 79 10000 1.5 170 17:29 28.06.2019
5722 Clouds 32 1013 79 10000 1.5 0 16:48 28.06.2019
5723 Clouds 32 1013 83 10000 1.5 150 16:23 28.06.2019
5724 Clouds 32 1013 79 10000 1.5 110 15:48 28.06.2019
5725 Clouds 32 1013 79 10000 3.1 100 15:19 28.06.2019
5726 Clouds 32 1013 74 10000 4.1 110 14:42 28.06.2019
5727 Clouds 32 1014 70 10000 4.1 110 14:22 28.06.2019
5728 Clear 33 1014 70 10000 4.1 110 13:50 28.06.2019
5729 Clear 33 1014 66 10000 4.1 100 13:30 28.06.2019
5730 Clear 32 1014 70 10000 3.1 110 12:54 28.06.2019
5731 Clear 33 1013 70 10000 2.1 140 12:36 28.06.2019
5732 Clear 33 1013 70 10000 2.1 140 11:50 28.06.2019
5733 Clear 32 1013 70 10000 1.5 120 11:22 28.06.2019
5734 Clear 31 1013 66 10000 2.1 140 10:44 28.06.2019
5735 Clear 31 1013 66 10000 2.1 120 10:44 28.06.2019
5736 Clear 31 1013 66 10000 2.1 140 10:21 28.06.2019
5737 Clear 31 1013 65 10000 1.5 180 09:47 28.06.2019
5738 Clear 29 1014 65 10000 2.1 260 09:29 28.06.2019
5739 Clear 28 1013 69 10000 0.5 0 08:45 28.06.2019
5740 Clear 28 1013 69 10000 1 0 08:25 28.06.2019
5741 Clear 27 1013 69 10000 2.9 350.677 07:46 28.06.2019
5742 Clear 25 1013 73 10000 2.9 350.677 06:57 28.06.2019
5743 Clear 25 1013 73 10000 1 0 05:55 28.06.2019
5744 Clear 25 1015 69 10000 1 80 01:22 28.06.2019
5745 Clear 25 1015 69 10000 2.1 330 00:33 28.06.2019
5746 Clear 26 1015 58 10000 2.1 310 23:49 27.06.2019
5747 Clear 26 1015 52 10000 2.6 330 23:25 27.06.2019
5748 Clear 27 1015 52 10000 1.5 340 22:56 27.06.2019
5749 Clear 26 1015 69 10000 2.1 340 22:37 27.06.2019
5750 Clear 26 1015 69 10000 2.1 340 22:18 27.06.2019
5751 Clear 26 1015 66 10000 1.5 0 21:48 27.06.2019
5752 Clear 30 1015 66 10000 1 140 21:29 27.06.2019
5753 Clear 30 1016 66 10000 1.5 100 20:55 27.06.2019
5754 Clear 30 1016 62 10000 1.38 198.988 20:37 27.06.2019
5755 Clear 31 1016 62 10000 1.38 198.988 20:19 27.06.2019
5756 Clear 30 1016 62 10000 1.5 0 19:44 27.06.2019
5757 Clear 31 1016 62 10000 1.5 0 19:24 27.06.2019
5758 Clouds 32 1017 66 10000 1.5 170 18:42 27.06.2019
5759 Clouds 32 1017 66 10000 1.5 170 18:19 27.06.2019
5760 Clouds 32 1017 66 10000 2.1 160 17:43 27.06.2019
5761 Clouds 32 1017 66 10000 2.1 160 17:22 27.06.2019
5762 Clouds 32 1018 62 10000 1.5 150 16:40 27.06.2019
5763 Clouds 31 1018 62 10000 1.5 150 16:20 27.06.2019
5764 Clouds 32 1018 66 10000 2.1 130 15:55 27.06.2019
5765 Clouds 31 1019 66 10000 2.1 130 15:36 27.06.2019
5766 Clouds 31 1019 66 10000 2.1 130 15:36 27.06.2019
5767 Clear 32 1018 46 10000 3.6 160 14:58 27.06.2019
5768 Clear 32 1019 66 10000 1.5 130 14:39 27.06.2019
5769 Clear 32 1019 66 10000 1.5 130 14:39 27.06.2019
5770 Clear 32 1019 66 10000 1.5 130 14:19 27.06.2019
5771 Clear 33 1020 62 10000 2.1 110 13:43 27.06.2019
5772 Clear 33 1020 62 10000 2.1 110 13:25 27.06.2019
5773 Clear 32 1020 62 10000 1.5 110 12:49 27.06.2019
5774 Clear 31 1020 62 10000 2.1 90 12:31 27.06.2019
5775 Clear 31 1020 66 10000 3.1 110 11:48 27.06.2019
5776 Clear 31 1020 70 10000 4.1 90 11:24 27.06.2019
5777 Clear 32 1020 66 10000 5.1 90 10:59 27.06.2019
5778 Clear 32 1020 38 10000 3.1 330 10:41 27.06.2019
5779 Clear 32 1020 38 10000 3.1 330 10:20 27.06.2019
5780 Clear 32 1020 40 10000 4.1 330 09:49 27.06.2019
5781 Clear 31 1020 43 10000 5.1 330 09:21 27.06.2019
5782 Clear 29 1020 45 10000 5.1 340 08:51 27.06.2019
5783 Clear 27 1019 48 10000 5.7 340 08:29 27.06.2019
5784 Clear 27 1019 51 10000 4.6 340 07:48 27.06.2019
5785 Clear 25 1019 54 10000 5.1 340 07:24 27.06.2019
5786 Clear 25 1020 57 10000 4.6 340 06:37 27.06.2019
5787 Clear 24 1020 58 10000 5.1 340 03:53 27.06.2019
5788 Clear 25 1020 69 10000 1.5 360 02:43 27.06.2019
5789 Clear 24 1020 54 10000 3.6 340 01:46 27.06.2019
5790 Clear 24 1021 54 10000 4.6 340 00:54 27.06.2019
5791 Clear 24 1021 54 10000 4.1 340 00:36 27.06.2019
5792 Clear 24 1021 54 10000 4.1 340 00:18 27.06.2019
5793 Clear 25 1021 54 10000 4.1 340 23:24 26.06.2019
5794 Clear 25 1021 51 10000 3.6 340 22:59 26.06.2019
5795 Clear 25 1020 51 10000 2.6 350 22:41 26.06.2019
5796 Clear 25 1020 51 10000 2.6 350 22:23 26.06.2019
5797 Clear 26 1020 51 10000 2.1 330 21:55 26.06.2019
5798 Clear 25 1020 48 10000 0.5 0 21:37 26.06.2019
5799 Clear 28 1020 48 10000 0.5 0 21:19 26.06.2019
5800 Clear 29 1020 43 10000 1.5 0 20:43 26.06.2019
5801 Clear 30 1020 43 10000 1.5 0 20:25 26.06.2019
5802 Clear 30 1020 40 10000 1.5 0 19:48 26.06.2019
5803 Clear 29 1020 51 10000 1 0 19:30 26.06.2019
5804 Clear 31 1020 55 10000 1 0 18:54 26.06.2019
5805 Clear 31 1020 55 10000 1 0 18:36 26.06.2019
5806 Clear 32 1020 55 10000 1 0 18:18 26.06.2019
5807 Clouds 32 1021 55 10000 1 0 17:41 26.06.2019
5808 Clouds 32 1021 55 10000 1 0 17:23 26.06.2019
5809 Clouds 32 1021 58 10000 1.5 170 16:50 26.06.2019
5810 Clouds 31 1021 58 10000 1.5 130 16:28 26.06.2019
5811 Clear 32 1021 58 10000 2.1 130 15:48 26.06.2019
5812 Clear 32 1021 55 10000 1.5 140 15:27 26.06.2019
5813 Clear 31 1022 62 10000 1.5 150 14:42 26.06.2019
5814 Clear 31 1022 62 10000 1.5 150 14:21 26.06.2019
5815 Clear 31 1022 58 10000 1.5 160 13:45 26.06.2019
5816 Clear 30 1022 62 10000 2.1 170 13:21 26.06.2019
5817 Clear 31 1022 66 10000 2.6 160 12:52 26.06.2019
5818 Clear 30 1022 66 10000 2.1 150 12:33 26.06.2019
5819 Clear 29 1022 66 10000 4.1 160 11:55 26.06.2019
5820 Clear 29 1022 66 10000 4.6 170 11:25 26.06.2019
5821 Clear 30 1022 55 10000 2.6 170 10:51 26.06.2019
5822 Clear 32 1022 40 10000 1.5 0 10:31 26.06.2019
5823 Clear 31 1022 43 10000 3.1 330 09:51 26.06.2019
5824 Clear 29 1022 36 10000 4.1 340 09:29 26.06.2019
5825 Clear 28 1022 41 10000 4.6 340 08:52 26.06.2019
5826 Clear 27 1022 43 10000 5.1 330 08:22 26.06.2019
5827 Clear 26 1022 48 10000 5.1 330 07:57 26.06.2019
5828 Clear 25 1022 54 10000 5.1 330 07:38 26.06.2019
5829 Clear 23 1021 61 10000 2.1 30 06:33 26.06.2019
5830 Clear 23 1021 54 10000 4.6 330 01:59 26.06.2019
5831 Clear 23 1021 51 10000 4.1 330 00:35 26.06.2019
5832 Clear 24 1021 48 10000 3.6 330 23:57 25.06.2019
5833 Clear 24 1021 48 10000 3.6 330 23:38 25.06.2019
5834 Clear 24 1021 48 10000 3.6 330 23:19 25.06.2019
5835 Clear 26 1020 48 10000 1 20 22:41 25.06.2019
5836 Clear 25 1020 48 10000 1 20 22:22 25.06.2019
5837 Clear 25 1020 51 10000 1 80 21:46 25.06.2019
5838 Clear 27 1020 45 10000 1.48 141.667 21:26 25.06.2019
5839 Clear 28 1020 48 10000 1.5 200 20:50 25.06.2019
5840 Clear 28 1020 48 10000 1.5 200 20:49 25.06.2019
5841 Clear 28 1020 48 10000 1.5 200 20:49 25.06.2019
5842 Clear 27 1020 45 10000 1 140 20:24 25.06.2019
5843 Clear 27 1020 45 10000 1 130 19:57 25.06.2019
5844 Clear 28 1020 43 10000 1 100 19:38 25.06.2019
5845 Clear 28 1020 43 10000 1 100 19:20 25.06.2019
5846 Clear 28 1020 40 10000 1.5 90 18:42 25.06.2019
5847 Clear 30 1020 40 10000 1.5 90 18:24 25.06.2019
5848 -273 0 0 0 0 0 17:46 25.06.2019
5849 -273 0 0 0 0 0 17:26 25.06.2019
5850 -273 0 0 0 0 0 17:26 25.06.2019
5851 -273 0 0 0 0 0 17:26 25.06.2019
5852 -273 0 0 0 0 0 17:26 25.06.2019
5853 Clear 30 1020 42 10000 1.5 110 16:44 25.06.2019
5854 Clear 30 1020 40 10000 1.5 100 16:26 25.06.2019
5855 Clear 30 1020 42 10000 1.5 100 15:59 25.06.2019
5856 Clear 30 1021 51 10000 1.5 100 15:39 25.06.2019
5857 Clear 30 1021 51 10000 1.5 100 15:20 25.06.2019
5858 Clear 30 1021 54 10000 2.6 90 14:45 25.06.2019
5859 Clear 30 1021 54 10000 3.1 90 14:26 25.06.2019
5860 Clear 30 1021 54 10000 3.6 90 13:43 25.06.2019
5861 Clear 30 1021 54 10000 3.6 90 13:24 25.06.2019
5862 Clear 30 1021 54 10000 4.6 90 12:43 25.06.2019
5863 Clear 29 1021 54 10000 4.6 90 12:24 25.06.2019
5864 Clear 29 1021 54 10000 4.6 90 11:46 25.06.2019
5865 Clear 29 1021 54 10000 4.1 80 11:24 25.06.2019
5866 -273 0 0 0 0 0 10:58 25.06.2019
5867 Clear 29 1021 54 10000 3.1 90 10:57 25.06.2019
5868 Clear 30 1021 45 10000 2.6 80 10:37 25.06.2019
5869 Clear 30 1021 45 10000 2.6 80 10:18 25.06.2019
5870 Clear 29 1020 45 10000 3.6 330 09:39 25.06.2019
5871 Clear 26 1020 45 10000 3.6 330 09:21 25.06.2019
5872 Clear 27 1020 48 10000 4.6 330 08:52 25.06.2019
5873 Clear 26 1020 47 10000 3.6 340 08:31 25.06.2019
5874 Clear 24 1020 57 10000 3.1 40 07:44 25.06.2019
5875 Clear 24 1020 57 10000 3.1 40 07:25 25.06.2019
5876 Clear 24 1019 50 10000 3.1 340 06:44 25.06.2019
5877 Clear 19 1019 53 10000 3.6 340 05:58 25.06.2019
5878 Clear 22 1018 47 10000 3.6 330 02:43 25.06.2019
5879 Clear 22 1018 50 10000 3.6 340 00:56 25.06.2019
5880 Clear 22 1018 50 10000 4.1 340 00:20 25.06.2019
5881 Clear 22 1018 47 10000 3.1 330 23:51 24.06.2019
5882 Clear 22 1018 51 10000 2.6 320 23:32 24.06.2019
5883 Clear 22 1018 54 10000 1.5 70 22:48 24.06.2019
5884 Clear 22 1018 54 10000 1.5 70 22:22 24.06.2019
5885 Clear 23 1018 47 10000 1.5 40 21:58 24.06.2019
5886 Clear 23 1018 57 10000 2.6 90 21:37 24.06.2019
5887 Clear 23 1018 57 10000 2.6 90 21:37 24.06.2019
5888 Clear 25 1017 57 10000 2.1 90 21:18 24.06.2019
5889 Clear 26 1017 57 10000 2.1 90 20:43 24.06.2019
5890 Clear 27 1018 47 10000 1.5 100 20:23 24.06.2019
5891 Clear 26 1018 42 10000 1.5 130 19:59 24.06.2019
5892 Clear 27 1018 45 10000 1 0 19:40 24.06.2019
5893 Clear 26 1018 45 10000 1 0 19:21 24.06.2019
5894 Clear 27 1017 51 10000 1 0 18:42 24.06.2019
5895 Clear 28 1017 51 10000 1 0 18:23 24.06.2019
5896 Clear 28 1018 51 10000 1.5 0 17:37 24.06.2019
5897 Clear 28 1018 51 10000 1.5 0 17:37 24.06.2019
5898 Clear 28 1018 51 10000 1.5 0 17:19 24.06.2019
5899 Clear 28 1018 51 10000 1 0 16:45 24.06.2019
5900 Clear 28 1018 51 10000 1.5 0 16:20 24.06.2019
5901 Clear 28 1018 65 10000 1 0 15:44 24.06.2019
5902 Clear 28 1018 65 10000 1.5 0 15:25 24.06.2019
5903 Clear 28 1018 69 10000 2.1 130 14:39 24.06.2019
5904 Clear 28 1018 69 10000 2.1 130 14:21 24.06.2019
5905 Clear 28 1018 65 10000 2.1 130 13:44 24.06.2019
5906 Clear 28 1018 65 10000 2.1 140 13:23 24.06.2019
5907 Clear 28 1018 69 10000 1.5 110 12:42 24.06.2019
5908 Clear 27 1018 69 10000 1.5 110 12:20 24.06.2019
5909 Clear 27 1018 65 10000 1.5 120 11:45 24.06.2019
5910 Clear 27 1018 65 10000 2.1 110 11:27 24.06.2019
5911 Clear 27 1018 73 10000 2.1 150 10:53 24.06.2019
5912 Clear 27 1018 73 10000 2.1 150 10:53 24.06.2019
5913 Clear 26 1018 73 10000 2.1 160 10:34 24.06.2019
5914 Clear 26 1018 69 10000 1.5 120 09:59 24.06.2019
5915 Clear 25 1018 65 10000 1.5 80 09:41 24.06.2019
5916 Clear 25 1018 65 10000 1.5 80 09:19 24.06.2019
5917 Clear 23 1018 64 10000 0.5 0 08:41 24.06.2019
5918 Clear 23 1018 64 10000 0.5 0 08:18 24.06.2019
5919 Clear 21 1017 64 10000 0.62 15.692 07:41 24.06.2019
5920 Clear 20 1017 64 10000 0.62 15.692 07:22 24.06.2019
5921 Clear 19 1017 73 10000 1 0 06:24 24.06.2019
5922 Clear 18 1017 88 10000 1.5 330 05:41 24.06.2019
5923 Clear 19 1017 82 10000 2.04 358.793 04:46 24.06.2019
5924 Clear 19 1017 82 10000 2.04 358.793 03:49 24.06.2019
5925 Clear 18 1017 73 10000 1 0 02:48 24.06.2019
5926 Clear 18 1017 88 10000 1.5 300 01:55 24.06.2019
5927 Clear 18 1017 88 10000 1.5 290 01:33 24.06.2019
5928 Clear 18 1017 88 10000 1.5 270 00:55 24.06.2019
5929 Clear 20 1017 83 10000 1.5 260 00:21 24.06.2019
5930 Clear 20 1017 88 10000 1.45 0.912 23:58 23.06.2019
5931 Clear 20 1016 88 10000 1.45 0.912 23:40 23.06.2019
5932 Clear 21 1016 88 10000 1.45 0.912 23:20 23.06.2019
5933 Clear 19 1016 83 10000 0.5 120 22:41 23.06.2019
5934 Clear 20 1016 83 10000 0.5 120 22:20 23.06.2019
5935 Clear 19 1015 83 10000 1.5 190 21:42 23.06.2019
5936 Clear 22 1015 83 10000 1.5 190 21:22 23.06.2019
5937 Clear 22 1015 83 10000 1 0 20:52 23.06.2019
5938 Clear 23 1015 78 10000 1.5 170 20:32 23.06.2019
5939 Clear 23 1015 78 10000 2.1 180 19:56 23.06.2019
5940 Clear 24 1015 78 10000 2.6 170 19:38 23.06.2019
5941 Clear 23 1015 78 10000 2.6 170 19:19 23.06.2019
5942 Clear 24 1015 73 10000 2.6 150 18:44 23.06.2019
5943 Clouds 24 1015 78 10000 2.6 130 18:20 23.06.2019
5944 Clouds 25 1015 73 10000 2.6 150 17:42 23.06.2019
5945 Clouds 25 1015 73 10000 2.6 150 17:22 23.06.2019
5946 Clouds 25 1015 69 10000 2.1 120 16:45 23.06.2019
5947 Clouds 26 1015 69 10000 2.1 160 16:25 23.06.2019
5948 Clouds 25 1015 69 10000 3.1 180 15:55 23.06.2019
5949 Clouds 25 1015 65 10000 3.1 170 15:37 23.06.2019
5950 Clouds 25 1015 65 10000 3.1 170 15:18 23.06.2019
5951 Clouds 25 1015 65 10000 2.6 150 14:38 23.06.2019
5952 Clouds 25 1015 65 10000 2.6 150 14:20 23.06.2019
5953 Clouds 26 1015 69 10000 2.6 150 13:43 23.06.2019
5954 Clouds 25 1015 65 10000 2.6 140 13:21 23.06.2019
5955 Clouds 25 1015 69 10000 3.1 150 12:59 23.06.2019
5956 Clouds 25 1015 69 10000 4.1 170 12:40 23.06.2019
5957 Clouds 24 1015 69 10000 4.1 170 12:19 23.06.2019
5958 Clouds 24 1015 69 10000 4.1 170 12:19 23.06.2019
5959 Clear 24 1015 73 10000 2.6 170 11:46 23.06.2019
5960 Clear 25 1014 73 10000 2.1 140 11:27 23.06.2019
5961 Clear 25 1014 73 10000 2.1 150 10:49 23.06.2019
5962 Clear 24 1014 73 10000 1.5 150 10:21 23.06.2019
5963 Clear 24 1014 73 10000 1.5 140 09:58 23.06.2019
5964 Clear 23 1014 73 10000 1.5 100 09:24 23.06.2019
5965 Clear 20 1014 69 10000 2.1 60 08:54 23.06.2019
5966 Clear 20 1014 69 10000 2.1 60 08:54 23.06.2019
5967 Clear 22 1014 60 10000 2.6 20 08:36 23.06.2019
5968 Clear 21 1014 60 10000 2.6 20 08:18 23.06.2019
5969 Clear 20 1014 60 10000 2.6 350 07:44 23.06.2019
5970 Clear 19 1014 64 10000 3.1 340 07:18 23.06.2019
5971 Clear 18 1014 68 10000 3.1 360 06:52 23.06.2019
5972 Clear 18 1014 72 10000 3.6 330 05:44 23.06.2019
5973 Clear 18 1014 77 10000 3.1 340 02:51 23.06.2019
5974 Clear 16 1014 73 10000 2.6 330 01:39 23.06.2019
5975 Clear 16 1014 73 10000 2.6 330 01:20 23.06.2019
5976 Clear 19 1014 77 10000 2.6 330 00:31 23.06.2019
5977 Clear 19 1014 73 10000 2.6 320 23:47 22.06.2019
5978 Clear 20 1014 78 10000 2.6 330 23:26 22.06.2019
5979 Clear 20 1014 73 10000 2.1 310 22:47 22.06.2019
5980 Clear 21 1014 69 10000 1.5 359.352 22:27 22.06.2019
5981 Clear 22 1013 83 10000 1.5 359.352 21:56 22.06.2019
5982 Clouds 20 1013 78 10000 1 190 21:36 22.06.2019
5983 Clouds 21 1013 78 10000 1 190 21:18 22.06.2019
5984 Clouds 22 1013 78 10000 1.5 190 20:45 22.06.2019
5985 Clouds 23 1013 69 10000 2.1 210 20:24 22.06.2019
5986 Clear 22 1013 60 10000 2.1 220 19:42 22.06.2019
5987 Clear 22 1013 60 10000 2.1 220 19:21 22.06.2019
5988 Clouds 22 1013 60 10000 1.5 220 18:43 22.06.2019
5989 Clouds 23 1013 57 10000 2.1 270 18:23 22.06.2019
5990 Clouds 23 1013 61 10000 1.5 0 17:46 22.06.2019
5991 Clouds 22 1014 69 10000 3.1 330 17:26 22.06.2019
5992 Rain 21 1013 78 10000 4.1 310 16:46 22.06.2019
5993 Rain 21 1013 78 10000 3.6 340 16:24 22.06.2019
5994 Rain 22 1014 73 10000 2.6 30 15:49 22.06.2019
5995 Rain 22 1014 65 10000 2.6 90 15:27 22.06.2019
5996 Thunderstorm 23 1014 57 10000 3.6 80 14:52 22.06.2019
5997 Thunderstorm 25 1013 65 10000 3.1 110 14:33 22.06.2019
5998 Clouds 24 1014 65 10000 3.1 150 13:58 22.06.2019
5999 Clouds 24 1013 65 10000 3.1 170 13:40 22.06.2019
6000 Clouds 24 1013 65 10000 3.6 170 13:19 22.06.2019
6001 Clouds 25 1013 65 10000 3.6 170 12:47 22.06.2019
6002 Clouds 25 1014 61 10000 3.6 170 12:29 22.06.2019
6003 Clouds 25 1013 54 10000 3.1 190 11:53 22.06.2019
6004 Clouds 24 1013 61 10000 3.1 200 11:29 22.06.2019
6005 Clouds 25 1013 61 10000 2.1 170 10:47 22.06.2019
6006 Clear 25 1013 57 10000 2.1 110 10:19 22.06.2019
6007 Clear 25 1013 53 10000 2.1 160 09:46 22.06.2019
6008 Clouds 23 1013 47 10000 4.6 320 08:58 22.06.2019
6009 Clouds 22 1013 53 10000 5.1 330 08:40 22.06.2019
6010 Clouds 22 1013 53 10000 5.1 330 08:19 22.06.2019
6011 Clear 20 1013 60 10000 4.1 330 07:30 22.06.2019
6012 Clear 20 1013 60 10000 3.6 330 06:46 22.06.2019
6013 Clear 19 1013 60 10000 3.6 310 04:38 22.06.2019
6014 Clear 19 1013 73 10000 4.1 330 02:32 22.06.2019
6015 Clear 17 1014 78 10000 2.1 320 00:59 22.06.2019
6016 Clear 17 1014 78 10000 2.1 310 00:35 22.06.2019
6017 Clear 20 1014 78 10000 1.5 290 23:59 21.06.2019
6018 Clear 20 1013 73 10000 3.1 340 23:37 21.06.2019
6019 Clear 20 1013 73 10000 3.1 340 23:19 21.06.2019
6020 Clouds 18 1014 78 10000 1 0 22:41 21.06.2019
6021 Clouds 18 1014 78 10000 1 0 22:22 21.06.2019
6022 Clouds 22 1014 83 10000 1 0 21:40 21.06.2019
6023 Clouds 22 1014 83 10000 1 0 21:22 21.06.2019
6024 Clouds 22 1014 83 10000 1.5 90 20:53 21.06.2019
6025 Clouds 22 1014 78 10000 2.1 110 20:27 21.06.2019
6026 Clouds 23 1013 78 10000 2.1 120 19:55 21.06.2019
6027 Clouds 24 1013 78 10000 1.5 0 19:30 21.06.2019
6028 Clouds 25 1013 78 10000 1 0 18:46 21.06.2019
6029 Clouds 25 1013 73 10000 1.5 130 18:28 21.06.2019
6030 Clouds 25 1013 73 10000 3.1 110 17:45 21.06.2019
6031 Clouds 24 1014 78 10000 3.6 100 17:27 21.06.2019
6032 Clouds 25 1014 73 10000 4.6 110 16:38 21.06.2019
6033 Clouds 25 1014 73 10000 4.6 110 16:19 21.06.2019
6034 Clouds 25 1014 73 10000 5.7 100 15:39 21.06.2019
6035 Clouds 25 1014 73 10000 5.7 100 15:20 21.06.2019
6036 Clouds 25 1014 69 10000 5.7 110 14:47 21.06.2019
6037 Clouds 25 1014 69 10000 4.6 100 14:28 21.06.2019
6038 Clouds 26 1015 65 10000 3.6 100 13:53 21.06.2019
6039 Clouds 25 1015 65 10000 4.1 100 13:33 21.06.2019
6040 Clouds 25 1015 65 10000 4.1 110 12:58 21.06.2019
6041 Clouds 25 1015 61 10000 3.1 110 12:38 21.06.2019
6042 Clouds 24 1015 61 10000 3.1 110 12:18 21.06.2019
6043 Clouds 24 1015 61 10000 3.1 110 12:18 21.06.2019
6044 Clouds 24 1015 61 10000 3.1 110 12:18 21.06.2019
6045 Clouds 25 1015 57 10000 4.1 100 11:46 21.06.2019
6046 Clouds 25 1014 53 10000 3.6 80 11:24 21.06.2019
6047 Clouds 25 1015 53 10000 1.5 0 10:49 21.06.2019
6048 Clouds 24 1015 57 10000 2.6 60 10:21 21.06.2019
6049 Clouds 23 1015 60 10000 1 0 09:57 21.06.2019
6050 Clouds 23 1015 64 10000 1.61 165.471 09:39 21.06.2019
6051 Clouds 23 1015 64 10000 0.97 146.31 09:19 21.06.2019
6052 Clouds 21 1015 64 10000 1.5 340 08:42 21.06.2019
6053 Clouds 20 1015 64 10000 1.5 340 08:22 21.06.2019
6054 Clouds 20 1015 64 10000 1.5 340 08:22 21.06.2019
6055 Clouds 20 1014 68 10000 2.6 330 07:50 21.06.2019
6056 Clouds 19 1014 72 10000 3.1 330 07:29 21.06.2019
6057 Clouds 17 1014 72 10000 2.6 330 06:53 21.06.2019
6058 Clouds 17 1014 68 10000 2.6 330 06:21 21.06.2019
6059 Clouds 17 1014 72 10000 2.1 340 05:25 21.06.2019
6060 Clouds 17 1014 68 10000 2.1 10 04:26 21.06.2019
6061 Clear 18 1014 72 10000 1 0 03:33 21.06.2019
6062 Clear 18 1014 77 10000 2.1 40 02:48 21.06.2019
6063 Clear 18 1014 68 10000 2.1 20 01:49 21.06.2019
6064 Clear 17 1014 73 10000 1 0 00:55 21.06.2019
6065 Clear 19 1014 78 10000 1 90 00:22 21.06.2019
6066 Clear 19 1014 83 10000 1 190 23:47 20.06.2019
6067 Clear 19 1014 88 10000 1 210 23:23 20.06.2019
6068 Clear 18 1014 83 10000 1 200 22:58 20.06.2019
6069 Clear 18 1014 83 10000 2.1 210 22:39 20.06.2019
6070 Clear 17 1014 83 10000 2.1 210 22:20 20.06.2019
6071 Clear 17 1013 83 10000 2.1 190 21:49 20.06.2019
6072 Clear 20 1013 78 10000 2.1 190 21:19 20.06.2019
6073 Clear 21 1013 78 10000 1 180 20:58 20.06.2019
6074 Clear 21 1013 73 10000 1.5 160 20:39 20.06.2019
6075 Clear 22 1013 73 10000 1.5 160 20:18 20.06.2019
6076 Clouds 22 1013 73 10000 2.6 150 19:39 20.06.2019
6077 Clouds 22 1013 73 10000 2.6 150 19:18 20.06.2019
6078 Clouds 23 1013 69 10000 1.5 120 18:43 20.06.2019
6079 Clouds 24 1013 69 10000 1.5 120 18:23 20.06.2019
6080 Clouds 24 1013 69 10000 2.1 150 17:57 20.06.2019
6081 Clouds 24 1013 69 10000 2.6 150 17:39 20.06.2019
6082 Clouds 24 1013 69 10000 2.6 160 16:58 20.06.2019
6083 Clouds 25 1013 69 10000 3.1 170 16:40 20.06.2019
6084 Clouds 25 1013 69 10000 3.1 170 16:19 20.06.2019
6085 Clouds 25 1013 69 10000 3.6 170 15:43 20.06.2019
6086 Clouds 25 1013 69 10000 3.6 180 15:23 20.06.2019
6087 Clouds 25 1013 73 10000 3.6 180 14:54 20.06.2019
6088 Clouds 25 1013 69 10000 2.1 140 14:36 20.06.2019
6089 Clouds 24 1013 69 10000 2.1 140 14:18 20.06.2019
6090 Clouds 25 1013 69 10000 3.6 130 13:38 20.06.2019
6091 Clouds 25 1013 69 10000 3.6 130 13:18 20.06.2019
6092 Clear 24 1013 73 10000 4.1 110 12:41 20.06.2019
6093 Clear 24 1013 73 10000 4.1 110 12:21 20.06.2019
6094 Clear 23 1013 73 10000 3.6 100 11:41 20.06.2019
6095 Clear 23 1013 73 10000 3.6 100 11:22 20.06.2019
6096 Clear 23 1013 73 10000 3.6 100 11:22 20.06.2019
6097 Clear 23 1013 73 10000 3.6 110 10:44 20.06.2019
6098 Clouds 23 1013 73 10000 4.1 100 10:24 20.06.2019
6099 Clouds 23 1013 73 10000 4.1 100 10:24 20.06.2019
6100 Clear 23 1013 73 10000 4.1 100 09:55 20.06.2019
6101 Clear 23 1014 69 10000 2.1 60 09:37 20.06.2019
6102 Clear 23 1014 69 10000 2.1 60 09:19 20.06.2019
6103 Clear 22 1013 64 10000 2.1 50 08:44 20.06.2019
6104 Clear 20 1013 60 10000 2.6 40 08:23 20.06.2019
6105 Clouds 20 1013 56 10000 1.5 0 07:47 20.06.2019
6106 Clouds 18 1013 60 10000 2.1 340 07:25 20.06.2019
6107 Clouds 18 1013 60 10000 2.1 340 07:25 20.06.2019
6108 Clear 17 1013 60 10000 2.1 330 06:20 20.06.2019
6109 Clear 18 1012 60 10000 2.6 340 03:41 20.06.2019
6110 Clear 18 1013 60 10000 2.6 340 02:28 20.06.2019
6111 Clear 19 1013 60 10000 2.1 20 00:33 20.06.2019
6112 Clear 21 1013 64 10000 3.1 20 23:48 19.06.2019
6113 Clear 21 1013 64 10000 1.5 0 23:29 19.06.2019
6114 Clear 19 1013 68 10000 2.6 250 22:49 19.06.2019
6115 Clouds 19 1013 64 10000 1.5 230 22:25 19.06.2019
6116 Clouds 19 1012 60 10000 2.6 280 21:58 19.06.2019
6117 Clouds 20 1012 57 10000 4.1 220 21:40 19.06.2019
6118 Clouds 23 1012 57 10000 4.1 220 21:21 19.06.2019
6119 Clouds 23 1012 57 10000 5.1 200 20:42 19.06.2019
6120 Clouds 23 1012 57 10000 5.1 200 20:21 19.06.2019
6121 Clouds 24 1012 61 10000 6.7 180 19:50 19.06.2019
6122 Clouds 24 1012 57 10000 5.7 190 19:29 19.06.2019
6123 Clouds 25 1012 53 10000 3.6 160 18:57 19.06.2019
6124 Clouds 25 1012 53 10000 2.6 120 18:28 19.06.2019
6125 Clouds 26 1013 61 10000 2.1 160 17:53 19.06.2019
6126 Clouds 26 1013 54 10000 2.6 160 17:33 19.06.2019
6127 Clouds 26 1013 57 10000 2.6 150 16:57 19.06.2019
6128 Clouds 26 1013 57 10000 2.6 100 16:38 19.06.2019
6129 Clouds 26 1013 57 10000 2.6 100 16:20 19.06.2019
6130 Clouds 26 1014 61 10000 2.6 120 15:47 19.06.2019
6131 Clouds 26 1014 65 10000 2.6 150 15:25 19.06.2019
6132 Clouds 26 1014 61 10000 3.1 170 14:50 19.06.2019
6133 Clear 26 1014 73 10000 3.6 180 14:30 19.06.2019
6134 Clear 26 1014 73 10000 3.6 180 13:59 19.06.2019
6135 Clear 26 1014 73 10000 3.1 160 13:40 19.06.2019
6136 Clear 26 1014 73 10000 3.1 160 13:21 19.06.2019
6137 Clear 26 1014 78 10000 3.1 160 12:43 19.06.2019
6138 Clear 25 1014 78 10000 3.1 160 12:21 19.06.2019
6139 Clear 25 1014 78 10000 2.1 140 11:44 19.06.2019
6140 Clear 25 1014 78 10000 2.1 140 11:25 19.06.2019
6141 Clear 26 1014 73 10000 2.1 140 10:57 19.06.2019
6142 Clear 25 1014 73 10000 2.1 120 10:38 19.06.2019
6143 Clear 25 1014 73 10000 2.1 120 10:19 19.06.2019
6144 Clear 24 1014 69 10000 1.5 130 09:39 19.06.2019
6145 Clear 23 1014 69 10000 1.5 130 09:19 19.06.2019
6146 Clear 23 1014 69 10000 1.5 110 08:48 19.06.2019
6147 Clear 22 1014 53 10000 1.5 0 08:28 19.06.2019
6148 Clear 21 1014 60 10000 2.6 330 07:47 19.06.2019
6149 Clear 21 1014 60 10000 2.6 330 07:47 19.06.2019
6150 Clear 20 1014 60 10000 2.1 330 07:23 19.06.2019
6151 Clear 19 1014 68 10000 2.1 350 06:52 19.06.2019
6152 Clear 18 1014 68 10000 2.1 350 06:28 19.06.2019
6153 Clear 19 1014 83 10000 3.1 60 05:49 19.06.2019
6154 Clear 18 1013 78 10000 4.6 80 04:34 19.06.2019
6155 Clear 20 1013 60 10000 3.1 350 03:30 19.06.2019
6156 Clear 18 1013 60 10000 3.1 330 01:53 19.06.2019
6157 Clear 17 1013 60 10000 4.1 340 01:23 19.06.2019
6158 Clear 18 1014 56 10000 2.6 330 00:43 19.06.2019
6159 Clear 18 1014 56 10000 2.6 330 00:43 19.06.2019
6160 Clear 22 1014 56 10000 3.1 330 00:20 19.06.2019
6161 Clear 22 1014 56 10000 3.1 330 23:52 18.06.2019
6162 Clear 22 1014 57 10000 2.1 330 23:28 18.06.2019
6163 Clear 19 1014 78 10000 0.5 200 22:49 18.06.2019
6164 Clear 20 1014 78 10000 1 200 22:25 18.06.2019
6165 Clear 20 1014 78 10000 1.5 190 21:57 18.06.2019
6166 Clear 20 1014 78 10000 2.1 210 21:39 18.06.2019
6167 Clear 23 1014 78 10000 2.1 210 21:20 18.06.2019
6168 Clear 25 1014 73 10000 1.5 160 20:43 18.06.2019
6169 Clear 25 1014 73 10000 1.5 160 20:25 18.06.2019
6170 Clear 24 1014 69 10000 1.5 90 19:42 18.06.2019
6171 Clear 24 1014 69 10000 1.5 90 19:24 18.06.2019
6172 Clouds 24 1014 69 10000 1.5 120 18:59 18.06.2019
6173 Clouds 23 1014 73 10000 1.5 150 18:39 18.06.2019
6174 Clouds 26 1014 73 10000 1.5 150 18:20 18.06.2019
6175 Clear 26 1014 65 10000 3.6 120 17:39 18.06.2019
6176 Clear 26 1014 65 10000 3.6 120 17:20 18.06.2019
6177 Clouds 26 1014 69 10000 2.6 170 16:46 18.06.2019
6178 Clouds 26 1015 69 10000 3.1 180 16:27 18.06.2019
6179 Clouds 27 1015 65 10000 3.1 180 15:55 18.06.2019
6180 Clouds 27 1015 74 10000 2.1 150 15:36 18.06.2019
6181 Clouds 26 1015 74 10000 2.1 150 15:18 18.06.2019
6182 Clouds 27 1015 65 10000 2.1 120 14:42 18.06.2019
6183 Clouds 27 1015 65 10000 2.1 120 14:22 18.06.2019
6184 Clouds 27 1015 61 10000 1.5 130 13:53 18.06.2019
6185 Clouds 27 1015 57 10000 2.1 100 13:32 18.06.2019
6186 Clouds 27 1015 57 10000 1.5 120 12:59 18.06.2019
6187 Clouds 27 1015 61 10000 2.1 100 12:41 18.06.2019
6188 Clouds 27 1015 61 10000 2.1 100 12:23 18.06.2019
6189 Clouds 27 1015 54 10000 2.1 80 11:42 18.06.2019
6190 Clouds 26 1015 65 10000 2.1 90 11:21 18.06.2019
6191 Clear 27 1015 47 10000 2.6 170 10:57 18.06.2019
6192 Clear 27 1015 61 10000 3.6 150 10:37 18.06.2019
6193 Clear 27 1015 61 10000 3.6 150 10:18 18.06.2019
6194 Clear 26 1015 64 10000 3.6 150 09:47 18.06.2019
6195 Clear 26 1015 42 10000 3.1 350 09:22 18.06.2019
6196 Clear 24 1015 44 10000 2.6 340 08:43 18.06.2019
6197 Clear 24 1015 44 10000 2.6 340 08:43 18.06.2019
6198 Clear 23 1015 47 10000 1.5 330 08:21 18.06.2019
6199 Clear 22 1014 53 10000 4.1 340 07:41 18.06.2019
6200 Clear 22 1014 53 10000 4.1 340 07:21 18.06.2019
6201 Clear 21 1014 53 10000 4.1 340 06:43 18.06.2019
6202 Clear 21 1014 53 10000 4.6 350 05:21 18.06.2019
6203 Clear 21 1014 53 10000 4.1 350 02:53 18.06.2019
6204 Clear 20 1015 50 10000 3.6 340 01:55 18.06.2019
6205 Clear 18 1015 53 10000 3.1 360 01:25 18.06.2019
6206 Clear 18 1015 53 10000 3.6 360 00:56 18.06.2019
6207 Clear 20 1014 50 10000 5.1 330 00:30 18.06.2019
6208 Clear 20 1014 53 10000 2.1 340 23:42 17.06.2019
6209 Clear 21 1014 53 10000 2.1 340 23:20 17.06.2019
6210 Clear 18 1014 73 10000 2.1 290 22:58 17.06.2019
6211 Clear 18 1014 73 10000 3.6 260 22:38 17.06.2019
6212 Clear 18 1014 73 10000 3.6 260 22:20 17.06.2019
6213 Clouds 21 1014 73 10000 2.6 220 21:42 17.06.2019
6214 Clouds 23 1014 73 10000 2.6 220 21:22 17.06.2019
6215 Clouds 24 1014 73 10000 3.6 220 20:39 17.06.2019
6216 Clouds 25 1014 73 10000 3.6 220 20:20 17.06.2019
6217 Clouds 24 1014 78 10000 3.1 220 19:56 17.06.2019
6218 Clouds 25 1014 73 10000 3.1 210 19:38 17.06.2019
6219 Clouds 25 1014 73 10000 3.1 210 19:19 17.06.2019
6220 Clouds 25 1014 73 10000 3.6 190 18:39 17.06.2019
6221 Clouds 26 1014 73 10000 3.6 190 18:18 17.06.2019
6222 Clouds 26 1014 73 10000 3.6 190 18:18 17.06.2019
6223 Clouds 25 1015 73 10000 4.6 200 17:48 17.06.2019
6224 Clouds 24 1015 73 10000 4.6 190 17:29 17.06.2019
6225 Clouds 25 1015 73 10000 4.6 190 16:59 17.06.2019
6226 Clouds 25 1015 73 10000 3.6 180 16:39 17.06.2019
6227 Clouds 25 1015 73 10000 3.6 180 16:21 17.06.2019
6228 Clouds 24 1015 73 10000 2.6 170 15:44 17.06.2019
6229 Clouds 25 1015 73 10000 2.6 170 15:20 17.06.2019
6230 Clouds 25 1015 73 10000 3.1 170 14:56 17.06.2019
6231 Clouds 25 1015 73 10000 2.1 120 14:38 17.06.2019
6232 Clouds 25 1015 73 10000 2.1 120 14:19 17.06.2019
6233 Clouds 24 1016 78 10000 2.6 150 13:41 17.06.2019
6234 Clouds 23 1016 78 10000 2.6 150 13:21 17.06.2019
6235 Clouds 23 1016 73 10000 2.1 160 12:42 17.06.2019
6236 Clouds 23 1016 73 10000 2.1 160 12:21 17.06.2019
6237 Clouds 23 1017 73 10000 2.1 170 11:45 17.06.2019
6238 Clouds 23 1016 78 10000 2.6 170 11:26 17.06.2019
6239 Clear 23 1016 78 10000 2.1 160 10:48 17.06.2019
6240 Clear 23 1016 78 10000 2.1 160 10:48 17.06.2019
6241 Clear 23 1016 78 10000 1.5 140 10:29 17.06.2019
6242 Clear 23 1016 73 10000 1.5 130 09:57 17.06.2019
6243 Clear 23 1016 64 10000 1 0 09:39 17.06.2019
6244 Clear 22 1016 64 10000 1 0 09:20 17.06.2019
6245 Clouds 20 1015 60 10000 0.5 0 08:39 17.06.2019
6246 Clouds 19 1015 60 10000 0.5 0 08:21 17.06.2019
6247 Clouds 18 1015 68 10000 3.1 320 07:40 17.06.2019
6248 Clouds 17 1015 68 10000 3.1 320 07:20 17.06.2019
6249 Clouds 17 1015 72 10000 3.1 320 06:30 17.06.2019
6250 Clouds 16 1015 77 10000 2.6 330 05:42 17.06.2019
6251 Clouds 17 1015 77 10000 2.6 320 04:33 17.06.2019
6252 Clouds 17 1015 88 10000 3.6 90 03:33 17.06.2019
6253 Clouds 17 1015 88 10000 4.1 80 02:58 17.06.2019
6254 Clouds 17 1015 88 10000 3.1 70 02:39 17.06.2019
6255 Clear 17 1015 77 10000 1.97 359.274 01:41 17.06.2019
6256 Clear 17 1015 77 10000 2.02 2.072 01:18 17.06.2019
6257 Clear 17 1015 88 10000 1 200 00:41 17.06.2019
6258 Clear 18 1015 88 10000 1 200 00:21 17.06.2019
6259 Clear 18 1015 83 10000 1.5 200 23:41 16.06.2019
6260 Clear 18 1015 83 10000 1.5 200 23:22 16.06.2019
6261 Clear 19 1015 77 10000 2.1 220 22:56 16.06.2019
6262 Clear 17 1015 83 10000 1.5 210 22:38 16.06.2019
6263 Clear 18 1015 83 10000 1.5 210 22:18 16.06.2019
6264 Clear 19 1014 83 10000 1 0 21:41 16.06.2019
6265 Clear 20 1014 83 10000 1 0 21:23 16.06.2019
6266 Clear 21 1015 83 10000 1.5 180 20:59 16.06.2019
6267 Clear 22 1015 78 10000 1.5 170 20:37 16.06.2019
6268 Clear 22 1015 78 10000 1.5 170 20:18 16.06.2019
6269 Clear 22 1015 78 10000 2.1 100 19:43 16.06.2019
6270 Clear 22 1015 78 10000 2.1 100 19:22 16.06.2019
6271 Clear 22 1015 78 10000 2.6 110 18:59 16.06.2019
6272 Clear 22 1015 78 10000 2.6 110 18:41 16.06.2019
6273 Clear 23 1015 78 10000 2.6 110 18:20 16.06.2019
6274 Clear 23 1015 73 10000 2.1 110 17:48 16.06.2019
6275 Clouds 23 1016 78 10000 2.1 110 17:24 16.06.2019
6276 Clouds 23 1016 78 10000 2.1 110 17:24 16.06.2019
6277 Clouds 23 1016 78 10000 2.6 120 16:57 16.06.2019
6278 Clouds 23 1016 78 10000 2.6 120 16:57 16.06.2019
6279 Clouds 23 1016 73 10000 2.6 100 16:39 16.06.2019
6280 Clouds 23 1016 73 10000 2.6 100 16:21 16.06.2019
6281 Clouds 23 1016 73 10000 3.1 100 15:45 16.06.2019
6282 Clouds 22 1016 73 10000 3.1 100 15:26 16.06.2019
6283 Clouds 22 1016 78 10000 3.1 110 14:56 16.06.2019
6284 Clouds 23 1016 73 10000 3.6 100 14:36 16.06.2019
6285 Clouds 23 1016 73 10000 3.6 100 14:18 16.06.2019
6286 Clouds 23 1016 78 10000 3.1 110 13:44 16.06.2019
6287 Clouds 23 1016 78 10000 3.1 110 13:24 16.06.2019
6288 Clouds 23 1016 73 10000 4.6 120 12:43 16.06.2019
6289 Clouds 23 1016 73 10000 4.6 120 12:22 16.06.2019
6290 Clouds 22 1016 73 10000 4.6 110 11:56 16.06.2019
6291 Clouds 22 1016 73 10000 4.6 100 11:37 16.06.2019
6292 Clouds 22 1016 73 10000 4.6 100 11:18 16.06.2019
6293 Clouds 22 1016 78 10000 3.6 90 10:44 16.06.2019
6294 Clouds 22 1016 78 10000 3.6 90 10:19 16.06.2019
6295 Clouds 20 1016 78 10000 3.6 80 09:42 16.06.2019
6296 Clouds 20 1016 78 10000 3.6 80 09:23 16.06.2019
6297 Clouds 19 1016 73 10000 1.5 60 08:46 16.06.2019
6298 Clouds 18 1015 72 10000 2.6 330 08:20 16.06.2019
6299 Clouds 17 1015 77 10000 3.1 330 07:45 16.06.2019
6300 Clouds 17 1015 82 10000 2.6 330 07:27 16.06.2019
6301 Clouds 17 1015 82 10000 2.6 320 06:53 16.06.2019
6302 Clouds 17 1015 88 10000 4.1 70 05:56 16.06.2019
6303 Clouds 17 1015 88 10000 4.1 80 05:22 16.06.2019
6304 Clouds 15 1015 88 10000 4.1 90 04:21 16.06.2019
6305 Clouds 15 1015 88 10000 3.1 80 03:42 16.06.2019
6306 Clouds 17 1015 88 10000 1.5 50 03:22 16.06.2019
6307 Clouds 15 1015 88 10000 1.5 150 01:49 16.06.2019
6308 Clouds 15 1015 88 10000 1 140 01:30 16.06.2019
6309 Clouds 16 1015 88 10000 2.1 140 00:44 16.06.2019
6310 Clouds 18 1016 88 10000 1.5 0 00:25 16.06.2019
6311 Clouds 19 1016 83 10000 1.5 140 23:58 15.06.2019
6312 Clouds 19 1016 83 10000 2.1 130 23:39 15.06.2019
6313 Clouds 19 1016 83 10000 2.1 130 23:20 15.06.2019
6314 Clouds 17 1015 83 10000 1 0 22:48 15.06.2019
6315 Clouds 17 1015 88 10000 1.5 190 22:26 15.06.2019
6316 Clouds 17 1015 88 10000 3.1 190 21:45 15.06.2019
6317 Clouds 20 1015 83 10000 2.6 180 21:21 15.06.2019
6318 Clouds 20 1015 83 10000 2.1 190 20:46 15.06.2019
6319 Clouds 21 1015 83 10000 2.6 180 20:23 15.06.2019
6320 Clouds 21 1015 83 10000 2.6 150 19:53 15.06.2019
6321 Clouds 22 1015 78 10000 2.6 150 19:29 15.06.2019
6322 Clouds 22 1015 83 10000 2.6 140 18:59 15.06.2019
6323 Clouds 23 1015 83 10000 2.1 130 18:37 15.06.2019
6324 Clouds 23 1015 83 10000 2.1 130 18:18 15.06.2019
6325 Clouds 23 1015 73 10000 2.1 120 17:41 15.06.2019
6326 Clouds 23 1015 73 10000 2.1 120 17:21 15.06.2019
6327 Clouds 24 1016 78 10000 2.6 150 16:44 15.06.2019
6328 Clouds 24 1016 73 10000 2.6 150 16:18 15.06.2019
6329 Clouds 24 1016 78 10000 3.1 170 15:42 15.06.2019
6330 Clouds 24 1016 78 10000 3.1 170 15:22 15.06.2019
6331 Clouds 23 1016 73 10000 4.1 180 14:39 15.06.2019
6332 Clouds 23 1016 73 10000 4.1 180 14:18 15.06.2019
6333 Clouds 24 1016 78 10000 5.1 190 13:55 15.06.2019
6334 Clouds 23 1016 83 10000 5.7 200 13:36 15.06.2019
6335 Clouds 23 1016 83 10000 5.7 200 13:18 15.06.2019
6336 Clouds 23 1016 83 10000 7.2 200 12:42 15.06.2019
6337 Clouds 23 1016 83 10000 7.2 200 12:23 15.06.2019
6338 Clouds 22 1016 83 10000 7.2 190 11:48 15.06.2019
6339 Clouds 23 1016 83 10000 6.2 200 11:29 15.06.2019
6340 Clouds 23 1015 83 10000 5.1 190 10:46 15.06.2019
6341 Clouds 23 1015 88 10000 3.6 190 10:25 15.06.2019
6342 Clouds 23 1015 83 10000 3.6 200 09:48 15.06.2019
6343 Clouds 23 1015 83 10000 3.6 200 09:48 15.06.2019
6344 Clouds 21 1015 83 9000 4.1 200 09:27 15.06.2019
6345 Clouds 21 1015 88 8000 3.6 220 08:56 15.06.2019
6346 Clouds 20 1015 88 7000 3.1 230 08:38 15.06.2019
6347 Clouds 20 1015 88 7000 3.1 230 08:18 15.06.2019
6348 Clouds 20 1015 88 7000 3.1 230 08:18 15.06.2019
6349 Mist 19 1015 94 3000 3.1 220 07:26 15.06.2019
6350 Mist 19 1015 94 3000 2.6 220 06:48 15.06.2019
6351 Mist 19 1015 94 4000 2.6 220 06:29 15.06.2019
6352 Mist 17 1014 94 4000 1.5 200 05:40 15.06.2019
6353 Mist 17 1014 94 4000 1.58 349.175 04:59 15.06.2019
6354 Mist 17 1014 94 3000 1.5 230 04:29 15.06.2019
6355 Mist 17 1014 94 3000 3.1 180 03:33 15.06.2019
6356 Mist 17 1014 94 3000 3.1 180 03:33 15.06.2019
6357 Clouds 18 1014 88 10000 2.1 150 02:37 15.06.2019
6358 Clouds 17 1014 94 10000 1 110 01:57 15.06.2019
6359 Mist 17 1014 94 10000 1.5 160 01:24 15.06.2019
6360 Clouds 19 1014 88 10000 2.1 160 00:42 15.06.2019
6361 Clouds 20 1014 94 10000 3.1 80 00:24 15.06.2019
6362 Clouds 20 1014 88 10000 1.5 0 23:50 14.06.2019
6363 Clouds 20 1014 88 10000 1 0 23:21 14.06.2019
6364 Clouds 19 1014 78 10000 4.6 250 22:42 14.06.2019
6365 Clouds 17 1014 78 10000 4.6 250 22:21 14.06.2019
6366 Clouds 18 1012 73 10000 5.1 90 21:49 14.06.2019
6367 Clouds 22 1012 73 10000 5.1 60 21:30 14.06.2019
6368 Clouds 23 1012 73 10000 9.3 130 20:58 14.06.2019
6369 Clouds 24 1012 64 10000 7.2 80 20:39 14.06.2019
6370 Clouds 24 1012 64 10000 7.2 80 20:18 14.06.2019
6371 Clear 25 1011 64 10000 9.3 110 19:43 14.06.2019
6372 Clear 25 1011 64 10000 9.3 110 19:23 14.06.2019
6373 Clear 27 1010 61 10000 8.7 80 18:56 14.06.2019
6374 Clear 26 1010 50 10000 8.7 100 18:37 14.06.2019
6375 Clear 26 1010 50 10000 8.7 100 18:19 14.06.2019
6376 Clear 27 1009 50 10000 13.4 80 17:46 14.06.2019
6377 Clear 27 1011 50 10000 10.8 80 17:25 14.06.2019
6378 Clear 27 1011 54 10000 10.3 80 16:55 14.06.2019
6379 Clear 27 1011 50 10000 11.8 100 16:37 14.06.2019
6380 Clear 27 1011 50 10000 11.8 100 16:18 14.06.2019
6381 Clear 28 1011 44 10000 11.3 90 15:39 14.06.2019
6382 Clear 28 1011 44 10000 11.3 90 15:20 14.06.2019
6383 Clear 28 1011 47 10000 11.8 90 14:52 14.06.2019
6384 Clear 27 1011 47 10000 13.4 90 14:32 14.06.2019
6385 Clear 27 1011 47 10000 13.4 90 14:32 14.06.2019
6386 Clear 27 1011 44 10000 13.4 100 13:55 14.06.2019
6387 Clear 28 1011 47 10000 14.4 100 13:36 14.06.2019
6388 Clear 28 1011 47 10000 14.4 100 13:18 14.06.2019
6389 Clear 28 1012 47 10000 10.3 70 12:41 14.06.2019
6390 Clear 28 1012 47 10000 10.3 70 12:23 14.06.2019
6391 Clear 28 1012 42 10000 10.8 80 11:47 14.06.2019
6392 Clear 25 1012 45 10000 9.3 70 11:24 14.06.2019
6393 Clear 28 1012 47 10000 7.2 70 10:58 14.06.2019
6394 Clear 29 1012 39 10000 3.1 70 10:40 14.06.2019
6395 Clear 29 1012 39 10000 3.1 70 10:18 14.06.2019
6396 Clear 23 1012 34 10000 2.6 40 09:40 14.06.2019
6397 Clear 23 1012 34 10000 2.6 40 09:21 14.06.2019
6398 Clear 24 1013 31 10000 3.6 340 08:45 14.06.2019
6399 Clear 23 1012 36 10000 2.1 30 08:19 14.06.2019
6400 Clear 19 1013 43 10000 2.1 50 07:48 14.06.2019
6401 Clear 18 1013 33 10000 2.6 50 07:20 14.06.2019
6402 Clear 17 1013 35 10000 4.1 20 06:33 14.06.2019
6403 -273 0 0 0 0 0 05:55 14.06.2019
6404 Clear 17 1014 37 10000 4.1 10 05:19 14.06.2019
6405 Clear 17 1014 56 10000 2.6 320 04:39 14.06.2019
6406 Clear 17 1014 46 10000 1.5 0 03:51 14.06.2019
6407 Clear 17 1014 40 10000 2.1 340 03:25 14.06.2019
6408 Clear 16 1014 68 10000 3.1 60 02:48 14.06.2019
6409 Clear 17 1015 64 10000 2.6 50 02:27 14.06.2019
6410 Clear 18 1016 82 10000 2.6 60 00:57 14.06.2019
6411 Clear 18 1017 77 10000 3.1 90 00:23 14.06.2019
6412 Clear 17 1016 77 10000 4.6 90 23:59 13.06.2019
6413 Clear 17 1016 73 10000 3.6 90 23:41 13.06.2019
6414 Clear 17 1016 73 10000 3.6 90 23:21 13.06.2019
6415 Clear 17 1016 68 10000 4.6 70 22:40 13.06.2019
6416 Clear 17 1016 68 10000 4.6 70 22:21 13.06.2019
6417 Clear 17 1016 68 10000 3.6 80 21:40 13.06.2019
6418 Clear 19 1016 68 10000 3.6 80 21:20 13.06.2019
6419 Clear 19 1016 72 10000 2.6 100 20:58 13.06.2019
6420 Clear 20 1016 68 10000 2.6 100 20:39 13.06.2019
6421 Clear 20 1016 68 10000 2.6 100 20:19 13.06.2019
6422 Clear 20 1016 68 10000 3.6 90 19:42 13.06.2019
6423 Clear 20 1016 68 10000 3.6 90 19:22 13.06.2019
6424 Clear 20 1016 68 10000 4.1 100 18:58 13.06.2019
6425 Clear 20 1016 68 10000 3.6 110 18:40 13.06.2019
6426 Clear 21 1016 68 10000 3.6 110 18:21 13.06.2019
6427 Clouds 21 1016 73 10000 3.6 100 17:44 13.06.2019
6428 Clouds 22 1016 73 10000 3.6 110 17:21 13.06.2019
6429 Clouds 22 1016 68 10000 3.6 100 16:55 13.06.2019
6430 Clouds 22 1016 68 10000 3.1 120 16:23 13.06.2019
6431 Clouds 22 1016 69 10000 3.1 120 15:59 13.06.2019
6432 Clouds 22 1016 64 10000 4.1 100 15:40 13.06.2019
6433 Clouds 22 1016 64 10000 4.1 100 15:19 13.06.2019
6434 Clouds 22 1016 64 10000 3.6 110 14:49 13.06.2019
6435 Clear 22 1016 68 10000 4.1 110 14:30 13.06.2019
6436 Clouds 22 1016 68 10000 3.6 120 13:47 13.06.2019
6437 Clouds 22 1016 68 10000 3.1 100 13:22 13.06.2019
6438 Clouds 22 1016 68 10000 3.1 110 12:59 13.06.2019
6439 Clouds 22 1016 68 10000 3.6 120 12:39 13.06.2019
6440 Clouds 21 1016 68 10000 3.6 120 12:21 13.06.2019
6441 Clear 21 1016 68 10000 3.6 120 11:44 13.06.2019
6442 Clear 21 1016 68 10000 3.6 120 11:25 13.06.2019
6443 Clouds 21 1016 68 10000 3.6 100 10:49 13.06.2019
6444 Clouds 21 1016 68 10000 3.6 90 10:29 13.06.2019
6445 Clouds 21 1016 64 10000 3.6 80 09:53 13.06.2019
6446 Clouds 20 1016 60 10000 2.1 50 09:31 13.06.2019
6447 Clouds 18 1015 64 10000 2.6 40 08:57 13.06.2019
6448 Clouds 18 1015 64 10000 2.6 40 08:56 13.06.2019
6449 Clouds 17 1015 64 10000 2.6 40 08:38 13.06.2019
6450 Clouds 17 1015 64 10000 2.6 40 08:19 13.06.2019
6451 Clouds 16 1015 52 10000 2.1 350 07:39 13.06.2019
6452 Clouds 14 1015 52 10000 2.1 350 07:21 13.06.2019
6453 Clouds 12 1014 51 10000 2.6 10 06:40 13.06.2019
6454 Clouds 11 1014 51 10000 2.6 10 06:22 13.06.2019
6455 Clear 12 1013 51 10000 5.1 340 05:44 13.06.2019
6456 Clear 12 1013 51 10000 5.1 340 05:26 13.06.2019
6457 Clear 13 1013 55 10000 4.1 330 03:50 13.06.2019
6458 Clear 14 1014 63 10000 3.1 330 02:20 13.06.2019
6459 Clear 13 1014 68 10000 2.6 320 00:36 13.06.2019
6460 Clear 16 1013 72 10000 4.6 70 23:38 12.06.2019
6461 Clear 17 1013 72 10000 4.6 70 23:20 12.06.2019
6462 Clear 16 1013 77 10000 4.6 90 22:41 12.06.2019
6463 Clear 16 1013 77 10000 4.6 90 22:22 12.06.2019
6464 Clouds 16 1012 73 10000 5.7 110 21:47 12.06.2019
6465 Clouds 20 1012 68 10000 5.1 110 21:29 12.06.2019
6466 Clouds 21 1012 68 10000 5.1 100 20:49 12.06.2019
6467 Clouds 22 1012 64 10000 4.1 100 20:31 12.06.2019
6468 Clouds 21 1012 64 10000 3.1 90 19:59 12.06.2019
6469 Clouds 21 1012 64 10000 3.6 190 19:41 12.06.2019
6470 Clouds 21 1012 64 10000 3.6 190 19:22 12.06.2019
6471 Clouds 21 1012 68 10000 5.7 200 18:51 12.06.2019
6472 Clouds 22 1012 64 10000 5.1 190 18:29 12.06.2019
6473 Clouds 22 1012 64 10000 5.1 190 18:29 12.06.2019
6474 Clouds 22 1012 60 10000 5.7 200 17:58 12.06.2019
6475 Clouds 22 1012 60 10000 5.1 200 17:40 12.06.2019
6476 Clouds 22 1012 60 10000 5.1 200 17:19 12.06.2019
6477 Clouds 22 1011 60 10000 5.1 200 16:42 12.06.2019
6478 Clouds 22 1011 60 10000 5.1 200 16:23 12.06.2019
6479 Clouds 22 1011 60 10000 4.6 200 15:48 12.06.2019
6480 Clouds 22 1011 64 10000 5.7 200 15:29 12.06.2019
6481 Clouds 22 1011 64 10000 6.7 200 14:45 12.06.2019
6482 Clouds 22 1011 64 10000 7.2 200 14:26 12.06.2019
6483 Clouds 22 1011 64 10000 6.7 190 13:43 12.06.2019
6484 Clouds 22 1011 64 10000 6.7 200 13:42 12.06.2019
6485 Clouds 22 1011 64 10000 6.7 190 13:20 12.06.2019
6486 -273 0 0 0 0 0 12:56 12.06.2019
6487 Clouds 21 1011 64 10000 6.2 200 12:38 12.06.2019
6488 Clouds 21 1011 64 10000 6.2 200 12:19 12.06.2019
6489 Clouds 21 1011 64 10000 6.2 200 12:19 12.06.2019
6490 Clouds 21 1011 64 10000 5.1 190 11:46 12.06.2019
6491 Clouds 21 1010 64 10000 5.1 190 11:27 12.06.2019
6492 Clouds 20 1010 64 10000 4.6 200 10:51 12.06.2019
6493 Clouds 20 1010 68 10000 3.6 190 10:26 12.06.2019
6494 Clouds 20 1010 72 10000 2.6 160 09:45 12.06.2019
6495 Clouds 19 1010 68 10000 1.5 0 09:23 12.06.2019
6496 Clouds 18 1010 68 10000 1.5 180 08:56 12.06.2019
6497 Clouds 18 1010 68 10000 1.5 180 08:56 12.06.2019
6498 Clouds 17 1009 72 10000 1.5 0 08:23 12.06.2019
6499 Clouds 17 1009 77 10000 2.1 260 07:48 12.06.2019
6500 Clouds 15 1009 77 10000 1.5 300 06:54 12.06.2019
6501 Clouds 15 1009 77 10000 1.5 300 06:54 12.06.2019
6502 Clear 16 1009 82 10000 3.1 270 05:37 12.06.2019
6503 Clear 16 1009 82 10000 3.1 270 05:19 12.06.2019
6504 Clear 16 1009 88 10000 3.6 250 02:18 12.06.2019
6505 Clouds 16 1009 88 10000 2.1 270 00:40 12.06.2019
6506 Clouds 18 1009 88 10000 0.5 250 23:52 11.06.2019
6507 Clear 18 1009 88 10000 1 160 23:33 11.06.2019
6508 Clear 18 1009 88 10000 1 230 22:44 11.06.2019
6509 Clear 19 1009 88 10000 2.1 260 22:23 11.06.2019
6510 Clouds 19 1009 88 10000 0.38 36.229 21:58 11.06.2019
6511 Clouds 19 1009 88 10000 1.5 0 21:40 11.06.2019
6512 Clouds 19 1009 88 10000 1.5 0 21:21 11.06.2019
6513 Clouds 19 1009 88 10000 1.5 160 20:50 11.06.2019
6514 Clouds 19 1009 88 10000 1.5 170 20:27 11.06.2019
6515 Clouds 20 1009 83 10000 2.1 170 19:58 11.06.2019
6516 Clouds 20 1009 83 10000 3.6 170 19:39 11.06.2019
6517 Clouds 20 1009 83 10000 3.6 170 19:39 11.06.2019
6518 Clouds 20 1009 83 10000 3.6 170 19:18 11.06.2019
6519 Clouds 20 1009 83 10000 2.1 170 18:40 11.06.2019
6520 Clouds 21 1009 83 10000 2.1 170 18:18 11.06.2019
6521 Clouds 21 1009 77 10000 1.5 180 17:41 11.06.2019
6522 Clouds 21 1009 77 10000 1.5 180 17:19 11.06.2019
6523 Clouds 21 1010 83 10000 2.6 190 16:42 11.06.2019
6524 Clouds 20 1010 83 10000 1.5 0 16:23 11.06.2019
6525 Clouds 20 1010 83 10000 1.5 0 16:23 11.06.2019
6526 Clouds 20 1010 83 10000 3.1 150 15:43 11.06.2019
6527 Clouds 20 1010 83 10000 3.1 150 15:43 11.06.2019
6528 Clouds 20 1010 83 10000 3.1 140 15:25 11.06.2019
6529 Clouds 21 1010 78 10000 3.1 150 14:54 11.06.2019
6530 Clouds 22 1010 78 10000 4.1 140 14:23 11.06.2019
6531 Clouds 22 1009 78 10000 2.6 140 13:58 11.06.2019
6532 Clouds 23 1009 78 10000 2.1 140 13:37 11.06.2019
6533 Clouds 22 1009 78 10000 2.1 140 13:19 11.06.2019
6534 Clouds 22 1010 78 10000 3.1 130 12:41 11.06.2019
6535 Clouds 21 1010 78 10000 3.1 130 12:21 11.06.2019
6536 Clouds 21 1010 78 10000 2.6 130 11:49 11.06.2019
6537 Clouds 21 1010 78 10000 2.1 120 11:31 11.06.2019
6538 Clouds 21 1010 83 9000 1.5 120 10:50 11.06.2019
6539 Clouds 20 1010 83 9000 1 0 10:27 11.06.2019
6540 Clouds 20 1010 83 9000 2.6 130 09:51 11.06.2019
6541 Clouds 19 1009 73 9000 2.6 90 09:26 11.06.2019
6542 Clouds 18 1009 82 10000 1.5 150 08:58 11.06.2019
6543 Clouds 18 1009 72 10000 1.5 60 08:40 11.06.2019
6544 Clouds 17 1009 72 10000 1.5 60 08:19 11.06.2019
6545 Clouds 17 1009 88 10000 5.1 60 07:33 11.06.2019
6546 Clouds 17 1008 59 10000 2.6 360 06:53 11.06.2019
6547 Clouds 16 1008 77 10000 4.1 320 05:21 11.06.2019
6548 Clouds 17 1009 93 10000 3.1 320 04:38 11.06.2019
6549 Clouds 16 1009 94 10000 0.5 0 02:27 11.06.2019
6550 Clouds 17 1009 94 10000 1.5 160 00:52 11.06.2019
6551 Clouds 18 1009 94 10000 4.1 130 00:31 11.06.2019
6552 Clouds 19 1009 88 10000 1.5 110 23:46 10.06.2019
6553 Clouds 19 1009 94 10000 2.1 30 23:21 10.06.2019
6554 Clouds 19 1008 94 8000 1.5 0 22:45 10.06.2019
6555 Clouds 19 1008 94 8000 2.1 100 22:27 10.06.2019
6556 Clouds 19 1008 94 10000 4.1 140 21:56 10.06.2019
6557 Clouds 18 1007 94 10000 5.7 50 21:38 10.06.2019
6558 Clouds 19 1007 94 10000 5.7 50 21:20 10.06.2019
6559 Drizzle 20 1008 88 10000 3.1 140 20:42 10.06.2019
6560 Drizzle 20 1008 88 10000 3.1 140 20:21 10.06.2019
6561 Clouds 20 1008 83 10000 2.6 80 19:46 10.06.2019
6562 Clouds 20 1008 83 10000 1 0 19:23 10.06.2019
6563 Clouds 21 1008 83 10000 1 0 18:58 10.06.2019
6564 Clouds 21 1009 78 10000 2.6 130 18:39 10.06.2019
6565 Clouds 22 1009 78 10000 2.6 130 18:20 10.06.2019
6566 Clouds 23 1008 78 10000 2.1 290 17:44 10.06.2019
6567 Clouds 23 1009 78 8000 2.6 180 17:24 10.06.2019
6568 Clouds 23 1009 69 10000 2.1 80 16:55 10.06.2019
6569 Clouds 24 1008 61 10000 7.2 100 16:37 10.06.2019
6570 Clouds 24 1008 61 10000 7.2 100 16:18 10.06.2019
6571 Clouds 25 1007 65 10000 6.7 90 15:41 10.06.2019
6572 Clouds 26 1007 65 10000 6.7 90 15:23 10.06.2019
6573 Clouds 25 1007 69 10000 8.7 90 14:46 10.06.2019
6574 Clouds 26 1007 69 10000 8.7 90 14:28 10.06.2019
6575 Clouds 27 1007 61 10000 7.2 80 13:56 10.06.2019
6576 Clouds 27 1008 54 10000 6.7 70 13:38 10.06.2019
6577 Clouds 27 1008 54 10000 6.7 70 13:19 10.06.2019
6578 Clouds 26 1009 54 10000 3.1 10 12:40 10.06.2019
6579 Rain 26 1009 54 10000 3.1 10 12:22 10.06.2019
6580 Rain 25 1008 61 10000 4.1 70 11:43 10.06.2019
6581 Rain 25 1009 53 10000 1.5 110 11:19 10.06.2019
6582 Rain 25 1009 53 10000 1.5 110 11:19 10.06.2019
6583 Clouds 27 1009 42 10000 1 0 10:42 10.06.2019
6584 Clouds 26 1009 42 10000 1 0 10:20 10.06.2019
6585 Clear 25 1009 54 10000 2.6 90 09:55 10.06.2019
6586 Clear 23 1009 44 10000 2.6 340 09:32 10.06.2019
6587 Clear 22 1010 53 10000 2.1 60 08:50 10.06.2019
6588 Clear 23 1010 53 10000 3.1 350 08:27 10.06.2019
6589 Clear 22 1010 56 10000 2.6 340 07:59 10.06.2019
6590 Clear 18 1010 56 10000 3.6 330 06:33 10.06.2019
6591 Clear 19 1012 60 10000 3.6 340 03:59 10.06.2019
6592 Clear 18 1013 68 10000 3.1 310 01:57 10.06.2019
6593 Clear 19 1013 60 10000 2.6 320 01:23 10.06.2019
6594 Clear 19 1013 60 10000 1.5 0 00:48 10.06.2019
6595 Clear 21 1013 64 10000 2.1 240 23:59 09.06.2019
6596 Clear 21 1013 64 10000 2.1 290 23:40 09.06.2019
6597 Clear 22 1013 64 10000 2.1 290 23:18 09.06.2019
6598 Clear 20 1014 64 10000 3.1 30 22:42 09.06.2019
6599 Clear 20 1014 64 10000 3.1 30 22:24 09.06.2019
6600 Clear 20 1014 64 10000 7.2 100 21:41 09.06.2019
6601 Clear 24 1014 64 10000 7.2 100 21:22 09.06.2019
6602 Clear 24 1014 57 10000 7.2 90 20:42 09.06.2019
6603 Clear 24 1013 57 10000 7.7 90 20:23 09.06.2019
6604 Clear 25 1013 61 10000 6.7 90 19:46 09.06.2019
6605 Clear 25 1014 57 10000 7.2 90 19:19 09.06.2019
6606 Clear 26 1014 57 10000 7.2 90 18:58 09.06.2019
6607 Clear 25 1014 57 10000 5.1 60 18:40 09.06.2019
6608 Clear 25 1014 57 10000 5.1 60 18:22 09.06.2019
6609 Clear 26 1014 64 10000 4.1 70 17:46 09.06.2019
6610 Clear 26 1015 54 10000 7.2 90 17:27 09.06.2019
6611 Clear 26 1015 57 10000 6.2 90 16:54 09.06.2019
6612 Clear 26 1015 57 10000 6.2 90 16:54 09.06.2019
6613 Clear 26 1015 54 10000 8.7 90 16:36 09.06.2019
6614 Clear 25 1015 54 10000 8.7 90 16:18 09.06.2019
6615 Clear 24 1015 47 10000 10.3 80 15:44 09.06.2019
6616 Clear 27 1016 51 10000 7.7 100 15:24 09.06.2019
6617 Clouds 26 1016 54 10000 7.7 80 14:45 09.06.2019
6618 Thunderstorm 25 1017 53 10000 4.6 60 14:22 09.06.2019
6619 Clear 25 1016 61 10000 6.2 110 13:52 09.06.2019
6620 Clear 27 1016 61 10000 5.1 110 13:26 09.06.2019
6621 Rain 27 1017 50 10000 2.1 60 12:42 09.06.2019
6622 Rain 25 1017 50 10000 2.1 60 12:24 09.06.2019
6623 Clear 24 1018 69 10000 5.1 90 11:40 09.06.2019
6624 Clear 24 1018 69 10000 5.1 90 11:22 09.06.2019
6625 Clear 24 1018 64 10000 3.1 120 10:46 09.06.2019
6626 Clear 24 1018 60 10000 3.6 60 10:23 09.06.2019
6627 Clear 24 1018 60 10000 3.6 60 10:23 09.06.2019
6628 Clear 22 1018 56 10000 2.6 360 09:41 09.06.2019
6629 Clear 23 1018 56 10000 2.6 360 09:41 09.06.2019
6630 Clear 23 1018 56 10000 2.6 360 09:41 09.06.2019
6631 Clear 22 1018 56 10000 2.6 360 09:41 09.06.2019
6632 Clear 22 1018 56 10000 2.6 360 09:22 09.06.2019
6633 Clear 21 1018 56 10000 3.1 350 08:47 09.06.2019
6634 Clear 21 1018 56 10000 3.1 350 08:47 09.06.2019
6635 Clouds 20 1019 64 10000 4.1 10 08:28 09.06.2019
6636 Thunderstorm 18 1019 77 10000 3.1 350 07:27 09.06.2019
6637 Clouds 16 1020 77 10000 2.1 320 06:30 09.06.2019
6638 Rain 18 1020 82 10000 3.6 10 04:59 09.06.2019
6639 Clear 16 1021 88 10000 3.6 90 01:46 09.06.2019
6640 Clear 17 1021 88 10000 4.1 100 01:22 09.06.2019
6641 Clear 17 1021 88 10000 4.1 100 01:21 09.06.2019
6642 Clear 16 1021 82 10000 2.1 110 00:59 09.06.2019
6643 Clear 16 1021 77 10000 1.5 330 00:19 09.06.2019
6644 Clear 17 1021 82 10000 1 330 23:38 08.06.2019
6645 Clear 17 1021 82 10000 1 330 23:20 08.06.2019
6646 Clear 16 1021 88 10000 2.1 120 22:43 08.06.2019
6647 Clear 16 1021 88 10000 2.1 120 22:25 08.06.2019
6648 Clear 16 1021 82 10000 1 110 21:52 08.06.2019
6649 Clouds 19 1021 82 10000 1.5 100 21:29 08.06.2019
6650 Clear 20 1021 82 10000 2.6 110 20:59 08.06.2019
6651 Clear 20 1021 83 10000 3.1 120 20:40 08.06.2019
6652 Clear 21 1021 83 10000 3.1 120 20:20 08.06.2019
6653 Clear 21 1021 83 10000 3.6 110 19:41 08.06.2019
6654 Clear 21 1021 83 10000 3.1 100 19:22 08.06.2019
6655 Clouds 21 1021 78 10000 3.6 110 18:58 08.06.2019
6656 Clouds 21 1021 73 10000 3.6 110 18:38 08.06.2019
6657 Clouds 23 1021 73 10000 3.6 110 18:18 08.06.2019
6658 Clouds 23 1021 78 10000 3.1 100 17:41 08.06.2019
6659 Clouds 23 1021 73 10000 3.1 100 17:18 08.06.2019
6660 Clouds 23 1021 78 10000 3.1 100 16:44 08.06.2019
6661 Clouds 23 1021 78 10000 3.1 100 16:44 08.06.2019
6662 Clouds 23 1021 68 10000 2.1 130 16:20 08.06.2019
6663 Clouds 23 1021 73 10000 2.1 160 15:39 08.06.2019
6664 Clouds 23 1021 73 10000 1.5 150 14:58 08.06.2019
6665 Clouds 23 1021 73 10000 2.6 120 14:40 08.06.2019
6666 Clouds 23 1021 73 10000 2.6 120 14:21 08.06.2019